<?xml version='1.0' encoding='UTF-8'?><gpx version="1.1" creator="JPX - https://github.com/jenetics/jpx" xmlns="http://www.topografix.com/GPX/1/1"><trk><trkseg><trkpt lat="43.84215987566108" lon="11.18358331693131"><ele>49.0</ele><time>2026-04-19T07:43:04.001Z</time></trkpt><trkpt lat="43.84211770530243" lon="11.183338413022343"><ele>49.0</ele><time>2026-04-19T07:43:12.001Z</time></trkpt><trkpt lat="43.8421755404265" lon="11.183284864995134"><ele>49.0</ele><time>2026-04-19T07:43:15Z</time></trkpt><trkpt lat="43.84215375553634" lon="11.183198138538296"><ele>49.0</ele><time>2026-04-19T07:43:17Z</time></trkpt><trkpt lat="43.84209334525501" lon="11.183094917041949"><ele>49.0</ele><time>2026-04-19T07:43:19Z</time></trkpt><trkpt lat="43.841962868594166" lon="11.183034559426801"><ele>49.166666666666664</ele><time>2026-04-19T07:43:20Z</time></trkpt><trkpt lat="43.8418896886823" lon="11.18298416032409"><ele>49.33333333333333</ele><time>2026-04-19T07:43:21Z</time></trkpt><trkpt lat="43.84183881061646" lon="11.182932023268336"><ele>49.5</ele><time>2026-04-19T07:43:22Z</time></trkpt><trkpt lat="43.84175103795194" lon="11.182863463252318"><ele>49.66666666666667</ele><time>2026-04-19T07:43:24Z</time></trkpt><trkpt lat="43.84169450742061" lon="11.182817655260099"><ele>49.833333333333336</ele><time>2026-04-19T07:43:25Z</time></trkpt><trkpt lat="43.84163947537366" lon="11.182769879545697"><ele>50.0</ele><time>2026-04-19T07:43:26Z</time></trkpt><trkpt lat="43.84157304204429" lon="11.182694264831854"><ele>49.66666666666667</ele><time>2026-04-19T07:43:28Z</time></trkpt><trkpt lat="43.841500288997366" lon="11.182634911502058"><ele>49.333333333333336</ele><time>2026-04-19T07:43:30Z</time></trkpt><trkpt lat="43.84141001057918" lon="11.18256288513175"><ele>49.0</ele><time>2026-04-19T07:43:31.999Z</time></trkpt><trkpt lat="43.84134803871659" lon="11.182524002643078"><ele>48.66666666666667</ele><time>2026-04-19T07:43:32.999Z</time></trkpt><trkpt lat="43.8412827407185" lon="11.18247456452811"><ele>48.333333333333336</ele><time>2026-04-19T07:43:33.999Z</time></trkpt><trkpt lat="43.841232788037644" lon="11.18241988417908"><ele>48.0</ele><time>2026-04-19T07:43:34.999Z</time></trkpt><trkpt lat="43.841171944752425" lon="11.182364510205895"><ele>47.833333333333336</ele><time>2026-04-19T07:43:35.999Z</time></trkpt><trkpt lat="43.8411041916364" lon="11.182295672671382"><ele>47.666666666666664</ele><time>2026-04-19T07:43:36.999Z</time></trkpt><trkpt lat="43.84103168378793" lon="11.182212223809913"><ele>47.5</ele><time>2026-04-19T07:43:37.999Z</time></trkpt><trkpt lat="43.84096044634187" lon="11.182176523439505"><ele>47.33333333333333</ele><time>2026-04-19T07:43:38.999Z</time></trkpt><trkpt lat="43.840913591457635" lon="11.182109167621482"><ele>47.166666666666664</ele><time>2026-04-19T07:43:39.999Z</time></trkpt><trkpt lat="43.840854399974226" lon="11.182075927545531"><ele>47.0</ele><time>2026-04-19T07:43:40.999Z</time></trkpt><trkpt lat="43.8407948241459" lon="11.18202915285574"><ele>47.0</ele><time>2026-04-19T07:43:41.999Z</time></trkpt><trkpt lat="43.840732927604364" lon="11.181977145894914"><ele>47.0</ele><time>2026-04-19T07:43:42.999Z</time></trkpt><trkpt lat="43.84063734754774" lon="11.18192291881554"><ele>47.0</ele><time>2026-04-19T07:43:44.999Z</time></trkpt><trkpt lat="43.84058548158808" lon="11.181855433954677"><ele>47.0</ele><time>2026-04-19T07:43:46.999Z</time></trkpt><trkpt lat="43.84045077999068" lon="11.181980251835588"><ele>47.0</ele><time>2026-04-19T07:43:48.999Z</time></trkpt><trkpt lat="43.8404083575041" lon="11.182066874992614"><ele>47.0</ele><time>2026-04-19T07:43:49.999Z</time></trkpt><trkpt lat="43.840342702260415" lon="11.182165665752613"><ele>47.0</ele><time>2026-04-19T07:43:50.999Z</time></trkpt><trkpt lat="43.84028676980172" lon="11.182282792091945"><ele>47.0</ele><time>2026-04-19T07:43:51.999Z</time></trkpt><trkpt lat="43.84022925888393" lon="11.18238975598348"><ele>47.0</ele><time>2026-04-19T07:43:52.999Z</time></trkpt><trkpt lat="43.840164359913324" lon="11.182494731154788"><ele>47.0</ele><time>2026-04-19T07:43:53.999Z</time></trkpt><trkpt lat="43.84010020412591" lon="11.182605540238601"><ele>47.0</ele><time>2026-04-19T07:43:54.999Z</time></trkpt><trkpt lat="43.840035155306445" lon="11.18268913315726"><ele>47.0</ele><time>2026-04-19T07:43:55.999Z</time></trkpt><trkpt lat="43.8399870957269" lon="11.182768766215766"><ele>47.0</ele><time>2026-04-19T07:43:56.999Z</time></trkpt><trkpt lat="43.839943959984545" lon="11.182840283147268"><ele>47.0</ele><time>2026-04-19T07:43:57.999Z</time></trkpt><trkpt lat="43.83986555938607" lon="11.182996754540216"><ele>47.0</ele><time>2026-04-19T07:43:59.999Z</time></trkpt><trkpt lat="43.83980917341219" lon="11.183084341359747"><ele>47.0</ele><time>2026-04-19T07:44:00.999Z</time></trkpt><trkpt lat="43.83974898156393" lon="11.183180219868275"><ele>47.0</ele><time>2026-04-19T07:44:01.999Z</time></trkpt><trkpt lat="43.839691154224134" lon="11.183273332175734"><ele>47.0</ele><time>2026-04-19T07:44:02.999Z</time></trkpt><trkpt lat="43.83963269070795" lon="11.183358434961166"><ele>47.0</ele><time>2026-04-19T07:44:03.999Z</time></trkpt><trkpt lat="43.83957059905564" lon="11.183460302745022"><ele>47.0</ele><time>2026-04-19T07:44:04.999Z</time></trkpt><trkpt lat="43.83950549297351" lon="11.183553480104544"><ele>47.0</ele><time>2026-04-19T07:44:05.999Z</time></trkpt><trkpt lat="43.83944107430776" lon="11.183650734471072"><ele>47.0</ele><time>2026-04-19T07:44:06.999Z</time></trkpt><trkpt lat="43.83938466602445" lon="11.183740517038107"><ele>47.0</ele><time>2026-04-19T07:44:07.999Z</time></trkpt><trkpt lat="43.839334917859986" lon="11.183815838654606"><ele>47.0</ele><time>2026-04-19T07:44:08.999Z</time></trkpt><trkpt lat="43.83927840953" lon="11.183891730009313"><ele>47.0</ele><time>2026-04-19T07:44:09.999Z</time></trkpt><trkpt lat="43.839196743751515" lon="11.184005524411107"><ele>47.0</ele><time>2026-04-19T07:44:11.999Z</time></trkpt><trkpt lat="43.839147075777284" lon="11.184089245155693"><ele>47.25</ele><time>2026-04-19T07:44:12.999Z</time></trkpt><trkpt lat="43.83908161496546" lon="11.18420055553626"><ele>47.5</ele><time>2026-04-19T07:44:13.999Z</time></trkpt><trkpt lat="43.839007009882614" lon="11.184324119201248"><ele>47.75</ele><time>2026-04-19T07:44:14.999Z</time></trkpt><trkpt lat="43.83892535234486" lon="11.184456106719162"><ele>48.0</ele><time>2026-04-19T07:44:15.999Z</time></trkpt><trkpt lat="43.8388401268649" lon="11.18459436359642"><ele>48.0</ele><time>2026-04-19T07:44:16.999Z</time></trkpt><trkpt lat="43.838748580332165" lon="11.184739773498219"><ele>48.0</ele><time>2026-04-19T07:44:17.999Z</time></trkpt><trkpt lat="43.83865595633171" lon="11.184884415709107"><ele>48.0</ele><time>2026-04-19T07:44:18.999Z</time></trkpt><trkpt lat="43.83857540460531" lon="11.18501564911552"><ele>48.0</ele><time>2026-04-19T07:44:19.999Z</time></trkpt><trkpt lat="43.83850146312515" lon="11.18513180141091"><ele>48.2</ele><time>2026-04-19T07:44:20.999Z</time></trkpt><trkpt lat="43.8384432139023" lon="11.185240032142122"><ele>48.4</ele><time>2026-04-19T07:44:21.999Z</time></trkpt><trkpt lat="43.8383811321368" lon="11.18532950676875"><ele>48.6</ele><time>2026-04-19T07:44:22.999Z</time></trkpt><trkpt lat="43.83832471912637" lon="11.18541003059338"><ele>48.800000000000004</ele><time>2026-04-19T07:44:23.999Z</time></trkpt><trkpt lat="43.838293311261836" lon="11.185489562242676"><ele>49.0</ele><time>2026-04-19T07:44:24.999Z</time></trkpt><trkpt lat="43.83825840724111" lon="11.185650259890517"><ele>49.6</ele><time>2026-04-19T07:44:26.999Z</time></trkpt><trkpt lat="43.83830180110571" lon="11.185739782262166"><ele>50.2</ele><time>2026-04-19T07:44:27.999Z</time></trkpt><trkpt lat="43.83837657826969" lon="11.185728691077538"><ele>50.800000000000004</ele><time>2026-04-19T07:44:28.999Z</time></trkpt><trkpt lat="43.83844401238686" lon="11.185795964256824"><ele>51.400000000000006</ele><time>2026-04-19T07:44:29.999Z</time></trkpt><trkpt lat="43.83856340622789" lon="11.1859367284736"><ele>52.0</ele><time>2026-04-19T07:44:30.999Z</time></trkpt><trkpt lat="43.83869346931081" lon="11.186043779208223"><ele>52.2</ele><time>2026-04-19T07:44:31.999Z</time></trkpt><trkpt lat="43.83881675081904" lon="11.18613327111349"><ele>52.400000000000006</ele><time>2026-04-19T07:44:32.999Z</time></trkpt><trkpt lat="43.838904374319064" lon="11.186225595930777"><ele>52.599999999999994</ele><time>2026-04-19T07:44:33.999Z</time></trkpt><trkpt lat="43.83898114150473" lon="11.186303085759203"><ele>52.8</ele><time>2026-04-19T07:44:34.998Z</time></trkpt><trkpt lat="43.83904975169646" lon="11.186359964819308"><ele>53.0</ele><time>2026-04-19T07:44:35.998Z</time></trkpt><trkpt lat="43.83910946027373" lon="11.186431238052624"><ele>53.0</ele><time>2026-04-19T07:44:36.998Z</time></trkpt><trkpt lat="43.83917462008239" lon="11.186507774155816"><ele>53.0</ele><time>2026-04-19T07:44:37.998Z</time></trkpt><trkpt lat="43.83916695317462" lon="11.186647471864593"><ele>53.0</ele><time>2026-04-19T07:44:38.998Z</time></trkpt><trkpt lat="43.83917658897998" lon="11.186791921491386"><ele>53.0</ele><time>2026-04-19T07:44:39.998Z</time></trkpt><trkpt lat="43.83920563660628" lon="11.186955354844422"><ele>53.0</ele><time>2026-04-19T07:44:40.998Z</time></trkpt><trkpt lat="43.83921977300679" lon="11.187077643428301"><ele>52.66666666666667</ele><time>2026-04-19T07:44:41.999Z</time></trkpt><trkpt lat="43.83928812819675" lon="11.187315587035716"><ele>52.33333333333333</ele><time>2026-04-19T07:44:42.999Z</time></trkpt><trkpt lat="43.83934349774904" lon="11.187533182761419"><ele>52.0</ele><time>2026-04-19T07:44:43.999Z</time></trkpt><trkpt lat="43.83940060167626" lon="11.187692848002545"><ele>52.0</ele><time>2026-04-19T07:44:44.999Z</time></trkpt><trkpt lat="43.839449238269296" lon="11.187846277847843"><ele>52.0</ele><time>2026-04-19T07:44:45.999Z</time></trkpt><trkpt lat="43.839482373664055" lon="11.18802091526903"><ele>52.0</ele><time>2026-04-19T07:44:46.999Z</time></trkpt><trkpt lat="43.83948831242282" lon="11.188207086545901"><ele>52.0</ele><time>2026-04-19T07:44:47.999Z</time></trkpt><trkpt lat="43.839535302292724" lon="11.188368613461956"><ele>52.5</ele><time>2026-04-19T07:44:48.999Z</time></trkpt><trkpt lat="43.83958770279706" lon="11.18850997167767"><ele>53.0</ele><time>2026-04-19T07:44:49.999Z</time></trkpt><trkpt lat="43.83963189527248" lon="11.188658906931057"><ele>53.5</ele><time>2026-04-19T07:44:50.999Z</time></trkpt><trkpt lat="43.83967840619664" lon="11.188803452289257"><ele>54.0</ele><time>2026-04-19T07:44:51.999Z</time></trkpt><trkpt lat="43.839713836022646" lon="11.188940712431384"><ele>54.333333333333336</ele><time>2026-04-19T07:44:52.999Z</time></trkpt><trkpt lat="43.83974136346587" lon="11.189059821598049"><ele>54.66666666666667</ele><time>2026-04-19T07:44:53.999Z</time></trkpt><trkpt lat="43.839768317426376" lon="11.18916970503977"><ele>55.0</ele><time>2026-04-19T07:44:54.999Z</time></trkpt><trkpt lat="43.83979090873038" lon="11.189284278435288"><ele>55.333333333333336</ele><time>2026-04-19T07:44:55.999Z</time></trkpt><trkpt lat="43.83979278475066" lon="11.189392545220507"><ele>55.66666666666667</ele><time>2026-04-19T07:44:56.999Z</time></trkpt><trkpt lat="43.83978148904599" lon="11.189484412918826"><ele>56.0</ele><time>2026-04-19T07:44:57.999Z</time></trkpt><trkpt lat="43.839764946705884" lon="11.189577967038842"><ele>56.00000000000001</ele><time>2026-04-19T07:44:58.999Z</time></trkpt><trkpt lat="43.83974516899789" lon="11.189683404366296"><ele>56.0</ele><time>2026-04-19T07:44:59.999Z</time></trkpt><trkpt lat="43.839744680798304" lon="11.189808400043017"><ele>56.0</ele><time>2026-04-19T07:45:00.999Z</time></trkpt><trkpt lat="43.839780721086335" lon="11.189909820082674"><ele>56.0</ele><time>2026-04-19T07:45:01.999Z</time></trkpt><trkpt lat="43.839843725365384" lon="11.189989287230159"><ele>56.00000000000001</ele><time>2026-04-19T07:45:02.999Z</time></trkpt><trkpt lat="43.83992095508583" lon="11.190060463771463"><ele>56.0</ele><time>2026-04-19T07:45:03.999Z</time></trkpt><trkpt lat="43.83998567279078" lon="11.190151466011907"><ele>56.199999999999996</ele><time>2026-04-19T07:45:04.999Z</time></trkpt><trkpt lat="43.84003037528793" lon="11.190271955787658"><ele>56.39999999999999</ele><time>2026-04-19T07:45:05.999Z</time></trkpt><trkpt lat="43.840067217457424" lon="11.190403003463025"><ele>56.6</ele><time>2026-04-19T07:45:06.999Z</time></trkpt><trkpt lat="43.84007892335816" lon="11.190509818527646"><ele>56.8</ele><time>2026-04-19T07:45:07.999Z</time></trkpt><trkpt lat="43.840112167334325" lon="11.190623557529324"><ele>57.0</ele><time>2026-04-19T07:45:08.999Z</time></trkpt><trkpt lat="43.840148338242805" lon="11.19075585303757"><ele>57.0</ele><time>2026-04-19T07:45:09.999Z</time></trkpt><trkpt lat="43.84018026236075" lon="11.19088944952988"><ele>57.0</ele><time>2026-04-19T07:45:10.999Z</time></trkpt><trkpt lat="43.840215267850866" lon="11.19103023332104"><ele>57.0</ele><time>2026-04-19T07:45:11.999Z</time></trkpt><trkpt lat="43.84025962601" lon="11.191177747176926"><ele>57.0</ele><time>2026-04-19T07:45:12.999Z</time></trkpt><trkpt lat="43.84029352754703" lon="11.191333089059869"><ele>57.0</ele><time>2026-04-19T07:45:13.999Z</time></trkpt><trkpt lat="43.84033167712334" lon="11.191486018159098"><ele>57.25</ele><time>2026-04-19T07:45:14.999Z</time></trkpt><trkpt lat="43.840379828766665" lon="11.19164864327"><ele>57.5</ele><time>2026-04-19T07:45:15.999Z</time></trkpt><trkpt lat="43.84044217499238" lon="11.191834567266598"><ele>57.75</ele><time>2026-04-19T07:45:16.999Z</time></trkpt><trkpt lat="43.84050219614707" lon="11.192020439293891"><ele>58.0</ele><time>2026-04-19T07:45:17.999Z</time></trkpt><trkpt lat="43.840562472633785" lon="11.192231923907466"><ele>59.0</ele><time>2026-04-19T07:45:18.999Z</time></trkpt><trkpt lat="43.84061915129137" lon="11.192417293674778"><ele>60.0</ele><time>2026-04-19T07:45:19.999Z</time></trkpt><trkpt lat="43.84068349982067" lon="11.192589295543181"><ele>61.0</ele><time>2026-04-19T07:45:20.999Z</time></trkpt><trkpt lat="43.84071750804664" lon="11.192778689538232"><ele>62.0</ele><time>2026-04-19T07:45:21.999Z</time></trkpt><trkpt lat="43.84075376643267" lon="11.192948825137174"><ele>62.0</ele><time>2026-04-19T07:45:22.999Z</time></trkpt><trkpt lat="43.8407817071889" lon="11.19313318260148"><ele>62.0</ele><time>2026-04-19T07:45:23.999Z</time></trkpt><trkpt lat="43.840784149852425" lon="11.193318199467063"><ele>62.0</ele><time>2026-04-19T07:45:24.999Z</time></trkpt><trkpt lat="43.840781150460764" lon="11.193502500975606"><ele>62.0</ele><time>2026-04-19T07:45:25.999Z</time></trkpt><trkpt lat="43.84077682870992" lon="11.193673984769463"><ele>62.2</ele><time>2026-04-19T07:45:26.999Z</time></trkpt><trkpt lat="43.84077316065172" lon="11.193819414412124"><ele>62.400000000000006</ele><time>2026-04-19T07:45:27.999Z</time></trkpt><trkpt lat="43.84076771644473" lon="11.193931350780268"><ele>62.599999999999994</ele><time>2026-04-19T07:45:28.999Z</time></trkpt><trkpt lat="43.84076632977965" lon="11.194034686589653"><ele>62.8</ele><time>2026-04-19T07:45:29.999Z</time></trkpt><trkpt lat="43.840727860293164" lon="11.194149146376425"><ele>63.0</ele><time>2026-04-19T07:45:30.999Z</time></trkpt><trkpt lat="43.84076775648088" lon="11.19428306697147"><ele>63.25</ele><time>2026-04-19T07:45:31.999Z</time></trkpt><trkpt lat="43.840777108259815" lon="11.19444371271899"><ele>63.5</ele><time>2026-04-19T07:45:32.999Z</time></trkpt><trkpt lat="43.84077082492441" lon="11.19461612050615"><ele>63.75</ele><time>2026-04-19T07:45:33.999Z</time></trkpt><trkpt lat="43.8407813755289" lon="11.194802788992078"><ele>64.0</ele><time>2026-04-19T07:45:34.999Z</time></trkpt><trkpt lat="43.84081819687197" lon="11.195007917430011"><ele>64.25</ele><time>2026-04-19T07:45:35.999Z</time></trkpt><trkpt lat="43.84083321781142" lon="11.195215921348886"><ele>64.5</ele><time>2026-04-19T07:45:36.999Z</time></trkpt><trkpt lat="43.84086788155912" lon="11.19540166182"><ele>64.75</ele><time>2026-04-19T07:45:37.999Z</time></trkpt><trkpt lat="43.840889094182785" lon="11.195574112960543"><ele>65.0</ele><time>2026-04-19T07:45:38.999Z</time></trkpt><trkpt lat="43.84092134437572" lon="11.195751944149766"><ele>65.0</ele><time>2026-04-19T07:45:39.999Z</time></trkpt><trkpt lat="43.8409501761074" lon="11.195929045007372"><ele>65.0</ele><time>2026-04-19T07:45:40.999Z</time></trkpt><trkpt lat="43.84097828212526" lon="11.196100481691108"><ele>65.0</ele><time>2026-04-19T07:45:41.999Z</time></trkpt><trkpt lat="43.84099786069439" lon="11.196276063019836"><ele>65.0</ele><time>2026-04-19T07:45:42.999Z</time></trkpt><trkpt lat="43.84101629047118" lon="11.19645722743861"><ele>65.75</ele><time>2026-04-19T07:45:43.999Z</time></trkpt><trkpt lat="43.841036983293804" lon="11.196639072216048"><ele>66.5</ele><time>2026-04-19T07:45:44.999Z</time></trkpt><trkpt lat="43.84105454724643" lon="11.196811216155426"><ele>67.25</ele><time>2026-04-19T07:45:45.999Z</time></trkpt><trkpt lat="43.84107141942681" lon="11.19698647202869"><ele>68.0</ele><time>2026-04-19T07:45:46.999Z</time></trkpt><trkpt lat="43.841082478747246" lon="11.197155175701125"><ele>68.0</ele><time>2026-04-19T07:45:47.999Z</time></trkpt><trkpt lat="43.84108993865646" lon="11.197304862758957"><ele>68.0</ele><time>2026-04-19T07:45:48.999Z</time></trkpt><trkpt lat="43.841094625550504" lon="11.197441447401221"><ele>68.0</ele><time>2026-04-19T07:45:49.999Z</time></trkpt><trkpt lat="43.841104788482056" lon="11.197564562523594"><ele>68.0</ele><time>2026-04-19T07:45:50.999Z</time></trkpt><trkpt lat="43.841117169432096" lon="11.197675154458162"><ele>68.0</ele><time>2026-04-19T07:45:51.999Z</time></trkpt><trkpt lat="43.84113145900983" lon="11.197774124175266"><ele>68.33333333333334</ele><time>2026-04-19T07:45:52.999Z</time></trkpt><trkpt lat="43.84114059014638" lon="11.197882812889448"><ele>68.66666666666667</ele><time>2026-04-19T07:45:53.999Z</time></trkpt><trkpt lat="43.841129318331994" lon="11.198005666821915"><ele>69.0</ele><time>2026-04-19T07:45:54.999Z</time></trkpt><trkpt lat="43.84113557911764" lon="11.198136185747655"><ele>69.33333333333333</ele><time>2026-04-19T07:45:55.999Z</time></trkpt><trkpt lat="43.841168695224574" lon="11.198260645456394"><ele>69.66666666666666</ele><time>2026-04-19T07:45:56.999Z</time></trkpt><trkpt lat="43.84117453410252" lon="11.19838051806004"><ele>70.0</ele><time>2026-04-19T07:45:57.999Z</time></trkpt><trkpt lat="43.841168527037986" lon="11.198494493057957"><ele>70.0</ele><time>2026-04-19T07:45:58.999Z</time></trkpt><trkpt lat="43.841112904318976" lon="11.19856863982542"><ele>70.0</ele><time>2026-04-19T07:45:59.999Z</time></trkpt><trkpt lat="43.84107227452323" lon="11.198671461704782"><ele>70.0</ele><time>2026-04-19T07:46:00.999Z</time></trkpt><trkpt lat="43.84102083741121" lon="11.198793661304062"><ele>70.0</ele><time>2026-04-19T07:46:01.999Z</time></trkpt><trkpt lat="43.84096184747773" lon="11.198933808159094"><ele>70.0</ele><time>2026-04-19T07:46:02.999Z</time></trkpt><trkpt lat="43.840899847820616" lon="11.199077290248258"><ele>70.5</ele><time>2026-04-19T07:46:03.999Z</time></trkpt><trkpt lat="43.84083663280795" lon="11.199218944657485"><ele>71.0</ele><time>2026-04-19T07:46:04.999Z</time></trkpt><trkpt lat="43.840779565462555" lon="11.199376238339786"><ele>71.5</ele><time>2026-04-19T07:46:05.999Z</time></trkpt><trkpt lat="43.84071109327334" lon="11.199512081785866"><ele>72.0</ele><time>2026-04-19T07:46:06.999Z</time></trkpt><trkpt lat="43.8406410989372" lon="11.19965883844483"><ele>72.0</ele><time>2026-04-19T07:46:07.999Z</time></trkpt><trkpt lat="43.8405697940435" lon="11.19981146414339"><ele>72.0</ele><time>2026-04-19T07:46:08.999Z</time></trkpt><trkpt lat="43.84049142037735" lon="11.199961443443444"><ele>72.0</ele><time>2026-04-19T07:46:09.999Z</time></trkpt><trkpt lat="43.840417959866976" lon="11.200116438671765"><ele>72.0</ele><time>2026-04-19T07:46:10.999Z</time></trkpt><trkpt lat="43.84034558709119" lon="11.200265564015888"><ele>72.5</ele><time>2026-04-19T07:46:11.999Z</time></trkpt><trkpt lat="43.84026850865522" lon="11.200424302340108"><ele>73.0</ele><time>2026-04-19T07:46:12.999Z</time></trkpt><trkpt lat="43.840188834125904" lon="11.20057989635665"><ele>73.5</ele><time>2026-04-19T07:46:13.999Z</time></trkpt><trkpt lat="43.840102743647265" lon="11.200747901047693"><ele>74.0</ele><time>2026-04-19T07:46:14.999Z</time></trkpt><trkpt lat="43.840012768148966" lon="11.200932224583191"><ele>74.5</ele><time>2026-04-19T07:46:15.999Z</time></trkpt><trkpt lat="43.83992421296768" lon="11.20111426940338"><ele>75.0</ele><time>2026-04-19T07:46:16.999Z</time></trkpt><trkpt lat="43.839841336677864" lon="11.201273288433136"><ele>75.5</ele><time>2026-04-19T07:46:17.999Z</time></trkpt><trkpt lat="43.839760732045264" lon="11.201444486309844"><ele>76.0</ele><time>2026-04-19T07:46:18.999Z</time></trkpt><trkpt lat="43.839678897550165" lon="11.20161924835672"><ele>76.33333333333333</ele><time>2026-04-19T07:46:19.999Z</time></trkpt><trkpt lat="43.83959089258999" lon="11.201800351072524"><ele>76.66666666666667</ele><time>2026-04-19T07:46:20.999Z</time></trkpt><trkpt lat="43.83949688669887" lon="11.201978331146504"><ele>77.0</ele><time>2026-04-19T07:46:21.999Z</time></trkpt><trkpt lat="43.83940863250595" lon="11.20216051489673"><ele>77.33333333333334</ele><time>2026-04-19T07:46:22.999Z</time></trkpt><trkpt lat="43.83932595929905" lon="11.202346336459673"><ele>77.66666666666667</ele><time>2026-04-19T07:46:23.999Z</time></trkpt><trkpt lat="43.839255432396406" lon="11.202525754889582"><ele>78.0</ele><time>2026-04-19T07:46:24.999Z</time></trkpt><trkpt lat="43.83919963351182" lon="11.202713341830059"><ele>78.0</ele><time>2026-04-19T07:46:25.999Z</time></trkpt><trkpt lat="43.839145369356395" lon="11.2029015338935"><ele>78.0</ele><time>2026-04-19T07:46:26.999Z</time></trkpt><trkpt lat="43.83908932924458" lon="11.203090525595593"><ele>78.0</ele><time>2026-04-19T07:46:27.999Z</time></trkpt><trkpt lat="43.83903557075633" lon="11.20327352486297"><ele>78.0</ele><time>2026-04-19T07:46:28.999Z</time></trkpt><trkpt lat="43.83897346843558" lon="11.2034503707637"><ele>78.5</ele><time>2026-04-19T07:46:29.999Z</time></trkpt><trkpt lat="43.8389024493602" lon="11.203630565480092"><ele>79.0</ele><time>2026-04-19T07:46:30.999Z</time></trkpt><trkpt lat="43.83883048874075" lon="11.20381400077635"><ele>79.5</ele><time>2026-04-19T07:46:31.999Z</time></trkpt><trkpt lat="43.83874683827975" lon="11.20397814874831"><ele>80.0</ele><time>2026-04-19T07:46:32.999Z</time></trkpt><trkpt lat="43.83866098307494" lon="11.204147305444954"><ele>80.33333333333334</ele><time>2026-04-19T07:46:33.999Z</time></trkpt><trkpt lat="43.83857193715733" lon="11.20432423677178"><ele>80.66666666666667</ele><time>2026-04-19T07:46:34.999Z</time></trkpt><trkpt lat="43.83848346372617" lon="11.204498778801874"><ele>81.0</ele><time>2026-04-19T07:46:35.999Z</time></trkpt><trkpt lat="43.838391896195844" lon="11.204664072254714"><ele>81.25</ele><time>2026-04-19T07:46:36.999Z</time></trkpt><trkpt lat="43.838307155262136" lon="11.20481339500751"><ele>81.5</ele><time>2026-04-19T07:46:37.999Z</time></trkpt><trkpt lat="43.838226665901786" lon="11.20494902405395"><ele>81.75</ele><time>2026-04-19T07:46:38.999Z</time></trkpt><trkpt lat="43.83815471678627" lon="11.205086931067472"><ele>82.0</ele><time>2026-04-19T07:46:39.999Z</time></trkpt><trkpt lat="43.838088780375216" lon="11.20522659475326"><ele>82.0</ele><time>2026-04-19T07:46:40.999Z</time></trkpt><trkpt lat="43.83802072446352" lon="11.205366665924394"><ele>82.0</ele><time>2026-04-19T07:46:41.999Z</time></trkpt><trkpt lat="43.83794867292499" lon="11.20550822987483"><ele>82.0</ele><time>2026-04-19T07:46:42.999Z</time></trkpt><trkpt lat="43.83788884396818" lon="11.205646020800147"><ele>82.0</ele><time>2026-04-19T07:46:43.999Z</time></trkpt><trkpt lat="43.837832405665175" lon="11.205778734150533"><ele>81.8</ele><time>2026-04-19T07:46:44.999Z</time></trkpt><trkpt lat="43.837776716104635" lon="11.205905635942463"><ele>81.6</ele><time>2026-04-19T07:46:45.999Z</time></trkpt><trkpt lat="43.837713828778405" lon="11.206012996493325"><ele>81.39999999999999</ele><time>2026-04-19T07:46:47Z</time></trkpt><trkpt lat="43.837648387682464" lon="11.206121442918601"><ele>81.19999999999999</ele><time>2026-04-19T07:46:48Z</time></trkpt><trkpt lat="43.83758547324964" lon="11.206223043025608"><ele>81.0</ele><time>2026-04-19T07:46:49Z</time></trkpt><trkpt lat="43.837525421213165" lon="11.206323689027407"><ele>80.83333333333333</ele><time>2026-04-19T07:46:50Z</time></trkpt><trkpt lat="43.83746281519134" lon="11.20640946883055"><ele>80.66666666666667</ele><time>2026-04-19T07:46:51Z</time></trkpt><trkpt lat="43.83738887877725" lon="11.20649183897868"><ele>80.5</ele><time>2026-04-19T07:46:52Z</time></trkpt><trkpt lat="43.8373075268332" lon="11.206566810260307"><ele>80.33333333333334</ele><time>2026-04-19T07:46:53Z</time></trkpt><trkpt lat="43.837228765617034" lon="11.206618399906525"><ele>80.16666666666667</ele><time>2026-04-19T07:46:54Z</time></trkpt><trkpt lat="43.837161311108055" lon="11.20666361273082"><ele>80.0</ele><time>2026-04-19T07:46:55Z</time></trkpt><trkpt lat="43.837121591488966" lon="11.206732152182928"><ele>80.0</ele><time>2026-04-19T07:46:56Z</time></trkpt><trkpt lat="43.83712639681382" lon="11.206893878146152"><ele>80.0</ele><time>2026-04-19T07:46:58Z</time></trkpt><trkpt lat="43.837212295821324" lon="11.206895153210501"><ele>80.0</ele><time>2026-04-19T07:47:00Z</time></trkpt><trkpt lat="43.83732031747092" lon="11.20680774206618"><ele>80.0</ele><time>2026-04-19T07:47:02Z</time></trkpt><trkpt lat="43.83738144228944" lon="11.2066856414198"><ele>80.0</ele><time>2026-04-19T07:47:03Z</time></trkpt><trkpt lat="43.83746468035886" lon="11.206542264096397"><ele>80.2</ele><time>2026-04-19T07:47:04Z</time></trkpt><trkpt lat="43.8375487306752" lon="11.206421987929874"><ele>80.4</ele><time>2026-04-19T07:47:05Z</time></trkpt><trkpt lat="43.83761743504664" lon="11.206300524823426"><ele>80.6</ele><time>2026-04-19T07:47:06Z</time></trkpt><trkpt lat="43.83767500310618" lon="11.206182607385061"><ele>80.8</ele><time>2026-04-19T07:47:07Z</time></trkpt><trkpt lat="43.83772292210549" lon="11.206087801396588"><ele>81.0</ele><time>2026-04-19T07:47:08Z</time></trkpt><trkpt lat="43.837768044765355" lon="11.20600388919587"><ele>81.0</ele><time>2026-04-19T07:47:09Z</time></trkpt><trkpt lat="43.83784460020458" lon="11.205885180852253"><ele>81.0</ele><time>2026-04-19T07:47:11Z</time></trkpt><trkpt lat="43.837921595272" lon="11.205844989923289"><ele>81.0</ele><time>2026-04-19T07:47:13Z</time></trkpt><trkpt lat="43.83801126031428" lon="11.205932322146582"><ele>81.0</ele><time>2026-04-19T07:47:14Z</time></trkpt><trkpt lat="43.83806943729382" lon="11.206001527833177"><ele>81.0</ele><time>2026-04-19T07:47:15Z</time></trkpt><trkpt lat="43.8381544973183" lon="11.206068508882387"><ele>81.0</ele><time>2026-04-19T07:47:16Z</time></trkpt><trkpt lat="43.838223970558005" lon="11.206182319804551"><ele>81.0</ele><time>2026-04-19T07:47:16.999Z</time></trkpt><trkpt lat="43.8382868397232" lon="11.20626425407426"><ele>81.0</ele><time>2026-04-19T07:47:17.999Z</time></trkpt><trkpt lat="43.8383752232007" lon="11.20637291705071"><ele>81.0</ele><time>2026-04-19T07:47:18.999Z</time></trkpt><trkpt lat="43.83845850666604" lon="11.206483585326989"><ele>81.0</ele><time>2026-04-19T07:47:19.999Z</time></trkpt><trkpt lat="43.838546546535525" lon="11.206623370749508"><ele>81.75</ele><time>2026-04-19T07:47:20.999Z</time></trkpt><trkpt lat="43.83862310727053" lon="11.206758168501565"><ele>82.5</ele><time>2026-04-19T07:47:21.999Z</time></trkpt><trkpt lat="43.83871262357024" lon="11.206914105560129"><ele>83.25</ele><time>2026-04-19T07:47:22.999Z</time></trkpt><trkpt lat="43.838779743146596" lon="11.20706547121659"><ele>84.0</ele><time>2026-04-19T07:47:23.999Z</time></trkpt><trkpt lat="43.83883814343334" lon="11.207169852303474"><ele>84.0</ele><time>2026-04-19T07:47:24.999Z</time></trkpt><trkpt lat="43.838880691923244" lon="11.207297928473757"><ele>84.0</ele><time>2026-04-19T07:47:25.999Z</time></trkpt><trkpt lat="43.83893471018961" lon="11.207408247267566"><ele>84.0</ele><time>2026-04-19T07:47:26.999Z</time></trkpt><trkpt lat="43.83897420504653" lon="11.207516648082805"><ele>84.0</ele><time>2026-04-19T07:47:27.999Z</time></trkpt><trkpt lat="43.839016234661045" lon="11.207618325544889"><ele>84.0</ele><time>2026-04-19T07:47:28.999Z</time></trkpt><trkpt lat="43.83905877791772" lon="11.207721298441166"><ele>84.5</ele><time>2026-04-19T07:47:29.999Z</time></trkpt><trkpt lat="43.83909441176917" lon="11.2078261176195"><ele>85.0</ele><time>2026-04-19T07:47:30.999Z</time></trkpt><trkpt lat="43.83912121163019" lon="11.207908467394182"><ele>85.5</ele><time>2026-04-19T07:47:31.999Z</time></trkpt><trkpt lat="43.83914042350607" lon="11.208014194668895"><ele>86.0</ele><time>2026-04-19T07:47:32.999Z</time></trkpt><trkpt lat="43.83915813268687" lon="11.208136514258744"><ele>86.5</ele><time>2026-04-19T07:47:33.999Z</time></trkpt><trkpt lat="43.83916318909469" lon="11.208274950490456"><ele>87.0</ele><time>2026-04-19T07:47:34.999Z</time></trkpt><trkpt lat="43.83918955781237" lon="11.208415542922218"><ele>87.25</ele><time>2026-04-19T07:47:35.999Z</time></trkpt><trkpt lat="43.83920557579941" lon="11.208570324850108"><ele>87.5</ele><time>2026-04-19T07:47:36.999Z</time></trkpt><trkpt lat="43.83919555797046" lon="11.20873408021511"><ele>87.75</ele><time>2026-04-19T07:47:37.999Z</time></trkpt><trkpt lat="43.83923141259861" lon="11.208912595990382"><ele>88.0</ele><time>2026-04-19T07:47:38.999Z</time></trkpt><trkpt lat="43.83925195260043" lon="11.209095988621073"><ele>88.5</ele><time>2026-04-19T07:47:39.999Z</time></trkpt><trkpt lat="43.83927027348141" lon="11.209288329755625"><ele>89.0</ele><time>2026-04-19T07:47:40.999Z</time></trkpt><trkpt lat="43.839295080812285" lon="11.20948040690019"><ele>89.5</ele><time>2026-04-19T07:47:41.999Z</time></trkpt><trkpt lat="43.83932174587982" lon="11.20968177521216"><ele>90.0</ele><time>2026-04-19T07:47:42.999Z</time></trkpt><trkpt lat="43.83934935989567" lon="11.209865173117722"><ele>91.25</ele><time>2026-04-19T07:47:43.999Z</time></trkpt><trkpt lat="43.83937283015474" lon="11.210026338797983"><ele>92.5</ele><time>2026-04-19T07:47:44.999Z</time></trkpt><trkpt lat="43.839394426412056" lon="11.210192142719592"><ele>93.75</ele><time>2026-04-19T07:47:45.999Z</time></trkpt><trkpt lat="43.839422871049045" lon="11.210347568173678"><ele>95.0</ele><time>2026-04-19T07:47:46.999Z</time></trkpt><trkpt lat="43.83944929012927" lon="11.21050456991566"><ele>95.0</ele><time>2026-04-19T07:47:47.999Z</time></trkpt><trkpt lat="43.83947021630365" lon="11.210653680756417"><ele>95.0</ele><time>2026-04-19T07:47:48.999Z</time></trkpt><trkpt lat="43.83948555288003" lon="11.210779421943506"><ele>95.0</ele><time>2026-04-19T07:47:49.999Z</time></trkpt><trkpt lat="43.83947925702964" lon="11.210907246335848"><ele>95.0</ele><time>2026-04-19T07:47:50.999Z</time></trkpt><trkpt lat="43.83946519266574" lon="11.211017676548392"><ele>95.0</ele><time>2026-04-19T07:47:51.999Z</time></trkpt><trkpt lat="43.83939470160509" lon="11.211116708093883"><ele>95.4</ele><time>2026-04-19T07:47:53.999Z</time></trkpt><trkpt lat="43.83952741185161" lon="11.211275978940487"><ele>95.8</ele><time>2026-04-19T07:47:54.999Z</time></trkpt><trkpt lat="43.8395942457145" lon="11.211350335807875"><ele>96.19999999999999</ele><time>2026-04-19T07:47:55.999Z</time></trkpt><trkpt lat="43.83966264799288" lon="11.211430240783322"><ele>96.6</ele><time>2026-04-19T07:47:56.999Z</time></trkpt><trkpt lat="43.839727280743" lon="11.211509773294647"><ele>97.0</ele><time>2026-04-19T07:47:57.999Z</time></trkpt><trkpt lat="43.839779521727436" lon="11.211571159253797"><ele>97.6</ele><time>2026-04-19T07:47:58.999Z</time></trkpt><trkpt lat="43.839854145312" lon="11.211654856712373"><ele>98.19999999999999</ele><time>2026-04-19T07:48:00.999Z</time></trkpt><trkpt lat="43.83995961921788" lon="11.211764954305766"><ele>98.8</ele><time>2026-04-19T07:48:02.999Z</time></trkpt><trkpt lat="43.84001635332604" lon="11.211807641053191"><ele>99.4</ele><time>2026-04-19T07:48:03.999Z</time></trkpt><trkpt lat="43.840103318366" lon="11.211911312794204"><ele>100.0</ele><time>2026-04-19T07:48:05.999Z</time></trkpt><trkpt lat="43.84011893437059" lon="11.21208258632462"><ele>100.00000000000001</ele><time>2026-04-19T07:48:07.999Z</time></trkpt><trkpt lat="43.840125363273266" lon="11.212179324450183"><ele>100.0</ele><time>2026-04-19T07:48:08.999Z</time></trkpt><trkpt lat="43.840128475107576" lon="11.212282078939628"><ele>100.0</ele><time>2026-04-19T07:48:09.999Z</time></trkpt><trkpt lat="43.84012446073311" lon="11.212392125551617"><ele>100.0</ele><time>2026-04-19T07:48:10.999Z</time></trkpt><trkpt lat="43.840112681546486" lon="11.212490413747172"><ele>100.00000000000001</ele><time>2026-04-19T07:48:11.999Z</time></trkpt><trkpt lat="43.84007525003808" lon="11.212658389071496"><ele>100.0</ele><time>2026-04-19T07:48:13.999Z</time></trkpt><trkpt lat="43.840056447789294" lon="11.212746254146273"><ele>100.50000000000001</ele><time>2026-04-19T07:48:14.999Z</time></trkpt><trkpt lat="43.84004035974118" lon="11.212838786977914"><ele>101.0</ele><time>2026-04-19T07:48:15.999Z</time></trkpt><trkpt lat="43.84004797955829" lon="11.21293938633356"><ele>101.5</ele><time>2026-04-19T07:48:16.999Z</time></trkpt><trkpt lat="43.84012269838054" lon="11.213031211673735"><ele>102.0</ele><time>2026-04-19T07:48:17.999Z</time></trkpt><trkpt lat="43.84019926154537" lon="11.213109521852221"><ele>102.50000000000001</ele><time>2026-04-19T07:48:18.999Z</time></trkpt><trkpt lat="43.84027011250812" lon="11.213176312813738"><ele>103.0</ele><time>2026-04-19T07:48:19.999Z</time></trkpt><trkpt lat="43.84034369013378" lon="11.213264101510228"><ele>104.4</ele><time>2026-04-19T07:48:20.999Z</time></trkpt><trkpt lat="43.840408762096835" lon="11.213339631635643"><ele>105.80000000000001</ele><time>2026-04-19T07:48:21.999Z</time></trkpt><trkpt lat="43.840470496950836" lon="11.213414372792279"><ele>107.2</ele><time>2026-04-19T07:48:22.999Z</time></trkpt><trkpt lat="43.840515672430115" lon="11.213476728139241"><ele>108.6</ele><time>2026-04-19T07:48:23.999Z</time></trkpt><trkpt lat="43.8406185436617" lon="11.21356524872893"><ele>110.0</ele><time>2026-04-19T07:48:25.999Z</time></trkpt><trkpt lat="43.84074437502934" lon="11.213590348225296"><ele>110.0</ele><time>2026-04-19T07:48:27.999Z</time></trkpt><trkpt lat="43.84088001615947" lon="11.213577568190335"><ele>110.0</ele><time>2026-04-19T07:48:29.999Z</time></trkpt><trkpt lat="43.84098062800793" lon="11.213599003873869"><ele>110.0</ele><time>2026-04-19T07:48:30.999Z</time></trkpt><trkpt lat="43.841098970339196" lon="11.213629415992779"><ele>110.0</ele><time>2026-04-19T07:48:31.999Z</time></trkpt><trkpt lat="43.84121379732306" lon="11.213658999128368"><ele>111.5</ele><time>2026-04-19T07:48:32.999Z</time></trkpt><trkpt lat="43.84134139407145" lon="11.213705028289187"><ele>113.0</ele><time>2026-04-19T07:48:33.999Z</time></trkpt><trkpt lat="43.8414803095111" lon="11.213758149491007"><ele>114.5</ele><time>2026-04-19T07:48:34.999Z</time></trkpt><trkpt lat="43.841627490004846" lon="11.213812012262876"><ele>116.0</ele><time>2026-04-19T07:48:35.999Z</time></trkpt><trkpt lat="43.8417827702428" lon="11.213871908615419"><ele>117.0</ele><time>2026-04-19T07:48:36.999Z</time></trkpt><trkpt lat="43.84194396076156" lon="11.21392572877658"><ele>118.0</ele><time>2026-04-19T07:48:37.999Z</time></trkpt><trkpt lat="43.84210595722182" lon="11.213982655358047"><ele>119.0</ele><time>2026-04-19T07:48:38.999Z</time></trkpt><trkpt lat="43.842254582864776" lon="11.214029517764741"><ele>120.25</ele><time>2026-04-19T07:48:39.999Z</time></trkpt><trkpt lat="43.84240532228132" lon="11.214046703004485"><ele>121.5</ele><time>2026-04-19T07:48:40.999Z</time></trkpt><trkpt lat="43.84255152081945" lon="11.214043447558693"><ele>122.75</ele><time>2026-04-19T07:48:41.999Z</time></trkpt><trkpt lat="43.842696957593866" lon="11.214010705109006"><ele>124.0</ele><time>2026-04-19T07:48:42.999Z</time></trkpt><trkpt lat="43.84283685740876" lon="11.213948704846155"><ele>124.0</ele><time>2026-04-19T07:48:43.999Z</time></trkpt><trkpt lat="43.842974799295924" lon="11.213845893133321"><ele>124.0</ele><time>2026-04-19T07:48:44.999Z</time></trkpt><trkpt lat="43.84309810914613" lon="11.213720684826187"><ele>124.0</ele><time>2026-04-19T07:48:45.999Z</time></trkpt><trkpt lat="43.843216106406004" lon="11.213615252673373"><ele>124.0</ele><time>2026-04-19T07:48:46.999Z</time></trkpt><trkpt lat="43.84333880970535" lon="11.213527041209955"><ele>124.0</ele><time>2026-04-19T07:48:47.999Z</time></trkpt><trkpt lat="43.84346509927527" lon="11.213441635447486"><ele>124.0</ele><time>2026-04-19T07:48:48.999Z</time></trkpt><trkpt lat="43.84360693987812" lon="11.213370231632183"><ele>124.0</ele><time>2026-04-19T07:48:49.999Z</time></trkpt><trkpt lat="43.84375362572365" lon="11.213305137105486"><ele>126.33333333333334</ele><time>2026-04-19T07:48:50.999Z</time></trkpt><trkpt lat="43.843922787159016" lon="11.21332804774385"><ele>128.66666666666666</ele><time>2026-04-19T07:48:51.999Z</time></trkpt><trkpt lat="43.84408836722636" lon="11.213318496983247"><ele>131.0</ele><time>2026-04-19T07:48:53Z</time></trkpt><trkpt lat="43.84423471130599" lon="11.213309863319514"><ele>131.66666666666666</ele><time>2026-04-19T07:48:54Z</time></trkpt><trkpt lat="43.844387330512575" lon="11.213286815218735"><ele>132.33333333333334</ele><time>2026-04-19T07:48:55Z</time></trkpt><trkpt lat="43.84453721246168" lon="11.213311431281326"><ele>133.0</ele><time>2026-04-19T07:48:56Z</time></trkpt><trkpt lat="43.844680182971565" lon="11.213395665944313"><ele>133.0</ele><time>2026-04-19T07:48:57Z</time></trkpt><trkpt lat="43.84484206190729" lon="11.213455642902872"><ele>133.0</ele><time>2026-04-19T07:48:58Z</time></trkpt><trkpt lat="43.84498729059163" lon="11.213507904663494"><ele>133.0</ele><time>2026-04-19T07:48:59Z</time></trkpt><trkpt lat="43.845147326417795" lon="11.213527105447014"><ele>134.0</ele><time>2026-04-19T07:49:00Z</time></trkpt><trkpt lat="43.8452948051874" lon="11.213517405266753"><ele>135.0</ele><time>2026-04-19T07:49:01Z</time></trkpt><trkpt lat="43.8454452746258" lon="11.213497564887872"><ele>136.0</ele><time>2026-04-19T07:49:02Z</time></trkpt><trkpt lat="43.845590735751735" lon="11.213479377423356"><ele>137.0</ele><time>2026-04-19T07:49:03Z</time></trkpt><trkpt lat="43.84572617632003" lon="11.21346569412922"><ele>137.0</ele><time>2026-04-19T07:49:04Z</time></trkpt><trkpt lat="43.84585635803084" lon="11.213466902100723"><ele>137.0</ele><time>2026-04-19T07:49:05Z</time></trkpt><trkpt lat="43.845991944325846" lon="11.213492339183166"><ele>137.0</ele><time>2026-04-19T07:49:06Z</time></trkpt><trkpt lat="43.84614721918985" lon="11.213538185586408"><ele>137.0</ele><time>2026-04-19T07:49:07Z</time></trkpt><trkpt lat="43.84631881384948" lon="11.213588243033056"><ele>136.33333333333331</ele><time>2026-04-19T07:49:08Z</time></trkpt><trkpt lat="43.846508142377196" lon="11.213642689020071"><ele>135.66666666666666</ele><time>2026-04-19T07:49:09Z</time></trkpt><trkpt lat="43.84671028403142" lon="11.213700819774134"><ele>135.0</ele><time>2026-04-19T07:49:10Z</time></trkpt><trkpt lat="43.84691828163801" lon="11.213760634567915"><ele>134.66666666666666</ele><time>2026-04-19T07:49:11Z</time></trkpt><trkpt lat="43.84711843137999" lon="11.213818192526334"><ele>134.33333333333331</ele><time>2026-04-19T07:49:12Z</time></trkpt><trkpt lat="43.84731943062905" lon="11.213877693405474"><ele>134.0</ele><time>2026-04-19T07:49:13Z</time></trkpt><trkpt lat="43.84751788111229" lon="11.213921792492759"><ele>139.0</ele><time>2026-04-19T07:49:14Z</time></trkpt><trkpt lat="43.84769449127086" lon="11.213991646025525"><ele>144.0</ele><time>2026-04-19T07:49:15Z</time></trkpt><trkpt lat="43.84786920329989" lon="11.214072676267106"><ele>149.0</ele><time>2026-04-19T07:49:16Z</time></trkpt><trkpt lat="43.84803339077597" lon="11.21416256413354"><ele>149.0</ele><time>2026-04-19T07:49:17Z</time></trkpt><trkpt lat="43.84819134867526" lon="11.214259285400882"><ele>149.0</ele><time>2026-04-19T07:49:18Z</time></trkpt><trkpt lat="43.848340502889876" lon="11.214377547942211"><ele>149.0</ele><time>2026-04-19T07:49:19Z</time></trkpt><trkpt lat="43.848472668981195" lon="11.21452480120909"><ele>148.0</ele><time>2026-04-19T07:49:20Z</time></trkpt><trkpt lat="43.848629490001976" lon="11.214606272748675"><ele>147.0</ele><time>2026-04-19T07:49:21Z</time></trkpt><trkpt lat="43.8487805582424" lon="11.214704892436954"><ele>146.0</ele><time>2026-04-19T07:49:22Z</time></trkpt><trkpt lat="43.84895183879621" lon="11.214736617252283"><ele>146.0</ele><time>2026-04-19T07:49:23Z</time></trkpt><trkpt lat="43.84913203759946" lon="11.214759988739718"><ele>146.0</ele><time>2026-04-19T07:49:24Z</time></trkpt><trkpt lat="43.84932476448791" lon="11.21477766015902"><ele>146.0</ele><time>2026-04-19T07:49:25Z</time></trkpt><trkpt lat="43.84952973319021" lon="11.21477773916478"><ele>146.0</ele><time>2026-04-19T07:49:26Z</time></trkpt><trkpt lat="43.8497414662982" lon="11.214804619412279"><ele>146.0</ele><time>2026-04-19T07:49:27Z</time></trkpt><trkpt lat="43.84996944165802" lon="11.214833670450378"><ele>146.0</ele><time>2026-04-19T07:49:28Z</time></trkpt><trkpt lat="43.85020539585737" lon="11.214861284478596"><ele>148.33333333333331</ele><time>2026-04-19T07:49:29Z</time></trkpt><trkpt lat="43.85043005870662" lon="11.21487866839625"><ele>150.66666666666666</ele><time>2026-04-19T07:49:30Z</time></trkpt><trkpt lat="43.85064815321032" lon="11.21489757069537"><ele>153.0</ele><time>2026-04-19T07:49:31Z</time></trkpt><trkpt lat="43.85086210033861" lon="11.21491977759327"><ele>155.33333333333334</ele><time>2026-04-19T07:49:32Z</time></trkpt><trkpt lat="43.85106611762611" lon="11.214958244702126"><ele>157.66666666666669</ele><time>2026-04-19T07:49:33Z</time></trkpt><trkpt lat="43.851270249777045" lon="11.214980705521219"><ele>160.0</ele><time>2026-04-19T07:49:34Z</time></trkpt><trkpt lat="43.85146815187923" lon="11.21498545937062"><ele>160.0</ele><time>2026-04-19T07:49:35Z</time></trkpt><trkpt lat="43.8516409895262" lon="11.215004653557921"><ele>160.0</ele><time>2026-04-19T07:49:35.999Z</time></trkpt><trkpt lat="43.85180564655548" lon="11.215023146141775"><ele>160.0</ele><time>2026-04-19T07:49:36.999Z</time></trkpt><trkpt lat="43.85196521656346" lon="11.215046359233616"><ele>163.5</ele><time>2026-04-19T07:49:37.999Z</time></trkpt><trkpt lat="43.85211768777281" lon="11.215072050862442"><ele>167.0</ele><time>2026-04-19T07:49:38.999Z</time></trkpt><trkpt lat="43.85226719818625" lon="11.21505877586693"><ele>170.5</ele><time>2026-04-19T07:49:39.999Z</time></trkpt><trkpt lat="43.85240896896701" lon="11.215052130050509"><ele>174.0</ele><time>2026-04-19T07:49:40.999Z</time></trkpt><trkpt lat="43.852554603562695" lon="11.215020880281145"><ele>178.0</ele><time>2026-04-19T07:49:41.999Z</time></trkpt><trkpt lat="43.85269987543527" lon="11.214971171127601"><ele>182.0</ele><time>2026-04-19T07:49:42.999Z</time></trkpt><trkpt lat="43.85285155713993" lon="11.214924744477386"><ele>186.0</ele><time>2026-04-19T07:49:43.999Z</time></trkpt><trkpt lat="43.85299720145681" lon="11.214872551077608"><ele>187.75</ele><time>2026-04-19T07:49:44.999Z</time></trkpt><trkpt lat="43.853139023571806" lon="11.214811438105038"><ele>189.5</ele><time>2026-04-19T07:49:45.999Z</time></trkpt><trkpt lat="43.853276879990936" lon="11.214756309343533"><ele>191.25</ele><time>2026-04-19T07:49:46.999Z</time></trkpt><trkpt lat="43.85340385958272" lon="11.214694960449284"><ele>193.0</ele><time>2026-04-19T07:49:47.999Z</time></trkpt><trkpt lat="43.85352491804696" lon="11.214646873695605"><ele>196.4</ele><time>2026-04-19T07:49:48.999Z</time></trkpt><trkpt lat="43.85363831716842" lon="11.21460574871773"><ele>199.8</ele><time>2026-04-19T07:49:49.999Z</time></trkpt><trkpt lat="43.85374108197855" lon="11.214550741753978"><ele>203.2</ele><time>2026-04-19T07:49:50.999Z</time></trkpt><trkpt lat="43.85384336190658" lon="11.214521606695723"><ele>206.6</ele><time>2026-04-19T07:49:51.999Z</time></trkpt><trkpt lat="43.85394067604682" lon="11.214482210924785"><ele>210.0</ele><time>2026-04-19T07:49:52.999Z</time></trkpt><trkpt lat="43.85402916600784" lon="11.214411793522842"><ele>210.0</ele><time>2026-04-19T07:49:53.999Z</time></trkpt><trkpt lat="43.85406945566568" lon="11.214293291534123"><ele>210.0</ele><time>2026-04-19T07:49:54.999Z</time></trkpt><trkpt lat="43.85414934756829" lon="11.21415780756339"><ele>210.0</ele><time>2026-04-19T07:49:56.999Z</time></trkpt><trkpt lat="43.85422972847399" lon="11.214101927815461"><ele>210.0</ele><time>2026-04-19T07:49:57.999Z</time></trkpt><trkpt lat="43.85434316016301" lon="11.214181690954298"><ele>210.0</ele><time>2026-04-19T07:49:58.999Z</time></trkpt><trkpt lat="43.85419590081509" lon="11.214442954224998"><ele>210.0</ele><time>2026-04-19T07:49:59.999Z</time></trkpt><trkpt lat="43.854218537993425" lon="11.214536282352785"><ele>210.0</ele><time>2026-04-19T07:50:01.999Z</time></trkpt><trkpt lat="43.85431216860522" lon="11.214666884421527"><ele>210.0</ele><time>2026-04-19T07:50:02.999Z</time></trkpt><trkpt lat="43.85435738540907" lon="11.214779221106053"><ele>210.0</ele><time>2026-04-19T07:50:03.999Z</time></trkpt><trkpt lat="43.8543621047939" lon="11.21487188892008"><ele>210.0</ele><time>2026-04-19T07:50:04.999Z</time></trkpt><trkpt lat="43.8543613989707" lon="11.215127517175695"><ele>220.33333333333331</ele><time>2026-04-19T07:50:06.999Z</time></trkpt><trkpt lat="43.85438115882551" lon="11.215344689467935"><ele>230.66666666666666</ele><time>2026-04-19T07:50:07.999Z</time></trkpt><trkpt lat="43.85443742701733" lon="11.215593367435716"><ele>241.0</ele><time>2026-04-19T07:50:08.999Z</time></trkpt><trkpt lat="43.854483818260604" lon="11.215758715523737"><ele>241.75</ele><time>2026-04-19T07:50:09.999Z</time></trkpt><trkpt lat="43.85451690636534" lon="11.215866679660502"><ele>242.5</ele><time>2026-04-19T07:50:10.999Z</time></trkpt><trkpt lat="43.854613764414246" lon="11.216059961793178"><ele>243.25</ele><time>2026-04-19T07:50:13.999Z</time></trkpt><trkpt lat="43.85469174819886" lon="11.216199259929121"><ele>244.0</ele><time>2026-04-19T07:50:15.999Z</time></trkpt><trkpt lat="43.85478945267725" lon="11.216374128540442"><ele>244.0</ele><time>2026-04-19T07:50:17.999Z</time></trkpt><trkpt lat="43.85483319632767" lon="11.216454069251126"><ele>243.99999999999997</ele><time>2026-04-19T07:50:18.999Z</time></trkpt><trkpt lat="43.85489528519936" lon="11.216567535628549"><ele>243.99999999999997</ele><time>2026-04-19T07:50:20.999Z</time></trkpt><trkpt lat="43.854996460969886" lon="11.216611651686996"><ele>244.0</ele><time>2026-04-19T07:50:21.999Z</time></trkpt><trkpt lat="43.85512610588499" lon="11.216619227281855"><ele>244.0</ele><time>2026-04-19T07:50:23.999Z</time></trkpt><trkpt lat="43.85524790154832" lon="11.216529171724728"><ele>250.75</ele><time>2026-04-19T07:50:25.038Z</time></trkpt><trkpt lat="43.855319748325435" lon="11.216562771111375"><ele>257.5</ele><time>2026-04-19T07:50:26.039Z</time></trkpt><trkpt lat="43.85538122680362" lon="11.216592776727916"><ele>264.25</ele><time>2026-04-19T07:50:27.035Z</time></trkpt><trkpt lat="43.855531622919266" lon="11.216617555126309"><ele>271.0</ele><time>2026-04-19T07:50:29.035Z</time></trkpt><trkpt lat="43.8558805171469" lon="11.21614799033601"><ele>273.3333333333333</ele><time>2026-04-19T07:50:30.033Z</time></trkpt><trkpt lat="43.85600582522569" lon="11.216069290396957"><ele>275.6666666666667</ele><time>2026-04-19T07:50:31.028Z</time></trkpt><trkpt lat="43.856127921248415" lon="11.216011011096342"><ele>278.0</ele><time>2026-04-19T07:50:32.028Z</time></trkpt><trkpt lat="43.856048215974475" lon="11.214744098596714"><ele>278.0</ele><time>2026-04-19T07:50:38.027Z</time></trkpt><trkpt lat="43.85600454697462" lon="11.214567737935628"><ele>278.0</ele><time>2026-04-19T07:50:39.028Z</time></trkpt><trkpt lat="43.85596163776808" lon="11.214380636182723"><ele>278.0</ele><time>2026-04-19T07:50:40.027Z</time></trkpt><trkpt lat="43.85598067358245" lon="11.214259208050112"><ele>278.0</ele><time>2026-04-19T07:50:41.027Z</time></trkpt><trkpt lat="43.85581099802571" lon="11.213998947517078"><ele>273.25</ele><time>2026-04-19T07:50:42.028Z</time></trkpt><trkpt lat="43.855731173580494" lon="11.213845060560734"><ele>268.5</ele><time>2026-04-19T07:50:43.023Z</time></trkpt><trkpt lat="43.85570723451128" lon="11.213619252440376"><ele>263.75</ele><time>2026-04-19T07:50:44.026Z</time></trkpt><trkpt lat="43.855777843087665" lon="11.213545552042866"><ele>259.0</ele><time>2026-04-19T07:50:46.028Z</time></trkpt><trkpt lat="43.8558862408" lon="11.213705208969772"><ele>263.75</ele><time>2026-04-19T07:50:48.026Z</time></trkpt><trkpt lat="43.85597456193097" lon="11.213933848041323"><ele>268.5</ele><time>2026-04-19T07:50:49.026Z</time></trkpt><trkpt lat="43.856067799213655" lon="11.214006284558188"><ele>273.25</ele><time>2026-04-19T07:50:50.026Z</time></trkpt><trkpt lat="43.85617528422054" lon="11.214093032319841"><ele>278.0</ele><time>2026-04-19T07:50:51.026Z</time></trkpt><trkpt lat="43.85629441113097" lon="11.214199494558237"><ele>278.0</ele><time>2026-04-19T07:50:52.025Z</time></trkpt><trkpt lat="43.856420509257" lon="11.214260511191767"><ele>278.0</ele><time>2026-04-19T07:50:53.025Z</time></trkpt><trkpt lat="43.856539536472006" lon="11.214264069556533"><ele>278.0</ele><time>2026-04-19T07:50:55.028Z</time></trkpt><trkpt lat="43.85665422625943" lon="11.214216562264749"><ele>278.0</ele><time>2026-04-19T07:50:57.027Z</time></trkpt><trkpt lat="43.856648948743555" lon="11.21409718377445"><ele>278.0</ele><time>2026-04-19T07:50:59.025Z</time></trkpt><trkpt lat="43.856557828558" lon="11.213997325062078"><ele>278.0</ele><time>2026-04-19T07:51:01.029Z</time></trkpt><trkpt lat="43.8564741995963" lon="11.21391708650138"><ele>278.0</ele><time>2026-04-19T07:51:02.029Z</time></trkpt><trkpt lat="43.856381706221676" lon="11.213834002829168"><ele>278.0</ele><time>2026-04-19T07:51:03.028Z</time></trkpt><trkpt lat="43.85621964426194" lon="11.213535440768887"><ele>279.25</ele><time>2026-04-19T07:51:04.999Z</time></trkpt><trkpt lat="43.85642516291895" lon="11.213603504049559"><ele>280.5</ele><time>2026-04-19T07:51:05.999Z</time></trkpt><trkpt lat="43.85655569219486" lon="11.213710747851596"><ele>281.75</ele><time>2026-04-19T07:51:07.999Z</time></trkpt><trkpt lat="43.85660483697707" lon="11.213781667072729"><ele>283.0</ele><time>2026-04-19T07:51:08.999Z</time></trkpt><trkpt lat="43.856679673958546" lon="11.21389566330312"><ele>282.0</ele><time>2026-04-19T07:51:09.999Z</time></trkpt><trkpt lat="43.856756037798434" lon="11.214027401487826"><ele>281.0</ele><time>2026-04-19T07:51:11Z</time></trkpt><trkpt lat="43.856820666997784" lon="11.21413825082411"><ele>280.0</ele><time>2026-04-19T07:51:12Z</time></trkpt><trkpt lat="43.8568939898481" lon="11.21425971775743"><ele>279.0</ele><time>2026-04-19T07:51:13Z</time></trkpt><trkpt lat="43.85697234907741" lon="11.214367615611895"><ele>278.0</ele><time>2026-04-19T07:51:14Z</time></trkpt><trkpt lat="43.85704851434865" lon="11.214454457857853"><ele>282.2</ele><time>2026-04-19T07:51:15Z</time></trkpt><trkpt lat="43.85715854350474" lon="11.214551894108258"><ele>286.4</ele><time>2026-04-19T07:51:16Z</time></trkpt><trkpt lat="43.8572172653526" lon="11.214641924860697"><ele>290.59999999999997</ele><time>2026-04-19T07:51:17Z</time></trkpt><trkpt lat="43.85729235172462" lon="11.214726677517755"><ele>294.8</ele><time>2026-04-19T07:51:18Z</time></trkpt><trkpt lat="43.85736236030088" lon="11.214792763277215"><ele>299.0</ele><time>2026-04-19T07:51:19Z</time></trkpt><trkpt lat="43.857427068489855" lon="11.214883765002"><ele>299.0</ele><time>2026-04-19T07:51:20Z</time></trkpt><trkpt lat="43.857496045049636" lon="11.214950909035432"><ele>299.0</ele><time>2026-04-19T07:51:21Z</time></trkpt><trkpt lat="43.85756238380241" lon="11.21501319626307"><ele>299.0</ele><time>2026-04-19T07:51:22Z</time></trkpt><trkpt lat="43.85764714306299" lon="11.21504777502722"><ele>299.0</ele><time>2026-04-19T07:51:23Z</time></trkpt><trkpt lat="43.85772637094199" lon="11.215085368149357"><ele>299.0</ele><time>2026-04-19T07:51:24Z</time></trkpt><trkpt lat="43.8577992023741" lon="11.215130838686068"><ele>299.0</ele><time>2026-04-19T07:51:25Z</time></trkpt><trkpt lat="43.85788568319105" lon="11.215177147716322"><ele>300.2</ele><time>2026-04-19T07:51:26Z</time></trkpt><trkpt lat="43.85801817894859" lon="11.215237147884295"><ele>301.4</ele><time>2026-04-19T07:51:27Z</time></trkpt><trkpt lat="43.85810714682966" lon="11.21528332851562"><ele>302.6</ele><time>2026-04-19T07:51:28Z</time></trkpt><trkpt lat="43.85817742434572" lon="11.215368546664205"><ele>303.8</ele><time>2026-04-19T07:51:29Z</time></trkpt><trkpt lat="43.858245366941524" lon="11.215414338918563"><ele>305.0</ele><time>2026-04-19T07:51:30Z</time></trkpt><trkpt lat="43.85832403071317" lon="11.215488980440368"><ele>305.0</ele><time>2026-04-19T07:51:31Z</time></trkpt><trkpt lat="43.85838991476172" lon="11.215585497946325"><ele>305.0</ele><time>2026-04-19T07:51:32Z</time></trkpt><trkpt lat="43.85846606182782" lon="11.215664994096372"><ele>305.0</ele><time>2026-04-19T07:51:33Z</time></trkpt><trkpt lat="43.85856819034374" lon="11.215761556095579"><ele>305.0</ele><time>2026-04-19T07:51:34Z</time></trkpt><trkpt lat="43.85868618668836" lon="11.21586349260501"><ele>306.6666666666667</ele><time>2026-04-19T07:51:35Z</time></trkpt><trkpt lat="43.85882588116366" lon="11.215980172289585"><ele>308.3333333333333</ele><time>2026-04-19T07:51:36Z</time></trkpt><trkpt lat="43.85896795590915" lon="11.216093970698227"><ele>310.0</ele><time>2026-04-19T07:51:37Z</time></trkpt><trkpt lat="43.85910137271606" lon="11.216203715087316"><ele>310.0</ele><time>2026-04-19T07:51:38Z</time></trkpt><trkpt lat="43.859242952363694" lon="11.216320174344585"><ele>310.0</ele><time>2026-04-19T07:51:39Z</time></trkpt><trkpt lat="43.859384608422154" lon="11.216437972740307"><ele>310.0</ele><time>2026-04-19T07:51:40Z</time></trkpt><trkpt lat="43.85953521338114" lon="11.2165528209126"><ele>311.3333333333333</ele><time>2026-04-19T07:51:41Z</time></trkpt><trkpt lat="43.85970194466558" lon="11.21666054906045"><ele>312.6666666666667</ele><time>2026-04-19T07:51:42Z</time></trkpt><trkpt lat="43.85987960516517" lon="11.216756403694983"><ele>314.0</ele><time>2026-04-19T07:51:43Z</time></trkpt><trkpt lat="43.86005738455818" lon="11.21683224207055"><ele>317.75</ele><time>2026-04-19T07:51:44Z</time></trkpt><trkpt lat="43.86020392103855" lon="11.216899909763704"><ele>321.5</ele><time>2026-04-19T07:51:45Z</time></trkpt><trkpt lat="43.86034471530426" lon="11.216967562987183"><ele>325.25</ele><time>2026-04-19T07:51:46Z</time></trkpt><trkpt lat="43.86046599688468" lon="11.217030764991804"><ele>329.0</ele><time>2026-04-19T07:51:47Z</time></trkpt><trkpt lat="43.86055357731657" lon="11.2171254985795"><ele>329.0</ele><time>2026-04-19T07:51:48Z</time></trkpt><trkpt lat="43.86063139256283" lon="11.217231878371333"><ele>329.0</ele><time>2026-04-19T07:51:49Z</time></trkpt><trkpt lat="43.86070319516923" lon="11.217350070823116"><ele>329.0</ele><time>2026-04-19T07:51:50Z</time></trkpt><trkpt lat="43.86077863220517" lon="11.217459055611936"><ele>329.0</ele><time>2026-04-19T07:51:51Z</time></trkpt><trkpt lat="43.86085774958333" lon="11.217546379364657"><ele>329.0</ele><time>2026-04-19T07:51:52Z</time></trkpt><trkpt lat="43.86094921146585" lon="11.217609874070352"><ele>328.6666666666667</ele><time>2026-04-19T07:51:53Z</time></trkpt><trkpt lat="43.861033816960486" lon="11.217548036349223"><ele>328.33333333333337</ele><time>2026-04-19T07:51:54Z</time></trkpt><trkpt lat="43.86109636383269" lon="11.21755957607973"><ele>328.0</ele><time>2026-04-19T07:51:55Z</time></trkpt><trkpt lat="43.86117028288938" lon="11.217576301099944"><ele>327.6666666666667</ele><time>2026-04-19T07:51:56Z</time></trkpt><trkpt lat="43.861271726606404" lon="11.217632994976881"><ele>327.3333333333333</ele><time>2026-04-19T07:51:58Z</time></trkpt><trkpt lat="43.86131920642622" lon="11.217696089988241"><ele>327.0</ele><time>2026-04-19T07:51:59Z</time></trkpt><trkpt lat="43.8613266666193" lon="11.217872807117462"><ele>327.0</ele><time>2026-04-19T07:52:00Z</time></trkpt><trkpt lat="43.86134821944453" lon="11.218063706527145"><ele>327.0</ele><time>2026-04-19T07:52:01Z</time></trkpt><trkpt lat="43.86124996190813" lon="11.218192989651191"><ele>327.0</ele><time>2026-04-19T07:52:02Z</time></trkpt><trkpt lat="43.86126459250662" lon="11.218333046954358"><ele>327.0</ele><time>2026-04-19T07:52:05Z</time></trkpt><trkpt lat="43.86127559633153" lon="11.21845346616339"><ele>328.0</ele><time>2026-04-19T07:52:06Z</time></trkpt><trkpt lat="43.861284899763405" lon="11.218563875067321"><ele>329.0</ele><time>2026-04-19T07:52:07Z</time></trkpt><trkpt lat="43.86129618988308" lon="11.2187397096246"><ele>330.0</ele><time>2026-04-19T07:52:08Z</time></trkpt><trkpt lat="43.861315228267834" lon="11.218925220483555"><ele>331.0</ele><time>2026-04-19T07:52:09Z</time></trkpt><trkpt lat="43.861353592998114" lon="11.21914753619717"><ele>333.0</ele><time>2026-04-19T07:52:09.999Z</time></trkpt><trkpt lat="43.86141681461235" lon="11.219338094589371"><ele>335.0</ele><time>2026-04-19T07:52:10.999Z</time></trkpt><trkpt lat="43.861512183912716" lon="11.219520377744166"><ele>337.0</ele><time>2026-04-19T07:52:11.999Z</time></trkpt><trkpt lat="43.86161857099344" lon="11.219708510025761"><ele>339.66666666666663</ele><time>2026-04-19T07:52:12.999Z</time></trkpt><trkpt lat="43.86171678023935" lon="11.219879654866626"><ele>342.3333333333333</ele><time>2026-04-19T07:52:13.999Z</time></trkpt><trkpt lat="43.86183111652503" lon="11.220078551240997"><ele>345.0</ele><time>2026-04-19T07:52:14.999Z</time></trkpt><trkpt lat="43.86194477721415" lon="11.2202762721367"><ele>345.0</ele><time>2026-04-19T07:52:15.999Z</time></trkpt><trkpt lat="43.86205743555088" lon="11.220477663906106"><ele>345.0</ele><time>2026-04-19T07:52:16.999Z</time></trkpt><trkpt lat="43.862159137754155" lon="11.220670941235479"><ele>345.0</ele><time>2026-04-19T07:52:17.999Z</time></trkpt><trkpt lat="43.86225847169761" lon="11.220881397715786"><ele>348.6666666666667</ele><time>2026-04-19T07:52:18.999Z</time></trkpt><trkpt lat="43.862345486547326" lon="11.221097272036328"><ele>352.33333333333337</ele><time>2026-04-19T07:52:19.999Z</time></trkpt><trkpt lat="43.86238070216907" lon="11.221312990590507"><ele>356.0</ele><time>2026-04-19T07:52:20.999Z</time></trkpt><trkpt lat="43.86242915947536" lon="11.221550927289256"><ele>359.6666666666667</ele><time>2026-04-19T07:52:21.999Z</time></trkpt><trkpt lat="43.862494983971615" lon="11.221800433613627"><ele>363.3333333333333</ele><time>2026-04-19T07:52:22.999Z</time></trkpt><trkpt lat="43.86257432899719" lon="11.222032266320609"><ele>367.0</ele><time>2026-04-19T07:52:23.999Z</time></trkpt><trkpt lat="43.862664525435434" lon="11.222221966787409"><ele>370.25</ele><time>2026-04-19T07:52:24.999Z</time></trkpt><trkpt lat="43.86275908070311" lon="11.222384927359728"><ele>373.5</ele><time>2026-04-19T07:52:25.999Z</time></trkpt><trkpt lat="43.86282024744138" lon="11.222592245412834"><ele>376.75</ele><time>2026-04-19T07:52:26.999Z</time></trkpt><trkpt lat="43.8628461098729" lon="11.22276784757254"><ele>380.0</ele><time>2026-04-19T07:52:27.999Z</time></trkpt><trkpt lat="43.86287663134056" lon="11.222988685259288"><ele>385.33333333333337</ele><time>2026-04-19T07:52:28.999Z</time></trkpt><trkpt lat="43.86290732921778" lon="11.223233798563943"><ele>390.6666666666667</ele><time>2026-04-19T07:52:29.999Z</time></trkpt><trkpt lat="43.862924032757476" lon="11.223453174909752"><ele>396.0</ele><time>2026-04-19T07:52:30.999Z</time></trkpt><trkpt lat="43.86292712315567" lon="11.22375495404095"><ele>396.0</ele><time>2026-04-19T07:52:31.999Z</time></trkpt><trkpt lat="43.86298458482986" lon="11.223953651985662"><ele>396.0</ele><time>2026-04-19T07:52:32.999Z</time></trkpt><trkpt lat="43.86306046656367" lon="11.224120282898287"><ele>396.0</ele><time>2026-04-19T07:52:33.999Z</time></trkpt><trkpt lat="43.86312668903467" lon="11.224233644983695"><ele>396.0</ele><time>2026-04-19T07:52:34.999Z</time></trkpt><trkpt lat="43.86320229058437" lon="11.224342391319793"><ele>400.33333333333337</ele><time>2026-04-19T07:52:35.999Z</time></trkpt><trkpt lat="43.86332406638064" lon="11.224537870603788"><ele>404.6666666666667</ele><time>2026-04-19T07:52:37.999Z</time></trkpt><trkpt lat="43.863430728340724" lon="11.224634114040569"><ele>409.0</ele><time>2026-04-19T07:52:38.999Z</time></trkpt><trkpt lat="43.86358689219924" lon="11.224787582303136"><ele>412.6666666666667</ele><time>2026-04-19T07:52:39.999Z</time></trkpt><trkpt lat="43.86371649293921" lon="11.224935848896358"><ele>416.33333333333337</ele><time>2026-04-19T07:52:40.999Z</time></trkpt><trkpt lat="43.86385282203299" lon="11.225028754338819"><ele>420.0</ele><time>2026-04-19T07:52:41.999Z</time></trkpt><trkpt lat="43.863992330073124" lon="11.225072015024349"><ele>420.0</ele><time>2026-04-19T07:52:42.999Z</time></trkpt><trkpt lat="43.864165653094545" lon="11.225125791142766"><ele>420.0</ele><time>2026-04-19T07:52:43.999Z</time></trkpt><trkpt lat="43.86434053973482" lon="11.225181879478937"><ele>420.0</ele><time>2026-04-19T07:52:44.999Z</time></trkpt><trkpt lat="43.864497214902585" lon="11.225247962396038"><ele>423.4</ele><time>2026-04-19T07:52:45.999Z</time></trkpt><trkpt lat="43.864599563077114" lon="11.225314027222835"><ele>426.8</ele><time>2026-04-19T07:52:46.999Z</time></trkpt><trkpt lat="43.864695892215956" lon="11.225409658579231"><ele>430.20000000000005</ele><time>2026-04-19T07:52:47.999Z</time></trkpt><trkpt lat="43.86476410379141" lon="11.225510340479063"><ele>433.6</ele><time>2026-04-19T07:52:48.999Z</time></trkpt><trkpt lat="43.86483669929201" lon="11.225582170249016"><ele>437.0</ele><time>2026-04-19T07:52:49.999Z</time></trkpt><trkpt lat="43.864894212645694" lon="11.225642362571246"><ele>436.3333333333333</ele><time>2026-04-19T07:52:50.999Z</time></trkpt><trkpt lat="43.8649793472183" lon="11.225739476888485"><ele>435.66666666666663</ele><time>2026-04-19T07:52:52.999Z</time></trkpt><trkpt lat="43.865041811451825" lon="11.225833416174797"><ele>435.0</ele><time>2026-04-19T07:52:54.999Z</time></trkpt><trkpt lat="43.86510453796503" lon="11.225911966067866"><ele>434.33333333333337</ele><time>2026-04-19T07:52:57.999Z</time></trkpt><trkpt lat="43.86514980038122" lon="11.225976552596412"><ele>433.6666666666667</ele><time>2026-04-19T07:53:00.999Z</time></trkpt><trkpt lat="43.86518667223599" lon="11.226066788562544"><ele>433.0</ele><time>2026-04-19T07:53:02.999Z</time></trkpt><trkpt lat="43.865222211285946" lon="11.226149071608692"><ele>439.50000000000006</ele><time>2026-04-19T07:53:05.999Z</time></trkpt><trkpt lat="43.86527792781929" lon="11.226092292974993"><ele>446.0</ele><time>2026-04-19T07:53:09.999Z</time></trkpt><trkpt lat="43.865344987804306" lon="11.226088705856357"><ele>452.5</ele><time>2026-04-19T07:55:48Z</time></trkpt><trkpt lat="43.86542675191795" lon="11.226187024136452"><ele>459.0</ele><time>2026-04-19T07:55:50Z</time></trkpt><trkpt lat="43.86546694220919" lon="11.22628944244572"><ele>465.50000000000006</ele><time>2026-04-19T07:55:51Z</time></trkpt><trkpt lat="43.86549579899819" lon="11.226426543300636"><ele>472.0</ele><time>2026-04-19T07:55:52Z</time></trkpt><trkpt lat="43.865387457207135" lon="11.226658358773696"><ele>472.0</ele><time>2026-04-19T07:55:53Z</time></trkpt><trkpt lat="43.86543120966357" lon="11.226806942372775"><ele>472.0</ele><time>2026-04-19T07:55:54Z</time></trkpt><trkpt lat="43.8654742430847" lon="11.226954992769135"><ele>472.0</ele><time>2026-04-19T07:55:55Z</time></trkpt><trkpt lat="43.86552147757007" lon="11.227121145629978"><ele>472.0</ele><time>2026-04-19T07:55:56Z</time></trkpt><trkpt lat="43.86557390268647" lon="11.227312084836148"><ele>468.0</ele><time>2026-04-19T07:55:56.999Z</time></trkpt><trkpt lat="43.86562750468172" lon="11.227507310359572"><ele>464.0</ele><time>2026-04-19T07:55:57.999Z</time></trkpt><trkpt lat="43.86567644752089" lon="11.22768728257723"><ele>460.0</ele><time>2026-04-19T07:55:58.999Z</time></trkpt><trkpt lat="43.86573403801224" lon="11.227903393334117"><ele>460.0</ele><time>2026-04-19T07:55:59.999Z</time></trkpt><trkpt lat="43.86578837368564" lon="11.22810738554947"><ele>460.0</ele><time>2026-04-19T07:56:00.999Z</time></trkpt><trkpt lat="43.86585280235301" lon="11.228364127120681"><ele>460.0</ele><time>2026-04-19T07:56:01.999Z</time></trkpt><trkpt lat="43.86590047595228" lon="11.228587107357928"><ele>456.6666666666667</ele><time>2026-04-19T07:56:02.999Z</time></trkpt><trkpt lat="43.865943056452366" lon="11.228820004403818"><ele>453.33333333333337</ele><time>2026-04-19T07:56:03.999Z</time></trkpt><trkpt lat="43.865984659650756" lon="11.229067602496503"><ele>450.0</ele><time>2026-04-19T07:56:04.999Z</time></trkpt><trkpt lat="43.866028033837836" lon="11.229314396792642"><ele>464.66666666666663</ele><time>2026-04-19T07:56:05.999Z</time></trkpt><trkpt lat="43.866068938945865" lon="11.229550400298193"><ele>479.3333333333333</ele><time>2026-04-19T07:56:06.999Z</time></trkpt><trkpt lat="43.86610929494551" lon="11.22978323563916"><ele>494.0</ele><time>2026-04-19T07:56:07.999Z</time></trkpt><trkpt lat="43.86614947115421" lon="11.230015033645827"><ele>494.0</ele><time>2026-04-19T07:56:08.999Z</time></trkpt><trkpt lat="43.86618815570952" lon="11.230241360733299"><ele>494.0</ele><time>2026-04-19T07:56:09.999Z</time></trkpt><trkpt lat="43.86621141947228" lon="11.230444961415909"><ele>494.0</ele><time>2026-04-19T07:56:10.999Z</time></trkpt><trkpt lat="43.86622100657888" lon="11.230655335539565"><ele>495.0</ele><time>2026-04-19T07:56:11.999Z</time></trkpt><trkpt lat="43.86621302105469" lon="11.230858809680756"><ele>496.0</ele><time>2026-04-19T07:56:12.999Z</time></trkpt><trkpt lat="43.86620039583425" lon="11.231080708480492"><ele>497.0</ele><time>2026-04-19T07:56:13.999Z</time></trkpt><trkpt lat="43.86619075098727" lon="11.231303890779897"><ele>497.0</ele><time>2026-04-19T07:56:14.999Z</time></trkpt><trkpt lat="43.86621643900343" lon="11.231541255479337"><ele>497.0</ele><time>2026-04-19T07:56:15.999Z</time></trkpt><trkpt lat="43.866271159172975" lon="11.231752930186332"><ele>497.0</ele><time>2026-04-19T07:56:16.999Z</time></trkpt><trkpt lat="43.86632253308709" lon="11.231952961548593"><ele>497.0</ele><time>2026-04-19T07:56:17.999Z</time></trkpt><trkpt lat="43.86636526228732" lon="11.232141957885162"><ele>497.0</ele><time>2026-04-19T07:56:18.999Z</time></trkpt><trkpt lat="43.86639268764826" lon="11.23234436865207"><ele>497.0</ele><time>2026-04-19T07:56:19.999Z</time></trkpt><trkpt lat="43.866384728110596" lon="11.23251629144961"><ele>497.0</ele><time>2026-04-19T07:56:20.999Z</time></trkpt><trkpt lat="43.86634989608338" lon="11.232682045738505"><ele>497.25</ele><time>2026-04-19T07:56:21.999Z</time></trkpt><trkpt lat="43.86628952037045" lon="11.23282237070525"><ele>497.5</ele><time>2026-04-19T07:56:22.999Z</time></trkpt><trkpt lat="43.86620893137014" lon="11.23294710505241"><ele>497.75</ele><time>2026-04-19T07:56:23.999Z</time></trkpt><trkpt lat="43.866103668724165" lon="11.2330634157103"><ele>498.0</ele><time>2026-04-19T07:56:24.999Z</time></trkpt><trkpt lat="43.865969192624846" lon="11.23316504067008"><ele>493.33333333333337</ele><time>2026-04-19T07:56:25.999Z</time></trkpt><trkpt lat="43.86581441831576" lon="11.233235000503344"><ele>488.6666666666667</ele><time>2026-04-19T07:56:26.999Z</time></trkpt><trkpt lat="43.86564663208559" lon="11.233267715506457"><ele>484.0</ele><time>2026-04-19T07:56:27.999Z</time></trkpt><trkpt lat="43.865463207955294" lon="11.233296540234441"><ele>484.0</ele><time>2026-04-19T07:56:28.999Z</time></trkpt><trkpt lat="43.865281794769786" lon="11.233325048937985"><ele>484.0</ele><time>2026-04-19T07:56:29.999Z</time></trkpt><trkpt lat="43.86511542762567" lon="11.233351530288758"><ele>484.0</ele><time>2026-04-19T07:56:30.999Z</time></trkpt><trkpt lat="43.86495088997829" lon="11.23337828082391"><ele>484.0</ele><time>2026-04-19T07:56:31.999Z</time></trkpt><trkpt lat="43.864779594446134" lon="11.23340613005959"><ele>484.0</ele><time>2026-04-19T07:56:32.999Z</time></trkpt><trkpt lat="43.864600303197925" lon="11.233435279230171"><ele>484.0</ele><time>2026-04-19T07:56:33.999Z</time></trkpt><trkpt lat="43.864425530566095" lon="11.2334637588746"><ele>484.0</ele><time>2026-04-19T07:56:34.999Z</time></trkpt><trkpt lat="43.86425642502351" lon="11.233512022582634"><ele>484.0</ele><time>2026-04-19T07:56:35.999Z</time></trkpt><trkpt lat="43.864089408970315" lon="11.233588278212265"><ele>484.0</ele><time>2026-04-19T07:56:36.999Z</time></trkpt><trkpt lat="43.86393114423138" lon="11.233700411540656"><ele>484.0</ele><time>2026-04-19T07:56:37.999Z</time></trkpt><trkpt lat="43.8637828018645" lon="11.23382704122247"><ele>484.0</ele><time>2026-04-19T07:56:38.999Z</time></trkpt><trkpt lat="43.86365138598068" lon="11.233941019960461"><ele>484.0</ele><time>2026-04-19T07:56:39.999Z</time></trkpt><trkpt lat="43.863523963444116" lon="11.234051535099205"><ele>487.0</ele><time>2026-04-19T07:56:40.999Z</time></trkpt><trkpt lat="43.86339568990946" lon="11.234161956488716"><ele>490.0</ele><time>2026-04-19T07:56:41.999Z</time></trkpt><trkpt lat="43.86327257212685" lon="11.234265572635328"><ele>493.0</ele><time>2026-04-19T07:56:42.999Z</time></trkpt><trkpt lat="43.86315487008821" lon="11.234361970788688"><ele>496.0</ele><time>2026-04-19T07:56:43.999Z</time></trkpt><trkpt lat="43.86303455928528" lon="11.234444180330973"><ele>496.0</ele><time>2026-04-19T07:56:44.999Z</time></trkpt><trkpt lat="43.862897106073824" lon="11.23451674721426"><ele>496.0</ele><time>2026-04-19T07:56:45.999Z</time></trkpt><trkpt lat="43.862755326473746" lon="11.234589701197287"><ele>496.0</ele><time>2026-04-19T07:56:46.999Z</time></trkpt><trkpt lat="43.86261363507023" lon="11.234663678347928"><ele>497.0</ele><time>2026-04-19T07:56:47.999Z</time></trkpt><trkpt lat="43.86247427051052" lon="11.234736440660198"><ele>498.0</ele><time>2026-04-19T07:56:48.999Z</time></trkpt><trkpt lat="43.862323896729414" lon="11.234814950912133"><ele>499.0</ele><time>2026-04-19T07:56:49.999Z</time></trkpt><trkpt lat="43.862164367613836" lon="11.234877856499173"><ele>505.33333333333337</ele><time>2026-04-19T07:56:50.999Z</time></trkpt><trkpt lat="43.861999065520465" lon="11.234900097117102"><ele>511.66666666666663</ele><time>2026-04-19T07:56:51.999Z</time></trkpt><trkpt lat="43.86183031927436" lon="11.234871149850362"><ele>518.0</ele><time>2026-04-19T07:56:52.999Z</time></trkpt><trkpt lat="43.861667035466084" lon="11.234812021049907"><ele>516.0</ele><time>2026-04-19T07:56:53.999Z</time></trkpt><trkpt lat="43.86151697916627" lon="11.234717107679527"><ele>514.0</ele><time>2026-04-19T07:56:54.999Z</time></trkpt><trkpt lat="43.86137917994911" lon="11.234571204180375"><ele>512.0</ele><time>2026-04-19T07:56:55.999Z</time></trkpt><trkpt lat="43.861261585517695" lon="11.234390857741515"><ele>512.0</ele><time>2026-04-19T07:56:56.999Z</time></trkpt><trkpt lat="43.86115555023144" lon="11.234219553730126"><ele>512.0</ele><time>2026-04-19T07:56:57.999Z</time></trkpt><trkpt lat="43.86104489480446" lon="11.234070576890948"><ele>512.0</ele><time>2026-04-19T07:56:58.999Z</time></trkpt><trkpt lat="43.86090905085802" lon="11.233930309090633"><ele>512.3333333333333</ele><time>2026-04-19T07:56:59.999Z</time></trkpt><trkpt lat="43.86075454364621" lon="11.23383561526888"><ele>512.6666666666666</ele><time>2026-04-19T07:57:00.999Z</time></trkpt><trkpt lat="43.86058424774694" lon="11.233732619780534"><ele>513.0</ele><time>2026-04-19T07:57:01.999Z</time></trkpt><trkpt lat="43.86038075522591" lon="11.233668314316937"><ele>513.0</ele><time>2026-04-19T07:57:02.999Z</time></trkpt><trkpt lat="43.86016864887214" lon="11.233637091870222"><ele>513.0</ele><time>2026-04-19T07:57:03.999Z</time></trkpt><trkpt lat="43.85994731332686" lon="11.233604018546846"><ele>513.0</ele><time>2026-04-19T07:57:04.999Z</time></trkpt><trkpt lat="43.859736391631586" lon="11.233564666403122"><ele>516.0</ele><time>2026-04-19T07:57:05.999Z</time></trkpt><trkpt lat="43.85952517099423" lon="11.233533320597825"><ele>519.0</ele><time>2026-04-19T07:57:06.999Z</time></trkpt><trkpt lat="43.85931787742393" lon="11.23350996369928"><ele>522.0</ele><time>2026-04-19T07:57:07.999Z</time></trkpt><trkpt lat="43.859124485341574" lon="11.233502681461674"><ele>524.0</ele><time>2026-04-19T07:57:08.999Z</time></trkpt><trkpt lat="43.858944452777294" lon="11.233517041331828"><ele>526.0</ele><time>2026-04-19T07:57:09.999Z</time></trkpt><trkpt lat="43.85877894297036" lon="11.233573823136176"><ele>528.0</ele><time>2026-04-19T07:57:10.999Z</time></trkpt><trkpt lat="43.85862225162804" lon="11.2336600266946"><ele>528.0</ele><time>2026-04-19T07:57:11.999Z</time></trkpt><trkpt lat="43.858467266205494" lon="11.23380207221287"><ele>528.0</ele><time>2026-04-19T07:57:12.999Z</time></trkpt><trkpt lat="43.85831023045813" lon="11.233978967981924"><ele>528.0</ele><time>2026-04-19T07:57:13.999Z</time></trkpt><trkpt lat="43.85814216645676" lon="11.234176773505567"><ele>526.6666666666666</ele><time>2026-04-19T07:57:14.999Z</time></trkpt><trkpt lat="43.85797897008102" lon="11.234366233866515"><ele>525.3333333333333</ele><time>2026-04-19T07:57:15.999Z</time></trkpt><trkpt lat="43.85781448229521" lon="11.234546398099651"><ele>524.0</ele><time>2026-04-19T07:57:16.999Z</time></trkpt><trkpt lat="43.85761678312768" lon="11.234713222075204"><ele>533.5</ele><time>2026-04-19T07:57:17.999Z</time></trkpt><trkpt lat="43.8574105051679" lon="11.234868209658304"><ele>543.0</ele><time>2026-04-19T07:57:18.999Z</time></trkpt><trkpt lat="43.857194890517654" lon="11.235016719825088"><ele>543.0</ele><time>2026-04-19T07:57:19.999Z</time></trkpt><trkpt lat="43.856979759448855" lon="11.23515054943315"><ele>543.0</ele><time>2026-04-19T07:57:20.999Z</time></trkpt><trkpt lat="43.856767931512195" lon="11.235267626308968"><ele>535.5</ele><time>2026-04-19T07:57:21.999Z</time></trkpt><trkpt lat="43.856557672806005" lon="11.235381662275802"><ele>528.0</ele><time>2026-04-19T07:57:22.999Z</time></trkpt><trkpt lat="43.8563414516038" lon="11.235498484443635"><ele>528.0</ele><time>2026-04-19T07:57:23.999Z</time></trkpt><trkpt lat="43.856116310260695" lon="11.235634376089193"><ele>528.0</ele><time>2026-04-19T07:57:24.999Z</time></trkpt><trkpt lat="43.85588687336195" lon="11.23571556979686"><ele>536.0</ele><time>2026-04-19T07:57:25.999Z</time></trkpt><trkpt lat="43.855656333562486" lon="11.235779704579272"><ele>544.0</ele><time>2026-04-19T07:57:26.999Z</time></trkpt><trkpt lat="43.855420330836814" lon="11.235809813041591"><ele>544.0</ele><time>2026-04-19T07:57:28Z</time></trkpt><trkpt lat="43.85520547416672" lon="11.23585341827261"><ele>544.0</ele><time>2026-04-19T07:57:29Z</time></trkpt><trkpt lat="43.855008433308484" lon="11.235913296467121"><ele>544.0</ele><time>2026-04-19T07:57:30Z</time></trkpt><trkpt lat="43.85482547393752" lon="11.235934362923329"><ele>544.0</ele><time>2026-04-19T07:57:31Z</time></trkpt><trkpt lat="43.85463967156261" lon="11.235902474668649"><ele>544.0</ele><time>2026-04-19T07:57:32Z</time></trkpt><trkpt lat="43.85446649271231" lon="11.235818456454243"><ele>544.0</ele><time>2026-04-19T07:57:33Z</time></trkpt><trkpt lat="43.854304447214986" lon="11.235747436680276"><ele>546.3333333333334</ele><time>2026-04-19T07:57:34Z</time></trkpt><trkpt lat="43.85414486798144" lon="11.235726085131086"><ele>548.6666666666666</ele><time>2026-04-19T07:57:35Z</time></trkpt><trkpt lat="43.853974452530046" lon="11.235756082173442"><ele>551.0</ele><time>2026-04-19T07:57:36Z</time></trkpt><trkpt lat="43.853795815293736" lon="11.235807819089024"><ele>551.0</ele><time>2026-04-19T07:57:37Z</time></trkpt><trkpt lat="43.8536050894681" lon="11.235851345155721"><ele>551.0</ele><time>2026-04-19T07:57:38Z</time></trkpt><trkpt lat="43.85340099281869" lon="11.23589116226904"><ele>551.0</ele><time>2026-04-19T07:57:39Z</time></trkpt><trkpt lat="43.8531941694281" lon="11.235948453331888"><ele>549.3333333333333</ele><time>2026-04-19T07:57:40Z</time></trkpt><trkpt lat="43.85298475630398" lon="11.236012323515013"><ele>547.6666666666666</ele><time>2026-04-19T07:57:41Z</time></trkpt><trkpt lat="43.85278796383983" lon="11.236086681488887"><ele>546.0</ele><time>2026-04-19T07:57:42Z</time></trkpt><trkpt lat="43.852606106093546" lon="11.236170728096763"><ele>543.6666666666666</ele><time>2026-04-19T07:57:43Z</time></trkpt><trkpt lat="43.85243196368933" lon="11.236316121135568"><ele>541.3333333333333</ele><time>2026-04-19T07:57:44Z</time></trkpt><trkpt lat="43.8522673528785" lon="11.23644915259855"><ele>539.0</ele><time>2026-04-19T07:57:45Z</time></trkpt><trkpt lat="43.8521104305386" lon="11.236590476765494"><ele>546.6666666666666</ele><time>2026-04-19T07:57:46Z</time></trkpt><trkpt lat="43.851959441550875" lon="11.236725221286777"><ele>554.3333333333334</ele><time>2026-04-19T07:57:47Z</time></trkpt><trkpt lat="43.851832863318286" lon="11.236852768158727"><ele>562.0</ele><time>2026-04-19T07:57:48Z</time></trkpt><trkpt lat="43.85171546806055" lon="11.236958847254517"><ele>562.0</ele><time>2026-04-19T07:57:49Z</time></trkpt><trkpt lat="43.85160101862124" lon="11.237016233812371"><ele>562.0</ele><time>2026-04-19T07:57:50Z</time></trkpt><trkpt lat="43.851479259625094" lon="11.23702669252276"><ele>562.0</ele><time>2026-04-19T07:57:51Z</time></trkpt><trkpt lat="43.8513698594159" lon="11.236989783668394"><ele>562.0</ele><time>2026-04-19T07:57:52Z</time></trkpt><trkpt lat="43.85127725790241" lon="11.236892539822549"><ele>562.0</ele><time>2026-04-19T07:57:53Z</time></trkpt><trkpt lat="43.8512043808196" lon="11.236740611379137"><ele>562.0</ele><time>2026-04-19T07:57:54Z</time></trkpt><trkpt lat="43.851143526829404" lon="11.236533650213477"><ele>562.0</ele><time>2026-04-19T07:57:55Z</time></trkpt><trkpt lat="43.85109574692114" lon="11.236330340490662"><ele>562.0</ele><time>2026-04-19T07:57:56Z</time></trkpt><trkpt lat="43.851047061101355" lon="11.236113824043517"><ele>557.6666666666667</ele><time>2026-04-19T07:57:57Z</time></trkpt><trkpt lat="43.85099600990039" lon="11.23586716151853"><ele>553.3333333333334</ele><time>2026-04-19T07:57:58Z</time></trkpt><trkpt lat="43.85093819800895" lon="11.23560645401614"><ele>549.0</ele><time>2026-04-19T07:57:59Z</time></trkpt><trkpt lat="43.85089672903156" lon="11.235325723548991"><ele>555.3333333333334</ele><time>2026-04-19T07:58:00Z</time></trkpt><trkpt lat="43.850824882205465" lon="11.235043498526313"><ele>561.6666666666667</ele><time>2026-04-19T07:58:01Z</time></trkpt><trkpt lat="43.85078162707633" lon="11.234781379048133"><ele>568.0</ele><time>2026-04-19T07:58:02Z</time></trkpt><trkpt lat="43.850736088321845" lon="11.234508585271753"><ele>568.0</ele><time>2026-04-19T07:58:03Z</time></trkpt><trkpt lat="43.8506867959171" lon="11.234217948562526"><ele>568.0</ele><time>2026-04-19T07:58:04Z</time></trkpt><trkpt lat="43.85062991531746" lon="11.233922690412479"><ele>568.0</ele><time>2026-04-19T07:58:05Z</time></trkpt><trkpt lat="43.850560804882726" lon="11.233647475297571"><ele>564.3333333333334</ele><time>2026-04-19T07:58:06Z</time></trkpt><trkpt lat="43.850498160966865" lon="11.233365664876604"><ele>560.6666666666666</ele><time>2026-04-19T07:58:07Z</time></trkpt><trkpt lat="43.85036727125354" lon="11.233116591959798"><ele>557.0</ele><time>2026-04-19T07:58:08Z</time></trkpt><trkpt lat="43.850259466331636" lon="11.232845130432793"><ele>568.0</ele><time>2026-04-19T07:58:09Z</time></trkpt><trkpt lat="43.850124295847834" lon="11.232590179117802"><ele>579.0</ele><time>2026-04-19T07:58:10Z</time></trkpt><trkpt lat="43.84998522743501" lon="11.232319414396565"><ele>576.0</ele><time>2026-04-19T07:58:11Z</time></trkpt><trkpt lat="43.84985755588989" lon="11.232061975388135"><ele>573.0</ele><time>2026-04-19T07:58:12Z</time></trkpt><trkpt lat="43.84973966755035" lon="11.231825571723892"><ele>570.0</ele><time>2026-04-19T07:58:13Z</time></trkpt><trkpt lat="43.849622398144064" lon="11.231608270217317"><ele>571.0</ele><time>2026-04-19T07:58:14Z</time></trkpt><trkpt lat="43.849501506884394" lon="11.23140095816801"><ele>572.0</ele><time>2026-04-19T07:58:15Z</time></trkpt><trkpt lat="43.84937119808396" lon="11.23123695550637"><ele>573.0</ele><time>2026-04-19T07:58:16Z</time></trkpt><trkpt lat="43.84922790348851" lon="11.231108559667424"><ele>573.0</ele><time>2026-04-19T07:58:17Z</time></trkpt><trkpt lat="43.84906779694022" lon="11.231013373697683"><ele>573.0</ele><time>2026-04-19T07:58:18Z</time></trkpt><trkpt lat="43.848905615023135" lon="11.231004486821039"><ele>573.0</ele><time>2026-04-19T07:58:19Z</time></trkpt><trkpt lat="43.848721543174015" lon="11.231001524646569"><ele>573.0</ele><time>2026-04-19T07:58:20Z</time></trkpt><trkpt lat="43.848541409989046" lon="11.231013684020327"><ele>573.0</ele><time>2026-04-19T07:58:21Z</time></trkpt><trkpt lat="43.84837280894189" lon="11.231049513012382"><ele>573.0</ele><time>2026-04-19T07:58:22Z</time></trkpt><trkpt lat="43.848209835756656" lon="11.231138418762768"><ele>573.3333333333334</ele><time>2026-04-19T07:58:23Z</time></trkpt><trkpt lat="43.848070647998775" lon="11.231273488649473"><ele>573.6666666666667</ele><time>2026-04-19T07:58:24Z</time></trkpt><trkpt lat="43.84795871382896" lon="11.23140973615729"><ele>574.0</ele><time>2026-04-19T07:58:25Z</time></trkpt><trkpt lat="43.847880110811275" lon="11.23158992726525"><ele>577.75</ele><time>2026-04-19T07:58:26Z</time></trkpt><trkpt lat="43.8478457415008" lon="11.23176305104197"><ele>581.5</ele><time>2026-04-19T07:58:27Z</time></trkpt><trkpt lat="43.84783744367546" lon="11.231965276825605"><ele>585.25</ele><time>2026-04-19T07:58:28Z</time></trkpt><trkpt lat="43.84786959715698" lon="11.232178568728264"><ele>589.0</ele><time>2026-04-19T07:58:29Z</time></trkpt><trkpt lat="43.84793652770297" lon="11.232400897055243"><ele>590.0</ele><time>2026-04-19T07:58:30Z</time></trkpt><trkpt lat="43.84803040175393" lon="11.232618313237493"><ele>591.0</ele><time>2026-04-19T07:58:31Z</time></trkpt><trkpt lat="43.84813028515096" lon="11.232848598794343"><ele>592.0</ele><time>2026-04-19T07:58:32Z</time></trkpt><trkpt lat="43.84824692491587" lon="11.23310073634235"><ele>588.0</ele><time>2026-04-19T07:58:33Z</time></trkpt><trkpt lat="43.8483708775068" lon="11.233367914012852"><ele>584.0</ele><time>2026-04-19T07:58:34Z</time></trkpt><trkpt lat="43.84849394757123" lon="11.233643632249805"><ele>591.0</ele><time>2026-04-19T07:58:35Z</time></trkpt><trkpt lat="43.84861767031055" lon="11.233924654400225"><ele>598.0</ele><time>2026-04-19T07:58:36Z</time></trkpt><trkpt lat="43.84874483019706" lon="11.23420760780319"><ele>598.0</ele><time>2026-04-19T07:58:37Z</time></trkpt><trkpt lat="43.84886420679419" lon="11.234507938102524"><ele>598.0</ele><time>2026-04-19T07:58:38Z</time></trkpt><trkpt lat="43.8489858505238" lon="11.234815255212359"><ele>594.0</ele><time>2026-04-19T07:58:39Z</time></trkpt><trkpt lat="43.849113604458324" lon="11.23512133782036"><ele>590.0</ele><time>2026-04-19T07:58:40Z</time></trkpt><trkpt lat="43.84923281190444" lon="11.235407058183009"><ele>593.3333333333333</ele><time>2026-04-19T07:58:41Z</time></trkpt><trkpt lat="43.84934235299915" lon="11.235681277944208"><ele>596.6666666666666</ele><time>2026-04-19T07:58:42Z</time></trkpt><trkpt lat="43.849446008829815" lon="11.235946936396962"><ele>600.0</ele><time>2026-04-19T07:58:43Z</time></trkpt><trkpt lat="43.849540225334685" lon="11.236201733357296"><ele>600.0</ele><time>2026-04-19T07:58:44Z</time></trkpt><trkpt lat="43.84962988707901" lon="11.236442141171956"><ele>600.0</ele><time>2026-04-19T07:58:45Z</time></trkpt><trkpt lat="43.849718346364526" lon="11.23667532488331"><ele>600.0</ele><time>2026-04-19T07:58:46Z</time></trkpt><trkpt lat="43.84981770314701" lon="11.236902376542053"><ele>597.6666666666666</ele><time>2026-04-19T07:58:47Z</time></trkpt><trkpt lat="43.84991496742876" lon="11.237112901108608"><ele>595.3333333333333</ele><time>2026-04-19T07:58:48Z</time></trkpt><trkpt lat="43.85003589530768" lon="11.23729351012542"><ele>593.0</ele><time>2026-04-19T07:58:49Z</time></trkpt><trkpt lat="43.85018287563298" lon="11.23744837121425"><ele>591.6666666666666</ele><time>2026-04-19T07:58:50Z</time></trkpt><trkpt lat="43.85034458808812" lon="11.237580917757905"><ele>590.3333333333334</ele><time>2026-04-19T07:58:51Z</time></trkpt><trkpt lat="43.85050182561199" lon="11.237700267227995"><ele>589.0</ele><time>2026-04-19T07:58:52Z</time></trkpt><trkpt lat="43.85064717679956" lon="11.237811014572745"><ele>589.0</ele><time>2026-04-19T07:58:53Z</time></trkpt><trkpt lat="43.85077907238881" lon="11.23791885904051"><ele>589.0</ele><time>2026-04-19T07:58:54Z</time></trkpt><trkpt lat="43.85089385512556" lon="11.238047250773047"><ele>589.0</ele><time>2026-04-19T07:58:55Z</time></trkpt><trkpt lat="43.85099104590211" lon="11.238206074338484"><ele>590.0</ele><time>2026-04-19T07:58:56Z</time></trkpt><trkpt lat="43.85104797116768" lon="11.238381316577955"><ele>591.0</ele><time>2026-04-19T07:58:57Z</time></trkpt><trkpt lat="43.85107399989268" lon="11.238566368413924"><ele>592.0</ele><time>2026-04-19T07:58:58Z</time></trkpt><trkpt lat="43.851069272007074" lon="11.238771318317244"><ele>593.0</ele><time>2026-04-19T07:58:59Z</time></trkpt><trkpt lat="43.8510402727626" lon="11.238990967473088"><ele>592.6666666666666</ele><time>2026-04-19T07:59:00Z</time></trkpt><trkpt lat="43.851002738263645" lon="11.239223660366793"><ele>592.3333333333334</ele><time>2026-04-19T07:59:01Z</time></trkpt><trkpt lat="43.85095577519637" lon="11.239469397979134"><ele>592.0</ele><time>2026-04-19T07:59:02Z</time></trkpt><trkpt lat="43.85090110949068" lon="11.239720127211863"><ele>594.0</ele><time>2026-04-19T07:59:03Z</time></trkpt><trkpt lat="43.850850537878415" lon="11.239975569415988"><ele>596.0</ele><time>2026-04-19T07:59:04Z</time></trkpt><trkpt lat="43.850814137014055" lon="11.240235598883473"><ele>598.0</ele><time>2026-04-19T07:59:05Z</time></trkpt><trkpt lat="43.85080459068523" lon="11.240499960454528"><ele>599.0</ele><time>2026-04-19T07:59:06Z</time></trkpt><trkpt lat="43.85082414282504" lon="11.240768312415327"><ele>600.0</ele><time>2026-04-19T07:59:06.999Z</time></trkpt><trkpt lat="43.85084988416841" lon="11.241047406482902"><ele>601.0</ele><time>2026-04-19T07:59:07.999Z</time></trkpt><trkpt lat="43.85086425908093" lon="11.241326178764012"><ele>602.0</ele><time>2026-04-19T07:59:08.999Z</time></trkpt><trkpt lat="43.85085028470097" lon="11.241600834763727"><ele>603.0</ele><time>2026-04-19T07:59:09.999Z</time></trkpt><trkpt lat="43.85082185441417" lon="11.241881433514566"><ele>604.0</ele><time>2026-04-19T07:59:10.999Z</time></trkpt><trkpt lat="43.85079437523452" lon="11.242168869912925"><ele>606.6666666666667</ele><time>2026-04-19T07:59:11.999Z</time></trkpt><trkpt lat="43.850765525902446" lon="11.242456801306245"><ele>609.3333333333334</ele><time>2026-04-19T07:59:12.999Z</time></trkpt><trkpt lat="43.850736457839616" lon="11.242744687214811"><ele>612.0</ele><time>2026-04-19T07:59:13.999Z</time></trkpt><trkpt lat="43.85070155310794" lon="11.243036756434808"><ele>613.3333333333334</ele><time>2026-04-19T07:59:14.999Z</time></trkpt><trkpt lat="43.850670125944156" lon="11.243310351702824"><ele>614.6666666666667</ele><time>2026-04-19T07:59:15.999Z</time></trkpt><trkpt lat="43.8506338714494" lon="11.243566584155692"><ele>616.0</ele><time>2026-04-19T07:59:16.999Z</time></trkpt><trkpt lat="43.85059410038927" lon="11.243806388216596"><ele>617.3333333333334</ele><time>2026-04-19T07:59:17.999Z</time></trkpt><trkpt lat="43.85054660452882" lon="11.244028333367977"><ele>618.6666666666666</ele><time>2026-04-19T07:59:18.999Z</time></trkpt><trkpt lat="43.850501425861744" lon="11.244239835974907"><ele>620.0</ele><time>2026-04-19T07:59:19.999Z</time></trkpt><trkpt lat="43.8504664233907" lon="11.244439393287077"><ele>620.0</ele><time>2026-04-19T07:59:20.999Z</time></trkpt><trkpt lat="43.85044733176987" lon="11.244629925839815"><ele>620.0</ele><time>2026-04-19T07:59:21.999Z</time></trkpt><trkpt lat="43.85044274466875" lon="11.244806751053833"><ele>620.0</ele><time>2026-04-19T07:59:22.999Z</time></trkpt><trkpt lat="43.85042461766314" lon="11.244994258592143"><ele>620.0</ele><time>2026-04-19T07:59:23.999Z</time></trkpt><trkpt lat="43.850379013041646" lon="11.24518994960815"><ele>622.3333333333333</ele><time>2026-04-19T07:59:24.999Z</time></trkpt><trkpt lat="43.85031162462843" lon="11.24538898648053"><ele>624.6666666666666</ele><time>2026-04-19T07:59:25.999Z</time></trkpt><trkpt lat="43.850222629524744" lon="11.245590101379301"><ele>627.0</ele><time>2026-04-19T07:59:26.999Z</time></trkpt><trkpt lat="43.85013335669776" lon="11.245794474805928"><ele>620.3333333333334</ele><time>2026-04-19T07:59:27.999Z</time></trkpt><trkpt lat="43.85004107551406" lon="11.246000568820754"><ele>613.6666666666667</ele><time>2026-04-19T07:59:28.999Z</time></trkpt><trkpt lat="43.849919896285094" lon="11.246184133997419"><ele>607.0</ele><time>2026-04-19T07:59:29.999Z</time></trkpt><trkpt lat="43.84979079972161" lon="11.246356933782906"><ele>612.6666666666667</ele><time>2026-04-19T07:59:30.999Z</time></trkpt><trkpt lat="43.84965814275715" lon="11.246525401264876"><ele>618.3333333333334</ele><time>2026-04-19T07:59:31.999Z</time></trkpt><trkpt lat="43.84954020525171" lon="11.246668325198229"><ele>624.0</ele><time>2026-04-19T07:59:32.999Z</time></trkpt><trkpt lat="43.84941734180606" lon="11.246802009298717"><ele>618.3333333333334</ele><time>2026-04-19T07:59:34Z</time></trkpt><trkpt lat="43.849275271601854" lon="11.246891557461847"><ele>612.6666666666667</ele><time>2026-04-19T07:59:35Z</time></trkpt><trkpt lat="43.849104097462515" lon="11.246932425976926"><ele>607.0</ele><time>2026-04-19T07:59:36Z</time></trkpt><trkpt lat="43.848910485988185" lon="11.246932996818133"><ele>607.0</ele><time>2026-04-19T07:59:37Z</time></trkpt><trkpt lat="43.84871366117027" lon="11.246892910679895"><ele>607.0</ele><time>2026-04-19T07:59:38Z</time></trkpt><trkpt lat="43.84853562034876" lon="11.246843625761144"><ele>607.0</ele><time>2026-04-19T07:59:39Z</time></trkpt><trkpt lat="43.848363067687686" lon="11.246818386795155"><ele>605.6666666666667</ele><time>2026-04-19T07:59:40Z</time></trkpt><trkpt lat="43.84819837003812" lon="11.246827546218093"><ele>604.3333333333334</ele><time>2026-04-19T07:59:41Z</time></trkpt><trkpt lat="43.84805052791151" lon="11.246882905619108"><ele>603.0</ele><time>2026-04-19T07:59:42Z</time></trkpt><trkpt lat="43.84790968220857" lon="11.246972702421935"><ele>603.0</ele><time>2026-04-19T07:59:43Z</time></trkpt><trkpt lat="43.84776596513343" lon="11.247054798346765"><ele>603.0</ele><time>2026-04-19T07:59:44Z</time></trkpt><trkpt lat="43.84760696852405" lon="11.247099484909285"><ele>603.0</ele><time>2026-04-19T07:59:45Z</time></trkpt><trkpt lat="43.84744145916825" lon="11.24710693396203"><ele>601.6666666666666</ele><time>2026-04-19T07:59:46Z</time></trkpt><trkpt lat="43.84726893235089" lon="11.247052612414135"><ele>600.3333333333333</ele><time>2026-04-19T07:59:47Z</time></trkpt><trkpt lat="43.84708656652492" lon="11.246975624582836"><ele>599.0</ele><time>2026-04-19T07:59:48Z</time></trkpt><trkpt lat="43.846899366891265" lon="11.246866238005001"><ele>602.6666666666666</ele><time>2026-04-19T07:59:49Z</time></trkpt><trkpt lat="43.846716376721865" lon="11.246730365574951"><ele>606.3333333333334</ele><time>2026-04-19T07:59:50Z</time></trkpt><trkpt lat="43.84654291653418" lon="11.246580592960166"><ele>610.0</ele><time>2026-04-19T07:59:51Z</time></trkpt><trkpt lat="43.84638248717695" lon="11.24643477927064"><ele>599.6666666666667</ele><time>2026-04-19T07:59:52Z</time></trkpt><trkpt lat="43.84623180593893" lon="11.246280804887721"><ele>589.3333333333334</ele><time>2026-04-19T07:59:53Z</time></trkpt><trkpt lat="43.84613196311216" lon="11.246079374078057"><ele>579.0</ele><time>2026-04-19T07:59:54Z</time></trkpt><trkpt lat="43.84597518732102" lon="11.246013829235027"><ele>582.6666666666666</ele><time>2026-04-19T07:59:55Z</time></trkpt><trkpt lat="43.84580517042493" lon="11.246010743574342"><ele>586.3333333333333</ele><time>2026-04-19T07:59:56Z</time></trkpt><trkpt lat="43.84562867686241" lon="11.246014528090427"><ele>590.0</ele><time>2026-04-19T07:59:57Z</time></trkpt><trkpt lat="43.845437393924435" lon="11.246101939231147"><ele>590.0</ele><time>2026-04-19T07:59:58Z</time></trkpt><trkpt lat="43.8452366213854" lon="11.246185847966158"><ele>590.0</ele><time>2026-04-19T07:59:59Z</time></trkpt><trkpt lat="43.84501967924522" lon="11.246246270094904"><ele>590.0</ele><time>2026-04-19T08:00:00Z</time></trkpt><trkpt lat="43.84479947819282" lon="11.246278104081398"><ele>591.0</ele><time>2026-04-19T08:00:01Z</time></trkpt><trkpt lat="43.84456633127148" lon="11.246251633444427"><ele>592.0</ele><time>2026-04-19T08:00:02Z</time></trkpt><trkpt lat="43.84432783615523" lon="11.24625968001129"><ele>590.3333333333334</ele><time>2026-04-19T08:00:03Z</time></trkpt><trkpt lat="43.844090515542746" lon="11.246248799122537"><ele>588.6666666666666</ele><time>2026-04-19T08:00:04Z</time></trkpt><trkpt lat="43.84388274405104" lon="11.246236878064314"><ele>587.0</ele><time>2026-04-19T08:00:05Z</time></trkpt><trkpt lat="43.84367462419886" lon="11.24622782644025"><ele>587.0</ele><time>2026-04-19T08:00:06Z</time></trkpt><trkpt lat="43.84349091305435" lon="11.246222269615048"><ele>587.0</ele><time>2026-04-19T08:00:07Z</time></trkpt><trkpt lat="43.843337563353316" lon="11.24621579644281"><ele>587.0</ele><time>2026-04-19T08:00:08Z</time></trkpt><trkpt lat="43.843198082851295" lon="11.246196430265979"><ele>586.25</ele><time>2026-04-19T08:00:09Z</time></trkpt><trkpt lat="43.84306892356198" lon="11.246213487784145"><ele>585.5</ele><time>2026-04-19T08:00:10Z</time></trkpt><trkpt lat="43.84294280453041" lon="11.246254102145517"><ele>584.75</ele><time>2026-04-19T08:00:11Z</time></trkpt><trkpt lat="43.84282477121089" lon="11.246334804557563"><ele>584.0</ele><time>2026-04-19T08:00:12Z</time></trkpt><trkpt lat="43.84271601631814" lon="11.246454452073346"><ele>585.5</ele><time>2026-04-19T08:00:13Z</time></trkpt><trkpt lat="43.84262019117788" lon="11.2466039666372"><ele>587.0</ele><time>2026-04-19T08:00:14Z</time></trkpt><trkpt lat="43.842538784936515" lon="11.246780321207549"><ele>588.5</ele><time>2026-04-19T08:00:15Z</time></trkpt><trkpt lat="43.8424784894123" lon="11.246969960511107"><ele>590.0</ele><time>2026-04-19T08:00:16Z</time></trkpt><trkpt lat="43.84244565661919" lon="11.247167587545597"><ele>593.0</ele><time>2026-04-19T08:00:17Z</time></trkpt><trkpt lat="43.84244234371176" lon="11.247373691052317"><ele>596.0</ele><time>2026-04-19T08:00:18Z</time></trkpt><trkpt lat="43.842476702157185" lon="11.24758391620736"><ele>599.0</ele><time>2026-04-19T08:00:19Z</time></trkpt><trkpt lat="43.84253097070593" lon="11.247802317659376"><ele>599.0</ele><time>2026-04-19T08:00:20Z</time></trkpt><trkpt lat="43.84257912911659" lon="11.247999265174379"><ele>599.0</ele><time>2026-04-19T08:00:21Z</time></trkpt><trkpt lat="43.84264159828905" lon="11.24820168446608"><ele>599.0</ele><time>2026-04-19T08:00:22Z</time></trkpt><trkpt lat="43.84271101288475" lon="11.248398180016135"><ele>602.6666666666666</ele><time>2026-04-19T08:00:23Z</time></trkpt><trkpt lat="43.84278452486844" lon="11.248590826299317"><ele>606.3333333333334</ele><time>2026-04-19T08:00:24Z</time></trkpt><trkpt lat="43.842873324754876" lon="11.2487778648538"><ele>610.0</ele><time>2026-04-19T08:00:25Z</time></trkpt><trkpt lat="43.8429736694319" lon="11.248961675060729"><ele>610.0</ele><time>2026-04-19T08:00:26Z</time></trkpt><trkpt lat="43.84307537967833" lon="11.249148962672285"><ele>610.0</ele><time>2026-04-19T08:00:27Z</time></trkpt><trkpt lat="43.84319645945251" lon="11.249308131316985"><ele>610.0</ele><time>2026-04-19T08:00:28Z</time></trkpt><trkpt lat="43.84332034544081" lon="11.249489038092817"><ele>610.0</ele><time>2026-04-19T08:00:29Z</time></trkpt><trkpt lat="43.8434360220386" lon="11.24964380496826"><ele>610.0</ele><time>2026-04-19T08:00:30Z</time></trkpt><trkpt lat="43.843541724840584" lon="11.24980671640293"><ele>610.0</ele><time>2026-04-19T08:00:31Z</time></trkpt><trkpt lat="43.84365339917317" lon="11.249939845345562"><ele>610.75</ele><time>2026-04-19T08:00:32Z</time></trkpt><trkpt lat="43.843784988320955" lon="11.250052123843247"><ele>611.5</ele><time>2026-04-19T08:00:33Z</time></trkpt><trkpt lat="43.843897630176045" lon="11.250166878530562"><ele>612.25</ele><time>2026-04-19T08:00:34Z</time></trkpt><trkpt lat="43.84400615335146" lon="11.25027097755026"><ele>613.0</ele><time>2026-04-19T08:00:35Z</time></trkpt><trkpt lat="43.84411146477826" lon="11.250368020018419"><ele>613.0</ele><time>2026-04-19T08:00:36Z</time></trkpt><trkpt lat="43.8442112409135" lon="11.250443799734688"><ele>613.0</ele><time>2026-04-19T08:00:37Z</time></trkpt><trkpt lat="43.84431611055552" lon="11.250513150863693"><ele>613.0</ele><time>2026-04-19T08:00:38Z</time></trkpt><trkpt lat="43.84441048415258" lon="11.250546245052739"><ele>613.0</ele><time>2026-04-19T08:00:39Z</time></trkpt><trkpt lat="43.84448958227247" lon="11.250546905807754"><ele>613.0</ele><time>2026-04-19T08:00:40Z</time></trkpt><trkpt lat="43.844577627015475" lon="11.250535870841507"><ele>614.25</ele><time>2026-04-19T08:00:41Z</time></trkpt><trkpt lat="43.84465159080555" lon="11.250508463070188"><ele>615.5</ele><time>2026-04-19T08:00:42Z</time></trkpt><trkpt lat="43.84474389236179" lon="11.250455193885148"><ele>616.75</ele><time>2026-04-19T08:00:43Z</time></trkpt><trkpt lat="43.84481734180275" lon="11.25038957595345"><ele>618.0</ele><time>2026-04-19T08:00:44Z</time></trkpt><trkpt lat="43.844975437634034" lon="11.250195983337191"><ele>619.0</ele><time>2026-04-19T08:00:45Z</time></trkpt><trkpt lat="43.845256090914035" lon="11.250146098685757"><ele>620.0</ele><time>2026-04-19T08:00:46Z</time></trkpt><trkpt lat="43.84542760118059" lon="11.250178072245195"><ele>620.0</ele><time>2026-04-19T08:00:47Z</time></trkpt><trkpt lat="43.84564783463347" lon="11.250243819124012"><ele>620.0</ele><time>2026-04-19T08:00:48Z</time></trkpt><trkpt lat="43.845855836760975" lon="11.250397007563185"><ele>618.3333333333333</ele><time>2026-04-19T08:00:49Z</time></trkpt><trkpt lat="43.846024603963386" lon="11.250578689441403"><ele>616.6666666666666</ele><time>2026-04-19T08:00:50Z</time></trkpt><trkpt lat="43.846132865923536" lon="11.250758958560313"><ele>615.0</ele><time>2026-04-19T08:00:51Z</time></trkpt><trkpt lat="43.84622335359561" lon="11.250977125216407"><ele>615.0</ele><time>2026-04-19T08:00:52Z</time></trkpt><trkpt lat="43.84632313217841" lon="11.251128132711722"><ele>615.0</ele><time>2026-04-19T08:00:53Z</time></trkpt><trkpt lat="43.846438397232006" lon="11.251264000814565"><ele>615.0</ele><time>2026-04-19T08:00:54Z</time></trkpt><trkpt lat="43.84654664779743" lon="11.251403597813074"><ele>615.0</ele><time>2026-04-19T08:00:55Z</time></trkpt><trkpt lat="43.84665085098288" lon="11.251573188297899"><ele>611.25</ele><time>2026-04-19T08:00:56Z</time></trkpt><trkpt lat="43.846649413854095" lon="11.251801901095321"><ele>607.5</ele><time>2026-04-19T08:00:57Z</time></trkpt><trkpt lat="43.84667174630527" lon="11.251988616443136"><ele>603.75</ele><time>2026-04-19T08:00:58Z</time></trkpt><trkpt lat="43.84670672876636" lon="11.252154084121333"><ele>600.0</ele><time>2026-04-19T08:00:59Z</time></trkpt><trkpt lat="43.84680860741023" lon="11.252282900416652"><ele>603.0</ele><time>2026-04-19T08:01:00Z</time></trkpt><trkpt lat="43.846897434378256" lon="11.252444191073119"><ele>606.0</ele><time>2026-04-19T08:01:00.999Z</time></trkpt><trkpt lat="43.84700803827881" lon="11.252602164336333"><ele>609.0</ele><time>2026-04-19T08:01:01.999Z</time></trkpt><trkpt lat="43.84710492690203" lon="11.252734555345985"><ele>612.0</ele><time>2026-04-19T08:01:02.999Z</time></trkpt><trkpt lat="43.84720818312974" lon="11.252874546938548"><ele>612.0</ele><time>2026-04-19T08:01:03.999Z</time></trkpt><trkpt lat="43.847323588784164" lon="11.253030242170022"><ele>612.0</ele><time>2026-04-19T08:01:04.999Z</time></trkpt><trkpt lat="43.847426544108416" lon="11.253167658075077"><ele>612.0</ele><time>2026-04-19T08:01:05.999Z</time></trkpt><trkpt lat="43.84752741516252" lon="11.253296580754089"><ele>612.0</ele><time>2026-04-19T08:01:06.999Z</time></trkpt><trkpt lat="43.84763029537814" lon="11.253405164729442"><ele>610.5</ele><time>2026-04-19T08:01:07.999Z</time></trkpt><trkpt lat="43.84774440019579" lon="11.25347569736942"><ele>609.0</ele><time>2026-04-19T08:01:08.999Z</time></trkpt><trkpt lat="43.8478876727435" lon="11.253501589977699"><ele>607.5</ele><time>2026-04-19T08:01:09.999Z</time></trkpt><trkpt lat="43.84803753273818" lon="11.25356264225811"><ele>606.0</ele><time>2026-04-19T08:01:10.999Z</time></trkpt><trkpt lat="43.84817618984432" lon="11.253616684580637"><ele>606.0</ele><time>2026-04-19T08:01:11.999Z</time></trkpt><trkpt lat="43.84827815057144" lon="11.253628481849622"><ele>606.0</ele><time>2026-04-19T08:01:12.999Z</time></trkpt><trkpt lat="43.84839501385648" lon="11.253641320464407"><ele>606.0</ele><time>2026-04-19T08:01:13.999Z</time></trkpt><trkpt lat="43.84861743909801" lon="11.253666202884437"><ele>606.0</ele><time>2026-04-19T08:01:14.999Z</time></trkpt><trkpt lat="43.84877802479866" lon="11.253684656747435"><ele>606.5</ele><time>2026-04-19T08:01:15.999Z</time></trkpt><trkpt lat="43.848927626353635" lon="11.253699219743359"><ele>607.0</ele><time>2026-04-19T08:01:16.999Z</time></trkpt><trkpt lat="43.84905552328632" lon="11.253696674302832"><ele>607.5</ele><time>2026-04-19T08:01:17.999Z</time></trkpt><trkpt lat="43.849183888145625" lon="11.253669500521802"><ele>608.0</ele><time>2026-04-19T08:01:18.999Z</time></trkpt><trkpt lat="43.849328509135475" lon="11.253622894965066"><ele>608.0</ele><time>2026-04-19T08:01:19.999Z</time></trkpt><trkpt lat="43.84947478790071" lon="11.253579611821747"><ele>608.0</ele><time>2026-04-19T08:01:20.999Z</time></trkpt><trkpt lat="43.849606871487396" lon="11.253561116093126"><ele>608.0</ele><time>2026-04-19T08:01:21.999Z</time></trkpt><trkpt lat="43.84975254103099" lon="11.253553856639336"><ele>608.0</ele><time>2026-04-19T08:01:22.999Z</time></trkpt><trkpt lat="43.84989149889834" lon="11.25356565823474"><ele>608.0</ele><time>2026-04-19T08:01:23.999Z</time></trkpt><trkpt lat="43.850037918774106" lon="11.253587827632039"><ele>608.0</ele><time>2026-04-19T08:01:24.999Z</time></trkpt><trkpt lat="43.85018046959381" lon="11.253640218620518"><ele>608.0</ele><time>2026-04-19T08:01:25.999Z</time></trkpt><trkpt lat="43.85031910790925" lon="11.25369266555763"><ele>608.0</ele><time>2026-04-19T08:01:26.999Z</time></trkpt><trkpt lat="43.85046894901416" lon="11.25376491213489"><ele>607.3333333333333</ele><time>2026-04-19T08:01:27.999Z</time></trkpt><trkpt lat="43.85061990821415" lon="11.253902977908908"><ele>606.6666666666666</ele><time>2026-04-19T08:01:28.999Z</time></trkpt><trkpt lat="43.85078223141391" lon="11.254033782094401"><ele>606.0</ele><time>2026-04-19T08:01:29.999Z</time></trkpt><trkpt lat="43.850957153559634" lon="11.254167502727658"><ele>599.6666666666666</ele><time>2026-04-19T08:01:30.999Z</time></trkpt><trkpt lat="43.85115437736557" lon="11.254265412153755"><ele>593.3333333333333</ele><time>2026-04-19T08:01:31.999Z</time></trkpt><trkpt lat="43.851319491982395" lon="11.254316091053598"><ele>587.0</ele><time>2026-04-19T08:01:32.999Z</time></trkpt><trkpt lat="43.85149781207142" lon="11.254419676775923"><ele>587.0</ele><time>2026-04-19T08:01:33.999Z</time></trkpt><trkpt lat="43.85168471012091" lon="11.254537836525252"><ele>587.0</ele><time>2026-04-19T08:01:34.999Z</time></trkpt><trkpt lat="43.8518673220953" lon="11.25467196015044"><ele>587.0</ele><time>2026-04-19T08:01:35.999Z</time></trkpt><trkpt lat="43.85202872541988" lon="11.254812022202064"><ele>587.0</ele><time>2026-04-19T08:01:36.999Z</time></trkpt><trkpt lat="43.85218705833806" lon="11.254940303452363"><ele>587.0</ele><time>2026-04-19T08:01:37.999Z</time></trkpt><trkpt lat="43.85233631617424" lon="11.255061290289248"><ele>587.0</ele><time>2026-04-19T08:01:38.999Z</time></trkpt><trkpt lat="43.85249021200572" lon="11.25518191868597"><ele>598.6666666666666</ele><time>2026-04-19T08:01:40Z</time></trkpt><trkpt lat="43.85264982112594" lon="11.255294382232057"><ele>610.3333333333334</ele><time>2026-04-19T08:01:41Z</time></trkpt><trkpt lat="43.85281103893603" lon="11.255408103369888"><ele>622.0</ele><time>2026-04-19T08:01:42Z</time></trkpt><trkpt lat="43.85297200241206" lon="11.255537017551093"><ele>609.6666666666667</ele><time>2026-04-19T08:01:43Z</time></trkpt><trkpt lat="43.85312674931193" lon="11.255674482284387"><ele>597.3333333333334</ele><time>2026-04-19T08:01:44Z</time></trkpt><trkpt lat="43.853277030108856" lon="11.255801580542098"><ele>585.0</ele><time>2026-04-19T08:01:45Z</time></trkpt><trkpt lat="43.853417993552206" lon="11.255923445564123"><ele>590.75</ele><time>2026-04-19T08:01:46Z</time></trkpt><trkpt lat="43.85353886663246" lon="11.256050477961917"><ele>596.5</ele><time>2026-04-19T08:01:47Z</time></trkpt><trkpt lat="43.853651880658035" lon="11.256178853197534"><ele>602.25</ele><time>2026-04-19T08:01:48Z</time></trkpt><trkpt lat="43.853751219300506" lon="11.256284133304334"><ele>608.0</ele><time>2026-04-19T08:01:49Z</time></trkpt><trkpt lat="43.85383809832511" lon="11.256367951035175"><ele>608.0</ele><time>2026-04-19T08:01:50Z</time></trkpt><trkpt lat="43.85394695538468" lon="11.25640319122805"><ele>608.0</ele><time>2026-04-19T08:01:51Z</time></trkpt><trkpt lat="43.85407532831511" lon="11.256410073102863"><ele>608.0</ele><time>2026-04-19T08:01:52Z</time></trkpt><trkpt lat="43.85421947928145" lon="11.256405629800147"><ele>608.0</ele><time>2026-04-19T08:01:53Z</time></trkpt><trkpt lat="43.85434641185351" lon="11.25644788371461"><ele>604.0</ele><time>2026-04-19T08:01:54Z</time></trkpt><trkpt lat="43.85444955666001" lon="11.256521640893398"><ele>600.0</ele><time>2026-04-19T08:01:55Z</time></trkpt><trkpt lat="43.854583186509764" lon="11.256628541297015"><ele>596.0</ele><time>2026-04-19T08:01:56Z</time></trkpt><trkpt lat="43.85471683632876" lon="11.256769854064359"><ele>592.0</ele><time>2026-04-19T08:01:57Z</time></trkpt><trkpt lat="43.854849812159785" lon="11.256918906714173"><ele>592.0</ele><time>2026-04-19T08:01:58Z</time></trkpt><trkpt lat="43.85497145203039" lon="11.257045019283145"><ele>592.0</ele><time>2026-04-19T08:01:59Z</time></trkpt><trkpt lat="43.855087734934905" lon="11.257169659719285"><ele>592.0</ele><time>2026-04-19T08:02:00Z</time></trkpt><trkpt lat="43.85515837638943" lon="11.257352282864924"><ele>592.0</ele><time>2026-04-19T08:02:01Z</time></trkpt><trkpt lat="43.85520234333865" lon="11.257529327355567"><ele>594.5</ele><time>2026-04-19T08:02:02Z</time></trkpt><trkpt lat="43.8552142912834" lon="11.257709857269807"><ele>597.0</ele><time>2026-04-19T08:02:03Z</time></trkpt><trkpt lat="43.85522120038183" lon="11.257887549408897"><ele>599.5</ele><time>2026-04-19T08:02:04Z</time></trkpt><trkpt lat="43.85525652451626" lon="11.258057512035004"><ele>602.0</ele><time>2026-04-19T08:02:05Z</time></trkpt><trkpt lat="43.85536003545827" lon="11.258205436286174"><ele>602.0</ele><time>2026-04-19T08:02:06Z</time></trkpt><trkpt lat="43.85545573342208" lon="11.258331541564626"><ele>602.0</ele><time>2026-04-19T08:02:07Z</time></trkpt><trkpt lat="43.8555472168682" lon="11.258488640828526"><ele>602.0</ele><time>2026-04-19T08:02:08Z</time></trkpt><trkpt lat="43.85561462908091" lon="11.258696209760027"><ele>602.0</ele><time>2026-04-19T08:02:09Z</time></trkpt><trkpt lat="43.85567036906456" lon="11.258915389818128"><ele>596.3333333333333</ele><time>2026-04-19T08:02:10Z</time></trkpt><trkpt lat="43.855766638338174" lon="11.259078434891748"><ele>590.6666666666666</ele><time>2026-04-19T08:02:11Z</time></trkpt><trkpt lat="43.85585339565986" lon="11.259272659144811"><ele>585.0</ele><time>2026-04-19T08:02:12Z</time></trkpt><trkpt lat="43.8558880438677" lon="11.259503283074089"><ele>585.0</ele><time>2026-04-19T08:02:13Z</time></trkpt><trkpt lat="43.8559302621453" lon="11.259721500210365"><ele>585.0</ele><time>2026-04-19T08:02:14Z</time></trkpt><trkpt lat="43.85597629395303" lon="11.259940702031791"><ele>585.0</ele><time>2026-04-19T08:02:15Z</time></trkpt><trkpt lat="43.85602399460599" lon="11.260154516496653"><ele>587.3333333333334</ele><time>2026-04-19T08:02:16Z</time></trkpt><trkpt lat="43.85608660172528" lon="11.260360861700228"><ele>589.6666666666667</ele><time>2026-04-19T08:02:17Z</time></trkpt><trkpt lat="43.85617544497032" lon="11.260560526619175"><ele>592.0</ele><time>2026-04-19T08:02:18Z</time></trkpt><trkpt lat="43.85628823720046" lon="11.260688423852253"><ele>592.0</ele><time>2026-04-19T08:02:19Z</time></trkpt><trkpt lat="43.85637110427217" lon="11.260882636342991"><ele>592.0</ele><time>2026-04-19T08:02:20Z</time></trkpt><trkpt lat="43.856473388205224" lon="11.261000936561821"><ele>592.0</ele><time>2026-04-19T08:02:21Z</time></trkpt><trkpt lat="43.85662400523743" lon="11.261171049496747"><ele>592.0</ele><time>2026-04-19T08:02:22Z</time></trkpt><trkpt lat="43.856721229441746" lon="11.261350866518086"><ele>592.0</ele><time>2026-04-19T08:02:23Z</time></trkpt><trkpt lat="43.85680274682602" lon="11.261533268055812"><ele>592.0</ele><time>2026-04-19T08:02:24Z</time></trkpt><trkpt lat="43.85690340854852" lon="11.261672385679857"><ele>593.5</ele><time>2026-04-19T08:02:25Z</time></trkpt><trkpt lat="43.85698187813605" lon="11.261834879613042"><ele>595.0</ele><time>2026-04-19T08:02:26Z</time></trkpt><trkpt lat="43.85708024613084" lon="11.261975551653451"><ele>596.5</ele><time>2026-04-19T08:02:27Z</time></trkpt><trkpt lat="43.85715786319397" lon="11.262140330319273"><ele>598.0</ele><time>2026-04-19T08:02:28Z</time></trkpt><trkpt lat="43.857211543522695" lon="11.26230579774688"><ele>593.0</ele><time>2026-04-19T08:02:29Z</time></trkpt><trkpt lat="43.85724558103075" lon="11.2624588428013"><ele>588.0</ele><time>2026-04-19T08:02:30Z</time></trkpt><trkpt lat="43.85726526822534" lon="11.262602945799857"><ele>583.0</ele><time>2026-04-19T08:02:31Z</time></trkpt><trkpt lat="43.857362985393294" lon="11.26273734477747"><ele>578.0</ele><time>2026-04-19T08:02:32Z</time></trkpt><trkpt lat="43.857425257544236" lon="11.262854816141012"><ele>578.0</ele><time>2026-04-19T08:02:33Z</time></trkpt><trkpt lat="43.857516297827026" lon="11.262946212875322"><ele>578.0</ele><time>2026-04-19T08:02:34Z</time></trkpt><trkpt lat="43.8576138629584" lon="11.262999862033718"><ele>578.0</ele><time>2026-04-19T08:02:35Z</time></trkpt><trkpt lat="43.85770431868118" lon="11.263010689956111"><ele>578.0</ele><time>2026-04-19T08:02:36Z</time></trkpt><trkpt lat="43.85777761506575" lon="11.263003626917197"><ele>578.0</ele><time>2026-04-19T08:02:37Z</time></trkpt><trkpt lat="43.857883482918496" lon="11.262997924252135"><ele>578.3333333333333</ele><time>2026-04-19T08:02:39Z</time></trkpt><trkpt lat="43.85802720561053" lon="11.262996366519348"><ele>578.6666666666666</ele><time>2026-04-19T08:02:41Z</time></trkpt><trkpt lat="43.85818140568556" lon="11.263339071734281"><ele>579.0</ele><time>2026-04-19T08:02:43Z</time></trkpt><trkpt lat="43.85825864215657" lon="11.263413312637503"><ele>572.3333333333334</ele><time>2026-04-19T08:02:44Z</time></trkpt><trkpt lat="43.858365732984815" lon="11.26347880057317"><ele>565.6666666666667</ele><time>2026-04-19T08:02:45Z</time></trkpt><trkpt lat="43.858409002721565" lon="11.26363817896742"><ele>559.0</ele><time>2026-04-19T08:02:46Z</time></trkpt><trkpt lat="43.858875965241054" lon="11.263107588228166"><ele>560.0</ele><time>2026-04-19T08:02:47Z</time></trkpt><trkpt lat="43.85888654641342" lon="11.26321974762596"><ele>561.0</ele><time>2026-04-19T08:02:48Z</time></trkpt><trkpt lat="43.85879717506449" lon="11.263381664166298"><ele>562.0</ele><time>2026-04-19T08:02:49Z</time></trkpt><trkpt lat="43.85871490452732" lon="11.263523527623562"><ele>563.0</ele><time>2026-04-19T08:02:50Z</time></trkpt><trkpt lat="43.85873973588729" lon="11.263679172024105"><ele>563.0</ele><time>2026-04-19T08:02:51Z</time></trkpt><trkpt lat="43.85878518340928" lon="11.263894717938824"><ele>563.0</ele><time>2026-04-19T08:02:52Z</time></trkpt><trkpt lat="43.85882259007771" lon="11.264133216562783"><ele>563.0</ele><time>2026-04-19T08:02:53Z</time></trkpt><trkpt lat="43.85893945268312" lon="11.264460717902846"><ele>562.3333333333333</ele><time>2026-04-19T08:02:54Z</time></trkpt><trkpt lat="43.85898608043287" lon="11.264731815740683"><ele>561.6666666666666</ele><time>2026-04-19T08:02:55Z</time></trkpt><trkpt lat="43.85907585165809" lon="11.26495740446019"><ele>561.0</ele><time>2026-04-19T08:02:56Z</time></trkpt><trkpt lat="43.859181912792685" lon="11.265129767138424"><ele>564.3333333333334</ele><time>2026-04-19T08:02:57Z</time></trkpt><trkpt lat="43.859302231069314" lon="11.265323177138592"><ele>567.6666666666667</ele><time>2026-04-19T08:02:58Z</time></trkpt><trkpt lat="43.859411516326595" lon="11.265501110593476"><ele>571.0</ele><time>2026-04-19T08:02:59Z</time></trkpt><trkpt lat="43.85953442894663" lon="11.265700525381726"><ele>571.0</ele><time>2026-04-19T08:03:00Z</time></trkpt><trkpt lat="43.859653455279236" lon="11.265894326334244"><ele>571.0</ele><time>2026-04-19T08:03:01Z</time></trkpt><trkpt lat="43.859757169034225" lon="11.266074199732149"><ele>571.0</ele><time>2026-04-19T08:03:02Z</time></trkpt><trkpt lat="43.859847906424704" lon="11.266231632945995"><ele>571.0</ele><time>2026-04-19T08:03:03Z</time></trkpt><trkpt lat="43.85996134237588" lon="11.266422078607523"><ele>571.0</ele><time>2026-04-19T08:03:04Z</time></trkpt><trkpt lat="43.85999466602974" lon="11.26660899900535"><ele>571.0</ele><time>2026-04-19T08:03:05Z</time></trkpt><trkpt lat="43.859982510114214" lon="11.266808483726772"><ele>568.6666666666667</ele><time>2026-04-19T08:03:06Z</time></trkpt><trkpt lat="43.8599606197598" lon="11.267101330480166"><ele>566.3333333333334</ele><time>2026-04-19T08:03:07Z</time></trkpt><trkpt lat="43.85993248731276" lon="11.267347310374086"><ele>564.0</ele><time>2026-04-19T08:03:08Z</time></trkpt><trkpt lat="43.85988566713236" lon="11.26755428430843"><ele>564.0</ele><time>2026-04-19T08:03:09Z</time></trkpt><trkpt lat="43.859829181082596" lon="11.267786249034915"><ele>564.0</ele><time>2026-04-19T08:03:10Z</time></trkpt><trkpt lat="43.85978150464378" lon="11.267917450547912"><ele>564.0</ele><time>2026-04-19T08:03:11Z</time></trkpt><trkpt lat="43.85975888510761" lon="11.268029465357676"><ele>564.0</ele><time>2026-04-19T08:03:11.999Z</time></trkpt><trkpt lat="43.85986515154679" lon="11.268212169498245"><ele>561.6666666666666</ele><time>2026-04-19T08:03:12.999Z</time></trkpt><trkpt lat="43.85994306769864" lon="11.268353416848502"><ele>559.3333333333333</ele><time>2026-04-19T08:03:13.999Z</time></trkpt><trkpt lat="43.860035037398944" lon="11.268553604862628"><ele>557.0</ele><time>2026-04-19T08:03:14.999Z</time></trkpt><trkpt lat="43.860153337094374" lon="11.268757077460192"><ele>563.3333333333333</ele><time>2026-04-19T08:03:15.999Z</time></trkpt><trkpt lat="43.86024785791679" lon="11.268943845365849"><ele>569.6666666666666</ele><time>2026-04-19T08:03:16.999Z</time></trkpt><trkpt lat="43.860292198559605" lon="11.269162977193252"><ele>576.0</ele><time>2026-04-19T08:03:17.999Z</time></trkpt><trkpt lat="43.86034338812196" lon="11.269365431679937"><ele>576.0</ele><time>2026-04-19T08:03:18.999Z</time></trkpt><trkpt lat="43.860372595648876" lon="11.269547294132925"><ele>576.0</ele><time>2026-04-19T08:03:19.999Z</time></trkpt><trkpt lat="43.86036213553891" lon="11.269715679622761"><ele>576.0</ele><time>2026-04-19T08:03:20.999Z</time></trkpt><trkpt lat="43.860316420871435" lon="11.269883018932953"><ele>576.0</ele><time>2026-04-19T08:03:21.999Z</time></trkpt><trkpt lat="43.86023332195611" lon="11.270020305839479"><ele>573.5</ele><time>2026-04-19T08:03:22.999Z</time></trkpt><trkpt lat="43.86012103672186" lon="11.270120066046896"><ele>571.0</ele><time>2026-04-19T08:03:23.999Z</time></trkpt><trkpt lat="43.85998123207384" lon="11.270196867180976"><ele>568.5</ele><time>2026-04-19T08:03:24.999Z</time></trkpt><trkpt lat="43.8598254502068" lon="11.27026517277125"><ele>566.0</ele><time>2026-04-19T08:03:25.999Z</time></trkpt><trkpt lat="43.85963748102112" lon="11.270342954108347"><ele>561.5</ele><time>2026-04-19T08:03:26.999Z</time></trkpt><trkpt lat="43.85950311600018" lon="11.270404474692466"><ele>557.0</ele><time>2026-04-19T08:03:27.999Z</time></trkpt><trkpt lat="43.85937280841498" lon="11.270492973507384"><ele>552.5</ele><time>2026-04-19T08:03:28.999Z</time></trkpt><trkpt lat="43.85927775112075" lon="11.270603938721916"><ele>548.0</ele><time>2026-04-19T08:03:29.999Z</time></trkpt><trkpt lat="43.85921774081017" lon="11.270813085377608"><ele>549.25</ele><time>2026-04-19T08:03:30.999Z</time></trkpt><trkpt lat="43.85922103121123" lon="11.271028740741453"><ele>550.5</ele><time>2026-04-19T08:03:31.999Z</time></trkpt><trkpt lat="43.85921204420156" lon="11.271221937887708"><ele>551.75</ele><time>2026-04-19T08:03:32.999Z</time></trkpt><trkpt lat="43.85927660496912" lon="11.271384754875395"><ele>553.0</ele><time>2026-04-19T08:03:33.999Z</time></trkpt><trkpt lat="43.85940004568955" lon="11.271564259632896"><ele>553.0</ele><time>2026-04-19T08:03:34.999Z</time></trkpt><trkpt lat="43.85952782730223" lon="11.27172036413251"><ele>553.0</ele><time>2026-04-19T08:03:35.999Z</time></trkpt><trkpt lat="43.859610085978524" lon="11.271874438207785"><ele>553.0</ele><time>2026-04-19T08:03:36.999Z</time></trkpt><trkpt lat="43.85964737454251" lon="11.272051032619176"><ele>553.0</ele><time>2026-04-19T08:03:37.999Z</time></trkpt><trkpt lat="43.85964387903729" lon="11.272237835738794"><ele>551.5</ele><time>2026-04-19T08:03:38.999Z</time></trkpt><trkpt lat="43.85960683957829" lon="11.27240876466852"><ele>550.0</ele><time>2026-04-19T08:03:39.999Z</time></trkpt><trkpt lat="43.859529764198705" lon="11.272557346055342"><ele>548.5</ele><time>2026-04-19T08:03:40.999Z</time></trkpt><trkpt lat="43.85941104842831" lon="11.272699971178945"><ele>547.0</ele><time>2026-04-19T08:03:41.999Z</time></trkpt><trkpt lat="43.85928271675663" lon="11.272798173109502"><ele>546.0</ele><time>2026-04-19T08:03:42.999Z</time></trkpt><trkpt lat="43.85914589409059" lon="11.272879490851585"><ele>545.0</ele><time>2026-04-19T08:03:43.999Z</time></trkpt><trkpt lat="43.858959285926744" lon="11.272938313336287"><ele>544.0</ele><time>2026-04-19T08:03:44.999Z</time></trkpt><trkpt lat="43.858845278459846" lon="11.273106219412712"><ele>544.0</ele><time>2026-04-19T08:03:46Z</time></trkpt><trkpt lat="43.85870651502899" lon="11.273243608490969"><ele>544.0</ele><time>2026-04-19T08:03:47Z</time></trkpt><trkpt lat="43.85859183377172" lon="11.273397912881533"><ele>544.0</ele><time>2026-04-19T08:03:48Z</time></trkpt><trkpt lat="43.85849601477545" lon="11.273503104955665"><ele>540.75</ele><time>2026-04-19T08:03:49Z</time></trkpt><trkpt lat="43.858407430941924" lon="11.273650763300974"><ele>537.5</ele><time>2026-04-19T08:03:50Z</time></trkpt><trkpt lat="43.85833989560482" lon="11.273824320370146"><ele>534.25</ele><time>2026-04-19T08:03:51Z</time></trkpt><trkpt lat="43.858320822449606" lon="11.274014213685474"><ele>531.0</ele><time>2026-04-19T08:03:52Z</time></trkpt><trkpt lat="43.85832962339859" lon="11.274196050129946"><ele>531.0</ele><time>2026-04-19T08:03:53Z</time></trkpt><trkpt lat="43.858438164407744" lon="11.27441088528933"><ele>531.0</ele><time>2026-04-19T08:03:54Z</time></trkpt><trkpt lat="43.85853345455147" lon="11.274622042163761"><ele>531.0</ele><time>2026-04-19T08:03:55Z</time></trkpt><trkpt lat="43.85855369919347" lon="11.27490212116225"><ele>540.5</ele><time>2026-04-19T08:03:56Z</time></trkpt><trkpt lat="43.85871947687818" lon="11.275144009536307"><ele>550.0</ele><time>2026-04-19T08:03:57Z</time></trkpt><trkpt lat="43.858823948211295" lon="11.275412066982478"><ele>545.3333333333334</ele><time>2026-04-19T08:03:58Z</time></trkpt><trkpt lat="43.858917587500486" lon="11.275631346866945"><ele>540.6666666666666</ele><time>2026-04-19T08:03:59Z</time></trkpt><trkpt lat="43.85902392223328" lon="11.275916425592802"><ele>536.0</ele><time>2026-04-19T08:04:00Z</time></trkpt><trkpt lat="43.85912546431692" lon="11.27620240989077"><ele>535.3333333333333</ele><time>2026-04-19T08:04:01Z</time></trkpt><trkpt lat="43.85922104756722" lon="11.276474815081015"><ele>534.6666666666666</ele><time>2026-04-19T08:04:02Z</time></trkpt><trkpt lat="43.85930772513758" lon="11.276735871867004"><ele>534.0</ele><time>2026-04-19T08:04:03Z</time></trkpt><trkpt lat="43.859359697680986" lon="11.276999696067701"><ele>534.0</ele><time>2026-04-19T08:04:04Z</time></trkpt><trkpt lat="43.85945046366256" lon="11.277248861768642"><ele>534.0</ele><time>2026-04-19T08:04:05Z</time></trkpt><trkpt lat="43.8595370521669" lon="11.277477087367034"><ele>534.0</ele><time>2026-04-19T08:04:06Z</time></trkpt><trkpt lat="43.85962900535396" lon="11.277685529938868"><ele>530.6666666666666</ele><time>2026-04-19T08:04:07Z</time></trkpt><trkpt lat="43.85974801081096" lon="11.27786620138929"><ele>527.3333333333333</ele><time>2026-04-19T08:04:08Z</time></trkpt><trkpt lat="43.859850647461066" lon="11.278052460836447"><ele>524.0</ele><time>2026-04-19T08:04:09Z</time></trkpt><trkpt lat="43.85997334608922" lon="11.278227754887736"><ele>519.6666666666666</ele><time>2026-04-19T08:04:10Z</time></trkpt><trkpt lat="43.86007058384166" lon="11.278396211735332"><ele>515.3333333333334</ele><time>2026-04-19T08:04:11Z</time></trkpt><trkpt lat="43.86015635686809" lon="11.278567614071964"><ele>511.0</ele><time>2026-04-19T08:04:12Z</time></trkpt><trkpt lat="43.860224969983044" lon="11.27875544012247"><ele>508.6666666666667</ele><time>2026-04-19T08:04:13Z</time></trkpt><trkpt lat="43.860269036122794" lon="11.278975496393869"><ele>506.33333333333337</ele><time>2026-04-19T08:04:14Z</time></trkpt><trkpt lat="43.86029181107631" lon="11.279206202894226"><ele>504.0</ele><time>2026-04-19T08:04:15Z</time></trkpt><trkpt lat="43.860276972230594" lon="11.279434325673265"><ele>504.0</ele><time>2026-04-19T08:04:16Z</time></trkpt><trkpt lat="43.86024983153182" lon="11.279650452061851"><ele>504.0</ele><time>2026-04-19T08:04:17Z</time></trkpt><trkpt lat="43.86020433773504" lon="11.279886858401031"><ele>504.0</ele><time>2026-04-19T08:04:18Z</time></trkpt><trkpt lat="43.86014111787222" lon="11.280150982292202"><ele>502.33333333333337</ele><time>2026-04-19T08:04:19Z</time></trkpt><trkpt lat="43.860070174172236" lon="11.280408517046787"><ele>500.6666666666667</ele><time>2026-04-19T08:04:20Z</time></trkpt><trkpt lat="43.85999789360355" lon="11.280646003138454"><ele>499.0</ele><time>2026-04-19T08:04:21Z</time></trkpt><trkpt lat="43.85992125932141" lon="11.280863123647961"><ele>498.6666666666667</ele><time>2026-04-19T08:04:22Z</time></trkpt><trkpt lat="43.859824783321905" lon="11.28106521845475"><ele>498.33333333333337</ele><time>2026-04-19T08:04:23Z</time></trkpt><trkpt lat="43.8597123218821" lon="11.281225377251607"><ele>498.0</ele><time>2026-04-19T08:04:24Z</time></trkpt><trkpt lat="43.859580167491785" lon="11.281346538272148"><ele>497.0</ele><time>2026-04-19T08:04:25Z</time></trkpt><trkpt lat="43.8594355403002" lon="11.281454290111984"><ele>496.0</ele><time>2026-04-19T08:04:26Z</time></trkpt><trkpt lat="43.85929182943253" lon="11.28156176886292"><ele>495.0</ele><time>2026-04-19T08:04:27Z</time></trkpt><trkpt lat="43.85917082564749" lon="11.281672081739059"><ele>495.0</ele><time>2026-04-19T08:04:28Z</time></trkpt><trkpt lat="43.85905597887749" lon="11.281770327049369"><ele>495.0</ele><time>2026-04-19T08:04:29Z</time></trkpt><trkpt lat="43.858965472569935" lon="11.281877148109718"><ele>495.0</ele><time>2026-04-19T08:04:30Z</time></trkpt><trkpt lat="43.858885133041795" lon="11.282042872162888"><ele>495.0</ele><time>2026-04-19T08:04:31Z</time></trkpt><trkpt lat="43.858841362854186" lon="11.282250149935939"><ele>496.0</ele><time>2026-04-19T08:04:32Z</time></trkpt><trkpt lat="43.85878168690315" lon="11.282505915465249"><ele>497.0</ele><time>2026-04-19T08:04:33Z</time></trkpt><trkpt lat="43.85872777496042" lon="11.282764263875636"><ele>498.0</ele><time>2026-04-19T08:04:34Z</time></trkpt><trkpt lat="43.85865753122709" lon="11.282997618574933"><ele>494.33333333333337</ele><time>2026-04-19T08:04:35Z</time></trkpt><trkpt lat="43.8586031751651" lon="11.283218896655612"><ele>490.6666666666667</ele><time>2026-04-19T08:04:36Z</time></trkpt><trkpt lat="43.85855459211056" lon="11.283416673716259"><ele>487.0</ele><time>2026-04-19T08:04:37Z</time></trkpt><trkpt lat="43.85850340393116" lon="11.283609649799706"><ele>488.75</ele><time>2026-04-19T08:04:38Z</time></trkpt><trkpt lat="43.85844406365154" lon="11.283775278942715"><ele>490.5</ele><time>2026-04-19T08:04:39Z</time></trkpt><trkpt lat="43.85836559075687" lon="11.283895186652213"><ele>492.25</ele><time>2026-04-19T08:04:40Z</time></trkpt><trkpt lat="43.85826262636823" lon="11.283983851561821"><ele>494.0</ele><time>2026-04-19T08:04:41Z</time></trkpt><trkpt lat="43.85812087069563" lon="11.284042832121981"><ele>494.0</ele><time>2026-04-19T08:04:42Z</time></trkpt><trkpt lat="43.85796188648357" lon="11.284039139798654"><ele>494.0</ele><time>2026-04-19T08:04:43Z</time></trkpt><trkpt lat="43.85780257129496" lon="11.283987293373318"><ele>494.0</ele><time>2026-04-19T08:04:44Z</time></trkpt><trkpt lat="43.85762032435026" lon="11.28394398252294"><ele>495.66666666666663</ele><time>2026-04-19T08:04:45Z</time></trkpt><trkpt lat="43.85741556968612" lon="11.283928675301983"><ele>497.33333333333337</ele><time>2026-04-19T08:04:46Z</time></trkpt><trkpt lat="43.85722238711316" lon="11.283950676060272"><ele>499.0</ele><time>2026-04-19T08:04:47Z</time></trkpt><trkpt lat="43.8570499992113" lon="11.28399151683382"><ele>499.0</ele><time>2026-04-19T08:04:48Z</time></trkpt><trkpt lat="43.85688681185839" lon="11.28401749506403"><ele>499.0</ele><time>2026-04-19T08:04:49Z</time></trkpt><trkpt lat="43.856747472110094" lon="11.28404998699758"><ele>499.0</ele><time>2026-04-19T08:04:50Z</time></trkpt><trkpt lat="43.85663136348791" lon="11.284132991527537"><ele>499.0</ele><time>2026-04-19T08:04:51Z</time></trkpt><trkpt lat="43.85652389805788" lon="11.284334149915795"><ele>499.33333333333337</ele><time>2026-04-19T08:04:52Z</time></trkpt><trkpt lat="43.85643256630306" lon="11.284557058649899"><ele>499.66666666666663</ele><time>2026-04-19T08:04:53Z</time></trkpt><trkpt lat="43.856347702745445" lon="11.284843018557353"><ele>500.0</ele><time>2026-04-19T08:04:54Z</time></trkpt><trkpt lat="43.85625573645914" lon="11.285121080023663"><ele>499.3333333333333</ele><time>2026-04-19T08:04:55Z</time></trkpt><trkpt lat="43.85615661330738" lon="11.285399059853416"><ele>498.66666666666663</ele><time>2026-04-19T08:04:56Z</time></trkpt><trkpt lat="43.85606609810097" lon="11.285633925438118"><ele>498.0</ele><time>2026-04-19T08:04:57Z</time></trkpt><trkpt lat="43.85598155883685" lon="11.285842016073547"><ele>498.33333333333337</ele><time>2026-04-19T08:04:58Z</time></trkpt><trkpt lat="43.855913448077956" lon="11.286050189745334"><ele>498.6666666666667</ele><time>2026-04-19T08:04:59Z</time></trkpt><trkpt lat="43.85586917089225" lon="11.2862668257084"><ele>499.0</ele><time>2026-04-19T08:05:00Z</time></trkpt><trkpt lat="43.85584914660729" lon="11.28650843324786"><ele>499.33333333333337</ele><time>2026-04-19T08:05:01Z</time></trkpt><trkpt lat="43.855850890040244" lon="11.28676492291824"><ele>499.66666666666663</ele><time>2026-04-19T08:05:02Z</time></trkpt><trkpt lat="43.855867652590796" lon="11.28703421738738"><ele>500.0</ele><time>2026-04-19T08:05:03Z</time></trkpt><trkpt lat="43.85590239437726" lon="11.28727657946708"><ele>505.3333333333333</ele><time>2026-04-19T08:05:04Z</time></trkpt><trkpt lat="43.85596736210821" lon="11.287486706264932"><ele>510.66666666666663</ele><time>2026-04-19T08:05:05Z</time></trkpt><trkpt lat="43.856015100302024" lon="11.287705601949924"><ele>516.0</ele><time>2026-04-19T08:05:06Z</time></trkpt><trkpt lat="43.856042534456044" lon="11.287923086854"><ele>514.0</ele><time>2026-04-19T08:05:07Z</time></trkpt><trkpt lat="43.856040251075726" lon="11.288143583249857"><ele>512.0</ele><time>2026-04-19T08:05:08Z</time></trkpt><trkpt lat="43.8560372121185" lon="11.28835617447934"><ele>510.0</ele><time>2026-04-19T08:05:09Z</time></trkpt><trkpt lat="43.85604309175673" lon="11.288568007916295"><ele>510.0</ele><time>2026-04-19T08:05:10Z</time></trkpt><trkpt lat="43.85602648150426" lon="11.288766035998684"><ele>510.0</ele><time>2026-04-19T08:05:11Z</time></trkpt><trkpt lat="43.856013147232765" lon="11.288967238961993"><ele>510.0</ele><time>2026-04-19T08:05:12Z</time></trkpt><trkpt lat="43.85600328896784" lon="11.289166572376644"><ele>510.0</ele><time>2026-04-19T08:05:13Z</time></trkpt><trkpt lat="43.85599626208823" lon="11.289360843091584"><ele>507.0</ele><time>2026-04-19T08:05:14Z</time></trkpt><trkpt lat="43.85596964796311" lon="11.289545987297634"><ele>504.0</ele><time>2026-04-19T08:05:15Z</time></trkpt><trkpt lat="43.85595253129135" lon="11.28971660498879"><ele>501.0</ele><time>2026-04-19T08:05:16Z</time></trkpt><trkpt lat="43.85593134525627" lon="11.289865216109195"><ele>498.0</ele><time>2026-04-19T08:05:17Z</time></trkpt><trkpt lat="43.8559016886903" lon="11.289997145306373"><ele>497.0</ele><time>2026-04-19T08:05:18Z</time></trkpt><trkpt lat="43.85587031854237" lon="11.29010339933769"><ele>495.99999999999994</ele><time>2026-04-19T08:05:19Z</time></trkpt><trkpt lat="43.85583275846774" lon="11.29019836240636"><ele>494.99999999999994</ele><time>2026-04-19T08:05:21Z</time></trkpt><trkpt lat="43.855792048193884" lon="11.290276814348159"><ele>494.0</ele><time>2026-04-19T08:05:24Z</time></trkpt><trkpt lat="43.85592804259536" lon="11.29036554697662"><ele>493.0</ele><time>2026-04-19T08:05:26Z</time></trkpt><trkpt lat="43.856003572654465" lon="11.290431654917723"><ele>491.25</ele><time>2026-04-19T08:05:27Z</time></trkpt><trkpt lat="43.85611318440003" lon="11.290534959272296"><ele>489.5</ele><time>2026-04-19T08:05:28Z</time></trkpt><trkpt lat="43.85623150905317" lon="11.290648604091885"><ele>487.75</ele><time>2026-04-19T08:05:29Z</time></trkpt><trkpt lat="43.856348470668735" lon="11.290760939619858"><ele>486.0</ele><time>2026-04-19T08:05:30Z</time></trkpt><trkpt lat="43.85645874415662" lon="11.290895385634624"><ele>486.0</ele><time>2026-04-19T08:05:31Z</time></trkpt><trkpt lat="43.85658411777928" lon="11.291011589277444"><ele>486.0</ele><time>2026-04-19T08:05:32Z</time></trkpt><trkpt lat="43.85672054765486" lon="11.291125075168026"><ele>486.0</ele><time>2026-04-19T08:05:33Z</time></trkpt><trkpt lat="43.85685101087974" lon="11.291246478577113"><ele>486.75</ele><time>2026-04-19T08:05:34Z</time></trkpt><trkpt lat="43.85696997556221" lon="11.291361810126201"><ele>487.5</ele><time>2026-04-19T08:05:35Z</time></trkpt><trkpt lat="43.857082378202925" lon="11.2914712712268"><ele>488.25</ele><time>2026-04-19T08:05:36Z</time></trkpt><trkpt lat="43.85718472363972" lon="11.291567120249153"><ele>489.0</ele><time>2026-04-19T08:05:37Z</time></trkpt><trkpt lat="43.85728159071317" lon="11.29167204268377"><ele>489.0</ele><time>2026-04-19T08:05:38Z</time></trkpt><trkpt lat="43.85737615025796" lon="11.291785071039277"><ele>489.0</ele><time>2026-04-19T08:05:39Z</time></trkpt><trkpt lat="43.857472886046814" lon="11.291901212149746"><ele>489.0</ele><time>2026-04-19T08:05:40Z</time></trkpt><trkpt lat="43.85756514171014" lon="11.29204053863316"><ele>489.0</ele><time>2026-04-19T08:05:41Z</time></trkpt><trkpt lat="43.85765910426531" lon="11.292156146928356"><ele>490.75</ele><time>2026-04-19T08:05:42Z</time></trkpt><trkpt lat="43.85778369726806" lon="11.292261768509396"><ele>492.5</ele><time>2026-04-19T08:05:43Z</time></trkpt><trkpt lat="43.85791906382053" lon="11.29234080909156"><ele>494.25</ele><time>2026-04-19T08:05:44Z</time></trkpt><trkpt lat="43.85805653278848" lon="11.292411242443606"><ele>496.0</ele><time>2026-04-19T08:05:45Z</time></trkpt><trkpt lat="43.858186960118594" lon="11.292501755926594"><ele>496.0</ele><time>2026-04-19T08:05:46Z</time></trkpt><trkpt lat="43.85832346473455" lon="11.292567015667293"><ele>496.0</ele><time>2026-04-19T08:05:47Z</time></trkpt><trkpt lat="43.85846949047166" lon="11.29263817310441"><ele>496.0</ele><time>2026-04-19T08:05:47.999Z</time></trkpt><trkpt lat="43.85859147511204" lon="11.292711677742187"><ele>496.0</ele><time>2026-04-19T08:05:48.999Z</time></trkpt><trkpt lat="43.858706972078004" lon="11.292779039303037"><ele>494.5</ele><time>2026-04-19T08:05:49.999Z</time></trkpt><trkpt lat="43.85882045716554" lon="11.292846086791608"><ele>493.0</ele><time>2026-04-19T08:05:51Z</time></trkpt><trkpt lat="43.85893089054872" lon="11.292911746882439"><ele>491.5</ele><time>2026-04-19T08:05:52Z</time></trkpt><trkpt lat="43.85903064274019" lon="11.292972287547789"><ele>490.0</ele><time>2026-04-19T08:05:53Z</time></trkpt><trkpt lat="43.859124797045986" lon="11.293028844511216"><ele>490.0</ele><time>2026-04-19T08:05:54Z</time></trkpt><trkpt lat="43.859214725461776" lon="11.293083646028286"><ele>490.0</ele><time>2026-04-19T08:05:55Z</time></trkpt><trkpt lat="43.859305825526945" lon="11.29314275492185"><ele>490.0</ele><time>2026-04-19T08:05:56Z</time></trkpt><trkpt lat="43.85940146379436" lon="11.293197242526277"><ele>490.0</ele><time>2026-04-19T08:05:57Z</time></trkpt><trkpt lat="43.85949345557461" lon="11.293248597024505"><ele>490.0</ele><time>2026-04-19T08:05:58Z</time></trkpt><trkpt lat="43.85959049410302" lon="11.293309559738427"><ele>490.25</ele><time>2026-04-19T08:05:59Z</time></trkpt><trkpt lat="43.85968759880419" lon="11.293399217322813"><ele>490.5</ele><time>2026-04-19T08:06:00Z</time></trkpt><trkpt lat="43.85979372437593" lon="11.29350330376508"><ele>490.75</ele><time>2026-04-19T08:06:01Z</time></trkpt><trkpt lat="43.85990013998084" lon="11.293611079347208"><ele>491.0</ele><time>2026-04-19T08:06:02Z</time></trkpt><trkpt lat="43.85999612985765" lon="11.293713771627134"><ele>491.0</ele><time>2026-04-19T08:06:03Z</time></trkpt><trkpt lat="43.86009392924646" lon="11.293801907574524"><ele>491.0</ele><time>2026-04-19T08:06:04Z</time></trkpt><trkpt lat="43.86018497230269" lon="11.293876725195318"><ele>491.0</ele><time>2026-04-19T08:06:05Z</time></trkpt><trkpt lat="43.86027530754798" lon="11.29394422318033"><ele>491.0</ele><time>2026-04-19T08:06:06Z</time></trkpt><trkpt lat="43.86036533304971" lon="11.294013386943728"><ele>491.0</ele><time>2026-04-19T08:06:07Z</time></trkpt><trkpt lat="43.86043135104076" lon="11.294080516300431"><ele>491.49999999999994</ele><time>2026-04-19T08:06:08Z</time></trkpt><trkpt lat="43.86048633705082" lon="11.294164244558239"><ele>492.0</ele><time>2026-04-19T08:06:09Z</time></trkpt><trkpt lat="43.86051246963818" lon="11.294266849194011"><ele>492.5</ele><time>2026-04-19T08:06:10Z</time></trkpt><trkpt lat="43.86051504924711" lon="11.294373193562546"><ele>493.0</ele><time>2026-04-19T08:06:11Z</time></trkpt><trkpt lat="43.86048225824028" lon="11.29445794792595"><ele>493.49999999999994</ele><time>2026-04-19T08:06:12Z</time></trkpt><trkpt lat="43.86042752817827" lon="11.294527264151311"><ele>494.0</ele><time>2026-04-19T08:06:13Z</time></trkpt><trkpt lat="43.86039023451705" lon="11.294616580213301"><ele>494.0</ele><time>2026-04-19T08:06:14Z</time></trkpt><trkpt lat="43.86039310003928" lon="11.294725872808556"><ele>494.0</ele><time>2026-04-19T08:06:15Z</time></trkpt><trkpt lat="43.86042435092821" lon="11.294835324801813"><ele>494.0</ele><time>2026-04-19T08:06:16Z</time></trkpt><trkpt lat="43.86048551511187" lon="11.294942616887505"><ele>494.0</ele><time>2026-04-19T08:06:17Z</time></trkpt><trkpt lat="43.86054024828284" lon="11.29507567199939"><ele>494.0</ele><time>2026-04-19T08:06:18Z</time></trkpt><trkpt lat="43.860593945461495" lon="11.295228486531672"><ele>493.25</ele><time>2026-04-19T08:06:19Z</time></trkpt><trkpt lat="43.86064507364862" lon="11.295375685955404"><ele>492.5</ele><time>2026-04-19T08:06:20Z</time></trkpt><trkpt lat="43.86070002429406" lon="11.295527432022329"><ele>491.75</ele><time>2026-04-19T08:06:21Z</time></trkpt><trkpt lat="43.86075817216792" lon="11.295681743755754"><ele>491.0</ele><time>2026-04-19T08:06:22Z</time></trkpt><trkpt lat="43.8608244756371" lon="11.295857611830378"><ele>492.0</ele><time>2026-04-19T08:06:23Z</time></trkpt><trkpt lat="43.86089631314097" lon="11.29604810410784"><ele>493.0</ele><time>2026-04-19T08:06:24Z</time></trkpt><trkpt lat="43.86095995798226" lon="11.296220946769518"><ele>494.0</ele><time>2026-04-19T08:06:25Z</time></trkpt><trkpt lat="43.861018397015705" lon="11.296381102455246"><ele>495.0</ele><time>2026-04-19T08:06:26Z</time></trkpt><trkpt lat="43.86107359570278" lon="11.296532377658755"><ele>495.0</ele><time>2026-04-19T08:06:27Z</time></trkpt><trkpt lat="43.861131205943195" lon="11.296687662713836"><ele>495.0</ele><time>2026-04-19T08:06:28Z</time></trkpt><trkpt lat="43.86118982845604" lon="11.296846687440754"><ele>495.0</ele><time>2026-04-19T08:06:29Z</time></trkpt><trkpt lat="43.861248949435705" lon="11.297010730497055"><ele>495.0</ele><time>2026-04-19T08:06:30Z</time></trkpt><trkpt lat="43.86129348321695" lon="11.297177244239855"><ele>493.6</ele><time>2026-04-19T08:06:31Z</time></trkpt><trkpt lat="43.86135011758879" lon="11.297334689085073"><ele>492.2</ele><time>2026-04-19T08:06:32Z</time></trkpt><trkpt lat="43.861406912617944" lon="11.297476721285848"><ele>490.79999999999995</ele><time>2026-04-19T08:06:33Z</time></trkpt><trkpt lat="43.86145906306473" lon="11.297598256717151"><ele>489.4</ele><time>2026-04-19T08:06:34Z</time></trkpt><trkpt lat="43.8615003759159" lon="11.297704056278658"><ele>488.0</ele><time>2026-04-19T08:06:35Z</time></trkpt><trkpt lat="43.86151830655066" lon="11.297808122089226"><ele>488.0</ele><time>2026-04-19T08:06:36Z</time></trkpt><trkpt lat="43.861494992222134" lon="11.29790276836343"><ele>487.99999999999994</ele><time>2026-04-19T08:06:37Z</time></trkpt><trkpt lat="43.86145506388957" lon="11.29797956594022"><ele>487.99999999999994</ele><time>2026-04-19T08:06:38Z</time></trkpt><trkpt lat="43.86138338674137" lon="11.298068255961494"><ele>488.0</ele><time>2026-04-19T08:06:40Z</time></trkpt><trkpt lat="43.8613501758113" lon="11.2981445149136"><ele>488.0</ele><time>2026-04-19T08:06:42Z</time></trkpt><trkpt lat="43.86142419595388" lon="11.298337726246661"><ele>486.66666666666663</ele><time>2026-04-19T08:06:45Z</time></trkpt><trkpt lat="43.861477226360535" lon="11.29839400932394"><ele>485.3333333333333</ele><time>2026-04-19T08:06:46Z</time></trkpt><trkpt lat="43.86154085099192" lon="11.298463773540842"><ele>484.0</ele><time>2026-04-19T08:06:48Z</time></trkpt><trkpt lat="43.86159716800114" lon="11.298535782363414"><ele>482.66666666666663</ele><time>2026-04-19T08:06:50Z</time></trkpt><trkpt lat="43.8615655173719" lon="11.298664616853301"><ele>481.3333333333333</ele><time>2026-04-19T08:06:52Z</time></trkpt><trkpt lat="43.86148823855619" lon="11.298780841129043"><ele>480.0</ele><time>2026-04-19T08:06:54Z</time></trkpt><trkpt lat="43.86144472781568" lon="11.298846279574258"><ele>480.0</ele><time>2026-04-19T08:06:56Z</time></trkpt><trkpt lat="43.861389091606355" lon="11.298903513305858"><ele>480.0</ele><time>2026-04-19T08:07:01Z</time></trkpt><trkpt lat="43.86136732248944" lon="11.298996292189525"><ele>480.0</ele><time>2026-04-19T08:07:08Z</time></trkpt><trkpt lat="43.86140154198084" lon="11.29915722052339"><ele>480.0</ele><time>2026-04-19T08:07:10Z</time></trkpt><trkpt lat="43.861483166656015" lon="11.299252663457425"><ele>480.0</ele><time>2026-04-19T08:07:11Z</time></trkpt><trkpt lat="43.86156013106685" lon="11.299355897219398"><ele>479.5</ele><time>2026-04-19T08:07:12Z</time></trkpt><trkpt lat="43.86162703562255" lon="11.299463801654063"><ele>479.0</ele><time>2026-04-19T08:07:13Z</time></trkpt><trkpt lat="43.86171068244562" lon="11.299570208597254"><ele>478.5</ele><time>2026-04-19T08:07:14Z</time></trkpt><trkpt lat="43.86178702833219" lon="11.299680314278433"><ele>478.0</ele><time>2026-04-19T08:07:15Z</time></trkpt><trkpt lat="43.86188966965148" lon="11.299804262459533"><ele>478.0</ele><time>2026-04-19T08:07:16Z</time></trkpt><trkpt lat="43.861976284428344" lon="11.299902108502135"><ele>477.99999999999994</ele><time>2026-04-19T08:07:17Z</time></trkpt><trkpt lat="43.86206358638205" lon="11.299988960111968"><ele>477.99999999999994</ele><time>2026-04-19T08:07:18Z</time></trkpt><trkpt lat="43.862137995997145" lon="11.300092668662495"><ele>478.0</ele><time>2026-04-19T08:07:19Z</time></trkpt><trkpt lat="43.86220938393004" lon="11.300177974777005"><ele>478.0</ele><time>2026-04-19T08:07:20Z</time></trkpt><trkpt lat="43.862279158379124" lon="11.300319427725013"><ele>478.0</ele><time>2026-04-19T08:07:21Z</time></trkpt><trkpt lat="43.86235839088771" lon="11.300464757188886"><ele>478.0</ele><time>2026-04-19T08:07:22Z</time></trkpt><trkpt lat="43.86241863472743" lon="11.30059560960947"><ele>478.0</ele><time>2026-04-19T08:07:23Z</time></trkpt><trkpt lat="43.86247140808943" lon="11.300755179718807"><ele>478.0</ele><time>2026-04-19T08:07:24Z</time></trkpt><trkpt lat="43.862526196173356" lon="11.300910598501446"><ele>477.0</ele><time>2026-04-19T08:07:25Z</time></trkpt><trkpt lat="43.862580208407095" lon="11.301069982246135"><ele>476.0</ele><time>2026-04-19T08:07:26Z</time></trkpt><trkpt lat="43.862619437642074" lon="11.301241202460732"><ele>475.0</ele><time>2026-04-19T08:07:27Z</time></trkpt><trkpt lat="43.86270989508291" lon="11.301362611418709"><ele>474.0</ele><time>2026-04-19T08:07:28Z</time></trkpt><trkpt lat="43.862780896712515" lon="11.301502644087707"><ele>473.79999999999995</ele><time>2026-04-19T08:07:29Z</time></trkpt><trkpt lat="43.86285282439127" lon="11.30163603564845"><ele>473.59999999999997</ele><time>2026-04-19T08:07:30Z</time></trkpt><trkpt lat="43.86291090476451" lon="11.301746744215286"><ele>473.4</ele><time>2026-04-19T08:07:31Z</time></trkpt><trkpt lat="43.86295900712692" lon="11.301834257299207"><ele>473.2</ele><time>2026-04-19T08:07:32Z</time></trkpt><trkpt lat="43.862999300815126" lon="11.301913725068317"><ele>473.0</ele><time>2026-04-19T08:07:33Z</time></trkpt><trkpt lat="43.863057919914155" lon="11.30206036325156"><ele>473.0</ele><time>2026-04-19T08:07:35Z</time></trkpt><trkpt lat="43.863071013058374" lon="11.30215318674937"><ele>473.0</ele><time>2026-04-19T08:07:36Z</time></trkpt><trkpt lat="43.863102213702035" lon="11.302239684231044"><ele>473.0</ele><time>2026-04-19T08:07:37Z</time></trkpt><trkpt lat="43.86313986062523" lon="11.302328816876383"><ele>473.0</ele><time>2026-04-19T08:07:38Z</time></trkpt><trkpt lat="43.86318375225389" lon="11.302409792788234"><ele>473.0</ele><time>2026-04-19T08:07:39Z</time></trkpt><trkpt lat="43.86323759254539" lon="11.302488173250792"><ele>473.0</ele><time>2026-04-19T08:07:40Z</time></trkpt><trkpt lat="43.86330074177728" lon="11.302533407502633"><ele>473.0</ele><time>2026-04-19T08:07:41Z</time></trkpt><trkpt lat="43.86336995230344" lon="11.302627202804782"><ele>476.2</ele><time>2026-04-19T08:07:43Z</time></trkpt><trkpt lat="43.86347619743943" lon="11.302684653663835"><ele>479.4</ele><time>2026-04-19T08:07:45Z</time></trkpt><trkpt lat="43.863586354857084" lon="11.302747433332117"><ele>482.59999999999997</ele><time>2026-04-19T08:07:47Z</time></trkpt><trkpt lat="43.86370212878902" lon="11.30279233732992"><ele>485.79999999999995</ele><time>2026-04-19T08:07:49Z</time></trkpt><trkpt lat="43.86376690842483" lon="11.302824711361096"><ele>489.0</ele><time>2026-04-19T08:07:50Z</time></trkpt><trkpt lat="43.863836228999126" lon="11.302851465805434"><ele>489.0</ele><time>2026-04-19T08:07:51Z</time></trkpt><trkpt lat="43.86391103234064" lon="11.302874825579453"><ele>489.0</ele><time>2026-04-19T08:07:52Z</time></trkpt><trkpt lat="43.86398915950541" lon="11.302891882298397"><ele>489.0</ele><time>2026-04-19T08:07:53Z</time></trkpt><trkpt lat="43.86407104986682" lon="11.30290727517996"><ele>489.0</ele><time>2026-04-19T08:07:54Z</time></trkpt><trkpt lat="43.86415543694631" lon="11.30292437287935"><ele>489.0</ele><time>2026-04-19T08:07:55Z</time></trkpt><trkpt lat="43.864233603138246" lon="11.302939790886741"><ele>489.0</ele><time>2026-04-19T08:07:56Z</time></trkpt><trkpt lat="43.86431690081883" lon="11.302966504146738"><ele>489.0</ele><time>2026-04-19T08:07:57Z</time></trkpt><trkpt lat="43.86439387390244" lon="11.302995716234737"><ele>489.0</ele><time>2026-04-19T08:07:58Z</time></trkpt><trkpt lat="43.86446921719795" lon="11.303035666235028"><ele>489.0</ele><time>2026-04-19T08:07:59Z</time></trkpt><trkpt lat="43.86454207511992" lon="11.303090649554331"><ele>489.0</ele><time>2026-04-19T08:08:00Z</time></trkpt><trkpt lat="43.86461470215016" lon="11.303194003184132"><ele>489.0</ele><time>2026-04-19T08:08:01Z</time></trkpt><trkpt lat="43.86466873450211" lon="11.303303640028515"><ele>489.0</ele><time>2026-04-19T08:08:02Z</time></trkpt><trkpt lat="43.864711378735855" lon="11.303418903270295"><ele>489.0</ele><time>2026-04-19T08:08:03Z</time></trkpt><trkpt lat="43.86474101849831" lon="11.303529332382904"><ele>489.0</ele><time>2026-04-19T08:08:04Z</time></trkpt><trkpt lat="43.86476880444486" lon="11.303640376839404"><ele>489.0</ele><time>2026-04-19T08:08:05Z</time></trkpt><trkpt lat="43.864796415348565" lon="11.303753369875036"><ele>489.0</ele><time>2026-04-19T08:08:06Z</time></trkpt><trkpt lat="43.864827468262845" lon="11.303890304964721"><ele>489.0</ele><time>2026-04-19T08:08:07Z</time></trkpt><trkpt lat="43.864852852125516" lon="11.30403426151238"><ele>491.4</ele><time>2026-04-19T08:08:08Z</time></trkpt><trkpt lat="43.86486965750377" lon="11.304169653086667"><ele>493.79999999999995</ele><time>2026-04-19T08:08:09Z</time></trkpt><trkpt lat="43.8648863656111" lon="11.30430645441684"><ele>496.20000000000005</ele><time>2026-04-19T08:08:10Z</time></trkpt><trkpt lat="43.86490383158765" lon="11.304449460890138"><ele>498.6</ele><time>2026-04-19T08:08:11Z</time></trkpt><trkpt lat="43.86491929146684" lon="11.304597079565188"><ele>501.0</ele><time>2026-04-19T08:08:12Z</time></trkpt><trkpt lat="43.864931729476716" lon="11.304735514346202"><ele>501.20000000000005</ele><time>2026-04-19T08:08:13Z</time></trkpt><trkpt lat="43.86494238051565" lon="11.304859799570554"><ele>501.40000000000003</ele><time>2026-04-19T08:08:14Z</time></trkpt><trkpt lat="43.86496217559789" lon="11.304984330270882"><ele>501.6</ele><time>2026-04-19T08:08:15Z</time></trkpt><trkpt lat="43.86500689823264" lon="11.30511478476443"><ele>501.8</ele><time>2026-04-19T08:08:16Z</time></trkpt><trkpt lat="43.86508763695379" lon="11.305214493778754"><ele>502.0</ele><time>2026-04-19T08:08:17Z</time></trkpt><trkpt lat="43.86515412620659" lon="11.305319090372047"><ele>502.0</ele><time>2026-04-19T08:08:18Z</time></trkpt><trkpt lat="43.86521604735167" lon="11.305421437585595"><ele>502.00000000000006</ele><time>2026-04-19T08:08:19Z</time></trkpt><trkpt lat="43.86526060963189" lon="11.305492095280137"><ele>502.00000000000006</ele><time>2026-04-19T08:08:20Z</time></trkpt><trkpt lat="43.865352041529086" lon="11.305587767222807"><ele>502.0</ele><time>2026-04-19T08:08:22Z</time></trkpt><trkpt lat="43.86541069731253" lon="11.305691415117487"><ele>502.0</ele><time>2026-04-19T08:08:24Z</time></trkpt><trkpt lat="43.865454417234034" lon="11.305839760105576"><ele>504.50000000000006</ele><time>2026-04-19T08:08:26Z</time></trkpt><trkpt lat="43.86548852653529" lon="11.305925271706208"><ele>507.0</ele><time>2026-04-19T08:08:27Z</time></trkpt><trkpt lat="43.86551100564605" lon="11.306103710405893"><ele>509.5</ele><time>2026-04-19T08:08:29Z</time></trkpt><trkpt lat="43.865527620079085" lon="11.30620265261151"><ele>512.0</ele><time>2026-04-19T08:08:30Z</time></trkpt><trkpt lat="43.865538101464146" lon="11.306303113065068"><ele>514.5</ele><time>2026-04-19T08:08:31Z</time></trkpt><trkpt lat="43.865533533319194" lon="11.306415588564846"><ele>517.0</ele><time>2026-04-19T08:08:32Z</time></trkpt><trkpt lat="43.86552185204746" lon="11.30654531118271"><ele>518.2</ele><time>2026-04-19T08:08:33Z</time></trkpt><trkpt lat="43.86550985818615" lon="11.30668258538532"><ele>519.4000000000001</ele><time>2026-04-19T08:08:34Z</time></trkpt><trkpt lat="43.865499821893785" lon="11.30681860461384"><ele>520.5999999999999</ele><time>2026-04-19T08:08:35Z</time></trkpt><trkpt lat="43.86549509287926" lon="11.306945649012444"><ele>521.8</ele><time>2026-04-19T08:08:36Z</time></trkpt><trkpt lat="43.865495300269394" lon="11.307065284079469"><ele>523.0</ele><time>2026-04-19T08:08:37Z</time></trkpt><trkpt lat="43.86549787335997" lon="11.307181132037789"><ele>523.5</ele><time>2026-04-19T08:08:38Z</time></trkpt><trkpt lat="43.86550031805883" lon="11.30729119963321"><ele>524.0</ele><time>2026-04-19T08:08:39Z</time></trkpt><trkpt lat="43.86550274988156" lon="11.30740068775656"><ele>524.5</ele><time>2026-04-19T08:08:40Z</time></trkpt><trkpt lat="43.86550243753567" lon="11.307506519639238"><ele>525.0</ele><time>2026-04-19T08:08:41Z</time></trkpt><trkpt lat="43.86549540834298" lon="11.307617947413114"><ele>525.5</ele><time>2026-04-19T08:08:42Z</time></trkpt><trkpt lat="43.86546124096915" lon="11.307728554192032"><ele>526.0</ele><time>2026-04-19T08:08:43Z</time></trkpt><trkpt lat="43.86542121450781" lon="11.30785541869671"><ele>526.0</ele><time>2026-04-19T08:08:44Z</time></trkpt><trkpt lat="43.865385868901186" lon="11.307989542205602"><ele>526.0</ele><time>2026-04-19T08:08:45Z</time></trkpt><trkpt lat="43.86536301980169" lon="11.308135207630817"><ele>526.0</ele><time>2026-04-19T08:08:46Z</time></trkpt><trkpt lat="43.86537262294251" lon="11.308272744332848"><ele>526.0</ele><time>2026-04-19T08:08:47Z</time></trkpt><trkpt lat="43.865390122084015" lon="11.308390802141668"><ele>526.0</ele><time>2026-04-19T08:08:48Z</time></trkpt><trkpt lat="43.86541022151736" lon="11.308504325954239"><ele>526.3333333333334</ele><time>2026-04-19T08:08:49Z</time></trkpt><trkpt lat="43.86542680850159" lon="11.308590704774964"><ele>526.6666666666667</ele><time>2026-04-19T08:08:50Z</time></trkpt><trkpt lat="43.86545482605873" lon="11.308756569524277"><ele>527.0</ele><time>2026-04-19T08:08:52Z</time></trkpt><trkpt lat="43.8654696372638" lon="11.308861834313598"><ele>527.3333333333334</ele><time>2026-04-19T08:08:53Z</time></trkpt><trkpt lat="43.86548653571742" lon="11.308970962367379"><ele>527.6666666666666</ele><time>2026-04-19T08:08:54Z</time></trkpt><trkpt lat="43.865513915549364" lon="11.309086128439422"><ele>528.0</ele><time>2026-04-19T08:08:55Z</time></trkpt><trkpt lat="43.86553417729708" lon="11.309200585033663"><ele>528.2857142857142</ele><time>2026-04-19T08:08:56Z</time></trkpt><trkpt lat="43.86555235270893" lon="11.309308386997989"><ele>528.5714285714286</ele><time>2026-04-19T08:08:57Z</time></trkpt><trkpt lat="43.86557321701628" lon="11.309408212180758"><ele>528.8571428571429</ele><time>2026-04-19T08:08:58Z</time></trkpt><trkpt lat="43.865607787434335" lon="11.309497485717149"><ele>529.1428571428571</ele><time>2026-04-19T08:08:59Z</time></trkpt><trkpt lat="43.86563517226922" lon="11.309587996860147"><ele>529.4285714285714</ele><time>2026-04-19T08:09:00Z</time></trkpt><trkpt lat="43.86566122421671" lon="11.309677323333295"><ele>529.7142857142857</ele><time>2026-04-19T08:09:01Z</time></trkpt><trkpt lat="43.86568599436709" lon="11.309758050013567"><ele>530.0</ele><time>2026-04-19T08:09:02Z</time></trkpt><trkpt lat="43.86570712671737" lon="11.309841073238479"><ele>531.0</ele><time>2026-04-19T08:09:03Z</time></trkpt><trkpt lat="43.8657477961374" lon="11.309937957212682"><ele>532.0</ele><time>2026-04-19T08:09:04Z</time></trkpt><trkpt lat="43.865749321512624" lon="11.310056020810569"><ele>533.0</ele><time>2026-04-19T08:09:05Z</time></trkpt><trkpt lat="43.865755474527624" lon="11.31017577510958"><ele>534.0</ele><time>2026-04-19T08:09:06Z</time></trkpt><trkpt lat="43.865767450100364" lon="11.310304750497183"><ele>535.0</ele><time>2026-04-19T08:09:07Z</time></trkpt><trkpt lat="43.865780208891316" lon="11.31043706649894"><ele>536.0</ele><time>2026-04-19T08:09:08Z</time></trkpt><trkpt lat="43.865793180860635" lon="11.310570497236272"><ele>535.0</ele><time>2026-04-19T08:09:09Z</time></trkpt><trkpt lat="43.86582165046005" lon="11.310703834080016"><ele>534.0</ele><time>2026-04-19T08:09:10Z</time></trkpt><trkpt lat="43.865840347236244" lon="11.310832860046071"><ele>533.0</ele><time>2026-04-19T08:09:11Z</time></trkpt><trkpt lat="43.86588519462255" lon="11.310955765407753"><ele>532.0</ele><time>2026-04-19T08:09:12Z</time></trkpt><trkpt lat="43.86593721556355" lon="11.311053027912319"><ele>531.0</ele><time>2026-04-19T08:09:13Z</time></trkpt><trkpt lat="43.86598607787706" lon="11.311142975840404"><ele>530.6666666666666</ele><time>2026-04-19T08:09:14Z</time></trkpt><trkpt lat="43.86603946489801" lon="11.311228586467715"><ele>530.3333333333334</ele><time>2026-04-19T08:09:15Z</time></trkpt><trkpt lat="43.86609671377732" lon="11.311313035322726"><ele>530.0</ele><time>2026-04-19T08:09:16Z</time></trkpt><trkpt lat="43.86617006237411" lon="11.311388153176344"><ele>529.6666666666667</ele><time>2026-04-19T08:09:17Z</time></trkpt><trkpt lat="43.86623948290648" lon="11.311459425480052"><ele>529.3333333333334</ele><time>2026-04-19T08:09:18Z</time></trkpt><trkpt lat="43.86630267680583" lon="11.311521614391422"><ele>529.0</ele><time>2026-04-19T08:09:19Z</time></trkpt><trkpt lat="43.866369772791494" lon="11.311584817343723"><ele>529.0</ele><time>2026-04-19T08:09:20Z</time></trkpt><trkpt lat="43.86644535955123" lon="11.311646520204063"><ele>529.0</ele><time>2026-04-19T08:09:21Z</time></trkpt><trkpt lat="43.86651593757642" lon="11.311703084144805"><ele>529.0</ele><time>2026-04-19T08:09:22Z</time></trkpt><trkpt lat="43.86658486940183" lon="11.311754408953796"><ele>529.0</ele><time>2026-04-19T08:09:23Z</time></trkpt><trkpt lat="43.866651033428624" lon="11.31179781861417"><ele>529.0</ele><time>2026-04-19T08:09:24Z</time></trkpt><trkpt lat="43.86672032129532" lon="11.311842403317838"><ele>529.0</ele><time>2026-04-19T08:09:25Z</time></trkpt><trkpt lat="43.86679013879556" lon="11.311883662825327"><ele>527.8333333333334</ele><time>2026-04-19T08:09:26Z</time></trkpt><trkpt lat="43.86685898112472" lon="11.311941579000889"><ele>526.6666666666667</ele><time>2026-04-19T08:09:27Z</time></trkpt><trkpt lat="43.866927141192896" lon="11.312008683174836"><ele>525.5</ele><time>2026-04-19T08:09:28Z</time></trkpt><trkpt lat="43.867001479722276" lon="11.312082118130787"><ele>524.3333333333334</ele><time>2026-04-19T08:09:29Z</time></trkpt><trkpt lat="43.86707519184644" lon="11.312163909642564"><ele>523.1666666666666</ele><time>2026-04-19T08:09:30Z</time></trkpt><trkpt lat="43.86714689235638" lon="11.312238285024383"><ele>522.0</ele><time>2026-04-19T08:09:31Z</time></trkpt><trkpt lat="43.867211468571995" lon="11.312315555241025"><ele>520.8333333333334</ele><time>2026-04-19T08:09:32Z</time></trkpt><trkpt lat="43.867268371370905" lon="11.312394523837208"><ele>519.6666666666666</ele><time>2026-04-19T08:09:33Z</time></trkpt><trkpt lat="43.867320039592116" lon="11.312475158910567"><ele>518.5</ele><time>2026-04-19T08:09:34Z</time></trkpt><trkpt lat="43.86738456299433" lon="11.312546522259929"><ele>517.3333333333333</ele><time>2026-04-19T08:09:35Z</time></trkpt><trkpt lat="43.867456957139424" lon="11.312617710314209"><ele>516.1666666666666</ele><time>2026-04-19T08:09:36Z</time></trkpt><trkpt lat="43.86752238146301" lon="11.312690843290781"><ele>515.0</ele><time>2026-04-19T08:09:37Z</time></trkpt><trkpt lat="43.86758199215735" lon="11.31276208630216"><ele>514.8333333333333</ele><time>2026-04-19T08:09:38Z</time></trkpt><trkpt lat="43.86763552632563" lon="11.312833121517743"><ele>514.6666666666666</ele><time>2026-04-19T08:09:39Z</time></trkpt><trkpt lat="43.8676917405793" lon="11.312917813750365"><ele>514.5</ele><time>2026-04-19T08:09:40Z</time></trkpt><trkpt lat="43.86774609489469" lon="11.313013834080436"><ele>514.3333333333334</ele><time>2026-04-19T08:09:41Z</time></trkpt><trkpt lat="43.86778758409557" lon="11.313125561407416"><ele>514.1666666666667</ele><time>2026-04-19T08:09:42Z</time></trkpt><trkpt lat="43.86782539855984" lon="11.313252220515043"><ele>514.0</ele><time>2026-04-19T08:09:43Z</time></trkpt><trkpt lat="43.86785472402094" lon="11.313375464176652"><ele>514.1666666666667</ele><time>2026-04-19T08:09:44Z</time></trkpt><trkpt lat="43.86789008821108" lon="11.313494135288284"><ele>514.3333333333334</ele><time>2026-04-19T08:09:45Z</time></trkpt><trkpt lat="43.867919467028024" lon="11.31361058498356"><ele>514.5</ele><time>2026-04-19T08:09:46Z</time></trkpt><trkpt lat="43.86796488680577" lon="11.313716546854895"><ele>514.6666666666666</ele><time>2026-04-19T08:09:47Z</time></trkpt><trkpt lat="43.867976221440095" lon="11.313833337565898"><ele>514.8333333333333</ele><time>2026-04-19T08:09:48Z</time></trkpt><trkpt lat="43.86797474474687" lon="11.313963163275263"><ele>515.0</ele><time>2026-04-19T08:09:49Z</time></trkpt><trkpt lat="43.86800069041999" lon="11.31409842730565"><ele>515.0</ele><time>2026-04-19T08:09:50Z</time></trkpt><trkpt lat="43.8680431754101" lon="11.314250455364794"><ele>515.0</ele><time>2026-04-19T08:09:51Z</time></trkpt><trkpt lat="43.86808571828131" lon="11.314398840117837"><ele>515.0</ele><time>2026-04-19T08:09:52Z</time></trkpt><trkpt lat="43.86813059025759" lon="11.314541897575607"><ele>515.0</ele><time>2026-04-19T08:09:53Z</time></trkpt><trkpt lat="43.86817782353944" lon="11.3146825796118"><ele>514.4</ele><time>2026-04-19T08:09:54Z</time></trkpt><trkpt lat="43.86822658777532" lon="11.314821588973174"><ele>513.8</ele><time>2026-04-19T08:09:55Z</time></trkpt><trkpt lat="43.868276146466656" lon="11.314955351506393"><ele>513.2</ele><time>2026-04-19T08:09:56Z</time></trkpt><trkpt lat="43.86832792653061" lon="11.315086355860041"><ele>512.6</ele><time>2026-04-19T08:09:57Z</time></trkpt><trkpt lat="43.86837565671505" lon="11.315216706012173"><ele>512.0</ele><time>2026-04-19T08:09:58Z</time></trkpt><trkpt lat="43.86841506806553" lon="11.31535785527939"><ele>511.75</ele><time>2026-04-19T08:09:59Z</time></trkpt><trkpt lat="43.86846857524854" lon="11.315524698311405"><ele>511.5</ele><time>2026-04-19T08:10:00Z</time></trkpt><trkpt lat="43.868500472002204" lon="11.31571937047741"><ele>511.25</ele><time>2026-04-19T08:10:01Z</time></trkpt><trkpt lat="43.86851626377655" lon="11.315935070935126"><ele>511.0</ele><time>2026-04-19T08:10:02Z</time></trkpt><trkpt lat="43.86853250330444" lon="11.316159021986843"><ele>511.0</ele><time>2026-04-19T08:10:03.001Z</time></trkpt><trkpt lat="43.868543569220485" lon="11.316369352313732"><ele>511.0</ele><time>2026-04-19T08:10:04.001Z</time></trkpt><trkpt lat="43.86854528685684" lon="11.31655795316006"><ele>511.0</ele><time>2026-04-19T08:10:05.001Z</time></trkpt><trkpt lat="43.868546627450215" lon="11.316726914130761"><ele>511.0</ele><time>2026-04-19T08:10:06.001Z</time></trkpt><trkpt lat="43.8685566949197" lon="11.316884504535683"><ele>510.6</ele><time>2026-04-19T08:10:07.001Z</time></trkpt><trkpt lat="43.8685735431035" lon="11.317026775453824"><ele>510.20000000000005</ele><time>2026-04-19T08:10:08.001Z</time></trkpt><trkpt lat="43.86859571349512" lon="11.317165383202921"><ele>509.79999999999995</ele><time>2026-04-19T08:10:09.001Z</time></trkpt><trkpt lat="43.868624178617004" lon="11.31729710771448"><ele>509.4</ele><time>2026-04-19T08:10:10.001Z</time></trkpt><trkpt lat="43.868654354999364" lon="11.317422689872958"><ele>509.0</ele><time>2026-04-19T08:10:11.001Z</time></trkpt><trkpt lat="43.868681687509756" lon="11.317534220525785"><ele>509.8333333333333</ele><time>2026-04-19T08:10:12.001Z</time></trkpt><trkpt lat="43.86870296436549" lon="11.31763986922581"><ele>510.66666666666663</ele><time>2026-04-19T08:10:13.001Z</time></trkpt><trkpt lat="43.86872438760782" lon="11.317748350074456"><ele>511.5</ele><time>2026-04-19T08:10:14.001Z</time></trkpt><trkpt lat="43.86876533969916" lon="11.31784869857755"><ele>512.3333333333334</ele><time>2026-04-19T08:10:15.001Z</time></trkpt><trkpt lat="43.86882382272594" lon="11.317935104103134"><ele>513.1666666666667</ele><time>2026-04-19T08:10:16.001Z</time></trkpt><trkpt lat="43.868883722927" lon="11.317993287916075"><ele>514.0</ele><time>2026-04-19T08:10:17.001Z</time></trkpt><trkpt lat="43.868952958899285" lon="11.318026306151966"><ele>514.0</ele><time>2026-04-19T08:10:18.001Z</time></trkpt><trkpt lat="43.86903146117615" lon="11.318039364943154"><ele>514.0</ele><time>2026-04-19T08:10:19.001Z</time></trkpt><trkpt lat="43.869114253217994" lon="11.318046438745771"><ele>514.0</ele><time>2026-04-19T08:10:20.001Z</time></trkpt><trkpt lat="43.86919259766588" lon="11.318060323770469"><ele>514.0</ele><time>2026-04-19T08:10:21.001Z</time></trkpt><trkpt lat="43.86927189053844" lon="11.318100529305422"><ele>514.0</ele><time>2026-04-19T08:10:23.001Z</time></trkpt><trkpt lat="43.86933121988744" lon="11.318155092578042"><ele>514.0</ele><time>2026-04-19T08:10:25Z</time></trkpt><trkpt lat="43.86939843355542" lon="11.318208841053067"><ele>513.4</ele><time>2026-04-19T08:10:27Z</time></trkpt><trkpt lat="43.869481899725606" lon="11.318277612540252"><ele>512.8</ele><time>2026-04-19T08:10:30Z</time></trkpt><trkpt lat="43.8695009213321" lon="11.318371258391604"><ele>512.2</ele><time>2026-04-19T08:10:31Z</time></trkpt><trkpt lat="43.86953910871151" lon="11.318464391343179"><ele>511.6</ele><time>2026-04-19T08:10:32Z</time></trkpt><trkpt lat="43.86958238449967" lon="11.318622778995282"><ele>511.0</ele><time>2026-04-19T08:10:34Z</time></trkpt><trkpt lat="43.869609313011075" lon="11.318736804045905"><ele>511.0</ele><time>2026-04-19T08:10:35Z</time></trkpt><trkpt lat="43.86963977537197" lon="11.318838173967201"><ele>511.0</ele><time>2026-04-19T08:10:36Z</time></trkpt><trkpt lat="43.8696645653464" lon="11.318919582406227"><ele>511.0</ele><time>2026-04-19T08:10:37Z</time></trkpt><trkpt lat="43.86972013309428" lon="11.3190456405274"><ele>511.0</ele><time>2026-04-19T08:10:39Z</time></trkpt><trkpt lat="43.86976731982335" lon="11.319164497098212"><ele>511.0</ele><time>2026-04-19T08:10:41Z</time></trkpt><trkpt lat="43.86981564779512" lon="11.319315806184632"><ele>511.6666666666667</ele><time>2026-04-19T08:10:43Z</time></trkpt><trkpt lat="43.86984813948251" lon="11.319413509953772"><ele>512.3333333333334</ele><time>2026-04-19T08:10:44Z</time></trkpt><trkpt lat="43.86987921331457" lon="11.319521357100744"><ele>513.0</ele><time>2026-04-19T08:10:45Z</time></trkpt><trkpt lat="43.86990941123521" lon="11.31964183692599"><ele>513.6666666666666</ele><time>2026-04-19T08:10:46Z</time></trkpt><trkpt lat="43.869936934710026" lon="11.319749332536228"><ele>514.3333333333333</ele><time>2026-04-19T08:10:47Z</time></trkpt><trkpt lat="43.869963198409245" lon="11.319848114814006"><ele>515.0</ele><time>2026-04-19T08:10:48Z</time></trkpt><trkpt lat="43.869989026984605" lon="11.31994840679161"><ele>515.6</ele><time>2026-04-19T08:10:49Z</time></trkpt><trkpt lat="43.870012702251735" lon="11.320055773624976"><ele>516.2</ele><time>2026-04-19T08:10:50Z</time></trkpt><trkpt lat="43.870040840071844" lon="11.320178942836318"><ele>516.8</ele><time>2026-04-19T08:10:51Z</time></trkpt><trkpt lat="43.87006946247646" lon="11.32030989013939"><ele>517.4</ele><time>2026-04-19T08:10:52Z</time></trkpt><trkpt lat="43.870099927022984" lon="11.32045045600019"><ele>518.0</ele><time>2026-04-19T08:10:53Z</time></trkpt><trkpt lat="43.87012622544091" lon="11.320602719440792"><ele>516.4</ele><time>2026-04-19T08:10:54Z</time></trkpt><trkpt lat="43.87015085746906" lon="11.320753045330026"><ele>514.8</ele><time>2026-04-19T08:10:55Z</time></trkpt><trkpt lat="43.87017645833981" lon="11.320893021978181"><ele>513.2</ele><time>2026-04-19T08:10:56Z</time></trkpt><trkpt lat="43.870208159709165" lon="11.321044022776164"><ele>511.6</ele><time>2026-04-19T08:10:57Z</time></trkpt><trkpt lat="43.87024297834636" lon="11.321193733269324"><ele>510.0</ele><time>2026-04-19T08:10:58Z</time></trkpt><trkpt lat="43.870273407954" lon="11.321357321622624"><ele>511.8</ele><time>2026-04-19T08:10:59Z</time></trkpt><trkpt lat="43.870299847721014" lon="11.32152327763007"><ele>513.6</ele><time>2026-04-19T08:11:00Z</time></trkpt><trkpt lat="43.87033013229892" lon="11.321678472531644"><ele>515.4</ele><time>2026-04-19T08:11:01Z</time></trkpt><trkpt lat="43.87035594782704" lon="11.321811386548726"><ele>517.2</ele><time>2026-04-19T08:11:02Z</time></trkpt><trkpt lat="43.87037658372452" lon="11.321944573396129"><ele>519.0</ele><time>2026-04-19T08:11:03Z</time></trkpt><trkpt lat="43.870410514517495" lon="11.322096799394544"><ele>520.75</ele><time>2026-04-19T08:11:04Z</time></trkpt><trkpt lat="43.87045208407801" lon="11.322266188459759"><ele>522.5</ele><time>2026-04-19T08:11:05Z</time></trkpt><trkpt lat="43.87050673674047" lon="11.32245286224803"><ele>524.25</ele><time>2026-04-19T08:11:06Z</time></trkpt><trkpt lat="43.870578223467355" lon="11.322653153288899"><ele>526.0</ele><time>2026-04-19T08:11:07Z</time></trkpt><trkpt lat="43.87066368868093" lon="11.322870463830585"><ele>525.6666666666667</ele><time>2026-04-19T08:11:08Z</time></trkpt><trkpt lat="43.87075691282738" lon="11.323108195645975"><ele>525.3333333333334</ele><time>2026-04-19T08:11:09Z</time></trkpt><trkpt lat="43.8708616631406" lon="11.323368215048449"><ele>525.0</ele><time>2026-04-19T08:11:10Z</time></trkpt><trkpt lat="43.87095550813501" lon="11.323631860642761"><ele>530.5</ele><time>2026-04-19T08:11:11Z</time></trkpt><trkpt lat="43.871052311845254" lon="11.323917390615572"><ele>536.0</ele><time>2026-04-19T08:11:12Z</time></trkpt><trkpt lat="43.87116310573944" lon="11.324194658859113"><ele>536.0</ele><time>2026-04-19T08:11:13Z</time></trkpt><trkpt lat="43.87128404747127" lon="11.324429089757261"><ele>536.0</ele><time>2026-04-19T08:11:14Z</time></trkpt><trkpt lat="43.87141183623674" lon="11.324664459973295"><ele>536.0</ele><time>2026-04-19T08:11:15Z</time></trkpt><trkpt lat="43.87153621447903" lon="11.32490286671103"><ele>537.0</ele><time>2026-04-19T08:11:16Z</time></trkpt><trkpt lat="43.871664107783396" lon="11.325132876079966"><ele>538.0</ele><time>2026-04-19T08:11:17Z</time></trkpt><trkpt lat="43.87178847773406" lon="11.325336336649142"><ele>539.0</ele><time>2026-04-19T08:11:18Z</time></trkpt><trkpt lat="43.87188306526016" lon="11.325519031403294"><ele>542.3333333333333</ele><time>2026-04-19T08:11:19Z</time></trkpt><trkpt lat="43.87198155027753" lon="11.325707539354553"><ele>545.6666666666666</ele><time>2026-04-19T08:11:20Z</time></trkpt><trkpt lat="43.87209353460727" lon="11.32588962516921"><ele>549.0</ele><time>2026-04-19T08:11:21Z</time></trkpt><trkpt lat="43.87221150330432" lon="11.326055274363581"><ele>549.0</ele><time>2026-04-19T08:11:22Z</time></trkpt><trkpt lat="43.87232052996381" lon="11.326195525502339"><ele>549.0</ele><time>2026-04-19T08:11:23Z</time></trkpt><trkpt lat="43.872415822643916" lon="11.326301576860605"><ele>549.0</ele><time>2026-04-19T08:11:24Z</time></trkpt><trkpt lat="43.87249958319202" lon="11.326385346308287"><ele>549.0</ele><time>2026-04-19T08:11:25Z</time></trkpt><trkpt lat="43.87257260895493" lon="11.326459451503917"><ele>553.25</ele><time>2026-04-19T08:11:26Z</time></trkpt><trkpt lat="43.87265037826919" lon="11.326517660383146"><ele>557.5</ele><time>2026-04-19T08:11:27Z</time></trkpt><trkpt lat="43.8726667234299" lon="11.326722183770217"><ele>561.75</ele><time>2026-04-19T08:11:28Z</time></trkpt><trkpt lat="43.87266602179635" lon="11.326914756114888"><ele>566.0</ele><time>2026-04-19T08:11:29Z</time></trkpt><trkpt lat="43.87268015060141" lon="11.32713820784878"><ele>566.6666666666666</ele><time>2026-04-19T08:11:30Z</time></trkpt><trkpt lat="43.87269655505402" lon="11.32737445284348"><ele>567.3333333333334</ele><time>2026-04-19T08:11:31Z</time></trkpt><trkpt lat="43.87271387811023" lon="11.327605617294955"><ele>568.0</ele><time>2026-04-19T08:11:32Z</time></trkpt><trkpt lat="43.87273440695843" lon="11.32783447858663"><ele>568.3333333333334</ele><time>2026-04-19T08:11:33Z</time></trkpt><trkpt lat="43.872757144812375" lon="11.328064129443382"><ele>568.6666666666666</ele><time>2026-04-19T08:11:34Z</time></trkpt><trkpt lat="43.87280624848778" lon="11.328303121854967"><ele>569.0</ele><time>2026-04-19T08:11:35Z</time></trkpt><trkpt lat="43.87286869178144" lon="11.328526526961918"><ele>569.0</ele><time>2026-04-19T08:11:36Z</time></trkpt><trkpt lat="43.872901310246135" lon="11.328727466905402"><ele>569.0</ele><time>2026-04-19T08:11:37Z</time></trkpt><trkpt lat="43.8729299015065" lon="11.328927423970777"><ele>569.0</ele><time>2026-04-19T08:11:38Z</time></trkpt><trkpt lat="43.872981852787966" lon="11.329117654170496"><ele>569.0</ele><time>2026-04-19T08:11:39Z</time></trkpt><trkpt lat="43.87306629818507" lon="11.32931487890558"><ele>567.3333333333333</ele><time>2026-04-19T08:11:40Z</time></trkpt><trkpt lat="43.87314595858932" lon="11.329519835007808"><ele>565.6666666666666</ele><time>2026-04-19T08:11:41Z</time></trkpt><trkpt lat="43.87321389926834" lon="11.329721219548471"><ele>564.0</ele><time>2026-04-19T08:11:42Z</time></trkpt><trkpt lat="43.87327292365569" lon="11.329922673268513"><ele>562.3333333333334</ele><time>2026-04-19T08:11:43Z</time></trkpt><trkpt lat="43.87332541643969" lon="11.330126269901402"><ele>560.6666666666667</ele><time>2026-04-19T08:11:44Z</time></trkpt><trkpt lat="43.87339243306913" lon="11.330318218655714"><ele>559.0</ele><time>2026-04-19T08:11:45Z</time></trkpt><trkpt lat="43.87346994956677" lon="11.330494560882721"><ele>561.6666666666667</ele><time>2026-04-19T08:11:46Z</time></trkpt><trkpt lat="43.87353089249038" lon="11.330669634042335"><ele>564.3333333333334</ele><time>2026-04-19T08:11:47Z</time></trkpt><trkpt lat="43.87352229036894" lon="11.330884576899598"><ele>567.0</ele><time>2026-04-19T08:11:48Z</time></trkpt><trkpt lat="43.87349525352577" lon="11.33111895125563"><ele>563.6666666666666</ele><time>2026-04-19T08:11:49Z</time></trkpt><trkpt lat="43.87342344582023" lon="11.3313732693192"><ele>560.3333333333333</ele><time>2026-04-19T08:11:50Z</time></trkpt><trkpt lat="43.87334140687736" lon="11.331623075299978"><ele>557.0</ele><time>2026-04-19T08:11:51Z</time></trkpt><trkpt lat="43.873261869084445" lon="11.331864467942907"><ele>557.0</ele><time>2026-04-19T08:11:52Z</time></trkpt><trkpt lat="43.87319097627383" lon="11.332105585621834"><ele>557.0</ele><time>2026-04-19T08:11:53Z</time></trkpt><trkpt lat="43.87313515115463" lon="11.332338831057138"><ele>557.0</ele><time>2026-04-19T08:11:54Z</time></trkpt><trkpt lat="43.873092030971954" lon="11.332566163758601"><ele>557.0</ele><time>2026-04-19T08:11:55Z</time></trkpt><trkpt lat="43.87304564167529" lon="11.332782043203455"><ele>557.0</ele><time>2026-04-19T08:11:56Z</time></trkpt><trkpt lat="43.872961603209156" lon="11.33295573305553"><ele>557.0</ele><time>2026-04-19T08:11:57Z</time></trkpt><trkpt lat="43.872882508026" lon="11.333113771935043"><ele>558.0</ele><time>2026-04-19T08:11:58Z</time></trkpt><trkpt lat="43.87279081194441" lon="11.333249848111679"><ele>559.0</ele><time>2026-04-19T08:11:59Z</time></trkpt><trkpt lat="43.87267336983175" lon="11.333335128717035"><ele>560.0</ele><time>2026-04-19T08:12:00Z</time></trkpt><trkpt lat="43.872541097012956" lon="11.333382555736973"><ele>561.0</ele><time>2026-04-19T08:12:01Z</time></trkpt><trkpt lat="43.87240024379423" lon="11.33343013570248"><ele>559.0</ele><time>2026-04-19T08:12:02Z</time></trkpt><trkpt lat="43.8722714173865" lon="11.333448542976607"><ele>557.0</ele><time>2026-04-19T08:12:03Z</time></trkpt><trkpt lat="43.872156054393486" lon="11.333411614184657"><ele>555.0</ele><time>2026-04-19T08:12:04Z</time></trkpt><trkpt lat="43.87204878219707" lon="11.333310417573143"><ele>553.0</ele><time>2026-04-19T08:12:05Z</time></trkpt><trkpt lat="43.87190388364754" lon="11.33322606580355"><ele>552.0</ele><time>2026-04-19T08:12:06Z</time></trkpt><trkpt lat="43.87174000356701" lon="11.333192604201221"><ele>551.0</ele><time>2026-04-19T08:12:07Z</time></trkpt><trkpt lat="43.87156530163438" lon="11.333142640658233"><ele>550.0</ele><time>2026-04-19T08:12:08Z</time></trkpt><trkpt lat="43.871388085508805" lon="11.333078276869617"><ele>547.4</ele><time>2026-04-19T08:12:09.001Z</time></trkpt><trkpt lat="43.8712424497997" lon="11.33302730474728"><ele>544.8</ele><time>2026-04-19T08:12:10.001Z</time></trkpt><trkpt lat="43.87112849154148" lon="11.33297772928797"><ele>542.2</ele><time>2026-04-19T08:12:11.001Z</time></trkpt><trkpt lat="43.87103350066193" lon="11.332951600244046"><ele>539.6</ele><time>2026-04-19T08:12:12.001Z</time></trkpt><trkpt lat="43.87095746708309" lon="11.332941462433176"><ele>537.0</ele><time>2026-04-19T08:12:13.001Z</time></trkpt><trkpt lat="43.87090195514976" lon="11.332985709546087"><ele>537.75</ele><time>2026-04-19T08:12:14.001Z</time></trkpt><trkpt lat="43.87084616327009" lon="11.33310235962002"><ele>538.5</ele><time>2026-04-19T08:12:15.001Z</time></trkpt><trkpt lat="43.87082355271358" lon="11.333235027923728"><ele>539.25</ele><time>2026-04-19T08:12:16.001Z</time></trkpt><trkpt lat="43.87080089648607" lon="11.333437034717797"><ele>540.0</ele><time>2026-04-19T08:12:17.001Z</time></trkpt><trkpt lat="43.870761339208805" lon="11.333653085080723"><ele>540.0</ele><time>2026-04-19T08:12:18.001Z</time></trkpt><trkpt lat="43.87068679583319" lon="11.33383237244857"><ele>540.0</ele><time>2026-04-19T08:12:19.001Z</time></trkpt><trkpt lat="43.87059928064893" lon="11.333990778382093"><ele>540.0</ele><time>2026-04-19T08:12:20.001Z</time></trkpt><trkpt lat="43.87048533784238" lon="11.334096733543594"><ele>540.0</ele><time>2026-04-19T08:12:21.001Z</time></trkpt><trkpt lat="43.87038559057015" lon="11.334165993152565"><ele>539.25</ele><time>2026-04-19T08:12:22.001Z</time></trkpt><trkpt lat="43.87028755426107" lon="11.334088760938394"><ele>538.5</ele><time>2026-04-19T08:12:23.001Z</time></trkpt><trkpt lat="43.87013352146617" lon="11.334053068778601"><ele>537.75</ele><time>2026-04-19T08:12:24.001Z</time></trkpt><trkpt lat="43.869960217387444" lon="11.334007386109862"><ele>537.0</ele><time>2026-04-19T08:12:25.001Z</time></trkpt><trkpt lat="43.869781203232066" lon="11.333952163955297"><ele>537.0</ele><time>2026-04-19T08:12:26Z</time></trkpt><trkpt lat="43.86963607906715" lon="11.333889536534798"><ele>537.0</ele><time>2026-04-19T08:12:27Z</time></trkpt><trkpt lat="43.86949420321181" lon="11.33378344497553"><ele>537.0</ele><time>2026-04-19T08:12:28Z</time></trkpt><trkpt lat="43.86934507414497" lon="11.333638813325466"><ele>533.25</ele><time>2026-04-19T08:12:29Z</time></trkpt><trkpt lat="43.86921392992251" lon="11.333511406610098"><ele>529.5</ele><time>2026-04-19T08:12:30Z</time></trkpt><trkpt lat="43.86910565243225" lon="11.333452749350165"><ele>525.75</ele><time>2026-04-19T08:12:31Z</time></trkpt><trkpt lat="43.86900566500736" lon="11.333473065624514"><ele>522.0</ele><time>2026-04-19T08:12:32Z</time></trkpt><trkpt lat="43.868933178511774" lon="11.333503820213261"><ele>522.0</ele><time>2026-04-19T08:12:33Z</time></trkpt><trkpt lat="43.868848970265844" lon="11.333573753273027"><ele>522.0</ele><time>2026-04-19T08:12:34Z</time></trkpt><trkpt lat="43.86872646727197" lon="11.333698670186216"><ele>522.0</ele><time>2026-04-19T08:12:35Z</time></trkpt><trkpt lat="43.86859541339228" lon="11.333747603976159"><ele>522.0</ele><time>2026-04-19T08:12:36Z</time></trkpt><trkpt lat="43.86846985266369" lon="11.33384560131471"><ele>522.3333333333334</ele><time>2026-04-19T08:12:37Z</time></trkpt><trkpt lat="43.868347679082476" lon="11.333954544642458"><ele>522.6666666666667</ele><time>2026-04-19T08:12:38Z</time></trkpt><trkpt lat="43.868200297183336" lon="11.334007328692254"><ele>523.0</ele><time>2026-04-19T08:12:39Z</time></trkpt><trkpt lat="43.868028035649" lon="11.334022112977506"><ele>523.0</ele><time>2026-04-19T08:12:40Z</time></trkpt><trkpt lat="43.867826824195284" lon="11.33396857535285"><ele>523.0</ele><time>2026-04-19T08:12:41Z</time></trkpt><trkpt lat="43.867651032824476" lon="11.33390368733111"><ele>523.0</ele><time>2026-04-19T08:12:42Z</time></trkpt><trkpt lat="43.867472266620574" lon="11.333855462553931"><ele>517.6666666666667</ele><time>2026-04-19T08:12:43Z</time></trkpt><trkpt lat="43.867302765922176" lon="11.333793017189857"><ele>512.3333333333334</ele><time>2026-04-19T08:12:44Z</time></trkpt><trkpt lat="43.86713137385109" lon="11.33374701426953"><ele>507.0</ele><time>2026-04-19T08:12:45Z</time></trkpt><trkpt lat="43.86693551107619" lon="11.333681368956778"><ele>509.33333333333337</ele><time>2026-04-19T08:12:46Z</time></trkpt><trkpt lat="43.86677163577343" lon="11.333610472633659"><ele>511.6666666666667</ele><time>2026-04-19T08:12:47Z</time></trkpt><trkpt lat="43.866571479753546" lon="11.333540089431267"><ele>514.0</ele><time>2026-04-19T08:12:48Z</time></trkpt><trkpt lat="43.866378637933224" lon="11.33348235479442"><ele>514.0</ele><time>2026-04-19T08:12:49Z</time></trkpt><trkpt lat="43.86618614538653" lon="11.333424187501127"><ele>514.0</ele><time>2026-04-19T08:12:50Z</time></trkpt><trkpt lat="43.86607537664776" lon="11.33319509341896"><ele>514.0</ele><time>2026-04-19T08:12:51Z</time></trkpt><trkpt lat="43.86593760682136" lon="11.333129839938415"><ele>514.75</ele><time>2026-04-19T08:12:52Z</time></trkpt><trkpt lat="43.865819788675616" lon="11.333097190387882"><ele>515.5</ele><time>2026-04-19T08:12:53Z</time></trkpt><trkpt lat="43.86565829751596" lon="11.333097814153541"><ele>516.25</ele><time>2026-04-19T08:12:54Z</time></trkpt><trkpt lat="43.86552804299887" lon="11.333109242029167"><ele>517.0</ele><time>2026-04-19T08:12:55Z</time></trkpt><trkpt lat="43.86538833241677" lon="11.333117991745356"><ele>517.0</ele><time>2026-04-19T08:12:56Z</time></trkpt><trkpt lat="43.865251453611506" lon="11.333126564110044"><ele>517.0</ele><time>2026-04-19T08:12:57Z</time></trkpt><trkpt lat="43.865125994518486" lon="11.3331512552196"><ele>517.0</ele><time>2026-04-19T08:12:58Z</time></trkpt><trkpt lat="43.865011120839235" lon="11.333159111949922"><ele>517.0</ele><time>2026-04-19T08:12:59Z</time></trkpt><trkpt lat="43.8648863437403" lon="11.333203703913414"><ele>514.75</ele><time>2026-04-19T08:13:00Z</time></trkpt><trkpt lat="43.86477890851302" lon="11.333260895339956"><ele>512.5</ele><time>2026-04-19T08:13:01Z</time></trkpt><trkpt lat="43.8646630853124" lon="11.33334050538554"><ele>510.25</ele><time>2026-04-19T08:13:02Z</time></trkpt><trkpt lat="43.86456435471603" lon="11.333361911658706"><ele>508.0</ele><time>2026-04-19T08:13:03Z</time></trkpt><trkpt lat="43.864433668294474" lon="11.33333627186504"><ele>508.0</ele><time>2026-04-19T08:13:04Z</time></trkpt><trkpt lat="43.86429183235811" lon="11.333316662598802"><ele>508.0</ele><time>2026-04-19T08:13:05Z</time></trkpt><trkpt lat="43.864138995731906" lon="11.333295833235216"><ele>508.0</ele><time>2026-04-19T08:13:06Z</time></trkpt><trkpt lat="43.86399007282012" lon="11.333276447904582"><ele>508.0</ele><time>2026-04-19T08:13:07Z</time></trkpt><trkpt lat="43.863851583455514" lon="11.333249104865956"><ele>506.59999999999997</ele><time>2026-04-19T08:13:08Z</time></trkpt><trkpt lat="43.86372731152907" lon="11.333222767488028"><ele>505.19999999999993</ele><time>2026-04-19T08:13:09Z</time></trkpt><trkpt lat="43.86360355754158" lon="11.333202267230353"><ele>503.8</ele><time>2026-04-19T08:13:10Z</time></trkpt><trkpt lat="43.863501278140355" lon="11.333183925198833"><ele>502.4</ele><time>2026-04-19T08:13:11Z</time></trkpt><trkpt lat="43.86340702588319" lon="11.33316584714615"><ele>501.0</ele><time>2026-04-19T08:13:12Z</time></trkpt><trkpt lat="43.86333530597889" lon="11.33315863094859"><ele>501.0</ele><time>2026-04-19T08:13:13Z</time></trkpt><trkpt lat="43.86324648565526" lon="11.33325355181914"><ele>501.0</ele><time>2026-04-19T08:13:15Z</time></trkpt><trkpt lat="43.863259081465365" lon="11.33334000136539"><ele>501.0</ele><time>2026-04-19T08:13:16Z</time></trkpt><trkpt lat="43.863301619143584" lon="11.333444776930282"><ele>501.0</ele><time>2026-04-19T08:13:17Z</time></trkpt><trkpt lat="43.86336829982874" lon="11.33357570010692"><ele>501.0</ele><time>2026-04-19T08:13:18Z</time></trkpt><trkpt lat="43.86346944032279" lon="11.333700825076958"><ele>501.0</ele><time>2026-04-19T08:13:19Z</time></trkpt><trkpt lat="43.86353908194638" lon="11.333854425368301"><ele>501.0</ele><time>2026-04-19T08:13:20Z</time></trkpt><trkpt lat="43.86359628864157" lon="11.334034104575068"><ele>501.0</ele><time>2026-04-19T08:13:21Z</time></trkpt><trkpt lat="43.86370331203456" lon="11.33418253962246"><ele>501.0</ele><time>2026-04-19T08:13:22Z</time></trkpt><trkpt lat="43.86379946796927" lon="11.334286731961466"><ele>499.75</ele><time>2026-04-19T08:13:23Z</time></trkpt><trkpt lat="43.863901735573904" lon="11.334433647185863"><ele>498.5</ele><time>2026-04-19T08:13:24Z</time></trkpt><trkpt lat="43.86398423936303" lon="11.334601779522222"><ele>497.25</ele><time>2026-04-19T08:13:25Z</time></trkpt><trkpt lat="43.86405734682497" lon="11.334743359624602"><ele>496.0</ele><time>2026-04-19T08:13:26Z</time></trkpt><trkpt lat="43.86411024836007" lon="11.334861118548877"><ele>494.75</ele><time>2026-04-19T08:13:27Z</time></trkpt><trkpt lat="43.864147826063515" lon="11.335002121173783"><ele>493.5</ele><time>2026-04-19T08:13:28Z</time></trkpt><trkpt lat="43.864136374873986" lon="11.33515295650311"><ele>492.25</ele><time>2026-04-19T08:13:29Z</time></trkpt><trkpt lat="43.86410970824033" lon="11.335321736798235"><ele>491.0</ele><time>2026-04-19T08:13:30Z</time></trkpt><trkpt lat="43.86409791881686" lon="11.335502913791741"><ele>490.0</ele><time>2026-04-19T08:13:31Z</time></trkpt><trkpt lat="43.86411604927602" lon="11.335694331431789"><ele>489.0</ele><time>2026-04-19T08:13:32Z</time></trkpt><trkpt lat="43.86412053500022" lon="11.33590476665907"><ele>488.0</ele><time>2026-04-19T08:13:33Z</time></trkpt><trkpt lat="43.8641251332252" lon="11.336120018286689"><ele>487.0</ele><time>2026-04-19T08:13:34Z</time></trkpt><trkpt lat="43.864153019179" lon="11.33633650992961"><ele>488.0</ele><time>2026-04-19T08:13:35Z</time></trkpt><trkpt lat="43.864121374294164" lon="11.336565810082279"><ele>489.0</ele><time>2026-04-19T08:13:36Z</time></trkpt><trkpt lat="43.8640695210504" lon="11.336804411085316"><ele>490.0</ele><time>2026-04-19T08:13:37Z</time></trkpt><trkpt lat="43.86402439703241" lon="11.337051280382974"><ele>492.33333333333337</ele><time>2026-04-19T08:13:38Z</time></trkpt><trkpt lat="43.863994920720785" lon="11.337309077634657"><ele>494.66666666666663</ele><time>2026-04-19T08:13:39Z</time></trkpt><trkpt lat="43.86396253177108" lon="11.33756868944279"><ele>497.0</ele><time>2026-04-19T08:13:40Z</time></trkpt><trkpt lat="43.8639578801525" lon="11.337818955996239"><ele>497.0</ele><time>2026-04-19T08:13:41Z</time></trkpt><trkpt lat="43.8639094578951" lon="11.338028469339728"><ele>497.0</ele><time>2026-04-19T08:13:42Z</time></trkpt><trkpt lat="43.86394189617771" lon="11.338221769605948"><ele>497.0</ele><time>2026-04-19T08:13:43Z</time></trkpt><trkpt lat="43.86392982434745" lon="11.338396815034404"><ele>497.0</ele><time>2026-04-19T08:13:44Z</time></trkpt><trkpt lat="43.863892640835914" lon="11.33857553232043"><ele>499.0</ele><time>2026-04-19T08:13:45Z</time></trkpt><trkpt lat="43.8638500611216" lon="11.338781513168467"><ele>501.0</ele><time>2026-04-19T08:13:46Z</time></trkpt><trkpt lat="43.86379538958074" lon="11.339017356475289"><ele>503.0</ele><time>2026-04-19T08:13:47Z</time></trkpt><trkpt lat="43.863717194650306" lon="11.339203005128079"><ele>503.0</ele><time>2026-04-19T08:13:48Z</time></trkpt><trkpt lat="43.86364123782829" lon="11.339348827053229"><ele>503.0</ele><time>2026-04-19T08:13:49Z</time></trkpt><trkpt lat="43.8634337879452" lon="11.33938912368718"><ele>503.0</ele><time>2026-04-19T08:13:50Z</time></trkpt><trkpt lat="43.86338251470043" lon="11.339512372328869"><ele>503.0</ele><time>2026-04-19T08:13:51Z</time></trkpt><trkpt lat="43.863341707591246" lon="11.33960929997134"><ele>503.2</ele><time>2026-04-19T08:13:52Z</time></trkpt><trkpt lat="43.86328927785482" lon="11.339730622663902"><ele>503.4</ele><time>2026-04-19T08:13:54Z</time></trkpt><trkpt lat="43.86324912426565" lon="11.339823793252695"><ele>503.59999999999997</ele><time>2026-04-19T08:13:56Z</time></trkpt><trkpt lat="43.8632211576308" lon="11.339926015983995"><ele>503.79999999999995</ele><time>2026-04-19T08:14:01Z</time></trkpt><trkpt lat="43.863345421408994" lon="11.340026365128992"><ele>504.0</ele><time>2026-04-19T08:14:03Z</time></trkpt><trkpt lat="43.863430480563956" lon="11.340035922345274"><ele>505.2</ele><time>2026-04-19T08:14:04Z</time></trkpt><trkpt lat="43.86350497563769" lon="11.340078038100618"><ele>506.4</ele><time>2026-04-19T08:14:05Z</time></trkpt><trkpt lat="43.86359222974702" lon="11.340119627337574"><ele>507.6</ele><time>2026-04-19T08:14:06Z</time></trkpt><trkpt lat="43.86369546053539" lon="11.34016521209633"><ele>508.8</ele><time>2026-04-19T08:14:07Z</time></trkpt><trkpt lat="43.863824590244285" lon="11.340195796451765"><ele>510.0</ele><time>2026-04-19T08:14:08Z</time></trkpt><trkpt lat="43.86396495548146" lon="11.34023304378732"><ele>510.0</ele><time>2026-04-19T08:14:09Z</time></trkpt><trkpt lat="43.86411897741819" lon="11.340265150682814"><ele>510.0</ele><time>2026-04-19T08:14:10Z</time></trkpt><trkpt lat="43.8642671358033" lon="11.34029897579194"><ele>510.0</ele><time>2026-04-19T08:14:11Z</time></trkpt><trkpt lat="43.864418867446574" lon="11.340348785751422"><ele>511.33333333333337</ele><time>2026-04-19T08:14:12Z</time></trkpt><trkpt lat="43.86457204552348" lon="11.340419004655143"><ele>512.6666666666667</ele><time>2026-04-19T08:14:13Z</time></trkpt><trkpt lat="43.86472909519891" lon="11.340499874177182"><ele>514.0</ele><time>2026-04-19T08:14:14Z</time></trkpt><trkpt lat="43.86486200366402" lon="11.340555958554283"><ele>515.25</ele><time>2026-04-19T08:14:15Z</time></trkpt><trkpt lat="43.86498647241001" lon="11.340605327699965"><ele>516.5</ele><time>2026-04-19T08:14:16Z</time></trkpt><trkpt lat="43.865102529566066" lon="11.340672872485202"><ele>517.75</ele><time>2026-04-19T08:14:17Z</time></trkpt><trkpt lat="43.865212290037086" lon="11.34077505126026"><ele>519.0</ele><time>2026-04-19T08:14:18Z</time></trkpt><trkpt lat="43.865292039302574" lon="11.340919538948773"><ele>521.0</ele><time>2026-04-19T08:14:19Z</time></trkpt><trkpt lat="43.86537358733467" lon="11.341081300516194"><ele>523.0</ele><time>2026-04-19T08:14:20Z</time></trkpt><trkpt lat="43.8654866534834" lon="11.341286382080304"><ele>525.0</ele><time>2026-04-19T08:14:21Z</time></trkpt><trkpt lat="43.865591522938246" lon="11.341443473791346"><ele>525.0</ele><time>2026-04-19T08:14:22Z</time></trkpt><trkpt lat="43.86571517543338" lon="11.341606974629984"><ele>525.0</ele><time>2026-04-19T08:14:23Z</time></trkpt><trkpt lat="43.865862279653506" lon="11.341771175635794"><ele>525.0</ele><time>2026-04-19T08:14:24Z</time></trkpt><trkpt lat="43.86602770669874" lon="11.34191065146186"><ele>524.6666666666666</ele><time>2026-04-19T08:14:25Z</time></trkpt><trkpt lat="43.866198163313975" lon="11.342089383062715"><ele>524.3333333333333</ele><time>2026-04-19T08:14:26Z</time></trkpt><trkpt lat="43.86637801556416" lon="11.342246543277012"><ele>524.0</ele><time>2026-04-19T08:14:27Z</time></trkpt><trkpt lat="43.866571225929455" lon="11.342416905315064"><ele>524.0</ele><time>2026-04-19T08:14:28Z</time></trkpt><trkpt lat="43.86676360397203" lon="11.342589719201266"><ele>524.0</ele><time>2026-04-19T08:14:29Z</time></trkpt><trkpt lat="43.86694127241677" lon="11.342754810200157"><ele>524.0</ele><time>2026-04-19T08:14:30Z</time></trkpt><trkpt lat="43.86711823322755" lon="11.34288763101249"><ele>525.0</ele><time>2026-04-19T08:14:31Z</time></trkpt><trkpt lat="43.86727449024603" lon="11.34303984982056"><ele>526.0</ele><time>2026-04-19T08:14:32Z</time></trkpt><trkpt lat="43.86743713039434" lon="11.343184556334034"><ele>527.0</ele><time>2026-04-19T08:14:33Z</time></trkpt><trkpt lat="43.86758622285938" lon="11.343327498870748"><ele>525.6666666666666</ele><time>2026-04-19T08:14:34Z</time></trkpt><trkpt lat="43.867710915363816" lon="11.34347158281754"><ele>524.3333333333334</ele><time>2026-04-19T08:14:35Z</time></trkpt><trkpt lat="43.86781478106677" lon="11.343618343524254"><ele>523.0</ele><time>2026-04-19T08:14:36Z</time></trkpt><trkpt lat="43.86792367993857" lon="11.34374058319392"><ele>523.0</ele><time>2026-04-19T08:14:37Z</time></trkpt><trkpt lat="43.86804207019507" lon="11.343819986784851"><ele>523.0</ele><time>2026-04-19T08:14:38Z</time></trkpt><trkpt lat="43.868172745904054" lon="11.343882876337702"><ele>523.0</ele><time>2026-04-19T08:14:39Z</time></trkpt><trkpt lat="43.868334213745385" lon="11.343911101900558"><ele>523.0</ele><time>2026-04-19T08:14:40Z</time></trkpt><trkpt lat="43.868506194559" lon="11.34389011015024"><ele>520.3333333333334</ele><time>2026-04-19T08:14:41Z</time></trkpt><trkpt lat="43.86869574607493" lon="11.343864967536593"><ele>517.6666666666666</ele><time>2026-04-19T08:14:42Z</time></trkpt><trkpt lat="43.86887837897852" lon="11.343857537148041"><ele>515.0</ele><time>2026-04-19T08:14:43Z</time></trkpt><trkpt lat="43.86904709099977" lon="11.34384838712432"><ele>515.0</ele><time>2026-04-19T08:14:44Z</time></trkpt><trkpt lat="43.86922889528913" lon="11.343829944930395"><ele>515.0</ele><time>2026-04-19T08:14:45Z</time></trkpt><trkpt lat="43.8694043028455" lon="11.343855197497835"><ele>515.0</ele><time>2026-04-19T08:14:46Z</time></trkpt><trkpt lat="43.86957102319422" lon="11.343919643314495"><ele>511.66666666666663</ele><time>2026-04-19T08:14:47Z</time></trkpt><trkpt lat="43.86972125898027" lon="11.344019364230093"><ele>508.33333333333337</ele><time>2026-04-19T08:14:48Z</time></trkpt><trkpt lat="43.86986216597092" lon="11.344114037663944"><ele>505.0</ele><time>2026-04-19T08:14:49Z</time></trkpt><trkpt lat="43.870007773065424" lon="11.344190906592367"><ele>504.33333333333337</ele><time>2026-04-19T08:14:50Z</time></trkpt><trkpt lat="43.870167944864356" lon="11.34425624622532"><ele>503.66666666666663</ele><time>2026-04-19T08:14:51Z</time></trkpt><trkpt lat="43.87034654706082" lon="11.344278209357824"><ele>503.0</ele><time>2026-04-19T08:14:52Z</time></trkpt><trkpt lat="43.87053838855468" lon="11.344252458381524"><ele>503.0</ele><time>2026-04-19T08:14:53Z</time></trkpt><trkpt lat="43.87075066058841" lon="11.344203681728686"><ele>503.0</ele><time>2026-04-19T08:14:54Z</time></trkpt><trkpt lat="43.870955162801216" lon="11.344174962555913"><ele>503.0</ele><time>2026-04-19T08:14:55Z</time></trkpt><trkpt lat="43.87116652353307" lon="11.34416807549018"><ele>502.3333333333333</ele><time>2026-04-19T08:14:56Z</time></trkpt><trkpt lat="43.87137080182051" lon="11.344184578587571"><ele>501.66666666666663</ele><time>2026-04-19T08:14:57Z</time></trkpt><trkpt lat="43.87155951285228" lon="11.344148239323857"><ele>501.0</ele><time>2026-04-19T08:14:58Z</time></trkpt><trkpt lat="43.87174909763421" lon="11.344238045417246"><ele>499.0</ele><time>2026-04-19T08:14:59Z</time></trkpt><trkpt lat="43.87192295775497" lon="11.344257618247118"><ele>497.0</ele><time>2026-04-19T08:15:00Z</time></trkpt><trkpt lat="43.87209975891465" lon="11.344247459738149"><ele>495.0</ele><time>2026-04-19T08:15:01Z</time></trkpt><trkpt lat="43.87229101642169" lon="11.344196509595069"><ele>495.0</ele><time>2026-04-19T08:15:02Z</time></trkpt><trkpt lat="43.872490790598576" lon="11.344115212741297"><ele>495.0</ele><time>2026-04-19T08:15:03Z</time></trkpt><trkpt lat="43.87269277537915" lon="11.344011186690476"><ele>495.0</ele><time>2026-04-19T08:15:04Z</time></trkpt><trkpt lat="43.87286672651038" lon="11.343910984384483"><ele>495.0</ele><time>2026-04-19T08:15:05Z</time></trkpt><trkpt lat="43.87304158976977" lon="11.34379327015595"><ele>495.0</ele><time>2026-04-19T08:15:06Z</time></trkpt><trkpt lat="43.87320272774564" lon="11.343647586804277"><ele>495.0</ele><time>2026-04-19T08:15:07Z</time></trkpt><trkpt lat="43.873345986895494" lon="11.34350566989096"><ele>494.0</ele><time>2026-04-19T08:15:08Z</time></trkpt><trkpt lat="43.87348372797807" lon="11.34337978459514"><ele>493.0</ele><time>2026-04-19T08:15:09Z</time></trkpt><trkpt lat="43.8736552448088" lon="11.343327704310179"><ele>492.0</ele><time>2026-04-19T08:15:10Z</time></trkpt><trkpt lat="43.87384637161091" lon="11.34329093895498"><ele>492.0</ele><time>2026-04-19T08:15:11Z</time></trkpt><trkpt lat="43.874050252374246" lon="11.343265645772444"><ele>492.0</ele><time>2026-04-19T08:15:12Z</time></trkpt><trkpt lat="43.87427766933004" lon="11.343238639232492"><ele>492.0</ele><time>2026-04-19T08:15:13Z</time></trkpt><trkpt lat="43.874481865817486" lon="11.343193500605311"><ele>490.66666666666663</ele><time>2026-04-19T08:15:14Z</time></trkpt><trkpt lat="43.87467736775781" lon="11.343165915276415"><ele>489.3333333333333</ele><time>2026-04-19T08:15:15Z</time></trkpt><trkpt lat="43.874868236317745" lon="11.343154545310323"><ele>488.0</ele><time>2026-04-19T08:15:16Z</time></trkpt><trkpt lat="43.87505620331467" lon="11.343178594211869"><ele>488.3333333333333</ele><time>2026-04-19T08:15:17Z</time></trkpt><trkpt lat="43.875248402501036" lon="11.343263210019249"><ele>488.66666666666663</ele><time>2026-04-19T08:15:18Z</time></trkpt><trkpt lat="43.8754471430426" lon="11.343392405224117"><ele>489.0</ele><time>2026-04-19T08:15:19Z</time></trkpt><trkpt lat="43.87564067628362" lon="11.343539414062931"><ele>489.0</ele><time>2026-04-19T08:15:20Z</time></trkpt><trkpt lat="43.87582300480934" lon="11.343659580752693"><ele>489.0</ele><time>2026-04-19T08:15:21Z</time></trkpt><trkpt lat="43.87599076872386" lon="11.34378204046558"><ele>489.0</ele><time>2026-04-19T08:15:22Z</time></trkpt><trkpt lat="43.87616229565934" lon="11.343886762736627"><ele>486.66666666666663</ele><time>2026-04-19T08:15:23Z</time></trkpt><trkpt lat="43.87633652031842" lon="11.343953015636858"><ele>484.3333333333333</ele><time>2026-04-19T08:15:24Z</time></trkpt><trkpt lat="43.87653710603939" lon="11.343986529212298"><ele>482.0</ele><time>2026-04-19T08:15:25Z</time></trkpt><trkpt lat="43.876743281683446" lon="11.344005128649137"><ele>482.0</ele><time>2026-04-19T08:15:26Z</time></trkpt><trkpt lat="43.87693699676749" lon="11.344033160201443"><ele>482.0</ele><time>2026-04-19T08:15:27Z</time></trkpt><trkpt lat="43.877133002513204" lon="11.34405332446071"><ele>482.0</ele><time>2026-04-19T08:15:28Z</time></trkpt><trkpt lat="43.87733579610839" lon="11.344072827860753"><ele>482.0</ele><time>2026-04-19T08:15:29Z</time></trkpt><trkpt lat="43.87752873702743" lon="11.344113443669581"><ele>482.0</ele><time>2026-04-19T08:15:30Z</time></trkpt><trkpt lat="43.87771078212128" lon="11.3441757663043"><ele>482.0</ele><time>2026-04-19T08:15:31Z</time></trkpt><trkpt lat="43.87787318687041" lon="11.344228292596299"><ele>482.3333333333333</ele><time>2026-04-19T08:15:32Z</time></trkpt><trkpt lat="43.878031198348644" lon="11.344291346436277"><ele>482.66666666666663</ele><time>2026-04-19T08:15:33Z</time></trkpt><trkpt lat="43.87818599402897" lon="11.344346389870665"><ele>483.0</ele><time>2026-04-19T08:15:34Z</time></trkpt><trkpt lat="43.878334679117664" lon="11.344388792398911"><ele>483.0</ele><time>2026-04-19T08:15:35Z</time></trkpt><trkpt lat="43.8784702135443" lon="11.344404459018126"><ele>483.0</ele><time>2026-04-19T08:15:36Z</time></trkpt><trkpt lat="43.87860569027184" lon="11.344388357891937"><ele>483.0</ele><time>2026-04-19T08:15:37Z</time></trkpt><trkpt lat="43.87873984772742" lon="11.344366984201692"><ele>483.0</ele><time>2026-04-19T08:15:38Z</time></trkpt><trkpt lat="43.878872041286094" lon="11.34436277040481"><ele>483.0</ele><time>2026-04-19T08:15:39Z</time></trkpt><trkpt lat="43.87899786767263" lon="11.344388625441246"><ele>483.0</ele><time>2026-04-19T08:15:40Z</time></trkpt><trkpt lat="43.8791144435128" lon="11.344438670610671"><ele>483.0</ele><time>2026-04-19T08:15:41Z</time></trkpt><trkpt lat="43.87921575028091" lon="11.34452943085879"><ele>483.0</ele><time>2026-04-19T08:15:42Z</time></trkpt><trkpt lat="43.87929813588888" lon="11.344664277264979"><ele>482.75</ele><time>2026-04-19T08:15:43Z</time></trkpt><trkpt lat="43.87936695727631" lon="11.344830181243942"><ele>482.5</ele><time>2026-04-19T08:15:44Z</time></trkpt><trkpt lat="43.8794310833232" lon="11.344987330465674"><ele>482.25</ele><time>2026-04-19T08:15:45Z</time></trkpt><trkpt lat="43.879524486098894" lon="11.345154757558975"><ele>482.0</ele><time>2026-04-19T08:15:46Z</time></trkpt><trkpt lat="43.879599873530324" lon="11.345317207471957"><ele>482.0</ele><time>2026-04-19T08:15:47Z</time></trkpt><trkpt lat="43.879694282135624" lon="11.345484238234578"><ele>482.0</ele><time>2026-04-19T08:15:48Z</time></trkpt><trkpt lat="43.879828744918065" lon="11.345661634320626"><ele>482.0</ele><time>2026-04-19T08:15:49Z</time></trkpt><trkpt lat="43.87997087705067" lon="11.345850999121119"><ele>482.3333333333333</ele><time>2026-04-19T08:15:50Z</time></trkpt><trkpt lat="43.88010709558344" lon="11.346030522918229"><ele>482.66666666666663</ele><time>2026-04-19T08:15:51Z</time></trkpt><trkpt lat="43.88025178048566" lon="11.346198433413562"><ele>483.0</ele><time>2026-04-19T08:15:52Z</time></trkpt><trkpt lat="43.8804130012727" lon="11.346328457714703"><ele>481.33333333333337</ele><time>2026-04-19T08:15:53Z</time></trkpt><trkpt lat="43.88059708089071" lon="11.34642732290099"><ele>479.6666666666667</ele><time>2026-04-19T08:15:54Z</time></trkpt><trkpt lat="43.88080680602673" lon="11.346510621587633"><ele>478.0</ele><time>2026-04-19T08:15:55Z</time></trkpt><trkpt lat="43.88102539036412" lon="11.346611192153196"><ele>478.0</ele><time>2026-04-19T08:15:56Z</time></trkpt><trkpt lat="43.88124073105479" lon="11.346731323287644"><ele>478.0</ele><time>2026-04-19T08:15:57Z</time></trkpt><trkpt lat="43.88142349701495" lon="11.34685741881653"><ele>478.0</ele><time>2026-04-19T08:15:58Z</time></trkpt><trkpt lat="43.881572712389996" lon="11.346975390627586"><ele>478.0</ele><time>2026-04-19T08:15:59Z</time></trkpt><trkpt lat="43.88169721318314" lon="11.34710537043966"><ele>478.0</ele><time>2026-04-19T08:16:00Z</time></trkpt><trkpt lat="43.88180855013542" lon="11.347254929731251"><ele>478.0</ele><time>2026-04-19T08:16:01Z</time></trkpt><trkpt lat="43.88189032623115" lon="11.347434731171354"><ele>475.6666666666667</ele><time>2026-04-19T08:16:02Z</time></trkpt><trkpt lat="43.88194298623158" lon="11.347648215256966"><ele>473.33333333333337</ele><time>2026-04-19T08:16:03Z</time></trkpt><trkpt lat="43.88195893597933" lon="11.347877642239977"><ele>471.0</ele><time>2026-04-19T08:16:04Z</time></trkpt><trkpt lat="43.88195976956385" lon="11.348094540825134"><ele>468.33333333333337</ele><time>2026-04-19T08:16:05Z</time></trkpt><trkpt lat="43.88197922297961" lon="11.348303366056049"><ele>465.6666666666667</ele><time>2026-04-19T08:16:06Z</time></trkpt><trkpt lat="43.88204914955492" lon="11.348500088822036"><ele>463.0</ele><time>2026-04-19T08:16:07Z</time></trkpt><trkpt lat="43.88215384564345" lon="11.348691704402292"><ele>463.0</ele><time>2026-04-19T08:16:08Z</time></trkpt><trkpt lat="43.882249232045965" lon="11.348861482708006"><ele>463.0</ele><time>2026-04-19T08:16:09Z</time></trkpt><trkpt lat="43.882353452126814" lon="11.349026087022407"><ele>463.0</ele><time>2026-04-19T08:16:10Z</time></trkpt><trkpt lat="43.88245373850569" lon="11.349174791530649"><ele>461.0</ele><time>2026-04-19T08:16:11Z</time></trkpt><trkpt lat="43.882542635736016" lon="11.349290125885013"><ele>459.0</ele><time>2026-04-19T08:16:12Z</time></trkpt><trkpt lat="43.88265271382754" lon="11.349378533456683"><ele>457.0</ele><time>2026-04-19T08:16:13Z</time></trkpt><trkpt lat="43.882761224368735" lon="11.349440386868102"><ele>455.0</ele><time>2026-04-19T08:16:14Z</time></trkpt><trkpt lat="43.882884459209365" lon="11.34948248245629"><ele>455.0</ele><time>2026-04-19T08:16:15Z</time></trkpt><trkpt lat="43.88300220970586" lon="11.349525401586169"><ele>455.0</ele><time>2026-04-19T08:16:16Z</time></trkpt><trkpt lat="43.88311763846041" lon="11.349559805709616"><ele>455.0</ele><time>2026-04-19T08:16:17Z</time></trkpt><trkpt lat="43.88322454739777" lon="11.349580099712751"><ele>455.0</ele><time>2026-04-19T08:16:18Z</time></trkpt><trkpt lat="43.88333353695617" lon="11.349610897681485"><ele>455.75</ele><time>2026-04-19T08:16:19Z</time></trkpt><trkpt lat="43.883447593065895" lon="11.349653999153702"><ele>456.5</ele><time>2026-04-19T08:16:20Z</time></trkpt><trkpt lat="43.88356765304385" lon="11.349683441595372"><ele>457.25</ele><time>2026-04-19T08:16:21Z</time></trkpt><trkpt lat="43.88368252474305" lon="11.349699710127181"><ele>458.0</ele><time>2026-04-19T08:16:22Z</time></trkpt><trkpt lat="43.883789088087" lon="11.34974055055764"><ele>455.25</ele><time>2026-04-19T08:16:23Z</time></trkpt><trkpt lat="43.883902053538954" lon="11.349817493670761"><ele>452.5</ele><time>2026-04-19T08:16:24Z</time></trkpt><trkpt lat="43.88399775954951" lon="11.349933171328297"><ele>449.75</ele><time>2026-04-19T08:16:25Z</time></trkpt><trkpt lat="43.88408841068501" lon="11.350059268633562"><ele>447.0</ele><time>2026-04-19T08:16:26Z</time></trkpt><trkpt lat="43.88417809530217" lon="11.350169156120627"><ele>447.0</ele><time>2026-04-19T08:16:27Z</time></trkpt><trkpt lat="43.88425665699247" lon="11.350279714199432"><ele>447.00000000000006</ele><time>2026-04-19T08:16:28Z</time></trkpt><trkpt lat="43.88434329310304" lon="11.35037764603599"><ele>447.00000000000006</ele><time>2026-04-19T08:16:29Z</time></trkpt><trkpt lat="43.88442291472116" lon="11.35048090732117"><ele>447.0</ele><time>2026-04-19T08:16:30Z</time></trkpt><trkpt lat="43.884500592661354" lon="11.350579246044415"><ele>447.0</ele><time>2026-04-19T08:16:31Z</time></trkpt><trkpt lat="43.884581770761336" lon="11.350669002337101"><ele>446.20000000000005</ele><time>2026-04-19T08:16:32Z</time></trkpt><trkpt lat="43.884666762271834" lon="11.350748231763177"><ele>445.40000000000003</ele><time>2026-04-19T08:16:33Z</time></trkpt><trkpt lat="43.88474911079403" lon="11.350821444229453"><ele>444.59999999999997</ele><time>2026-04-19T08:16:34Z</time></trkpt><trkpt lat="43.88486515116936" lon="11.350879676713111"><ele>443.79999999999995</ele><time>2026-04-19T08:16:35Z</time></trkpt><trkpt lat="43.88497255597763" lon="11.350937177462095"><ele>443.0</ele><time>2026-04-19T08:16:36Z</time></trkpt><trkpt lat="43.88508731771251" lon="11.350989370235146"><ele>444.5</ele><time>2026-04-19T08:16:37Z</time></trkpt><trkpt lat="43.885204910955956" lon="11.351039630969783"><ele>446.0</ele><time>2026-04-19T08:16:38Z</time></trkpt><trkpt lat="43.88532253978078" lon="11.351092084997854"><ele>447.5</ele><time>2026-04-19T08:16:39Z</time></trkpt><trkpt lat="43.88543584339066" lon="11.35114358857168"><ele>449.0</ele><time>2026-04-19T08:16:40Z</time></trkpt><trkpt lat="43.88555477222699" lon="11.35121303388527"><ele>449.0</ele><time>2026-04-19T08:16:41Z</time></trkpt><trkpt lat="43.885663296480125" lon="11.351258321209487"><ele>449.0</ele><time>2026-04-19T08:16:42Z</time></trkpt><trkpt lat="43.885773812551655" lon="11.351308262859401"><ele>449.0</ele><time>2026-04-19T08:16:43Z</time></trkpt><trkpt lat="43.88589682002309" lon="11.35135681500701"><ele>449.0</ele><time>2026-04-19T08:16:44Z</time></trkpt><trkpt lat="43.88604455208493" lon="11.351420740601249"><ele>447.66666666666663</ele><time>2026-04-19T08:16:45Z</time></trkpt><trkpt lat="43.88620261389931" lon="11.35149787972269"><ele>446.33333333333337</ele><time>2026-04-19T08:16:46Z</time></trkpt><trkpt lat="43.88634906194212" lon="11.351576557029778"><ele>445.0</ele><time>2026-04-19T08:16:47Z</time></trkpt><trkpt lat="43.88648590570454" lon="11.351665223093772"><ele>445.0</ele><time>2026-04-19T08:16:48Z</time></trkpt><trkpt lat="43.88661708788024" lon="11.351765390869375"><ele>445.0</ele><time>2026-04-19T08:16:49Z</time></trkpt><trkpt lat="43.88673089556647" lon="11.351869856390195"><ele>445.0</ele><time>2026-04-19T08:16:50Z</time></trkpt><trkpt lat="43.88683443953992" lon="11.351952843238605"><ele>445.0</ele><time>2026-04-19T08:16:51Z</time></trkpt><trkpt lat="43.88696050075988" lon="11.351999695007844"><ele>448.6666666666667</ele><time>2026-04-19T08:16:52Z</time></trkpt><trkpt lat="43.887102388884216" lon="11.352004405675453"><ele>452.33333333333337</ele><time>2026-04-19T08:16:53Z</time></trkpt><trkpt lat="43.88726104746857" lon="11.351981588838726"><ele>456.0</ele><time>2026-04-19T08:16:54Z</time></trkpt><trkpt lat="43.88741906542175" lon="11.351938985802619"><ele>456.0</ele><time>2026-04-19T08:16:55Z</time></trkpt><trkpt lat="43.887577247768654" lon="11.35188071731593"><ele>456.0</ele><time>2026-04-19T08:16:56Z</time></trkpt><trkpt lat="43.88772273818212" lon="11.3518411445756"><ele>456.0</ele><time>2026-04-19T08:16:57Z</time></trkpt><trkpt lat="43.887877881467084" lon="11.351812058548827"><ele>459.0</ele><time>2026-04-19T08:16:58Z</time></trkpt><trkpt lat="43.888036715825365" lon="11.351805443280385"><ele>462.0</ele><time>2026-04-19T08:16:59Z</time></trkpt><trkpt lat="43.88818985979119" lon="11.351847838781978"><ele>465.0</ele><time>2026-04-19T08:17:00Z</time></trkpt><trkpt lat="43.88834773808785" lon="11.351939254155607"><ele>460.0</ele><time>2026-04-19T08:17:01Z</time></trkpt><trkpt lat="43.888493094766545" lon="11.352041912647131"><ele>455.0</ele><time>2026-04-19T08:17:02Z</time></trkpt><trkpt lat="43.8886312942588" lon="11.35215235939046"><ele>450.0</ele><time>2026-04-19T08:17:03Z</time></trkpt><trkpt lat="43.88876656657876" lon="11.352302841277993"><ele>450.0</ele><time>2026-04-19T08:17:04Z</time></trkpt><trkpt lat="43.88888924299567" lon="11.352494072304347"><ele>450.0</ele><time>2026-04-19T08:17:05Z</time></trkpt><trkpt lat="43.889017237292265" lon="11.352677089013499"><ele>450.0</ele><time>2026-04-19T08:17:06Z</time></trkpt><trkpt lat="43.88913674769538" lon="11.352849446855874"><ele>450.0</ele><time>2026-04-19T08:17:07Z</time></trkpt><trkpt lat="43.889258164566634" lon="11.353004748463023"><ele>450.0</ele><time>2026-04-19T08:17:08Z</time></trkpt><trkpt lat="43.88937826473445" lon="11.353154655670012"><ele>450.0</ele><time>2026-04-19T08:17:09Z</time></trkpt><trkpt lat="43.8895073872058" lon="11.353273706287"><ele>446.75</ele><time>2026-04-19T08:17:10Z</time></trkpt><trkpt lat="43.889634709797015" lon="11.353369395821309"><ele>443.5</ele><time>2026-04-19T08:17:11Z</time></trkpt><trkpt lat="43.8897527396272" lon="11.35349441978234"><ele>440.25</ele><time>2026-04-19T08:17:12Z</time></trkpt><trkpt lat="43.88987463949358" lon="11.35360067601349"><ele>437.0</ele><time>2026-04-19T08:17:13Z</time></trkpt><trkpt lat="43.89001098080449" lon="11.353667698605685"><ele>439.25</ele><time>2026-04-19T08:17:14Z</time></trkpt><trkpt lat="43.8901440123803" lon="11.353714754942946"><ele>441.5</ele><time>2026-04-19T08:17:15Z</time></trkpt><trkpt lat="43.89028068088267" lon="11.353715618782513"><ele>443.75</ele><time>2026-04-19T08:17:16Z</time></trkpt><trkpt lat="43.89040862013555" lon="11.353726487394473"><ele>446.0</ele><time>2026-04-19T08:17:17Z</time></trkpt><trkpt lat="43.890534375624405" lon="11.353758069443177"><ele>446.0</ele><time>2026-04-19T08:17:18Z</time></trkpt><trkpt lat="43.8906551773658" lon="11.35375814072282"><ele>446.0</ele><time>2026-04-19T08:17:19Z</time></trkpt><trkpt lat="43.89077292465017" lon="11.353788218704008"><ele>446.0</ele><time>2026-04-19T08:17:20Z</time></trkpt><trkpt lat="43.89088200879346" lon="11.353857708054209"><ele>446.0</ele><time>2026-04-19T08:17:21Z</time></trkpt><trkpt lat="43.8909839213927" lon="11.353960365340205"><ele>442.66666666666663</ele><time>2026-04-19T08:17:22Z</time></trkpt><trkpt lat="43.89107206607606" lon="11.354114150325081"><ele>439.33333333333337</ele><time>2026-04-19T08:17:23Z</time></trkpt><trkpt lat="43.89113373073576" lon="11.354319294955001"><ele>436.0</ele><time>2026-04-19T08:17:24Z</time></trkpt><trkpt lat="43.89119201822628" lon="11.35456945350209"><ele>429.33333333333337</ele><time>2026-04-19T08:17:25Z</time></trkpt><trkpt lat="43.89126966987361" lon="11.354792016868467"><ele>422.66666666666663</ele><time>2026-04-19T08:17:26Z</time></trkpt><trkpt lat="43.891370478143365" lon="11.354990801200772"><ele>416.0</ele><time>2026-04-19T08:17:27Z</time></trkpt><trkpt lat="43.89148453211479" lon="11.355129363278305"><ele>416.0</ele><time>2026-04-19T08:17:28Z</time></trkpt><trkpt lat="43.89161506080531" lon="11.355218698853898"><ele>416.0</ele><time>2026-04-19T08:17:29Z</time></trkpt><trkpt lat="43.891792528496836" lon="11.355269583181975"><ele>416.0</ele><time>2026-04-19T08:17:30Z</time></trkpt><trkpt lat="43.89197422436779" lon="11.355296533359768"><ele>417.66666666666663</ele><time>2026-04-19T08:17:31Z</time></trkpt><trkpt lat="43.89216901354346" lon="11.355288753932975"><ele>419.33333333333337</ele><time>2026-04-19T08:17:32Z</time></trkpt><trkpt lat="43.89236018946157" lon="11.35524351077698"><ele>421.0</ele><time>2026-04-19T08:17:33Z</time></trkpt><trkpt lat="43.89255434431536" lon="11.355189238201431"><ele>415.0</ele><time>2026-04-19T08:17:34Z</time></trkpt><trkpt lat="43.89273539895889" lon="11.355147925943943"><ele>409.0</ele><time>2026-04-19T08:17:35Z</time></trkpt><trkpt lat="43.892917034796" lon="11.355117687430576"><ele>403.0</ele><time>2026-04-19T08:17:36Z</time></trkpt><trkpt lat="43.89309559956489" lon="11.355098054371341"><ele>403.0</ele><time>2026-04-19T08:17:37Z</time></trkpt><trkpt lat="43.89327008477074" lon="11.355088466274992"><ele>403.0</ele><time>2026-04-19T08:17:38Z</time></trkpt><trkpt lat="43.89341739015029" lon="11.355099542113132"><ele>403.0</ele><time>2026-04-19T08:17:39Z</time></trkpt><trkpt lat="43.89355073882573" lon="11.355132960043985"><ele>403.0</ele><time>2026-04-19T08:17:40Z</time></trkpt><trkpt lat="43.893671521343954" lon="11.355219046569498"><ele>403.0</ele><time>2026-04-19T08:17:41Z</time></trkpt><trkpt lat="43.89375663715291" lon="11.355337956506714"><ele>403.0</ele><time>2026-04-19T08:17:42Z</time></trkpt><trkpt lat="43.89382300670788" lon="11.35551390043543"><ele>403.0</ele><time>2026-04-19T08:17:43Z</time></trkpt><trkpt lat="43.89389157497717" lon="11.355677522247694"><ele>399.33333333333337</ele><time>2026-04-19T08:17:44Z</time></trkpt><trkpt lat="43.893983241414766" lon="11.355845207001302"><ele>395.66666666666663</ele><time>2026-04-19T08:17:45Z</time></trkpt><trkpt lat="43.89409928062286" lon="11.356008465561093"><ele>392.0</ele><time>2026-04-19T08:17:46Z</time></trkpt><trkpt lat="43.89423307727835" lon="11.356176741650232"><ele>392.3333333333333</ele><time>2026-04-19T08:17:47Z</time></trkpt><trkpt lat="43.89435860951995" lon="11.356339556020988"><ele>392.66666666666663</ele><time>2026-04-19T08:17:48Z</time></trkpt><trkpt lat="43.894465065655574" lon="11.356489771638177"><ele>393.0</ele><time>2026-04-19T08:17:49Z</time></trkpt><trkpt lat="43.894553256491534" lon="11.356634251628853"><ele>390.0</ele><time>2026-04-19T08:17:50Z</time></trkpt><trkpt lat="43.894622713958015" lon="11.356777731776674"><ele>387.0</ele><time>2026-04-19T08:17:51Z</time></trkpt><trkpt lat="43.894714114196454" lon="11.356887375326185"><ele>384.0</ele><time>2026-04-19T08:17:52Z</time></trkpt><trkpt lat="43.89481401997292" lon="11.35695053058898"><ele>381.0</ele><time>2026-04-19T08:17:53Z</time></trkpt><trkpt lat="43.89494144669367" lon="11.356942498232781"><ele>381.0</ele><time>2026-04-19T08:17:54Z</time></trkpt><trkpt lat="43.89507740966667" lon="11.356875673069776"><ele>381.0</ele><time>2026-04-19T08:17:55Z</time></trkpt><trkpt lat="43.895237599260014" lon="11.356797636565533"><ele>381.0</ele><time>2026-04-19T08:17:56Z</time></trkpt><trkpt lat="43.89540299928591" lon="11.35681342333398"><ele>380.25</ele><time>2026-04-19T08:17:57Z</time></trkpt><trkpt lat="43.895460423742875" lon="11.356924982179283"><ele>379.5</ele><time>2026-04-19T08:17:58Z</time></trkpt><trkpt lat="43.89561478675807" lon="11.35696403376111"><ele>378.75</ele><time>2026-04-19T08:17:59Z</time></trkpt><trkpt lat="43.895789524600175" lon="11.356985573446572"><ele>378.0</ele><time>2026-04-19T08:18:00Z</time></trkpt><trkpt lat="43.895995034039665" lon="11.356955178359337"><ele>375.6666666666667</ele><time>2026-04-19T08:18:01Z</time></trkpt><trkpt lat="43.89619529009786" lon="11.356881458631252"><ele>373.33333333333337</ele><time>2026-04-19T08:18:02Z</time></trkpt><trkpt lat="43.89638019877298" lon="11.35679852833813"><ele>371.0</ele><time>2026-04-19T08:18:03Z</time></trkpt><trkpt lat="43.896519518973726" lon="11.356743053624875"><ele>371.0</ele><time>2026-04-19T08:18:04Z</time></trkpt><trkpt lat="43.896618203906556" lon="11.356707091276393"><ele>371.0</ele><time>2026-04-19T08:18:05Z</time></trkpt><trkpt lat="43.896729096452184" lon="11.356671434585062"><ele>371.0</ele><time>2026-04-19T08:18:06Z</time></trkpt><trkpt lat="43.89685749113627" lon="11.356639078299649"><ele>371.0</ele><time>2026-04-19T08:18:07Z</time></trkpt><trkpt lat="43.896971205112635" lon="11.356601842262975"><ele>369.25</ele><time>2026-04-19T08:18:08Z</time></trkpt><trkpt lat="43.897079900032246" lon="11.356566279723857"><ele>367.5</ele><time>2026-04-19T08:18:09Z</time></trkpt><trkpt lat="43.897191302236834" lon="11.3565242934852"><ele>365.75</ele><time>2026-04-19T08:18:10Z</time></trkpt><trkpt lat="43.89730807593521" lon="11.356489643807269"><ele>364.0</ele><time>2026-04-19T08:18:11Z</time></trkpt><trkpt lat="43.89741977912573" lon="11.356450123790127"><ele>364.0</ele><time>2026-04-19T08:18:12Z</time></trkpt><trkpt lat="43.89754241633075" lon="11.3564507037852"><ele>364.0</ele><time>2026-04-19T08:18:13Z</time></trkpt><trkpt lat="43.89766647955859" lon="11.356454542813147"><ele>364.0</ele><time>2026-04-19T08:18:14Z</time></trkpt><trkpt lat="43.89780017152301" lon="11.356491091006728"><ele>364.0</ele><time>2026-04-19T08:18:15Z</time></trkpt><trkpt lat="43.89791701862526" lon="11.356532950171701"><ele>362.4</ele><time>2026-04-19T08:18:16Z</time></trkpt><trkpt lat="43.898012465437944" lon="11.356628033030105"><ele>360.79999999999995</ele><time>2026-04-19T08:18:17Z</time></trkpt><trkpt lat="43.89808344890186" lon="11.356733260247342"><ele>359.20000000000005</ele><time>2026-04-19T08:18:18Z</time></trkpt><trkpt lat="43.8981333801852" lon="11.356858056309465"><ele>357.6</ele><time>2026-04-19T08:18:19Z</time></trkpt><trkpt lat="43.89816226579274" lon="11.356998189083837"><ele>356.0</ele><time>2026-04-19T08:18:20Z</time></trkpt><trkpt lat="43.8981675826031" lon="11.357171970929672"><ele>354.75</ele><time>2026-04-19T08:18:21Z</time></trkpt><trkpt lat="43.89816398005316" lon="11.357346408811964"><ele>353.5</ele><time>2026-04-19T08:18:22Z</time></trkpt><trkpt lat="43.89815312659466" lon="11.35753793662973"><ele>352.25</ele><time>2026-04-19T08:18:23Z</time></trkpt><trkpt lat="43.898130898421" lon="11.35772241832519"><ele>351.0</ele><time>2026-04-19T08:18:24Z</time></trkpt><trkpt lat="43.898097194141904" lon="11.357899534302838"><ele>349.75</ele><time>2026-04-19T08:18:25Z</time></trkpt><trkpt lat="43.898050080323465" lon="11.358061060468659"><ele>348.5</ele><time>2026-04-19T08:18:26Z</time></trkpt><trkpt lat="43.89797961378073" lon="11.358196045143819"><ele>347.25</ele><time>2026-04-19T08:18:27.001Z</time></trkpt><trkpt lat="43.89788576163546" lon="11.358292356193006"><ele>346.0</ele><time>2026-04-19T08:18:28.001Z</time></trkpt><trkpt lat="43.89777054894191" lon="11.358383646361917"><ele>346.0</ele><time>2026-04-19T08:18:29.001Z</time></trkpt><trkpt lat="43.89763623263236" lon="11.358442465669793"><ele>346.0</ele><time>2026-04-19T08:18:30.001Z</time></trkpt><trkpt lat="43.89749274325688" lon="11.358468131070373"><ele>346.0</ele><time>2026-04-19T08:18:31.001Z</time></trkpt><trkpt lat="43.897357297269195" lon="11.358471232440788"><ele>346.0</ele><time>2026-04-19T08:18:32.001Z</time></trkpt><trkpt lat="43.89722797901984" lon="11.358483740514949"><ele>346.66666666666663</ele><time>2026-04-19T08:18:33.001Z</time></trkpt><trkpt lat="43.89711448085561" lon="11.35846653443626"><ele>347.3333333333333</ele><time>2026-04-19T08:18:34.001Z</time></trkpt><trkpt lat="43.89703143614566" lon="11.358454464808196"><ele>348.0</ele><time>2026-04-19T08:18:35.001Z</time></trkpt><trkpt lat="43.89695393928523" lon="11.358465970818322"><ele>348.6666666666667</ele><time>2026-04-19T08:18:36.001Z</time></trkpt><trkpt lat="43.89688044008282" lon="11.358511596704975"><ele>349.33333333333337</ele><time>2026-04-19T08:18:37.001Z</time></trkpt><trkpt lat="43.89682884207909" lon="11.358600363009648"><ele>350.0</ele><time>2026-04-19T08:18:38Z</time></trkpt><trkpt lat="43.89681807451476" lon="11.358711132908363"><ele>350.0</ele><time>2026-04-19T08:18:39.001Z</time></trkpt><trkpt lat="43.89687063898523" lon="11.358810901318941"><ele>350.0</ele><time>2026-04-19T08:18:40.001Z</time></trkpt><trkpt lat="43.89695096337296" lon="11.358914717856985"><ele>350.0</ele><time>2026-04-19T08:18:41.001Z</time></trkpt><trkpt lat="43.89706512300249" lon="11.359019063168722"><ele>350.0</ele><time>2026-04-19T08:18:42Z</time></trkpt><trkpt lat="43.897171469114866" lon="11.359122320689337"><ele>348.25</ele><time>2026-04-19T08:18:43Z</time></trkpt><trkpt lat="43.89726411357822" lon="11.359209442781312"><ele>346.5</ele><time>2026-04-19T08:18:44Z</time></trkpt><trkpt lat="43.89735787774674" lon="11.35930538353443"><ele>344.75</ele><time>2026-04-19T08:18:45Z</time></trkpt><trkpt lat="43.89744718570698" lon="11.359397368593893"><ele>343.0</ele><time>2026-04-19T08:18:46Z</time></trkpt><trkpt lat="43.89754735024902" lon="11.359482784368362"><ele>342.2</ele><time>2026-04-19T08:18:47Z</time></trkpt><trkpt lat="43.8976321452016" lon="11.359574352949913"><ele>341.4</ele><time>2026-04-19T08:18:48Z</time></trkpt><trkpt lat="43.89771979186877" lon="11.359647874525102"><ele>340.59999999999997</ele><time>2026-04-19T08:18:49Z</time></trkpt><trkpt lat="43.89780525999798" lon="11.35970399389608"><ele>339.79999999999995</ele><time>2026-04-19T08:18:50Z</time></trkpt><trkpt lat="43.89793172038133" lon="11.359735738898184"><ele>339.0</ele><time>2026-04-19T08:18:51Z</time></trkpt><trkpt lat="43.898074685546305" lon="11.359722039942808"><ele>339.0</ele><time>2026-04-19T08:18:52Z</time></trkpt><trkpt lat="43.89821410924547" lon="11.359715873927522"><ele>339.0</ele><time>2026-04-19T08:18:53Z</time></trkpt><trkpt lat="43.89834250804298" lon="11.35965933268077"><ele>339.0</ele><time>2026-04-19T08:18:54Z</time></trkpt><trkpt lat="43.89848034144994" lon="11.359548872121692"><ele>339.0</ele><time>2026-04-19T08:18:55Z</time></trkpt><trkpt lat="43.898603608539474" lon="11.359460512850466"><ele>335.3333333333333</ele><time>2026-04-19T08:18:56Z</time></trkpt><trkpt lat="43.898785030684685" lon="11.35931312895248"><ele>331.66666666666663</ele><time>2026-04-19T08:18:57Z</time></trkpt><trkpt lat="43.898931589623416" lon="11.359133690228465"><ele>328.0</ele><time>2026-04-19T08:18:58Z</time></trkpt><trkpt lat="43.899070621829814" lon="11.358912125356625"><ele>329.66666666666663</ele><time>2026-04-19T08:18:59Z</time></trkpt><trkpt lat="43.89922165690633" lon="11.358642763054485"><ele>331.3333333333333</ele><time>2026-04-19T08:19:00Z</time></trkpt><trkpt lat="43.89932840016844" lon="11.358410139130427"><ele>333.0</ele><time>2026-04-19T08:19:01Z</time></trkpt><trkpt lat="43.89945332943463" lon="11.358184635539923"><ele>330.3333333333333</ele><time>2026-04-19T08:19:02Z</time></trkpt><trkpt lat="43.899548546682034" lon="11.357947209249689"><ele>327.66666666666663</ele><time>2026-04-19T08:19:03Z</time></trkpt><trkpt lat="43.899644190686644" lon="11.35774977650704"><ele>325.0</ele><time>2026-04-19T08:19:04Z</time></trkpt><trkpt lat="43.89975552513303" lon="11.3575492963902"><ele>325.0</ele><time>2026-04-19T08:19:05Z</time></trkpt><trkpt lat="43.8998618804646" lon="11.35736617344499"><ele>325.0</ele><time>2026-04-19T08:19:06Z</time></trkpt><trkpt lat="43.90000818425839" lon="11.357232422591663"><ele>325.0</ele><time>2026-04-19T08:19:07Z</time></trkpt><trkpt lat="43.90019267724655" lon="11.357168834859444"><ele>326.3333333333333</ele><time>2026-04-19T08:19:08Z</time></trkpt><trkpt lat="43.90036913408837" lon="11.357074861040005"><ele>327.6666666666667</ele><time>2026-04-19T08:19:09Z</time></trkpt><trkpt lat="43.9005625028521" lon="11.35696790006522"><ele>329.0</ele><time>2026-04-19T08:19:10Z</time></trkpt><trkpt lat="43.90074698452591" lon="11.356902700413128"><ele>329.0</ele><time>2026-04-19T08:19:11Z</time></trkpt><trkpt lat="43.900889798797294" lon="11.356833587997986"><ele>329.0</ele><time>2026-04-19T08:19:12Z</time></trkpt><trkpt lat="43.90102633475387" lon="11.3567460492018"><ele>329.0</ele><time>2026-04-19T08:19:13Z</time></trkpt><trkpt lat="43.901139750467195" lon="11.356642011608573"><ele>329.0</ele><time>2026-04-19T08:19:14Z</time></trkpt><trkpt lat="43.90128718245944" lon="11.35654968548618"><ele>325.33333333333337</ele><time>2026-04-19T08:19:15Z</time></trkpt><trkpt lat="43.90143323321373" lon="11.35650723418414"><ele>321.6666666666667</ele><time>2026-04-19T08:19:16Z</time></trkpt><trkpt lat="43.90158321653425" lon="11.356518451147576"><ele>318.0</ele><time>2026-04-19T08:19:17Z</time></trkpt><trkpt lat="43.901751780321256" lon="11.356484144137609"><ele>314.6666666666667</ele><time>2026-04-19T08:19:18Z</time></trkpt><trkpt lat="43.901959431477955" lon="11.356429574291257"><ele>311.33333333333337</ele><time>2026-04-19T08:19:19Z</time></trkpt><trkpt lat="43.90216765878076" lon="11.356391039713685"><ele>308.0</ele><time>2026-04-19T08:19:20Z</time></trkpt><trkpt lat="43.90237387378166" lon="11.356353674864177"><ele>307.0</ele><time>2026-04-19T08:19:21Z</time></trkpt><trkpt lat="43.90257540261605" lon="11.356294087133868"><ele>306.0</ele><time>2026-04-19T08:19:22Z</time></trkpt><trkpt lat="43.90275631330667" lon="11.356328515705604"><ele>305.0</ele><time>2026-04-19T08:19:23Z</time></trkpt><trkpt lat="43.902937373196366" lon="11.356395380163864"><ele>305.0</ele><time>2026-04-19T08:19:24Z</time></trkpt><trkpt lat="43.90311256281937" lon="11.356486490154754"><ele>305.0</ele><time>2026-04-19T08:19:25Z</time></trkpt><trkpt lat="43.90328768745022" lon="11.356614762656958"><ele>305.0</ele><time>2026-04-19T08:19:26Z</time></trkpt><trkpt lat="43.90346585233711" lon="11.356767320988745"><ele>303.6666666666667</ele><time>2026-04-19T08:19:27Z</time></trkpt><trkpt lat="43.90362981148685" lon="11.356866966162114"><ele>302.3333333333333</ele><time>2026-04-19T08:19:28Z</time></trkpt><trkpt lat="43.903763300602336" lon="11.356922997517234"><ele>301.0</ele><time>2026-04-19T08:19:29Z</time></trkpt><trkpt lat="43.90392053058712" lon="11.35695480304128"><ele>301.0</ele><time>2026-04-19T08:19:30Z</time></trkpt><trkpt lat="43.904053000167266" lon="11.356954255120177"><ele>301.0</ele><time>2026-04-19T08:19:31Z</time></trkpt><trkpt lat="43.904199139884284" lon="11.357048669990835"><ele>301.0</ele><time>2026-04-19T08:19:32Z</time></trkpt><trkpt lat="43.9043306943043" lon="11.357066750920103"><ele>301.0</ele><time>2026-04-19T08:19:33Z</time></trkpt><trkpt lat="43.90448951037281" lon="11.356849636435726"><ele>300.3333333333333</ele><time>2026-04-19T08:19:34Z</time></trkpt><trkpt lat="43.904629355383165" lon="11.356773569883508"><ele>299.6666666666667</ele><time>2026-04-19T08:19:35Z</time></trkpt><trkpt lat="43.90478531438158" lon="11.356647984145951"><ele>299.0</ele><time>2026-04-19T08:19:36Z</time></trkpt><trkpt lat="43.904923980527656" lon="11.356463725711441"><ele>299.0</ele><time>2026-04-19T08:19:37Z</time></trkpt><trkpt lat="43.90498887782624" lon="11.356226277155269"><ele>299.0</ele><time>2026-04-19T08:19:38Z</time></trkpt><trkpt lat="43.90504863306039" lon="11.355926185076274"><ele>299.0</ele><time>2026-04-19T08:19:39Z</time></trkpt><trkpt lat="43.90514916077458" lon="11.35564397515459"><ele>297.0</ele><time>2026-04-19T08:19:40Z</time></trkpt><trkpt lat="43.905243440672315" lon="11.355402158470287"><ele>295.0</ele><time>2026-04-19T08:19:41Z</time></trkpt><trkpt lat="43.90532743256861" lon="11.355150319107848"><ele>293.0</ele><time>2026-04-19T08:19:42Z</time></trkpt><trkpt lat="43.90538715173987" lon="11.354888325065076"><ele>293.0</ele><time>2026-04-19T08:19:43Z</time></trkpt><trkpt lat="43.90546974693471" lon="11.354622921033405"><ele>293.0</ele><time>2026-04-19T08:19:44Z</time></trkpt><trkpt lat="43.90555880685828" lon="11.35434888163512"><ele>293.0</ele><time>2026-04-19T08:19:45Z</time></trkpt><trkpt lat="43.90566092504257" lon="11.35409538694222"><ele>293.0</ele><time>2026-04-19T08:19:46Z</time></trkpt><trkpt lat="43.905806630366044" lon="11.353902373472003"><ele>293.0</ele><time>2026-04-19T08:19:47Z</time></trkpt><trkpt lat="43.90595791092061" lon="11.353746967516615"><ele>293.0</ele><time>2026-04-19T08:19:48Z</time></trkpt><trkpt lat="43.90611708325499" lon="11.353624811234658"><ele>291.0</ele><time>2026-04-19T08:19:49Z</time></trkpt><trkpt lat="43.90626961608228" lon="11.353549397051854"><ele>289.0</ele><time>2026-04-19T08:19:50Z</time></trkpt><trkpt lat="43.90642535429299" lon="11.353498299123094"><ele>287.0</ele><time>2026-04-19T08:19:51Z</time></trkpt><trkpt lat="43.90664846307368" lon="11.353470509469222"><ele>287.0</ele><time>2026-04-19T08:19:52Z</time></trkpt><trkpt lat="43.90688525309922" lon="11.353239165245851"><ele>287.0</ele><time>2026-04-19T08:19:53Z</time></trkpt><trkpt lat="43.90716600287206" lon="11.35323506911077"><ele>287.0</ele><time>2026-04-19T08:19:54Z</time></trkpt><trkpt lat="43.90742179871891" lon="11.353249467264046"><ele>287.0</ele><time>2026-04-19T08:19:55Z</time></trkpt><trkpt lat="43.90769959157062" lon="11.353336759767831"><ele>285.0</ele><time>2026-04-19T08:19:56Z</time></trkpt><trkpt lat="43.90796649886334" lon="11.35346947094567"><ele>283.0</ele><time>2026-04-19T08:19:57Z</time></trkpt><trkpt lat="43.90822020371544" lon="11.353468754686862"><ele>282.5</ele><time>2026-04-19T08:19:58Z</time></trkpt><trkpt lat="43.90849045534917" lon="11.353469656769034"><ele>282.0</ele><time>2026-04-19T08:19:59Z</time></trkpt><trkpt lat="43.908730757057505" lon="11.35345190471716"><ele>282.0</ele><time>2026-04-19T08:20:00Z</time></trkpt><trkpt lat="43.90898636255039" lon="11.353466156051443"><ele>282.0</ele><time>2026-04-19T08:20:01Z</time></trkpt><trkpt lat="43.90921897437226" lon="11.35345619019138"><ele>287.0</ele><time>2026-04-19T08:20:02Z</time></trkpt><trkpt lat="43.9094659552842" lon="11.353489939374482"><ele>292.0</ele><time>2026-04-19T08:20:03Z</time></trkpt><trkpt lat="43.90970010970081" lon="11.353535404057865"><ele>292.0</ele><time>2026-04-19T08:20:04Z</time></trkpt><trkpt lat="43.90990824390642" lon="11.353610699164815"><ele>292.0</ele><time>2026-04-19T08:20:05Z</time></trkpt><trkpt lat="43.91011297222818" lon="11.353699642161711"><ele>292.0</ele><time>2026-04-19T08:20:06Z</time></trkpt><trkpt lat="43.91030520198883" lon="11.353764993715295"><ele>289.66666666666663</ele><time>2026-04-19T08:20:07Z</time></trkpt><trkpt lat="43.91047879660445" lon="11.353834057056318"><ele>287.3333333333333</ele><time>2026-04-19T08:20:08Z</time></trkpt><trkpt lat="43.91065108051784" lon="11.353907236105272"><ele>285.0</ele><time>2026-04-19T08:20:09Z</time></trkpt><trkpt lat="43.91082773825489" lon="11.353912424695475"><ele>282.3333333333333</ele><time>2026-04-19T08:20:10Z</time></trkpt><trkpt lat="43.91098973006743" lon="11.35395726611548"><ele>279.66666666666663</ele><time>2026-04-19T08:20:11Z</time></trkpt><trkpt lat="43.91118534562458" lon="11.35391842568892"><ele>277.0</ele><time>2026-04-19T08:20:12Z</time></trkpt><trkpt lat="43.91136885508463" lon="11.353863047133416"><ele>277.0</ele><time>2026-04-19T08:20:13Z</time></trkpt><trkpt lat="43.91155225789175" lon="11.353797781812247"><ele>277.0</ele><time>2026-04-19T08:20:14Z</time></trkpt><trkpt lat="43.91170585194425" lon="11.353710329816506"><ele>277.0</ele><time>2026-04-19T08:20:15Z</time></trkpt><trkpt lat="43.91185176657734" lon="11.353631340289688"><ele>277.25</ele><time>2026-04-19T08:20:16Z</time></trkpt><trkpt lat="43.91200100194392" lon="11.353563439198036"><ele>277.5</ele><time>2026-04-19T08:20:17Z</time></trkpt><trkpt lat="43.912145392809315" lon="11.353492104428497"><ele>277.75</ele><time>2026-04-19T08:20:18Z</time></trkpt><trkpt lat="43.91227445473772" lon="11.353430389162803"><ele>278.0</ele><time>2026-04-19T08:20:19Z</time></trkpt><trkpt lat="43.91241248159643" lon="11.353377613078314"><ele>278.0</ele><time>2026-04-19T08:20:20Z</time></trkpt><trkpt lat="43.912561673777724" lon="11.353331396579852"><ele>278.0</ele><time>2026-04-19T08:20:21Z</time></trkpt><trkpt lat="43.91270332167309" lon="11.353275154669111"><ele>278.0</ele><time>2026-04-19T08:20:22Z</time></trkpt><trkpt lat="43.912855996373935" lon="11.35324573835024"><ele>276.0</ele><time>2026-04-19T08:20:23Z</time></trkpt><trkpt lat="43.91302566712408" lon="11.353261032547715"><ele>274.0</ele><time>2026-04-19T08:20:24Z</time></trkpt><trkpt lat="43.91321095755811" lon="11.353298748881913"><ele>272.0</ele><time>2026-04-19T08:20:25Z</time></trkpt><trkpt lat="43.913380258291895" lon="11.353315508696959"><ele>273.0</ele><time>2026-04-19T08:20:26Z</time></trkpt><trkpt lat="43.913532804853865" lon="11.35336539773129"><ele>274.0</ele><time>2026-04-19T08:20:27Z</time></trkpt><trkpt lat="43.91368616928267" lon="11.353397156775712"><ele>275.0</ele><time>2026-04-19T08:20:28Z</time></trkpt><trkpt lat="43.91383993856521" lon="11.353339020846496"><ele>275.0</ele><time>2026-04-19T08:20:29Z</time></trkpt><trkpt lat="43.91400269341107" lon="11.35332580858451"><ele>275.0</ele><time>2026-04-19T08:20:30Z</time></trkpt><trkpt lat="43.914189628038834" lon="11.353325528388678"><ele>275.0</ele><time>2026-04-19T08:20:31Z</time></trkpt><trkpt lat="43.914346868093766" lon="11.353289832931514"><ele>273.6666666666667</ele><time>2026-04-19T08:20:32Z</time></trkpt><trkpt lat="43.91449954741118" lon="11.353303894439115"><ele>272.3333333333333</ele><time>2026-04-19T08:20:33.001Z</time></trkpt><trkpt lat="43.91463748749558" lon="11.35332644456867"><ele>271.0</ele><time>2026-04-19T08:20:34.001Z</time></trkpt><trkpt lat="43.9147967867035" lon="11.35329677135008"><ele>271.0</ele><time>2026-04-19T08:20:35.001Z</time></trkpt><trkpt lat="43.914947909448486" lon="11.353249993318736"><ele>271.0</ele><time>2026-04-19T08:20:36.001Z</time></trkpt><trkpt lat="43.91513152183616" lon="11.35320746638357"><ele>271.0</ele><time>2026-04-19T08:20:37.001Z</time></trkpt><trkpt lat="43.915331311683346" lon="11.353109913720354"><ele>271.66666666666663</ele><time>2026-04-19T08:20:38.001Z</time></trkpt><trkpt lat="43.9155126135971" lon="11.353053391705794"><ele>272.3333333333333</ele><time>2026-04-19T08:20:39.001Z</time></trkpt><trkpt lat="43.915711241825925" lon="11.352964484009929"><ele>273.0</ele><time>2026-04-19T08:20:40.001Z</time></trkpt><trkpt lat="43.91589772387389" lon="11.352867885412147"><ele>275.3333333333333</ele><time>2026-04-19T08:20:41.001Z</time></trkpt><trkpt lat="43.91606247192166" lon="11.352783260969643"><ele>277.66666666666663</ele><time>2026-04-19T08:20:42.001Z</time></trkpt><trkpt lat="43.916219796117765" lon="11.352727834063746"><ele>280.0</ele><time>2026-04-19T08:20:43.001Z</time></trkpt><trkpt lat="43.916372917598125" lon="11.352713214978303"><ele>280.0</ele><time>2026-04-19T08:20:44.001Z</time></trkpt><trkpt lat="43.916538046884554" lon="11.352747855453613"><ele>280.0</ele><time>2026-04-19T08:20:45.001Z</time></trkpt><trkpt lat="43.91669899684269" lon="11.352842408196626"><ele>280.0</ele><time>2026-04-19T08:20:46.001Z</time></trkpt><trkpt lat="43.91685876331387" lon="11.352967300161326"><ele>276.3333333333333</ele><time>2026-04-19T08:20:47.001Z</time></trkpt><trkpt lat="43.91700800088075" lon="11.35308224559812"><ele>272.6666666666667</ele><time>2026-04-19T08:20:48.001Z</time></trkpt><trkpt lat="43.91716848194597" lon="11.353161622863622"><ele>269.0</ele><time>2026-04-19T08:20:49.001Z</time></trkpt><trkpt lat="43.917335568201224" lon="11.353205444692684"><ele>269.0</ele><time>2026-04-19T08:20:50.001Z</time></trkpt><trkpt lat="43.91753664832832" lon="11.353224318232186"><ele>269.0</ele><time>2026-04-19T08:20:51.001Z</time></trkpt><trkpt lat="43.91774211620286" lon="11.35324158522335"><ele>269.0</ele><time>2026-04-19T08:20:52.001Z</time></trkpt><trkpt lat="43.91794400431347" lon="11.35329387206045"><ele>267.0</ele><time>2026-04-19T08:20:53.001Z</time></trkpt><trkpt lat="43.918134752753026" lon="11.353326019918525"><ele>265.0</ele><time>2026-04-19T08:20:54.001Z</time></trkpt><trkpt lat="43.91832710831112" lon="11.353344109624071"><ele>263.0</ele><time>2026-04-19T08:20:55Z</time></trkpt><trkpt lat="43.9185213951628" lon="11.353357142003226"><ele>262.6666666666667</ele><time>2026-04-19T08:20:56Z</time></trkpt><trkpt lat="43.918707302706146" lon="11.353380402068034"><ele>262.3333333333333</ele><time>2026-04-19T08:20:57Z</time></trkpt><trkpt lat="43.91890766537689" lon="11.353390599496498"><ele>262.0</ele><time>2026-04-19T08:20:58Z</time></trkpt><trkpt lat="43.9190752527115" lon="11.353396781829161"><ele>262.0</ele><time>2026-04-19T08:20:59Z</time></trkpt><trkpt lat="43.919231294716504" lon="11.353373200008955"><ele>262.0</ele><time>2026-04-19T08:21:00Z</time></trkpt><trkpt lat="43.91938456429042" lon="11.35331194833477"><ele>262.0</ele><time>2026-04-19T08:21:01Z</time></trkpt><trkpt lat="43.9195334302837" lon="11.353206029470943"><ele>262.3333333333333</ele><time>2026-04-19T08:21:02Z</time></trkpt><trkpt lat="43.919654868426164" lon="11.35302545694451"><ele>262.6666666666667</ele><time>2026-04-19T08:21:03Z</time></trkpt><trkpt lat="43.919781920946164" lon="11.352819767691287"><ele>263.0</ele><time>2026-04-19T08:21:04Z</time></trkpt><trkpt lat="43.919899461873335" lon="11.352587172574177"><ele>263.0</ele><time>2026-04-19T08:21:05Z</time></trkpt><trkpt lat="43.92000354708257" lon="11.352334347795178"><ele>263.0</ele><time>2026-04-19T08:21:06Z</time></trkpt><trkpt lat="43.92008867666823" lon="11.352046683478362"><ele>263.0</ele><time>2026-04-19T08:21:07Z</time></trkpt><trkpt lat="43.92017123446308" lon="11.351770892188066"><ele>265.33333333333337</ele><time>2026-04-19T08:21:08Z</time></trkpt><trkpt lat="43.92024469012973" lon="11.351511706968061"><ele>267.6666666666667</ele><time>2026-04-19T08:21:09Z</time></trkpt><trkpt lat="43.92031354057172" lon="11.351263164579255"><ele>270.0</ele><time>2026-04-19T08:21:10Z</time></trkpt><trkpt lat="43.920390884609766" lon="11.35103417798525"><ele>267.6666666666667</ele><time>2026-04-19T08:21:11Z</time></trkpt><trkpt lat="43.9204883739576" lon="11.350840175046768"><ele>265.33333333333337</ele><time>2026-04-19T08:21:12Z</time></trkpt><trkpt lat="43.920601112432124" lon="11.350661309375317"><ele>263.0</ele><time>2026-04-19T08:21:13Z</time></trkpt><trkpt lat="43.92075105065494" lon="11.35051157474815"><ele>259.6666666666667</ele><time>2026-04-19T08:21:14Z</time></trkpt><trkpt lat="43.920933882230834" lon="11.350388807195285"><ele>256.3333333333333</ele><time>2026-04-19T08:21:15Z</time></trkpt><trkpt lat="43.92112401297159" lon="11.350265979311706"><ele>253.0</ele><time>2026-04-19T08:21:16Z</time></trkpt><trkpt lat="43.92129368071734" lon="11.350152709315111"><ele>253.0</ele><time>2026-04-19T08:21:17Z</time></trkpt><trkpt lat="43.92144905920672" lon="11.35004670446452"><ele>253.0</ele><time>2026-04-19T08:21:18Z</time></trkpt><trkpt lat="43.92159827831023" lon="11.349947036711125"><ele>253.0</ele><time>2026-04-19T08:21:19Z</time></trkpt><trkpt lat="43.92174476414607" lon="11.34985235615345"><ele>253.0</ele><time>2026-04-19T08:21:20Z</time></trkpt><trkpt lat="43.92189846389113" lon="11.349777975498546"><ele>253.0</ele><time>2026-04-19T08:21:21Z</time></trkpt><trkpt lat="43.92206375828129" lon="11.349740011662778"><ele>253.0</ele><time>2026-04-19T08:21:22Z</time></trkpt><trkpt lat="43.922239560007405" lon="11.349743778561743"><ele>253.0</ele><time>2026-04-19T08:21:23Z</time></trkpt><trkpt lat="43.922419955953394" lon="11.349790768596057"><ele>253.0</ele><time>2026-04-19T08:21:24Z</time></trkpt><trkpt lat="43.922585946165725" lon="11.349836710952458"><ele>253.0</ele><time>2026-04-19T08:21:25Z</time></trkpt><trkpt lat="43.92275859606123" lon="11.349849467627601"><ele>252.0</ele><time>2026-04-19T08:21:26Z</time></trkpt><trkpt lat="43.92290974560072" lon="11.349841614302694"><ele>251.0</ele><time>2026-04-19T08:21:27Z</time></trkpt><trkpt lat="43.9230552361589" lon="11.349790821828382"><ele>250.0</ele><time>2026-04-19T08:21:28Z</time></trkpt><trkpt lat="43.9232214536278" lon="11.349706888370902"><ele>249.0</ele><time>2026-04-19T08:21:29Z</time></trkpt><trkpt lat="43.92338315788582" lon="11.34960222164128"><ele>248.0</ele><time>2026-04-19T08:21:30Z</time></trkpt><trkpt lat="43.92351910956485" lon="11.349486310666624"><ele>247.0</ele><time>2026-04-19T08:21:31Z</time></trkpt><trkpt lat="43.923637528930406" lon="11.349366053419088"><ele>246.2</ele><time>2026-04-19T08:21:32Z</time></trkpt><trkpt lat="43.92373153675989" lon="11.349243913173927"><ele>245.39999999999998</ele><time>2026-04-19T08:21:33Z</time></trkpt><trkpt lat="43.92380673312423" lon="11.349143921218017"><ele>244.60000000000002</ele><time>2026-04-19T08:21:34Z</time></trkpt><trkpt lat="43.92389530940179" lon="11.349096899746757"><ele>243.8</ele><time>2026-04-19T08:21:35Z</time></trkpt><trkpt lat="43.923989669346504" lon="11.349104516352376"><ele>243.0</ele><time>2026-04-19T08:21:36Z</time></trkpt><trkpt lat="43.924061945950434" lon="11.349216072454528"><ele>243.0</ele><time>2026-04-19T08:21:37Z</time></trkpt><trkpt lat="43.92414786046239" lon="11.349347238464288"><ele>243.0</ele><time>2026-04-19T08:21:38Z</time></trkpt><trkpt lat="43.92426152860921" lon="11.349508463558932"><ele>243.0</ele><time>2026-04-19T08:21:39Z</time></trkpt><trkpt lat="43.92438413212215" lon="11.349684388407631"><ele>243.0</ele><time>2026-04-19T08:21:40Z</time></trkpt><trkpt lat="43.92450813920812" lon="11.349862327252996"><ele>243.0</ele><time>2026-04-19T08:21:41Z</time></trkpt><trkpt lat="43.924639163935566" lon="11.350047053751048"><ele>243.0</ele><time>2026-04-19T08:21:42Z</time></trkpt><trkpt lat="43.92479524120747" lon="11.350217186478378"><ele>243.0</ele><time>2026-04-19T08:21:43Z</time></trkpt><trkpt lat="43.92495463845007" lon="11.350397612316407"><ele>243.0</ele><time>2026-04-19T08:21:44Z</time></trkpt><trkpt lat="43.92512386673014" lon="11.350557147950262"><ele>243.0</ele><time>2026-04-19T08:21:45Z</time></trkpt><trkpt lat="43.925277939497576" lon="11.350701553648797"><ele>242.33333333333331</ele><time>2026-04-19T08:21:45.999Z</time></trkpt><trkpt lat="43.92542546114435" lon="11.350842086083281"><ele>241.66666666666666</ele><time>2026-04-19T08:21:46.999Z</time></trkpt><trkpt lat="43.92557536458837" lon="11.35097974630008"><ele>241.0</ele><time>2026-04-19T08:21:47.999Z</time></trkpt><trkpt lat="43.92572004800974" lon="11.351110588871109"><ele>241.0</ele><time>2026-04-19T08:21:48.999Z</time></trkpt><trkpt lat="43.925881207988276" lon="11.351215705756948"><ele>241.0</ele><time>2026-04-19T08:21:49.999Z</time></trkpt><trkpt lat="43.92604740411635" lon="11.351298215936257"><ele>241.0</ele><time>2026-04-19T08:21:50.999Z</time></trkpt><trkpt lat="43.926245026564246" lon="11.351332383632489"><ele>241.0</ele><time>2026-04-19T08:21:51.999Z</time></trkpt><trkpt lat="43.92645791281829" lon="11.35133474846384"><ele>241.0</ele><time>2026-04-19T08:21:52.999Z</time></trkpt><trkpt lat="43.92668870589028" lon="11.351326376135743"><ele>241.0</ele><time>2026-04-19T08:21:53.999Z</time></trkpt><trkpt lat="43.926929435503446" lon="11.351309658117064"><ele>241.0</ele><time>2026-04-19T08:21:54.999Z</time></trkpt><trkpt lat="43.92714282789019" lon="11.351286723103152"><ele>241.0</ele><time>2026-04-19T08:21:55.999Z</time></trkpt><trkpt lat="43.92735416440478" lon="11.351276829366169"><ele>241.0</ele><time>2026-04-19T08:21:56.999Z</time></trkpt><trkpt lat="43.92755151590262" lon="11.351259296434643"><ele>240.0</ele><time>2026-04-19T08:21:57.999Z</time></trkpt><trkpt lat="43.92774377899641" lon="11.351225476558902"><ele>239.0</ele><time>2026-04-19T08:21:58.999Z</time></trkpt><trkpt lat="43.927934226529224" lon="11.351169218762292"><ele>238.0</ele><time>2026-04-19T08:21:59.999Z</time></trkpt><trkpt lat="43.9281071280006" lon="11.351074565659534"><ele>238.0</ele><time>2026-04-19T08:22:00.999Z</time></trkpt><trkpt lat="43.92827894962606" lon="11.350984031352382"><ele>238.0</ele><time>2026-04-19T08:22:01.999Z</time></trkpt><trkpt lat="43.92845808374777" lon="11.350873860876018"><ele>238.0</ele><time>2026-04-19T08:22:02.999Z</time></trkpt><trkpt lat="43.928636651753365" lon="11.350746345021813"><ele>238.33333333333331</ele><time>2026-04-19T08:22:03.999Z</time></trkpt><trkpt lat="43.92880386348407" lon="11.35060703217997"><ele>238.66666666666669</ele><time>2026-04-19T08:22:04.999Z</time></trkpt><trkpt lat="43.92896343244156" lon="11.350481436703348"><ele>239.0</ele><time>2026-04-19T08:22:05.999Z</time></trkpt><trkpt lat="43.92911911121248" lon="11.350387064489023"><ele>247.33333333333334</ele><time>2026-04-19T08:22:06.999Z</time></trkpt><trkpt lat="43.92927772003599" lon="11.350333041382445"><ele>255.66666666666669</ele><time>2026-04-19T08:22:07.999Z</time></trkpt><trkpt lat="43.92944593333236" lon="11.35031154011888"><ele>264.0</ele><time>2026-04-19T08:22:08.999Z</time></trkpt><trkpt lat="43.92961491267116" lon="11.350336299731081"><ele>264.0</ele><time>2026-04-19T08:22:09.999Z</time></trkpt><trkpt lat="43.9297784786797" lon="11.350345966518024"><ele>264.0</ele><time>2026-04-19T08:22:10.999Z</time></trkpt><trkpt lat="43.92994802589367" lon="11.350357245280929"><ele>264.0</ele><time>2026-04-19T08:22:11.999Z</time></trkpt><trkpt lat="43.9300985455262" lon="11.350375741092693"><ele>263.3333333333333</ele><time>2026-04-19T08:22:12.999Z</time></trkpt><trkpt lat="43.930234034495456" lon="11.35042078991519"><ele>262.66666666666663</ele><time>2026-04-19T08:22:13.999Z</time></trkpt><trkpt lat="43.93037848210033" lon="11.350503130506008"><ele>262.0</ele><time>2026-04-19T08:22:14.999Z</time></trkpt><trkpt lat="43.930551956575854" lon="11.350597226813354"><ele>255.33333333333331</ele><time>2026-04-19T08:22:15.999Z</time></trkpt><trkpt lat="43.93073731704627" lon="11.350662438587545"><ele>248.66666666666669</ele><time>2026-04-19T08:22:16.999Z</time></trkpt><trkpt lat="43.93090771842317" lon="11.350693406422486"><ele>242.0</ele><time>2026-04-19T08:22:17.999Z</time></trkpt><trkpt lat="43.93107319197124" lon="11.350708967812354"><ele>241.25</ele><time>2026-04-19T08:22:18.999Z</time></trkpt><trkpt lat="43.931232976120754" lon="11.350719016740122"><ele>240.5</ele><time>2026-04-19T08:22:19.999Z</time></trkpt><trkpt lat="43.93137732480186" lon="11.350715876210337"><ele>239.75</ele><time>2026-04-19T08:22:20.999Z</time></trkpt><trkpt lat="43.93150867681821" lon="11.350731363045998"><ele>239.0</ele><time>2026-04-19T08:22:21.999Z</time></trkpt><trkpt lat="43.931640368316025" lon="11.350713398696008"><ele>237.75</ele><time>2026-04-19T08:22:22.999Z</time></trkpt><trkpt lat="43.93173960624726" lon="11.350614737715814"><ele>236.5</ele><time>2026-04-19T08:22:23.999Z</time></trkpt><trkpt lat="43.931852042464406" lon="11.350475550350193"><ele>235.25</ele><time>2026-04-19T08:22:24.999Z</time></trkpt><trkpt lat="43.93197535540821" lon="11.35031429328894"><ele>234.0</ele><time>2026-04-19T08:22:25.999Z</time></trkpt><trkpt lat="43.93210778908764" lon="11.350140624097477"><ele>234.0</ele><time>2026-04-19T08:22:26.999Z</time></trkpt><trkpt lat="43.93223535838532" lon="11.349972766666985"><ele>234.0</ele><time>2026-04-19T08:22:27.999Z</time></trkpt><trkpt lat="43.932360006941565" lon="11.349808508407666"><ele>234.0</ele><time>2026-04-19T08:22:28.999Z</time></trkpt><trkpt lat="43.932487776018476" lon="11.349642427188327"><ele>231.33333333333331</ele><time>2026-04-19T08:22:29.999Z</time></trkpt><trkpt lat="43.93263131792868" lon="11.349457617269296"><ele>228.66666666666666</ele><time>2026-04-19T08:22:30.999Z</time></trkpt><trkpt lat="43.93277097777192" lon="11.349278436828167"><ele>226.0</ele><time>2026-04-19T08:22:31.999Z</time></trkpt><trkpt lat="43.93290309150676" lon="11.349111435159182"><ele>226.0</ele><time>2026-04-19T08:22:32.999Z</time></trkpt><trkpt lat="43.933042489988566" lon="11.348956783430749"><ele>226.0</ele><time>2026-04-19T08:22:33.999Z</time></trkpt><trkpt lat="43.9331977203154" lon="11.348846903338243"><ele>226.0</ele><time>2026-04-19T08:22:34.999Z</time></trkpt><trkpt lat="43.93333884578608" lon="11.348758965906434"><ele>232.0</ele><time>2026-04-19T08:22:35.999Z</time></trkpt><trkpt lat="43.933461762580876" lon="11.348698006801639"><ele>238.0</ele><time>2026-04-19T08:22:36.999Z</time></trkpt><trkpt lat="43.9335825216795" lon="11.348668103783849"><ele>244.0</ele><time>2026-04-19T08:22:37.999Z</time></trkpt><trkpt lat="43.933706518504245" lon="11.348640198587313"><ele>250.0</ele><time>2026-04-19T08:22:39Z</time></trkpt><trkpt lat="43.93384047955295" lon="11.348634559165761"><ele>250.0</ele><time>2026-04-19T08:22:40Z</time></trkpt><trkpt lat="43.93398140344027" lon="11.348675816154257"><ele>250.0</ele><time>2026-04-19T08:22:41Z</time></trkpt><trkpt lat="43.934124573062256" lon="11.348745295280125"><ele>250.0</ele><time>2026-04-19T08:22:42Z</time></trkpt><trkpt lat="43.934255803953086" lon="11.348845158701325"><ele>250.0</ele><time>2026-04-19T08:22:43Z</time></trkpt><trkpt lat="43.93437886340404" lon="11.348939609783532"><ele>245.5</ele><time>2026-04-19T08:22:44Z</time></trkpt><trkpt lat="43.934499951567915" lon="11.34901828255775"><ele>241.0</ele><time>2026-04-19T08:22:45Z</time></trkpt><trkpt lat="43.93460968939134" lon="11.349076625694138"><ele>236.5</ele><time>2026-04-19T08:22:46Z</time></trkpt><trkpt lat="43.934715714589025" lon="11.349133656450196"><ele>232.0</ele><time>2026-04-19T08:22:47Z</time></trkpt><trkpt lat="43.934814050549136" lon="11.349184620379553"><ele>231.99999999999997</ele><time>2026-04-19T08:22:48Z</time></trkpt><trkpt lat="43.93490285728268" lon="11.349223701198035"><ele>232.0</ele><time>2026-04-19T08:22:49Z</time></trkpt><trkpt lat="43.934985542088235" lon="11.349245875601866"><ele>232.0</ele><time>2026-04-19T08:22:50Z</time></trkpt><trkpt lat="43.93506786400778" lon="11.349217049022553"><ele>232.0</ele><time>2026-04-19T08:22:51Z</time></trkpt><trkpt lat="43.935150350687316" lon="11.349178442701588"><ele>231.99999999999997</ele><time>2026-04-19T08:22:52Z</time></trkpt><trkpt lat="43.93521926423046" lon="11.349117701523294"><ele>232.0</ele><time>2026-04-19T08:22:53Z</time></trkpt><trkpt lat="43.935271906335444" lon="11.349019647514783"><ele>230.8</ele><time>2026-04-19T08:22:54Z</time></trkpt><trkpt lat="43.93530306972827" lon="11.348913133244876"><ele>229.6</ele><time>2026-04-19T08:22:55Z</time></trkpt><trkpt lat="43.935324439739375" lon="11.348820326521427"><ele>228.40000000000003</ele><time>2026-04-19T08:22:56Z</time></trkpt><trkpt lat="43.935334023407215" lon="11.34868468143739"><ele>227.20000000000002</ele><time>2026-04-19T08:22:57Z</time></trkpt><trkpt lat="43.93535009525439" lon="11.348529543320135"><ele>226.0</ele><time>2026-04-19T08:22:58Z</time></trkpt><trkpt lat="43.935377693607904" lon="11.348362517581009"><ele>226.0</ele><time>2026-04-19T08:22:58.999Z</time></trkpt><trkpt lat="43.93541049953774" lon="11.34819725386307"><ele>226.00000000000003</ele><time>2026-04-19T08:22:59.999Z</time></trkpt><trkpt lat="43.935436344365655" lon="11.348050223395994"><ele>226.00000000000003</ele><time>2026-04-19T08:23:00.999Z</time></trkpt><trkpt lat="43.935479462739046" lon="11.34793408679761"><ele>226.0</ele><time>2026-04-19T08:23:01.999Z</time></trkpt><trkpt lat="43.93552268890295" lon="11.347849996432862"><ele>226.0</ele><time>2026-04-19T08:23:02.999Z</time></trkpt><trkpt lat="43.93555198056555" lon="11.347761809957564"><ele>226.20000000000002</ele><time>2026-04-19T08:23:03.999Z</time></trkpt><trkpt lat="43.93557078835569" lon="11.347660636211566"><ele>226.40000000000003</ele><time>2026-04-19T08:23:04.999Z</time></trkpt><trkpt lat="43.93558147724403" lon="11.347542254193497"><ele>226.6</ele><time>2026-04-19T08:23:05.999Z</time></trkpt><trkpt lat="43.93558926774787" lon="11.347418927788711"><ele>226.8</ele><time>2026-04-19T08:23:06.999Z</time></trkpt><trkpt lat="43.93559597595888" lon="11.347274996513438"><ele>227.0</ele><time>2026-04-19T08:23:07.999Z</time></trkpt><trkpt lat="43.93560910541839" lon="11.347130235579078"><ele>227.0</ele><time>2026-04-19T08:23:08.999Z</time></trkpt><trkpt lat="43.93561901830611" lon="11.347007228877429"><ele>227.0</ele><time>2026-04-19T08:23:09.999Z</time></trkpt><trkpt lat="43.935623585248045" lon="11.346880759620724"><ele>227.0</ele><time>2026-04-19T08:23:10.999Z</time></trkpt><trkpt lat="43.93563705906353" lon="11.34675099797075"><ele>227.0</ele><time>2026-04-19T08:23:11.999Z</time></trkpt><trkpt lat="43.935650816085754" lon="11.34662412871393"><ele>227.0</ele><time>2026-04-19T08:23:12.999Z</time></trkpt><trkpt lat="43.93567570096642" lon="11.346476861387721"><ele>226.75</ele><time>2026-04-19T08:23:13.999Z</time></trkpt><trkpt lat="43.935711940404154" lon="11.346327644255467"><ele>226.5</ele><time>2026-04-19T08:23:14.999Z</time></trkpt><trkpt lat="43.935728681975185" lon="11.346180790364501"><ele>226.25</ele><time>2026-04-19T08:23:15.999Z</time></trkpt><trkpt lat="43.93575895915078" lon="11.346026219829238"><ele>226.0</ele><time>2026-04-19T08:23:16.999Z</time></trkpt><trkpt lat="43.93580158828592" lon="11.345863060315638"><ele>226.0</ele><time>2026-04-19T08:23:17.999Z</time></trkpt><trkpt lat="43.935872383115466" lon="11.34569922964016"><ele>226.0</ele><time>2026-04-19T08:23:18.999Z</time></trkpt><trkpt lat="43.93595152700614" lon="11.345548765742123"><ele>226.0</ele><time>2026-04-19T08:23:19.999Z</time></trkpt><trkpt lat="43.93604338305241" lon="11.345422229142734"><ele>226.0</ele><time>2026-04-19T08:23:20.999Z</time></trkpt><trkpt lat="43.93615934076623" lon="11.345324557166368"><ele>225.0</ele><time>2026-04-19T08:23:21.999Z</time></trkpt><trkpt lat="43.93629246179563" lon="11.345235940131364"><ele>224.0</ele><time>2026-04-19T08:23:22.999Z</time></trkpt><trkpt lat="43.93641397712635" lon="11.345144658361507"><ele>223.0</ele><time>2026-04-19T08:23:23.999Z</time></trkpt><trkpt lat="43.936527906758556" lon="11.34507725454333"><ele>222.0</ele><time>2026-04-19T08:23:24.999Z</time></trkpt><trkpt lat="43.93663463310988" lon="11.345032417496729"><ele>223.25</ele><time>2026-04-19T08:23:25.999Z</time></trkpt><trkpt lat="43.936741298686265" lon="11.344998268245794"><ele>224.5</ele><time>2026-04-19T08:23:26.999Z</time></trkpt><trkpt lat="43.93685786350595" lon="11.34498601708746"><ele>225.75</ele><time>2026-04-19T08:23:27.999Z</time></trkpt><trkpt lat="43.936978758064875" lon="11.345043475464607"><ele>227.0</ele><time>2026-04-19T08:23:28.999Z</time></trkpt><trkpt lat="43.93711749258622" lon="11.34509750958373"><ele>227.0</ele><time>2026-04-19T08:23:29.999Z</time></trkpt><trkpt lat="43.93728382218463" lon="11.345165962909775"><ele>227.0</ele><time>2026-04-19T08:23:30.999Z</time></trkpt><trkpt lat="43.937457265435526" lon="11.34524152302639"><ele>227.0</ele><time>2026-04-19T08:23:31.999Z</time></trkpt><trkpt lat="43.93761348081907" lon="11.345310436271758"><ele>229.33333333333334</ele><time>2026-04-19T08:23:32.999Z</time></trkpt><trkpt lat="43.93776090906751" lon="11.345374476060998"><ele>231.66666666666669</ele><time>2026-04-19T08:23:33.999Z</time></trkpt><trkpt lat="43.93792610793779" lon="11.345439851291472"><ele>234.0</ele><time>2026-04-19T08:23:34.999Z</time></trkpt><trkpt lat="43.9380966931378" lon="11.345499007812908"><ele>234.0</ele><time>2026-04-19T08:23:35.999Z</time></trkpt><trkpt lat="43.93823132805072" lon="11.345544326262784"><ele>234.0</ele><time>2026-04-19T08:23:36.999Z</time></trkpt><trkpt lat="43.93837830318083" lon="11.345594393339333"><ele>234.0</ele><time>2026-04-19T08:23:37.999Z</time></trkpt><trkpt lat="43.938505619233524" lon="11.345639760720413"><ele>234.0</ele><time>2026-04-19T08:23:38.999Z</time></trkpt><trkpt lat="43.93863403731697" lon="11.3457032840224"><ele>233.0</ele><time>2026-04-19T08:23:39.999Z</time></trkpt><trkpt lat="43.93876898926525" lon="11.34580525558734"><ele>232.0</ele><time>2026-04-19T08:23:40.999Z</time></trkpt><trkpt lat="43.93892044513995" lon="11.345941571895095"><ele>231.0</ele><time>2026-04-19T08:23:41.999Z</time></trkpt><trkpt lat="43.93908086273422" lon="11.34608276088746"><ele>232.0</ele><time>2026-04-19T08:23:42.999Z</time></trkpt><trkpt lat="43.93922965166469" lon="11.346202222106594"><ele>233.0</ele><time>2026-04-19T08:23:43.999Z</time></trkpt><trkpt lat="43.93937420892875" lon="11.346294623032326"><ele>234.0</ele><time>2026-04-19T08:23:44.999Z</time></trkpt><trkpt lat="43.9395017075128" lon="11.34639459159682"><ele>234.0</ele><time>2026-04-19T08:23:45.999Z</time></trkpt><trkpt lat="43.93961172426987" lon="11.346512352903426"><ele>234.0</ele><time>2026-04-19T08:23:46.999Z</time></trkpt><trkpt lat="43.939702860632615" lon="11.3466428517932"><ele>234.0</ele><time>2026-04-19T08:23:47.999Z</time></trkpt><trkpt lat="43.939770375783276" lon="11.34678733933869"><ele>234.0</ele><time>2026-04-19T08:23:48.999Z</time></trkpt><trkpt lat="43.939819429685656" lon="11.346948325184183"><ele>234.0</ele><time>2026-04-19T08:23:49.999Z</time></trkpt><trkpt lat="43.93984595421653" lon="11.347142704677351"><ele>234.0</ele><time>2026-04-19T08:23:50.999Z</time></trkpt><trkpt lat="43.9398574943" lon="11.347367145107242"><ele>234.0</ele><time>2026-04-19T08:23:51.999Z</time></trkpt><trkpt lat="43.9398684355402" lon="11.347599789597203"><ele>231.66666666666669</ele><time>2026-04-19T08:23:52.999Z</time></trkpt><trkpt lat="43.93987837412617" lon="11.347842350372419"><ele>229.33333333333334</ele><time>2026-04-19T08:23:53.999Z</time></trkpt><trkpt lat="43.93988746911218" lon="11.348085166906106"><ele>227.0</ele><time>2026-04-19T08:23:54.999Z</time></trkpt><trkpt lat="43.93990781462413" lon="11.348326462457043"><ele>226.66666666666669</ele><time>2026-04-19T08:23:55.999Z</time></trkpt><trkpt lat="43.93994750583847" lon="11.348568111392552"><ele>226.33333333333331</ele><time>2026-04-19T08:23:56.999Z</time></trkpt><trkpt lat="43.93999172294117" lon="11.348797368717971"><ele>226.0</ele><time>2026-04-19T08:23:57.999Z</time></trkpt><trkpt lat="43.940032980905066" lon="11.34901890857825"><ele>231.75</ele><time>2026-04-19T08:23:58.999Z</time></trkpt><trkpt lat="43.94007035734051" lon="11.349221633648755"><ele>237.5</ele><time>2026-04-19T08:23:59.999Z</time></trkpt><trkpt lat="43.94010372768642" lon="11.349417126940407"><ele>243.25</ele><time>2026-04-19T08:24:00.999Z</time></trkpt><trkpt lat="43.940130287246156" lon="11.349610220736405"><ele>249.0</ele><time>2026-04-19T08:24:01.999Z</time></trkpt><trkpt lat="43.94014887301532" lon="11.349808778131187"><ele>249.33333333333331</ele><time>2026-04-19T08:24:02.999Z</time></trkpt><trkpt lat="43.94015311374696" lon="11.350001724472818"><ele>249.66666666666666</ele><time>2026-04-19T08:24:03.999Z</time></trkpt><trkpt lat="43.940163316684554" lon="11.350216128095346"><ele>250.0</ele><time>2026-04-19T08:24:04.999Z</time></trkpt><trkpt lat="43.94018812615146" lon="11.350452759510503"><ele>250.0</ele><time>2026-04-19T08:24:05.999Z</time></trkpt><trkpt lat="43.94021872521912" lon="11.350689029736705"><ele>250.0</ele><time>2026-04-19T08:24:06.999Z</time></trkpt><trkpt lat="43.94024708095511" lon="11.350898739247846"><ele>250.0</ele><time>2026-04-19T08:24:07.999Z</time></trkpt><trkpt lat="43.94027973957725" lon="11.351116321220188"><ele>250.0</ele><time>2026-04-19T08:24:08.999Z</time></trkpt><trkpt lat="43.94030991400988" lon="11.351328869559802"><ele>250.0</ele><time>2026-04-19T08:24:09.999Z</time></trkpt><trkpt lat="43.94032643674205" lon="11.351542487112589"><ele>250.0</ele><time>2026-04-19T08:24:10.999Z</time></trkpt><trkpt lat="43.94031709354398" lon="11.351748127650781"><ele>247.66666666666666</ele><time>2026-04-19T08:24:11.999Z</time></trkpt><trkpt lat="43.94028270412092" lon="11.35194489862845"><ele>245.33333333333331</ele><time>2026-04-19T08:24:12.999Z</time></trkpt><trkpt lat="43.94023060713076" lon="11.352146795712876"><ele>243.0</ele><time>2026-04-19T08:24:13.999Z</time></trkpt><trkpt lat="43.94018080553773" lon="11.352344881881317"><ele>240.75</ele><time>2026-04-19T08:24:14.999Z</time></trkpt><trkpt lat="43.94014219844775" lon="11.352532087301617"><ele>238.5</ele><time>2026-04-19T08:24:15.999Z</time></trkpt><trkpt lat="43.94011714760645" lon="11.352730189536304"><ele>236.25</ele><time>2026-04-19T08:24:16.999Z</time></trkpt><trkpt lat="43.94011013276439" lon="11.352938699071716"><ele>234.0</ele><time>2026-04-19T08:24:17.999Z</time></trkpt><trkpt lat="43.94014328024507" lon="11.353162666206915"><ele>231.0</ele><time>2026-04-19T08:24:18.999Z</time></trkpt><trkpt lat="43.940191681367175" lon="11.353391483008373"><ele>228.0</ele><time>2026-04-19T08:24:19.999Z</time></trkpt><trkpt lat="43.94024616664616" lon="11.353631753486006"><ele>225.0</ele><time>2026-04-19T08:24:20.999Z</time></trkpt><trkpt lat="43.940302755366766" lon="11.353880027694592"><ele>223.33333333333331</ele><time>2026-04-19T08:24:21.999Z</time></trkpt><trkpt lat="43.94035668324596" lon="11.354114466400876"><ele>221.66666666666666</ele><time>2026-04-19T08:24:22.999Z</time></trkpt><trkpt lat="43.94040376145907" lon="11.354319127463373"><ele>220.0</ele><time>2026-04-19T08:24:23.999Z</time></trkpt><trkpt lat="43.94044643596629" lon="11.354502731014161"><ele>220.0</ele><time>2026-04-19T08:24:24.999Z</time></trkpt><trkpt lat="43.940490413284316" lon="11.354683962477901"><ele>220.0</ele><time>2026-04-19T08:24:25.999Z</time></trkpt><trkpt lat="43.94053873182839" lon="11.354864373444771"><ele>220.0</ele><time>2026-04-19T08:24:26.999Z</time></trkpt><trkpt lat="43.940594318742896" lon="11.355044218500945"><ele>220.0</ele><time>2026-04-19T08:24:27.999Z</time></trkpt><trkpt lat="43.94066680958345" lon="11.355239650304968"><ele>218.66666666666666</ele><time>2026-04-19T08:24:28.999Z</time></trkpt><trkpt lat="43.940764189162216" lon="11.35545260607606"><ele>217.33333333333331</ele><time>2026-04-19T08:24:29.999Z</time></trkpt><trkpt lat="43.94088225869008" lon="11.355680250178516"><ele>216.0</ele><time>2026-04-19T08:24:30.999Z</time></trkpt><trkpt lat="43.94102336753928" lon="11.355900288345424"><ele>214.0</ele><time>2026-04-19T08:24:31.999Z</time></trkpt><trkpt lat="43.941158690704846" lon="11.356156460946028"><ele>212.0</ele><time>2026-04-19T08:24:32.999Z</time></trkpt><trkpt lat="43.94131345268777" lon="11.356423159902628"><ele>210.0</ele><time>2026-04-19T08:24:33.999Z</time></trkpt><trkpt lat="43.94146914525352" lon="11.356685424862205"><ele>208.0</ele><time>2026-04-19T08:24:34.999Z</time></trkpt><trkpt lat="43.94164790621027" lon="11.356959384232349"><ele>208.5</ele><time>2026-04-19T08:24:35.999Z</time></trkpt><trkpt lat="43.941829465914765" lon="11.357238995184016"><ele>209.0</ele><time>2026-04-19T08:24:36.999Z</time></trkpt><trkpt lat="43.94201315711361" lon="11.35752600718739"><ele>209.0</ele><time>2026-04-19T08:24:37.999Z</time></trkpt><trkpt lat="43.942181016541134" lon="11.357792311644733"><ele>209.0</ele><time>2026-04-19T08:24:38.999Z</time></trkpt><trkpt lat="43.94232937179209" lon="11.358025594315317"><ele>208.33333333333334</ele><time>2026-04-19T08:24:39.999Z</time></trkpt><trkpt lat="43.942460668989625" lon="11.358231272926234"><ele>207.66666666666669</ele><time>2026-04-19T08:24:40.999Z</time></trkpt><trkpt lat="43.9425853000697" lon="11.358408632285766"><ele>207.0</ele><time>2026-04-19T08:24:41.999Z</time></trkpt><trkpt lat="43.942714362144855" lon="11.358560956450642"><ele>210.33333333333331</ele><time>2026-04-19T08:24:42.999Z</time></trkpt><trkpt lat="43.94286413126551" lon="11.35868676957995"><ele>213.66666666666666</ele><time>2026-04-19T08:24:43.999Z</time></trkpt><trkpt lat="43.94303493628114" lon="11.358800640720544"><ele>217.0</ele><time>2026-04-19T08:24:45Z</time></trkpt><trkpt lat="43.943204575559825" lon="11.358931090957228"><ele>217.0</ele><time>2026-04-19T08:24:46Z</time></trkpt><trkpt lat="43.94337387770154" lon="11.359075766489992"><ele>217.0</ele><time>2026-04-19T08:24:47Z</time></trkpt><trkpt lat="43.94352006424703" lon="11.359214928918734"><ele>217.0</ele><time>2026-04-19T08:24:48Z</time></trkpt><trkpt lat="43.94365666129929" lon="11.359364412954408"><ele>216.0</ele><time>2026-04-19T08:24:49Z</time></trkpt><trkpt lat="43.94378846324002" lon="11.359495756053816"><ele>215.0</ele><time>2026-04-19T08:24:50Z</time></trkpt><trkpt lat="43.943913044796055" lon="11.359624586332574"><ele>214.0</ele><time>2026-04-19T08:24:51Z</time></trkpt><trkpt lat="43.94402720060282" lon="11.35974028105932"><ele>214.0</ele><time>2026-04-19T08:24:52Z</time></trkpt><trkpt lat="43.944136207909736" lon="11.359859464652454"><ele>214.0</ele><time>2026-04-19T08:24:53Z</time></trkpt><trkpt lat="43.94424820962947" lon="11.359967411496985"><ele>214.0</ele><time>2026-04-19T08:24:54Z</time></trkpt><trkpt lat="43.944352430029376" lon="11.360076123610654"><ele>214.0</ele><time>2026-04-19T08:24:55Z</time></trkpt><trkpt lat="43.94443482191762" lon="11.360186533062329"><ele>215.0</ele><time>2026-04-19T08:24:56Z</time></trkpt><trkpt lat="43.944495379681626" lon="11.360289485136269"><ele>215.99999999999997</ele><time>2026-04-19T08:24:57Z</time></trkpt><trkpt lat="43.944546698140016" lon="11.360381683396536"><ele>216.99999999999997</ele><time>2026-04-19T08:24:58Z</time></trkpt><trkpt lat="43.94459378662296" lon="11.360460116373124"><ele>218.0</ele><time>2026-04-19T08:24:59Z</time></trkpt><trkpt lat="43.94472248181356" lon="11.36040619224009"><ele>219.0</ele><time>2026-04-19T08:25:00Z</time></trkpt><trkpt lat="43.944821010821165" lon="11.36036514402834"><ele>219.0</ele><time>2026-04-19T08:25:00.999Z</time></trkpt><trkpt lat="43.9449472988598" lon="11.36029338777932"><ele>219.0</ele><time>2026-04-19T08:25:01.999Z</time></trkpt><trkpt lat="43.945086734092605" lon="11.360218588757956"><ele>219.0</ele><time>2026-04-19T08:25:02.999Z</time></trkpt><trkpt lat="43.94523027433651" lon="11.360134103273628"><ele>219.0</ele><time>2026-04-19T08:25:03.999Z</time></trkpt><trkpt lat="43.945375888676224" lon="11.360016082409638"><ele>217.5</ele><time>2026-04-19T08:25:04.999Z</time></trkpt><trkpt lat="43.94550792533919" lon="11.359885527152123"><ele>216.0</ele><time>2026-04-19T08:25:05.999Z</time></trkpt><trkpt lat="43.94562451905618" lon="11.359764713611147"><ele>214.5</ele><time>2026-04-19T08:25:06.999Z</time></trkpt><trkpt lat="43.94573852558352" lon="11.359661941746216"><ele>213.0</ele><time>2026-04-19T08:25:07.999Z</time></trkpt><trkpt lat="43.94584188838401" lon="11.359586181731485"><ele>211.0</ele><time>2026-04-19T08:25:08.999Z</time></trkpt><trkpt lat="43.94592853629545" lon="11.359492919502136"><ele>209.0</ele><time>2026-04-19T08:25:09.999Z</time></trkpt><trkpt lat="43.946013446450586" lon="11.359421802220602"><ele>207.0</ele><time>2026-04-19T08:25:10.999Z</time></trkpt><trkpt lat="43.94614238740503" lon="11.359441603396782"><ele>205.0</ele><time>2026-04-19T08:25:11.999Z</time></trkpt><trkpt lat="43.946267056961354" lon="11.359455631557978"><ele>205.0</ele><time>2026-04-19T08:25:12.999Z</time></trkpt><trkpt lat="43.94638511050636" lon="11.3594846543674"><ele>205.0</ele><time>2026-04-19T08:25:13.999Z</time></trkpt><trkpt lat="43.946486809915804" lon="11.35955773153091"><ele>205.0</ele><time>2026-04-19T08:25:14.999Z</time></trkpt><trkpt lat="43.94657712572313" lon="11.359681103309823"><ele>205.0</ele><time>2026-04-19T08:25:15.999Z</time></trkpt><trkpt lat="43.946667376258524" lon="11.359852168806938"><ele>203.66666666666666</ele><time>2026-04-19T08:25:16.999Z</time></trkpt><trkpt lat="43.946760404487215" lon="11.360048867356571"><ele>202.33333333333331</ele><time>2026-04-19T08:25:17.999Z</time></trkpt><trkpt lat="43.9468695836804" lon="11.360259358136858"><ele>201.0</ele><time>2026-04-19T08:25:18.999Z</time></trkpt><trkpt lat="43.9469888445222" lon="11.360476391003438"><ele>201.0</ele><time>2026-04-19T08:25:19.999Z</time></trkpt><trkpt lat="43.947108923225336" lon="11.360692416480521"><ele>201.0</ele><time>2026-04-19T08:25:20.999Z</time></trkpt><trkpt lat="43.94723191604398" lon="11.360886650710668"><ele>201.0</ele><time>2026-04-19T08:25:21.999Z</time></trkpt><trkpt lat="43.94736126672097" lon="11.361078994757941"><ele>201.0</ele><time>2026-04-19T08:25:22.999Z</time></trkpt><trkpt lat="43.947506916348665" lon="11.361271756046916"><ele>201.0</ele><time>2026-04-19T08:25:23.999Z</time></trkpt><trkpt lat="43.94766098055148" lon="11.361463111617935"><ele>201.0</ele><time>2026-04-19T08:25:24.999Z</time></trkpt><trkpt lat="43.94782556609695" lon="11.36164690710219"><ele>201.0</ele><time>2026-04-19T08:25:25.999Z</time></trkpt><trkpt lat="43.94798782258257" lon="11.361810923177597"><ele>201.0</ele><time>2026-04-19T08:25:26.999Z</time></trkpt><trkpt lat="43.94815534166091" lon="11.361963106301475"><ele>201.0</ele><time>2026-04-19T08:25:27.999Z</time></trkpt><trkpt lat="43.948336415904606" lon="11.36211715803461"><ele>199.66666666666669</ele><time>2026-04-19T08:25:28.999Z</time></trkpt><trkpt lat="43.94853839734781" lon="11.36225656262897"><ele>198.33333333333334</ele><time>2026-04-19T08:25:29.999Z</time></trkpt><trkpt lat="43.94873505326793" lon="11.362400242582737"><ele>197.0</ele><time>2026-04-19T08:25:30.999Z</time></trkpt><trkpt lat="43.948928845986536" lon="11.362526736521941"><ele>197.0</ele><time>2026-04-19T08:25:31.999Z</time></trkpt><trkpt lat="43.949116768401126" lon="11.36264778065544"><ele>197.0</ele><time>2026-04-19T08:25:32.999Z</time></trkpt><trkpt lat="43.94930848254113" lon="11.362768099405551"><ele>197.0</ele><time>2026-04-19T08:25:33.999Z</time></trkpt><trkpt lat="43.94950091947251" lon="11.36289889026644"><ele>197.0</ele><time>2026-04-19T08:25:34.999Z</time></trkpt><trkpt lat="43.94969771945036" lon="11.363024272210886"><ele>197.0</ele><time>2026-04-19T08:25:35.999Z</time></trkpt><trkpt lat="43.94989260741798" lon="11.363149163892828"><ele>197.0</ele><time>2026-04-19T08:25:36.999Z</time></trkpt><trkpt lat="43.95009098047967" lon="11.363271125869666"><ele>198.33333333333334</ele><time>2026-04-19T08:25:37.999Z</time></trkpt><trkpt lat="43.950293946458174" lon="11.363394022116728"><ele>199.66666666666669</ele><time>2026-04-19T08:25:38.999Z</time></trkpt><trkpt lat="43.95048342234849" lon="11.363516722734094"><ele>201.0</ele><time>2026-04-19T08:25:39.999Z</time></trkpt><trkpt lat="43.95066650694789" lon="11.36364367701977"><ele>201.0</ele><time>2026-04-19T08:25:40.999Z</time></trkpt><trkpt lat="43.950838831214824" lon="11.363761543010288"><ele>201.0</ele><time>2026-04-19T08:25:41.999Z</time></trkpt><trkpt lat="43.951011005533196" lon="11.363873387327118"><ele>201.0</ele><time>2026-04-19T08:25:42.999Z</time></trkpt><trkpt lat="43.95120089611539" lon="11.363961849712704"><ele>200.0</ele><time>2026-04-19T08:25:43.999Z</time></trkpt><trkpt lat="43.95139926716379" lon="11.36405477098685"><ele>199.0</ele><time>2026-04-19T08:25:44.999Z</time></trkpt><trkpt lat="43.95161000978279" lon="11.364136303152224"><ele>198.0</ele><time>2026-04-19T08:25:45.999Z</time></trkpt><trkpt lat="43.95183150691587" lon="11.364213072521085"><ele>197.0</ele><time>2026-04-19T08:25:46.999Z</time></trkpt><trkpt lat="43.95206133609792" lon="11.364290793892964"><ele>196.0</ele><time>2026-04-19T08:25:47.999Z</time></trkpt><trkpt lat="43.95229895322392" lon="11.364373877133202"><ele>196.0</ele><time>2026-04-19T08:25:48.999Z</time></trkpt><trkpt lat="43.95252641596776" lon="11.364473853772875"><ele>196.0</ele><time>2026-04-19T08:25:49.999Z</time></trkpt><trkpt lat="43.95274413058616" lon="11.364533974973448"><ele>195.33333333333331</ele><time>2026-04-19T08:25:50.999Z</time></trkpt><trkpt lat="43.95294533664164" lon="11.364613586009781"><ele>194.66666666666669</ele><time>2026-04-19T08:25:51.999Z</time></trkpt><trkpt lat="43.953150776572784" lon="11.364692509257548"><ele>194.0</ele><time>2026-04-19T08:25:52.999Z</time></trkpt><trkpt lat="43.953356360335675" lon="11.364771498524027"><ele>193.66666666666669</ele><time>2026-04-19T08:25:53.999Z</time></trkpt><trkpt lat="43.95356527241732" lon="11.364837537512017"><ele>193.33333333333331</ele><time>2026-04-19T08:25:54.999Z</time></trkpt><trkpt lat="43.953775818496325" lon="11.364891570109624"><ele>193.0</ele><time>2026-04-19T08:25:55.999Z</time></trkpt><trkpt lat="43.95398973876438" lon="11.364960971476782"><ele>193.0</ele><time>2026-04-19T08:25:56.999Z</time></trkpt><trkpt lat="43.95420922430674" lon="11.3649940094958"><ele>193.0</ele><time>2026-04-19T08:25:57.999Z</time></trkpt><trkpt lat="43.95442899317593" lon="11.365010771662861"><ele>193.0</ele><time>2026-04-19T08:25:58.999Z</time></trkpt><trkpt lat="43.95464729039227" lon="11.36501278751008"><ele>193.0</ele><time>2026-04-19T08:25:59.999Z</time></trkpt><trkpt lat="43.9548574063564" lon="11.364998387882727"><ele>193.0</ele><time>2026-04-19T08:26:00.999Z</time></trkpt><trkpt lat="43.95506558538691" lon="11.364974975287026"><ele>193.0</ele><time>2026-04-19T08:26:01.999Z</time></trkpt><trkpt lat="43.955266320665125" lon="11.364936155582297"><ele>193.0</ele><time>2026-04-19T08:26:02.999Z</time></trkpt><trkpt lat="43.955463600827244" lon="11.364862244599232"><ele>193.0</ele><time>2026-04-19T08:26:03.999Z</time></trkpt><trkpt lat="43.95565833622605" lon="11.36480969369264"><ele>193.0</ele><time>2026-04-19T08:26:04.999Z</time></trkpt><trkpt lat="43.95583691048635" lon="11.364739025526063"><ele>193.0</ele><time>2026-04-19T08:26:05.999Z</time></trkpt><trkpt lat="43.95600303083337" lon="11.364660337156531"><ele>193.0</ele><time>2026-04-19T08:26:06.999Z</time></trkpt><trkpt lat="43.956175125318964" lon="11.364596532922207"><ele>193.0</ele><time>2026-04-19T08:26:07.999Z</time></trkpt><trkpt lat="43.95634814410361" lon="11.364496506863858"><ele>193.0</ele><time>2026-04-19T08:26:08.999Z</time></trkpt><trkpt lat="43.95652120984057" lon="11.364384012735504"><ele>193.0</ele><time>2026-04-19T08:26:09.999Z</time></trkpt><trkpt lat="43.95669136919687" lon="11.36424006832382"><ele>193.0</ele><time>2026-04-19T08:26:10.999Z</time></trkpt><trkpt lat="43.95687575492953" lon="11.36408889017111"><ele>193.0</ele><time>2026-04-19T08:26:11.999Z</time></trkpt><trkpt lat="43.95706095180307" lon="11.363954661271087"><ele>193.0</ele><time>2026-04-19T08:26:12.999Z</time></trkpt><trkpt lat="43.95722592511388" lon="11.363808956427082"><ele>193.0</ele><time>2026-04-19T08:26:13.999Z</time></trkpt><trkpt lat="43.95737638971309" lon="11.363673304670554"><ele>193.0</ele><time>2026-04-19T08:26:14.999Z</time></trkpt><trkpt lat="43.95750307027262" lon="11.363559095479388"><ele>193.0</ele><time>2026-04-19T08:26:15.999Z</time></trkpt><trkpt lat="43.95763490375098" lon="11.36344024065993"><ele>193.0</ele><time>2026-04-19T08:26:16.999Z</time></trkpt><trkpt lat="43.95776870164397" lon="11.363319614835989"><ele>193.33333333333331</ele><time>2026-04-19T08:26:17.999Z</time></trkpt><trkpt lat="43.95791661378307" lon="11.363188055223844"><ele>193.66666666666669</ele><time>2026-04-19T08:26:18.999Z</time></trkpt><trkpt lat="43.95808063833119" lon="11.363042424702233"><ele>194.0</ele><time>2026-04-19T08:26:19.999Z</time></trkpt><trkpt lat="43.95825814638183" lon="11.362884820983531"><ele>194.0</ele><time>2026-04-19T08:26:20.999Z</time></trkpt><trkpt lat="43.95843643357177" lon="11.362696067272038"><ele>194.0</ele><time>2026-04-19T08:26:21.999Z</time></trkpt><trkpt lat="43.95863573118014" lon="11.362519613182844"><ele>194.0</ele><time>2026-04-19T08:26:22.999Z</time></trkpt><trkpt lat="43.958832446874915" lon="11.362344747442375"><ele>194.0</ele><time>2026-04-19T08:26:23.999Z</time></trkpt><trkpt lat="43.95901480280819" lon="11.362187054266261"><ele>194.0</ele><time>2026-04-19T08:26:24.999Z</time></trkpt><trkpt lat="43.959195386905705" lon="11.362040109892702"><ele>194.33333333333334</ele><time>2026-04-19T08:26:25.999Z</time></trkpt><trkpt lat="43.95936491087733" lon="11.361902906330231"><ele>194.66666666666669</ele><time>2026-04-19T08:26:26.999Z</time></trkpt><trkpt lat="43.95953313739915" lon="11.361773568371"><ele>195.0</ele><time>2026-04-19T08:26:27.999Z</time></trkpt><trkpt lat="43.959706801163335" lon="11.361649685861805"><ele>195.0</ele><time>2026-04-19T08:26:28.999Z</time></trkpt><trkpt lat="43.959884149209486" lon="11.361548199153804"><ele>195.0</ele><time>2026-04-19T08:26:29.999Z</time></trkpt><trkpt lat="43.96007133871062" lon="11.361475009933654"><ele>195.0</ele><time>2026-04-19T08:26:30.999Z</time></trkpt><trkpt lat="43.960268782174154" lon="11.361424893664179"><ele>196.0</ele><time>2026-04-19T08:26:31.999Z</time></trkpt><trkpt lat="43.96047036764432" lon="11.36141015145984"><ele>197.0</ele><time>2026-04-19T08:26:32.999Z</time></trkpt><trkpt lat="43.96068410241223" lon="11.361426704082676"><ele>198.0</ele><time>2026-04-19T08:26:33.999Z</time></trkpt><trkpt lat="43.96090404784002" lon="11.361471387765672"><ele>199.5</ele><time>2026-04-19T08:26:34.999Z</time></trkpt><trkpt lat="43.961128114521074" lon="11.361519367257099"><ele>201.0</ele><time>2026-04-19T08:26:35.999Z</time></trkpt><trkpt lat="43.96135129612417" lon="11.361597871349343"><ele>201.0</ele><time>2026-04-19T08:26:36.999Z</time></trkpt><trkpt lat="43.96158020395842" lon="11.3616583116833"><ele>201.0</ele><time>2026-04-19T08:26:37.999Z</time></trkpt><trkpt lat="43.96180655152585" lon="11.361722163338971"><ele>201.0</ele><time>2026-04-19T08:26:38.999Z</time></trkpt><trkpt lat="43.962027851837576" lon="11.361789613979273"><ele>201.0</ele><time>2026-04-19T08:26:39.999Z</time></trkpt><trkpt lat="43.9622275209094" lon="11.361861561854303"><ele>201.0</ele><time>2026-04-19T08:26:40.999Z</time></trkpt><trkpt lat="43.962416104960774" lon="11.36194678554072"><ele>201.66666666666669</ele><time>2026-04-19T08:26:41.999Z</time></trkpt><trkpt lat="43.962602738125135" lon="11.36204319070982"><ele>202.33333333333334</ele><time>2026-04-19T08:26:42.999Z</time></trkpt><trkpt lat="43.962792904084935" lon="11.362152189129086"><ele>203.0</ele><time>2026-04-19T08:26:43.999Z</time></trkpt><trkpt lat="43.962985362659786" lon="11.36227718264221"><ele>204.33333333333334</ele><time>2026-04-19T08:26:44.999Z</time></trkpt><trkpt lat="43.9631744694732" lon="11.362419602241994"><ele>205.66666666666669</ele><time>2026-04-19T08:26:45.999Z</time></trkpt><trkpt lat="43.96335939351492" lon="11.36258168827143"><ele>207.0</ele><time>2026-04-19T08:26:46.999Z</time></trkpt><trkpt lat="43.963537545470736" lon="11.362763163095194"><ele>207.0</ele><time>2026-04-19T08:26:47.999Z</time></trkpt><trkpt lat="43.96371592461864" lon="11.362960047647508"><ele>207.0</ele><time>2026-04-19T08:26:48.999Z</time></trkpt><trkpt lat="43.96389614193524" lon="11.363158004770742"><ele>209.0</ele><time>2026-04-19T08:26:49.999Z</time></trkpt><trkpt lat="43.964067441342436" lon="11.363342815894034"><ele>211.0</ele><time>2026-04-19T08:26:51Z</time></trkpt><trkpt lat="43.964221484938044" lon="11.363511536590217"><ele>213.0</ele><time>2026-04-19T08:26:52Z</time></trkpt><trkpt lat="43.96436830103166" lon="11.363675006707181"><ele>213.0</ele><time>2026-04-19T08:26:52.999Z</time></trkpt><trkpt lat="43.96451659543902" lon="11.363837903157426"><ele>213.0</ele><time>2026-04-19T08:26:53.999Z</time></trkpt><trkpt lat="43.96465289720199" lon="11.363984146661165"><ele>213.0</ele><time>2026-04-19T08:26:55Z</time></trkpt><trkpt lat="43.964782025069795" lon="11.36412269296263"><ele>213.66666666666669</ele><time>2026-04-19T08:26:55.999Z</time></trkpt><trkpt lat="43.96491616056491" lon="11.36426912061871"><ele>214.33333333333334</ele><time>2026-04-19T08:26:56.999Z</time></trkpt><trkpt lat="43.96506356540275" lon="11.364404952218797"><ele>215.0</ele><time>2026-04-19T08:26:58Z</time></trkpt><trkpt lat="43.96520274605004" lon="11.36457137577067"><ele>216.66666666666669</ele><time>2026-04-19T08:26:58.999Z</time></trkpt><trkpt lat="43.96535968688712" lon="11.364726166743127"><ele>218.33333333333331</ele><time>2026-04-19T08:27:00Z</time></trkpt><trkpt lat="43.965530970688555" lon="11.364864955746327"><ele>220.0</ele><time>2026-04-19T08:27:01Z</time></trkpt><trkpt lat="43.965711143190816" lon="11.36498606812381"><ele>220.33333333333331</ele><time>2026-04-19T08:27:02Z</time></trkpt><trkpt lat="43.96589605272512" lon="11.365085408845328"><ele>220.66666666666669</ele><time>2026-04-19T08:27:03Z</time></trkpt><trkpt lat="43.966072334775085" lon="11.365158901621916"><ele>221.0</ele><time>2026-04-19T08:27:04Z</time></trkpt><trkpt lat="43.96624612861827" lon="11.36520339807397"><ele>221.0</ele><time>2026-04-19T08:27:04.999Z</time></trkpt><trkpt lat="43.966429438706726" lon="11.36524581047568"><ele>221.0</ele><time>2026-04-19T08:27:05.999Z</time></trkpt><trkpt lat="43.96662467370498" lon="11.365225397727267"><ele>221.0</ele><time>2026-04-19T08:27:06.999Z</time></trkpt><trkpt lat="43.966820271552045" lon="11.36523956328499"><ele>221.66666666666669</ele><time>2026-04-19T08:27:07.999Z</time></trkpt><trkpt lat="43.96701528597078" lon="11.365282269255905"><ele>222.33333333333331</ele><time>2026-04-19T08:27:08.999Z</time></trkpt><trkpt lat="43.96721228143518" lon="11.36534394985544"><ele>223.0</ele><time>2026-04-19T08:27:09.999Z</time></trkpt><trkpt lat="43.96740918511179" lon="11.36540735728984"><ele>222.33333333333331</ele><time>2026-04-19T08:27:10.999Z</time></trkpt><trkpt lat="43.96760993318123" lon="11.365492584186544"><ele>221.66666666666669</ele><time>2026-04-19T08:27:11.999Z</time></trkpt><trkpt lat="43.96781932678745" lon="11.365560421414768"><ele>221.0</ele><time>2026-04-19T08:27:12.999Z</time></trkpt><trkpt lat="43.96802989345081" lon="11.36562713179947"><ele>222.33333333333334</ele><time>2026-04-19T08:27:13.999Z</time></trkpt><trkpt lat="43.96824343558729" lon="11.365694784748905"><ele>223.66666666666669</ele><time>2026-04-19T08:27:14.999Z</time></trkpt><trkpt lat="43.96845994185686" lon="11.365761581708687"><ele>225.0</ele><time>2026-04-19T08:27:15.999Z</time></trkpt><trkpt lat="43.96866410080273" lon="11.365823263526137"><ele>225.66666666666669</ele><time>2026-04-19T08:27:16.999Z</time></trkpt><trkpt lat="43.96885739030375" lon="11.36588050734844"><ele>226.33333333333334</ele><time>2026-04-19T08:27:17.999Z</time></trkpt><trkpt lat="43.96904426123721" lon="11.365930318751875"><ele>227.0</ele><time>2026-04-19T08:27:18.999Z</time></trkpt><trkpt lat="43.96922780377674" lon="11.365948061495533"><ele>228.66666666666669</ele><time>2026-04-19T08:27:19.999Z</time></trkpt><trkpt lat="43.96940476046167" lon="11.365976203030666"><ele>230.33333333333331</ele><time>2026-04-19T08:27:20.999Z</time></trkpt><trkpt lat="43.969577828150385" lon="11.365964824035622"><ele>232.0</ele><time>2026-04-19T08:27:21.999Z</time></trkpt><trkpt lat="43.96975453581086" lon="11.36592173583358"><ele>232.0</ele><time>2026-04-19T08:27:22.999Z</time></trkpt><trkpt lat="43.96993478005552" lon="11.365850471314182"><ele>232.0</ele><time>2026-04-19T08:27:23.999Z</time></trkpt><trkpt lat="43.97012199775479" lon="11.36575141504347"><ele>232.0</ele><time>2026-04-19T08:27:24.999Z</time></trkpt><trkpt lat="43.97028651647745" lon="11.365640808315678"><ele>231.66666666666666</ele><time>2026-04-19T08:27:25.999Z</time></trkpt><trkpt lat="43.97043772616042" lon="11.365558090204024"><ele>231.33333333333331</ele><time>2026-04-19T08:27:26.999Z</time></trkpt><trkpt lat="43.97059692040972" lon="11.365515507075253"><ele>231.0</ele><time>2026-04-19T08:27:27.999Z</time></trkpt><trkpt lat="43.97076482852573" lon="11.365511007160539"><ele>228.66666666666669</ele><time>2026-04-19T08:27:28.999Z</time></trkpt><trkpt lat="43.97093613416302" lon="11.36554550233164"><ele>226.33333333333334</ele><time>2026-04-19T08:27:29.999Z</time></trkpt><trkpt lat="43.97109706283438" lon="11.365640314785253"><ele>224.0</ele><time>2026-04-19T08:27:30.999Z</time></trkpt><trkpt lat="43.97124705201924" lon="11.365747934661348"><ele>224.0</ele><time>2026-04-19T08:27:31.999Z</time></trkpt><trkpt lat="43.971384699800595" lon="11.365862335909062"><ele>224.0</ele><time>2026-04-19T08:27:32.999Z</time></trkpt><trkpt lat="43.97150503593332" lon="11.366025160503566"><ele>224.0</ele><time>2026-04-19T08:27:33.999Z</time></trkpt><trkpt lat="43.97159940509451" lon="11.366227978919179"><ele>224.0</ele><time>2026-04-19T08:27:34.999Z</time></trkpt><trkpt lat="43.97168018653248" lon="11.366450866334972"><ele>224.0</ele><time>2026-04-19T08:27:35.999Z</time></trkpt><trkpt lat="43.97178497754724" lon="11.366669373610705"><ele>224.0</ele><time>2026-04-19T08:27:36.999Z</time></trkpt><trkpt lat="43.97185811282717" lon="11.366887359433248"><ele>224.0</ele><time>2026-04-19T08:27:37.999Z</time></trkpt><trkpt lat="43.971945628282235" lon="11.36707952614365"><ele>224.0</ele><time>2026-04-19T08:27:38.999Z</time></trkpt><trkpt lat="43.97203930256444" lon="11.36724716713903"><ele>224.0</ele><time>2026-04-19T08:27:39.999Z</time></trkpt><trkpt lat="43.97213690224978" lon="11.367394110437884"><ele>224.75</ele><time>2026-04-19T08:27:40.999Z</time></trkpt><trkpt lat="43.97223997410653" lon="11.367522642153348"><ele>225.5</ele><time>2026-04-19T08:27:41.999Z</time></trkpt><trkpt lat="43.972333690422474" lon="11.367632320296178"><ele>226.25</ele><time>2026-04-19T08:27:42.999Z</time></trkpt><trkpt lat="43.97242720891482" lon="11.367725047337203"><ele>227.0</ele><time>2026-04-19T08:27:43.999Z</time></trkpt><trkpt lat="43.972522321060296" lon="11.367804912631803"><ele>226.8</ele><time>2026-04-19T08:27:44.999Z</time></trkpt><trkpt lat="43.972617066007274" lon="11.367874254286521"><ele>226.6</ele><time>2026-04-19T08:27:45.999Z</time></trkpt><trkpt lat="43.972715293637556" lon="11.367928074873012"><ele>226.40000000000003</ele><time>2026-04-19T08:27:46.999Z</time></trkpt><trkpt lat="43.97281087962485" lon="11.367980220576236"><ele>226.20000000000002</ele><time>2026-04-19T08:27:47.999Z</time></trkpt><trkpt lat="43.972900377905155" lon="11.36802737379663"><ele>226.0</ele><time>2026-04-19T08:27:48.999Z</time></trkpt><trkpt lat="43.97298066130109" lon="11.368069224233139"><ele>226.4</ele><time>2026-04-19T08:27:49.999Z</time></trkpt><trkpt lat="43.97305772435256" lon="11.36811114449204"><ele>226.8</ele><time>2026-04-19T08:27:50.999Z</time></trkpt><trkpt lat="43.97312975251259" lon="11.368151477412802"><ele>227.20000000000002</ele><time>2026-04-19T08:27:51.999Z</time></trkpt><trkpt lat="43.97319212542722" lon="11.368183614181861"><ele>227.60000000000002</ele><time>2026-04-19T08:27:52.999Z</time></trkpt><trkpt lat="43.973282497584705" lon="11.368255954941334"><ele>228.0</ele><time>2026-04-19T08:27:54.999Z</time></trkpt><trkpt lat="43.973361820320484" lon="11.368098621718985"><ele>227.60000000000002</ele><time>2026-04-19T08:27:55.999Z</time></trkpt><trkpt lat="43.97340982859763" lon="11.367980482935094"><ele>227.20000000000002</ele><time>2026-04-19T08:27:56.999Z</time></trkpt><trkpt lat="43.97347614634732" lon="11.367850417388631"><ele>226.8</ele><time>2026-04-19T08:27:57.999Z</time></trkpt><trkpt lat="43.97355552199267" lon="11.367731948193326"><ele>226.4</ele><time>2026-04-19T08:27:58.999Z</time></trkpt><trkpt lat="43.973624572903354" lon="11.367626282302812"><ele>226.0</ele><time>2026-04-19T08:27:59.999Z</time></trkpt><trkpt lat="43.973702431948105" lon="11.36751334582582"><ele>226.0</ele><time>2026-04-19T08:28:00.999Z</time></trkpt><trkpt lat="43.97379672508014" lon="11.367395529166357"><ele>226.0</ele><time>2026-04-19T08:28:01.999Z</time></trkpt><trkpt lat="43.97391483127129" lon="11.367273197090904"><ele>226.0</ele><time>2026-04-19T08:28:02.999Z</time></trkpt><trkpt lat="43.97404338742378" lon="11.367166096090093"><ele>226.0</ele><time>2026-04-19T08:28:03.999Z</time></trkpt><trkpt lat="43.974181258335626" lon="11.367042814218195"><ele>226.0</ele><time>2026-04-19T08:28:04.999Z</time></trkpt><trkpt lat="43.974333066568704" lon="11.366886821530729"><ele>226.0</ele><time>2026-04-19T08:28:05.999Z</time></trkpt><trkpt lat="43.97448478784258" lon="11.366712646169498"><ele>226.0</ele><time>2026-04-19T08:28:06.999Z</time></trkpt><trkpt lat="43.97463463721919" lon="11.366529123455484"><ele>226.0</ele><time>2026-04-19T08:28:07.999Z</time></trkpt><trkpt lat="43.974790684244745" lon="11.366325239685755"><ele>226.0</ele><time>2026-04-19T08:28:08.999Z</time></trkpt><trkpt lat="43.97495376940884" lon="11.366106199075519"><ele>226.0</ele><time>2026-04-19T08:28:09.999Z</time></trkpt><trkpt lat="43.9751283484347" lon="11.365870308200995"><ele>225.5</ele><time>2026-04-19T08:28:10.999Z</time></trkpt><trkpt lat="43.975293908106444" lon="11.365637909534707"><ele>225.0</ele><time>2026-04-19T08:28:11.999Z</time></trkpt><trkpt lat="43.97545478906763" lon="11.365400944213434"><ele>225.0</ele><time>2026-04-19T08:28:12.999Z</time></trkpt><trkpt lat="43.975621153908385" lon="11.36517185423883"><ele>225.0</ele><time>2026-04-19T08:28:13.999Z</time></trkpt><trkpt lat="43.97578469328203" lon="11.364951316455839"><ele>224.33333333333331</ele><time>2026-04-19T08:28:14.999Z</time></trkpt><trkpt lat="43.97593485350174" lon="11.364751254806762"><ele>223.66666666666666</ele><time>2026-04-19T08:28:15.999Z</time></trkpt><trkpt lat="43.97609236382025" lon="11.364540813487597"><ele>223.0</ele><time>2026-04-19T08:28:16.999Z</time></trkpt><trkpt lat="43.97625538541203" lon="11.36431556797583"><ele>222.0</ele><time>2026-04-19T08:28:17.999Z</time></trkpt><trkpt lat="43.976424087866064" lon="11.36408721237491"><ele>221.0</ele><time>2026-04-19T08:28:18.999Z</time></trkpt><trkpt lat="43.97659862301691" lon="11.363853603209511"><ele>219.5</ele><time>2026-04-19T08:28:19.999Z</time></trkpt><trkpt lat="43.97677501135918" lon="11.363612256107032"><ele>218.0</ele><time>2026-04-19T08:28:20.999Z</time></trkpt><trkpt lat="43.97695552341114" lon="11.363373848545205"><ele>218.0</ele><time>2026-04-19T08:28:21.999Z</time></trkpt><trkpt lat="43.9771266166493" lon="11.363147541218376"><ele>218.0</ele><time>2026-04-19T08:28:22.999Z</time></trkpt><trkpt lat="43.97728976651261" lon="11.362921263393885"><ele>218.0</ele><time>2026-04-19T08:28:23.999Z</time></trkpt><trkpt lat="43.97744687189219" lon="11.362708137825079"><ele>218.0</ele><time>2026-04-19T08:28:24.999Z</time></trkpt><trkpt lat="43.97760773385701" lon="11.36252787384475"><ele>218.0</ele><time>2026-04-19T08:28:25.999Z</time></trkpt><trkpt lat="43.97775132157987" lon="11.362338487906271"><ele>219.0</ele><time>2026-04-19T08:28:26.999Z</time></trkpt><trkpt lat="43.977868990223186" lon="11.362140822659102"><ele>220.0</ele><time>2026-04-19T08:28:27.999Z</time></trkpt><trkpt lat="43.97797884804063" lon="11.36195346150114"><ele>221.0</ele><time>2026-04-19T08:28:28.999Z</time></trkpt><trkpt lat="43.978085619228644" lon="11.361730994847983"><ele>221.0</ele><time>2026-04-19T08:28:29.999Z</time></trkpt><trkpt lat="43.97813463887868" lon="11.36147129278653"><ele>221.0</ele><time>2026-04-19T08:28:30.999Z</time></trkpt><trkpt lat="43.97817787262867" lon="11.361196745866888"><ele>221.0</ele><time>2026-04-19T08:28:31.999Z</time></trkpt><trkpt lat="43.97822281741269" lon="11.360908766605899"><ele>220.66666666666669</ele><time>2026-04-19T08:28:32.999Z</time></trkpt><trkpt lat="43.97825793578725" lon="11.360630305782799"><ele>220.33333333333331</ele><time>2026-04-19T08:28:33.999Z</time></trkpt><trkpt lat="43.97828740617925" lon="11.360373283823398"><ele>220.0</ele><time>2026-04-19T08:28:34.999Z</time></trkpt><trkpt lat="43.97837068725717" lon="11.3601486247019"><ele>221.66666666666666</ele><time>2026-04-19T08:28:35.999Z</time></trkpt><trkpt lat="43.978454800602236" lon="11.359897966149608"><ele>223.33333333333331</ele><time>2026-04-19T08:28:36.999Z</time></trkpt><trkpt lat="43.97854563507416" lon="11.359651820542059"><ele>225.0</ele><time>2026-04-19T08:28:37.999Z</time></trkpt><trkpt lat="43.97864910059555" lon="11.359412196605525"><ele>225.0</ele><time>2026-04-19T08:28:38.999Z</time></trkpt><trkpt lat="43.97875325042269" lon="11.35919570776359"><ele>225.0</ele><time>2026-04-19T08:28:39.999Z</time></trkpt><trkpt lat="43.9788677234914" lon="11.35898837075292"><ele>225.0</ele><time>2026-04-19T08:28:40.999Z</time></trkpt><trkpt lat="43.97899300491059" lon="11.358812370501276"><ele>225.33333333333331</ele><time>2026-04-19T08:28:41.999Z</time></trkpt><trkpt lat="43.97913749873448" lon="11.358700389476269"><ele>225.66666666666666</ele><time>2026-04-19T08:28:42.999Z</time></trkpt><trkpt lat="43.979281042353456" lon="11.358618507442266"><ele>226.0</ele><time>2026-04-19T08:28:43.999Z</time></trkpt><trkpt lat="43.97944018098862" lon="11.358574650716406"><ele>226.0</ele><time>2026-04-19T08:28:44.999Z</time></trkpt><trkpt lat="43.979619735251326" lon="11.358572976232056"><ele>226.0</ele><time>2026-04-19T08:28:45.999Z</time></trkpt><trkpt lat="43.97980433069353" lon="11.358624250724839"><ele>226.0</ele><time>2026-04-19T08:28:46.999Z</time></trkpt><trkpt lat="43.980001934857924" lon="11.35872961074082"><ele>230.5</ele><time>2026-04-19T08:28:47.999Z</time></trkpt><trkpt lat="43.98020186234346" lon="11.358874826008787"><ele>235.0</ele><time>2026-04-19T08:28:48.999Z</time></trkpt><trkpt lat="43.980409179595966" lon="11.35901934353737"><ele>235.0</ele><time>2026-04-19T08:28:49.999Z</time></trkpt><trkpt lat="43.980613384427336" lon="11.359161691414279"><ele>235.0</ele><time>2026-04-19T08:28:50.999Z</time></trkpt><trkpt lat="43.98082187584452" lon="11.359306749428358"><ele>236.0</ele><time>2026-04-19T08:28:51.999Z</time></trkpt><trkpt lat="43.981024343167114" lon="11.359447878092922"><ele>237.0</ele><time>2026-04-19T08:28:52.999Z</time></trkpt><trkpt lat="43.98122722143442" lon="11.359604321524298"><ele>240.5</ele><time>2026-04-19T08:28:53.999Z</time></trkpt><trkpt lat="43.98143801637941" lon="11.359777658238356"><ele>244.0</ele><time>2026-04-19T08:28:54.999Z</time></trkpt><trkpt lat="43.981639228745024" lon="11.359952052891543"><ele>244.66666666666666</ele><time>2026-04-19T08:28:55.999Z</time></trkpt><trkpt lat="43.98182021455613" lon="11.360110023808295"><ele>245.33333333333331</ele><time>2026-04-19T08:28:57Z</time></trkpt><trkpt lat="43.981988593751076" lon="11.360256739486667"><ele>246.0</ele><time>2026-04-19T08:28:58Z</time></trkpt><trkpt lat="43.98214698524457" lon="11.360394750892366"><ele>246.0</ele><time>2026-04-19T08:28:59Z</time></trkpt><trkpt lat="43.98229385724011" lon="11.360522569375552"><ele>246.0</ele><time>2026-04-19T08:29:00Z</time></trkpt><trkpt lat="43.9824385041472" lon="11.360621625384503"><ele>246.0</ele><time>2026-04-19T08:29:01Z</time></trkpt><trkpt lat="43.98258450444823" lon="11.3606457836457"><ele>248.66666666666669</ele><time>2026-04-19T08:29:02Z</time></trkpt><trkpt lat="43.982725145498094" lon="11.360646068573583"><ele>251.33333333333334</ele><time>2026-04-19T08:29:03Z</time></trkpt><trkpt lat="43.982874255964376" lon="11.360609979181023"><ele>254.0</ele><time>2026-04-19T08:29:04Z</time></trkpt><trkpt lat="43.983035071847134" lon="11.360556321146273"><ele>254.66666666666669</ele><time>2026-04-19T08:29:05Z</time></trkpt><trkpt lat="43.98318778852355" lon="11.360503041380678"><ele>255.33333333333331</ele><time>2026-04-19T08:29:06Z</time></trkpt><trkpt lat="43.98334932795754" lon="11.36046789089906"><ele>256.0</ele><time>2026-04-19T08:29:07Z</time></trkpt><trkpt lat="43.983512006550036" lon="11.360422844535062"><ele>258.0</ele><time>2026-04-19T08:29:08Z</time></trkpt><trkpt lat="43.9836633392804" lon="11.360358718111412"><ele>260.0</ele><time>2026-04-19T08:29:09Z</time></trkpt><trkpt lat="43.98381220530816" lon="11.360276291929544"><ele>262.0</ele><time>2026-04-19T08:29:10Z</time></trkpt><trkpt lat="43.98395870759987" lon="11.360181808532907"><ele>262.0</ele><time>2026-04-19T08:29:11Z</time></trkpt><trkpt lat="43.98411162665291" lon="11.360086329748482"><ele>262.0</ele><time>2026-04-19T08:29:12Z</time></trkpt><trkpt lat="43.98426614314789" lon="11.359998930055758"><ele>262.0</ele><time>2026-04-19T08:29:13Z</time></trkpt><trkpt lat="43.98441120936377" lon="11.359922643435166"><ele>262.0</ele><time>2026-04-19T08:29:14Z</time></trkpt><trkpt lat="43.98454410629681" lon="11.359839074511166"><ele>262.0</ele><time>2026-04-19T08:29:15Z</time></trkpt><trkpt lat="43.98466617755408" lon="11.359771293357758"><ele>262.0</ele><time>2026-04-19T08:29:16Z</time></trkpt><trkpt lat="43.98476732103442" lon="11.359729006667532"><ele>262.0</ele><time>2026-04-19T08:29:17Z</time></trkpt><trkpt lat="43.98485564657358" lon="11.359674830749501"><ele>262.2</ele><time>2026-04-19T08:29:18Z</time></trkpt><trkpt lat="43.98494307368158" lon="11.359633896291214"><ele>262.4</ele><time>2026-04-19T08:29:19Z</time></trkpt><trkpt lat="43.98503452062052" lon="11.359575340684252"><ele>262.6</ele><time>2026-04-19T08:29:19.999Z</time></trkpt><trkpt lat="43.98513937953897" lon="11.359514762548251"><ele>262.8</ele><time>2026-04-19T08:29:20.999Z</time></trkpt><trkpt lat="43.98524744471125" lon="11.35945103256483"><ele>263.0</ele><time>2026-04-19T08:29:21.999Z</time></trkpt><trkpt lat="43.98536392867406" lon="11.35937717163853"><ele>263.75</ele><time>2026-04-19T08:29:22.999Z</time></trkpt><trkpt lat="43.985482131743666" lon="11.359305235711105"><ele>264.5</ele><time>2026-04-19T08:29:23.999Z</time></trkpt><trkpt lat="43.98561241682067" lon="11.35922460817871"><ele>265.25</ele><time>2026-04-19T08:29:24.999Z</time></trkpt><trkpt lat="43.98575185203125" lon="11.359141398461663"><ele>266.0</ele><time>2026-04-19T08:29:25.999Z</time></trkpt><trkpt lat="43.98590407298446" lon="11.359052266773755"><ele>267.6666666666667</ele><time>2026-04-19T08:29:26.999Z</time></trkpt><trkpt lat="43.98606161148529" lon="11.358959358103572"><ele>269.3333333333333</ele><time>2026-04-19T08:29:27.999Z</time></trkpt><trkpt lat="43.98622288267931" lon="11.358872802429465"><ele>271.0</ele><time>2026-04-19T08:29:28.999Z</time></trkpt><trkpt lat="43.98636903549133" lon="11.358804825552133"><ele>271.0</ele><time>2026-04-19T08:29:29.999Z</time></trkpt><trkpt lat="43.98653142667982" lon="11.358736337491257"><ele>271.0</ele><time>2026-04-19T08:29:30.999Z</time></trkpt><trkpt lat="43.98671801344358" lon="11.358683548032598"><ele>271.0</ele><time>2026-04-19T08:29:31.999Z</time></trkpt><trkpt lat="43.98689605993022" lon="11.358646682951424"><ele>272.0</ele><time>2026-04-19T08:29:32.999Z</time></trkpt><trkpt lat="43.98707015128457" lon="11.358615669357086"><ele>273.0</ele><time>2026-04-19T08:29:33.999Z</time></trkpt><trkpt lat="43.98724783567232" lon="11.358581753939557"><ele>274.0</ele><time>2026-04-19T08:29:34.999Z</time></trkpt><trkpt lat="43.987425454651714" lon="11.35855446436022"><ele>275.3333333333333</ele><time>2026-04-19T08:29:35.999Z</time></trkpt><trkpt lat="43.98758689339169" lon="11.35852237038471"><ele>276.6666666666667</ele><time>2026-04-19T08:29:36.999Z</time></trkpt><trkpt lat="43.98773638558188" lon="11.358494309096624"><ele>278.0</ele><time>2026-04-19T08:29:37.999Z</time></trkpt><trkpt lat="43.9878744983493" lon="11.358474124918445"><ele>278.0</ele><time>2026-04-19T08:29:38.999Z</time></trkpt><trkpt lat="43.98800422682012" lon="11.358459284438352"><ele>278.0</ele><time>2026-04-19T08:29:39.999Z</time></trkpt><trkpt lat="43.98812943006284" lon="11.358452429078326"><ele>278.0</ele><time>2026-04-19T08:29:40.999Z</time></trkpt><trkpt lat="43.98826284598377" lon="11.358450751361923"><ele>278.0</ele><time>2026-04-19T08:29:41.999Z</time></trkpt><trkpt lat="43.988402137922925" lon="11.358464710695285"><ele>278.75</ele><time>2026-04-19T08:29:42.999Z</time></trkpt><trkpt lat="43.988541185624264" lon="11.35848718607695"><ele>279.5</ele><time>2026-04-19T08:29:43.999Z</time></trkpt><trkpt lat="43.988663453054805" lon="11.358515288252596"><ele>280.25</ele><time>2026-04-19T08:29:44.999Z</time></trkpt><trkpt lat="43.98877837336409" lon="11.358545216446249"><ele>281.0</ele><time>2026-04-19T08:29:45.999Z</time></trkpt><trkpt lat="43.98887543599236" lon="11.358562763715927"><ele>281.0</ele><time>2026-04-19T08:29:46.999Z</time></trkpt><trkpt lat="43.988966708627366" lon="11.358573421592876"><ele>281.0</ele><time>2026-04-19T08:29:47.999Z</time></trkpt><trkpt lat="43.98905332364495" lon="11.358574533495304"><ele>281.0</ele><time>2026-04-19T08:29:48.999Z</time></trkpt><trkpt lat="43.98915400542335" lon="11.358556999781104"><ele>281.0</ele><time>2026-04-19T08:29:49.999Z</time></trkpt><trkpt lat="43.98927741026188" lon="11.358510287137854"><ele>281.0</ele><time>2026-04-19T08:29:50.999Z</time></trkpt><trkpt lat="43.989415477509226" lon="11.358445165787668"><ele>280.0</ele><time>2026-04-19T08:29:51.999Z</time></trkpt><trkpt lat="43.9895736696045" lon="11.358382518093293"><ele>279.0</ele><time>2026-04-19T08:29:52.999Z</time></trkpt><trkpt lat="43.989742396820446" lon="11.358310969244206"><ele>278.0</ele><time>2026-04-19T08:29:53.999Z</time></trkpt><trkpt lat="43.98988792495658" lon="11.35823850879825"><ele>278.0</ele><time>2026-04-19T08:29:54.999Z</time></trkpt><trkpt lat="43.99000673626797" lon="11.358180950461268"><ele>278.0</ele><time>2026-04-19T08:29:55.999Z</time></trkpt><trkpt lat="43.99010825356529" lon="11.35811299438801"><ele>278.0</ele><time>2026-04-19T08:29:56.999Z</time></trkpt><trkpt lat="43.99017988506627" lon="11.358005002055448"><ele>278.0</ele><time>2026-04-19T08:29:57.999Z</time></trkpt><trkpt lat="43.990222856854956" lon="11.357881613154744"><ele>278.0</ele><time>2026-04-19T08:29:58.999Z</time></trkpt><trkpt lat="43.99024609619142" lon="11.357753374124105"><ele>279.5</ele><time>2026-04-19T08:29:59.999Z</time></trkpt><trkpt lat="43.99024144148079" lon="11.357611795206113"><ele>281.0</ele><time>2026-04-19T08:30:00.999Z</time></trkpt><trkpt lat="43.99020351564009" lon="11.35743655333798"><ele>282.5</ele><time>2026-04-19T08:30:01.999Z</time></trkpt><trkpt lat="43.99015718090634" lon="11.357249012689456"><ele>284.0</ele><time>2026-04-19T08:30:02.999Z</time></trkpt><trkpt lat="43.99011366635665" lon="11.357071527333318"><ele>284.0</ele><time>2026-04-19T08:30:03.999Z</time></trkpt><trkpt lat="43.990088814296264" lon="11.356913510048972"><ele>284.0</ele><time>2026-04-19T08:30:04.999Z</time></trkpt><trkpt lat="43.99008270392638" lon="11.356754948438775"><ele>284.0</ele><time>2026-04-19T08:30:05.999Z</time></trkpt><trkpt lat="43.99009102621122" lon="11.356604226910212"><ele>284.0</ele><time>2026-04-19T08:30:06.999Z</time></trkpt><trkpt lat="43.990115573748184" lon="11.356463355887243"><ele>284.0</ele><time>2026-04-19T08:30:07.999Z</time></trkpt><trkpt lat="43.99015402702108" lon="11.356339455349628"><ele>283.5</ele><time>2026-04-19T08:30:08.999Z</time></trkpt><trkpt lat="43.990188549557836" lon="11.35621855312503"><ele>283.0</ele><time>2026-04-19T08:30:09.999Z</time></trkpt><trkpt lat="43.990215362616475" lon="11.356102190054246"><ele>282.5</ele><time>2026-04-19T08:30:10.999Z</time></trkpt><trkpt lat="43.990239923137906" lon="11.355989026874436"><ele>282.0</ele><time>2026-04-19T08:30:11.999Z</time></trkpt><trkpt lat="43.99026640823649" lon="11.35587581162419"><ele>281.5</ele><time>2026-04-19T08:30:12.999Z</time></trkpt><trkpt lat="43.99029250133195" lon="11.355763106912677"><ele>281.0</ele><time>2026-04-19T08:30:13.999Z</time></trkpt><trkpt lat="43.99032484520678" lon="11.35564847147884"><ele>280.5</ele><time>2026-04-19T08:30:14.999Z</time></trkpt><trkpt lat="43.99034638912502" lon="11.355531542444075"><ele>280.0</ele><time>2026-04-19T08:30:15.999Z</time></trkpt><trkpt lat="43.990367741162224" lon="11.355427244231683"><ele>279.5</ele><time>2026-04-19T08:30:16.999Z</time></trkpt><trkpt lat="43.99038622574663" lon="11.355320127450383"><ele>279.0</ele><time>2026-04-19T08:30:17.999Z</time></trkpt><trkpt lat="43.99040749234309" lon="11.355210078679534"><ele>278.5</ele><time>2026-04-19T08:30:18.999Z</time></trkpt><trkpt lat="43.990432840965916" lon="11.355086358829952"><ele>278.0</ele><time>2026-04-19T08:30:19.999Z</time></trkpt><trkpt lat="43.99046378871181" lon="11.35496159700565"><ele>278.0</ele><time>2026-04-19T08:30:20.999Z</time></trkpt><trkpt lat="43.99049337091885" lon="11.354837651510966"><ele>278.0</ele><time>2026-04-19T08:30:21.999Z</time></trkpt><trkpt lat="43.990518120072274" lon="11.354704966131193"><ele>278.0</ele><time>2026-04-19T08:30:22.999Z</time></trkpt><trkpt lat="43.99054297434364" lon="11.354581764179708"><ele>278.0</ele><time>2026-04-19T08:30:23.999Z</time></trkpt><trkpt lat="43.99056369579014" lon="11.35445558868705"><ele>278.0</ele><time>2026-04-19T08:30:24.999Z</time></trkpt><trkpt lat="43.99058965867238" lon="11.35434471910533"><ele>278.0</ele><time>2026-04-19T08:30:25.999Z</time></trkpt><trkpt lat="43.99061688738838" lon="11.354238728267504"><ele>278.0</ele><time>2026-04-19T08:30:26.999Z</time></trkpt><trkpt lat="43.9906413290959" lon="11.354131355907715"><ele>278.0</ele><time>2026-04-19T08:30:27.999Z</time></trkpt><trkpt lat="43.99065762838479" lon="11.354037528196676"><ele>278.0</ele><time>2026-04-19T08:30:28.999Z</time></trkpt><trkpt lat="43.99068737904052" lon="11.353888764646868"><ele>278.0</ele><time>2026-04-19T08:30:30.999Z</time></trkpt><trkpt lat="43.990710402750224" lon="11.353770529625129"><ele>278.0</ele><time>2026-04-19T08:30:32.999Z</time></trkpt><trkpt lat="43.99073094626852" lon="11.353684236375384"><ele>278.0</ele><time>2026-04-19T08:30:34.999Z</time></trkpt><trkpt lat="43.99076985628347" lon="11.35359571297423"><ele>278.0</ele><time>2026-04-19T08:30:37.999Z</time></trkpt><trkpt lat="43.99080172307151" lon="11.353490156670842"><ele>278.0</ele><time>2026-04-19T08:30:40.999Z</time></trkpt><trkpt lat="43.990933065566345" lon="11.353479404813738"><ele>278.0</ele><time>2026-04-19T08:31:01.999Z</time></trkpt><trkpt lat="43.991026403765865" lon="11.353557772857043"><ele>278.0</ele><time>2026-04-19T08:31:03Z</time></trkpt><trkpt lat="43.99111620255375" lon="11.353646186944706"><ele>278.33333333333337</ele><time>2026-04-19T08:31:04Z</time></trkpt><trkpt lat="43.991193442274955" lon="11.353714726742332"><ele>278.6666666666667</ele><time>2026-04-19T08:31:05Z</time></trkpt><trkpt lat="43.99127248472516" lon="11.35375688839453"><ele>279.0</ele><time>2026-04-19T08:31:06Z</time></trkpt><trkpt lat="43.99134425658506" lon="11.353806817612597"><ele>279.3333333333333</ele><time>2026-04-19T08:31:07Z</time></trkpt><trkpt lat="43.991419517077574" lon="11.35385496332305"><ele>279.66666666666663</ele><time>2026-04-19T08:31:08Z</time></trkpt><trkpt lat="43.99149973920841" lon="11.353903797708412"><ele>280.0</ele><time>2026-04-19T08:31:09Z</time></trkpt><trkpt lat="43.99157879277964" lon="11.353968343274488"><ele>280.0</ele><time>2026-04-19T08:31:10Z</time></trkpt><trkpt lat="43.991664026948705" lon="11.354027492570516"><ele>280.0</ele><time>2026-04-19T08:31:11Z</time></trkpt><trkpt lat="43.99175041644385" lon="11.35408629879784"><ele>280.0</ele><time>2026-04-19T08:31:12Z</time></trkpt><trkpt lat="43.99182519612651" lon="11.354135295391327"><ele>280.0</ele><time>2026-04-19T08:31:13Z</time></trkpt><trkpt lat="43.99189518971044" lon="11.354183316738991"><ele>280.0</ele><time>2026-04-19T08:31:14Z</time></trkpt><trkpt lat="43.99196243976226" lon="11.35422118791101"><ele>280.0</ele><time>2026-04-19T08:31:15Z</time></trkpt><trkpt lat="43.99207189202527" lon="11.354286633508224"><ele>280.6</ele><time>2026-04-19T08:31:17Z</time></trkpt><trkpt lat="43.99216714490507" lon="11.354368383369037"><ele>281.2</ele><time>2026-04-19T08:31:19Z</time></trkpt><trkpt lat="43.99227612098174" lon="11.354398258847016"><ele>281.8</ele><time>2026-04-19T08:31:21Z</time></trkpt><trkpt lat="43.99233563080353" lon="11.35443814423653"><ele>282.4</ele><time>2026-04-19T08:31:22Z</time></trkpt><trkpt lat="43.99240506441332" lon="11.354482927224387"><ele>283.0</ele><time>2026-04-19T08:31:23Z</time></trkpt><trkpt lat="43.992481868582416" lon="11.3545303344973"><ele>283.8</ele><time>2026-04-19T08:31:24Z</time></trkpt><trkpt lat="43.992568250738756" lon="11.354583523511156"><ele>284.6</ele><time>2026-04-19T08:31:25Z</time></trkpt><trkpt lat="43.9926639001406" lon="11.354641890959503"><ele>285.4</ele><time>2026-04-19T08:31:26Z</time></trkpt><trkpt lat="43.99277348904544" lon="11.35472022241128"><ele>286.2</ele><time>2026-04-19T08:31:27Z</time></trkpt><trkpt lat="43.992863748840456" lon="11.354811422084468"><ele>287.0</ele><time>2026-04-19T08:31:28Z</time></trkpt><trkpt lat="43.99295434438041" lon="11.354869563356429"><ele>287.0</ele><time>2026-04-19T08:31:29Z</time></trkpt><trkpt lat="43.99303882502924" lon="11.354921913228354"><ele>287.0</ele><time>2026-04-19T08:31:30Z</time></trkpt><trkpt lat="43.99311718135691" lon="11.354968633104896"><ele>287.0</ele><time>2026-04-19T08:31:31Z</time></trkpt><trkpt lat="43.993188517402345" lon="11.355005279865255"><ele>287.0</ele><time>2026-04-19T08:31:32Z</time></trkpt><trkpt lat="43.99326522029134" lon="11.355045933577214"><ele>287.0</ele><time>2026-04-19T08:31:33Z</time></trkpt><trkpt lat="43.9933455204653" lon="11.355090365295139"><ele>287.0</ele><time>2026-04-19T08:31:34Z</time></trkpt><trkpt lat="43.99343038043988" lon="11.355138465470182"><ele>287.5</ele><time>2026-04-19T08:31:35Z</time></trkpt><trkpt lat="43.99350988532998" lon="11.35518353028467"><ele>288.0</ele><time>2026-04-19T08:31:36Z</time></trkpt><trkpt lat="43.99357756989323" lon="11.355198032108309"><ele>288.5</ele><time>2026-04-19T08:31:37Z</time></trkpt><trkpt lat="43.993638590101405" lon="11.355253343927119"><ele>289.0</ele><time>2026-04-19T08:31:39Z</time></trkpt><trkpt lat="43.99372340318418" lon="11.355279425940457"><ele>289.5</ele><time>2026-04-19T08:31:41.999Z</time></trkpt><trkpt lat="43.99378200962737" lon="11.355331005876776"><ele>290.0</ele><time>2026-04-19T08:31:43.999Z</time></trkpt><trkpt lat="43.993895766016585" lon="11.355370657750363"><ele>290.0</ele><time>2026-04-19T08:31:45.999Z</time></trkpt><trkpt lat="43.99398197214077" lon="11.355420127081446"><ele>290.0</ele><time>2026-04-19T08:31:46.999Z</time></trkpt><trkpt lat="43.99406402591025" lon="11.35546672469218"><ele>290.0</ele><time>2026-04-19T08:31:47.999Z</time></trkpt><trkpt lat="43.99413743165003" lon="11.35551054446504"><ele>290.0</ele><time>2026-04-19T08:31:48.999Z</time></trkpt><trkpt lat="43.994225844597615" lon="11.355557134542828"><ele>290.0</ele><time>2026-04-19T08:31:49.999Z</time></trkpt><trkpt lat="43.994279197060585" lon="11.355608499977404"><ele>290.0</ele><time>2026-04-19T08:31:50.999Z</time></trkpt><trkpt lat="43.99435790197386" lon="11.355657374100957"><ele>290.6</ele><time>2026-04-19T08:31:51.999Z</time></trkpt><trkpt lat="43.99443046226926" lon="11.355706358743673"><ele>291.2</ele><time>2026-04-19T08:31:52.999Z</time></trkpt><trkpt lat="43.99452481006018" lon="11.355738650433555"><ele>291.8</ele><time>2026-04-19T08:31:53.999Z</time></trkpt><trkpt lat="43.99461693200432" lon="11.355782261946462"><ele>292.4</ele><time>2026-04-19T08:31:54.999Z</time></trkpt><trkpt lat="43.994708070534486" lon="11.35582807056066"><ele>293.0</ele><time>2026-04-19T08:31:55.999Z</time></trkpt><trkpt lat="43.994800707677" lon="11.355870205530206"><ele>293.0</ele><time>2026-04-19T08:31:56.999Z</time></trkpt><trkpt lat="43.994888569667225" lon="11.355916198304255"><ele>293.0</ele><time>2026-04-19T08:31:57.999Z</time></trkpt><trkpt lat="43.99497799577111" lon="11.35595956404333"><ele>293.0</ele><time>2026-04-19T08:31:58.999Z</time></trkpt><trkpt lat="43.99507324122476" lon="11.356009391353975"><ele>293.0</ele><time>2026-04-19T08:31:59.999Z</time></trkpt><trkpt lat="43.99516822983153" lon="11.356058854034927"><ele>293.0</ele><time>2026-04-19T08:32:00.999Z</time></trkpt><trkpt lat="43.99524154035436" lon="11.35610230538037"><ele>293.33333333333337</ele><time>2026-04-19T08:32:01.999Z</time></trkpt><trkpt lat="43.99530753784155" lon="11.356137600113108"><ele>293.6666666666667</ele><time>2026-04-19T08:32:02.999Z</time></trkpt><trkpt lat="43.99538073130661" lon="11.356160651262469"><ele>294.0</ele><time>2026-04-19T08:32:03.999Z</time></trkpt><trkpt lat="43.995448521634344" lon="11.35622007777276"><ele>294.3333333333333</ele><time>2026-04-19T08:32:04.999Z</time></trkpt><trkpt lat="43.995512032225434" lon="11.356255510766989"><ele>294.66666666666663</ele><time>2026-04-19T08:32:05.999Z</time></trkpt><trkpt lat="43.99560689997786" lon="11.356310192387618"><ele>295.0</ele><time>2026-04-19T08:32:06.999Z</time></trkpt><trkpt lat="43.99571972830836" lon="11.356380337684598"><ele>296.75</ele><time>2026-04-19T08:32:07.999Z</time></trkpt><trkpt lat="43.995840359720184" lon="11.356473723257084"><ele>298.5</ele><time>2026-04-19T08:32:08.999Z</time></trkpt><trkpt lat="43.99595648167629" lon="11.356572216706521"><ele>300.25</ele><time>2026-04-19T08:32:09.999Z</time></trkpt><trkpt lat="43.9960647576228" lon="11.356677742269047"><ele>302.0</ele><time>2026-04-19T08:32:10.999Z</time></trkpt><trkpt lat="43.996171906220006" lon="11.356790350328211"><ele>302.0</ele><time>2026-04-19T08:32:11.999Z</time></trkpt><trkpt lat="43.99627308581635" lon="11.356893789635707"><ele>302.0</ele><time>2026-04-19T08:32:12.999Z</time></trkpt><trkpt lat="43.99639274582645" lon="11.3569950767856"><ele>302.0</ele><time>2026-04-19T08:32:13.999Z</time></trkpt><trkpt lat="43.996526970744064" lon="11.35708765389113"><ele>302.0</ele><time>2026-04-19T08:32:14.999Z</time></trkpt><trkpt lat="43.996668073479555" lon="11.357180778002018"><ele>301.33333333333337</ele><time>2026-04-19T08:32:15.999Z</time></trkpt><trkpt lat="43.99680844825925" lon="11.357274532043547"><ele>300.6666666666667</ele><time>2026-04-19T08:32:16.999Z</time></trkpt><trkpt lat="43.99697112691861" lon="11.357360813540796"><ele>300.0</ele><time>2026-04-19T08:32:17.999Z</time></trkpt><trkpt lat="43.99712131087816" lon="11.35747976433147"><ele>300.0</ele><time>2026-04-19T08:32:18.999Z</time></trkpt><trkpt lat="43.99728085629896" lon="11.357581065056317"><ele>300.0</ele><time>2026-04-19T08:32:19.999Z</time></trkpt><trkpt lat="43.99743014165943" lon="11.357679389796903"><ele>300.0</ele><time>2026-04-19T08:32:20.999Z</time></trkpt><trkpt lat="43.99756736416894" lon="11.357785492633582"><ele>300.3333333333333</ele><time>2026-04-19T08:32:21.999Z</time></trkpt><trkpt lat="43.9977053439011" lon="11.357885971527077"><ele>300.66666666666663</ele><time>2026-04-19T08:32:22.999Z</time></trkpt><trkpt lat="43.997843106870484" lon="11.35798254782211"><ele>301.0</ele><time>2026-04-19T08:32:23.999Z</time></trkpt><trkpt lat="43.997984453361035" lon="11.358077777588695"><ele>301.0</ele><time>2026-04-19T08:32:24.999Z</time></trkpt><trkpt lat="43.998129002030595" lon="11.358177131039309"><ele>301.0</ele><time>2026-04-19T08:32:25.999Z</time></trkpt><trkpt lat="43.99827496518982" lon="11.358279416459723"><ele>301.0</ele><time>2026-04-19T08:32:26.999Z</time></trkpt><trkpt lat="43.998420034862846" lon="11.358376965236014"><ele>302.3333333333333</ele><time>2026-04-19T08:32:27.999Z</time></trkpt><trkpt lat="43.998573578287136" lon="11.358475051513647"><ele>303.6666666666667</ele><time>2026-04-19T08:32:28.999Z</time></trkpt><trkpt lat="43.99871943596041" lon="11.358567760469269"><ele>305.0</ele><time>2026-04-19T08:32:29.999Z</time></trkpt><trkpt lat="43.99885981222429" lon="11.358665977246154"><ele>305.0</ele><time>2026-04-19T08:32:30.999Z</time></trkpt><trkpt lat="43.99899665165887" lon="11.358764288277053"><ele>305.0</ele><time>2026-04-19T08:32:31.999Z</time></trkpt><trkpt lat="43.99914527816933" lon="11.358862065579544"><ele>305.0</ele><time>2026-04-19T08:32:32.999Z</time></trkpt><trkpt lat="43.999287161262" lon="11.358956225855286"><ele>305.33333333333337</ele><time>2026-04-19T08:32:33.999Z</time></trkpt><trkpt lat="43.99942387170774" lon="11.359043329349793"><ele>305.6666666666667</ele><time>2026-04-19T08:32:34.999Z</time></trkpt><trkpt lat="43.99956729045452" lon="11.359119985822385"><ele>306.0</ele><time>2026-04-19T08:32:35.999Z</time></trkpt><trkpt lat="43.999717335039314" lon="11.359181289825854"><ele>306.0</ele><time>2026-04-19T08:32:36.999Z</time></trkpt><trkpt lat="43.9998566609014" lon="11.359227128224024"><ele>306.0</ele><time>2026-04-19T08:32:37.999Z</time></trkpt><trkpt lat="43.99997702134743" lon="11.359252886745857"><ele>306.0</ele><time>2026-04-19T08:32:38.999Z</time></trkpt><trkpt lat="44.00008678807105" lon="11.35927706773375"><ele>306.0</ele><time>2026-04-19T08:32:39.999Z</time></trkpt><trkpt lat="44.00021437351989" lon="11.35930573995309"><ele>306.0</ele><time>2026-04-19T08:32:40.999Z</time></trkpt><trkpt lat="44.00034217210641" lon="11.359357803740403"><ele>306.0</ele><time>2026-04-19T08:32:41.999Z</time></trkpt><trkpt lat="44.00047209143272" lon="11.359406064117266"><ele>306.0</ele><time>2026-04-19T08:32:42.999Z</time></trkpt><trkpt lat="44.00059585790361" lon="11.359447817198454"><ele>306.0</ele><time>2026-04-19T08:32:43.999Z</time></trkpt><trkpt lat="44.000712594425266" lon="11.359498255723496"><ele>306.0</ele><time>2026-04-19T08:32:44.999Z</time></trkpt><trkpt lat="44.00080877869104" lon="11.359653057675324"><ele>306.0</ele><time>2026-04-19T08:32:45.999Z</time></trkpt><trkpt lat="44.00091172768047" lon="11.35976665551214"><ele>306.0</ele><time>2026-04-19T08:32:46.999Z</time></trkpt><trkpt lat="44.00102100880956" lon="11.359895077851675"><ele>306.0</ele><time>2026-04-19T08:32:47.999Z</time></trkpt><trkpt lat="44.001137962717365" lon="11.360033010857414"><ele>307.0</ele><time>2026-04-19T08:32:48.999Z</time></trkpt><trkpt lat="44.00126773290833" lon="11.360184944838496"><ele>308.0</ele><time>2026-04-19T08:32:49.999Z</time></trkpt><trkpt lat="44.0013982809878" lon="11.360335821305886"><ele>309.0</ele><time>2026-04-19T08:32:50.999Z</time></trkpt><trkpt lat="44.001515844521585" lon="11.3604766312998"><ele>309.0</ele><time>2026-04-19T08:32:51.999Z</time></trkpt><trkpt lat="44.001629825997625" lon="11.360607651317261"><ele>309.0</ele><time>2026-04-19T08:32:52.999Z</time></trkpt><trkpt lat="44.00175243421765" lon="11.360747149350848"><ele>309.0</ele><time>2026-04-19T08:32:53.999Z</time></trkpt><trkpt lat="44.001877223226835" lon="11.360895483053527"><ele>309.6666666666667</ele><time>2026-04-19T08:32:54.999Z</time></trkpt><trkpt lat="44.002006218069276" lon="11.361058137168367"><ele>310.33333333333337</ele><time>2026-04-19T08:32:55.999Z</time></trkpt><trkpt lat="44.00214543024203" lon="11.361228978739375"><ele>311.0</ele><time>2026-04-19T08:32:56.999Z</time></trkpt><trkpt lat="44.002273647436894" lon="11.361382272793122"><ele>311.0</ele><time>2026-04-19T08:32:57.999Z</time></trkpt><trkpt lat="44.00239434451294" lon="11.361528543188843"><ele>311.0</ele><time>2026-04-19T08:32:58.999Z</time></trkpt><trkpt lat="44.00251415071692" lon="11.361669256937875"><ele>311.0</ele><time>2026-04-19T08:32:59.999Z</time></trkpt><trkpt lat="44.002629232011955" lon="11.361804776057776"><ele>311.0</ele><time>2026-04-19T08:33:00.999Z</time></trkpt><trkpt lat="44.002737507671085" lon="11.36193516405738"><ele>311.0</ele><time>2026-04-19T08:33:01.999Z</time></trkpt><trkpt lat="44.00283974644802" lon="11.362061216988916"><ele>311.0</ele><time>2026-04-19T08:33:02.999Z</time></trkpt><trkpt lat="44.00292998837336" lon="11.362178047391975"><ele>311.0</ele><time>2026-04-19T08:33:03.999Z</time></trkpt><trkpt lat="44.003025625201225" lon="11.362311695869526"><ele>312.0</ele><time>2026-04-19T08:33:04.999Z</time></trkpt><trkpt lat="44.003119780400475" lon="11.362462992138935"><ele>313.0</ele><time>2026-04-19T08:33:05.999Z</time></trkpt><trkpt lat="44.00320988672625" lon="11.362653188077955"><ele>314.0</ele><time>2026-04-19T08:33:06.999Z</time></trkpt><trkpt lat="44.00329047207591" lon="11.362870809447813"><ele>315.33333333333337</ele><time>2026-04-19T08:33:07.999Z</time></trkpt><trkpt lat="44.0033756444553" lon="11.363087003563608"><ele>316.6666666666667</ele><time>2026-04-19T08:33:09Z</time></trkpt><trkpt lat="44.00347757764732" lon="11.36332969227284"><ele>318.0</ele><time>2026-04-19T08:33:10Z</time></trkpt><trkpt lat="44.00354597729521" lon="11.363565417753575"><ele>318.0</ele><time>2026-04-19T08:33:11Z</time></trkpt><trkpt lat="44.00362570508552" lon="11.363776075862242"><ele>318.0</ele><time>2026-04-19T08:33:12Z</time></trkpt><trkpt lat="44.00371111424286" lon="11.364001745458701"><ele>318.0</ele><time>2026-04-19T08:33:13Z</time></trkpt><trkpt lat="44.00379086318736" lon="11.364212459539218"><ele>318.0</ele><time>2026-04-19T08:33:14Z</time></trkpt><trkpt lat="44.00386225965665" lon="11.364400764592725"><ele>318.0</ele><time>2026-04-19T08:33:15Z</time></trkpt><trkpt lat="44.003931680802225" lon="11.364567408237889"><ele>318.0</ele><time>2026-04-19T08:33:16Z</time></trkpt><trkpt lat="44.00403321958483" lon="11.36469077794549"><ele>318.0</ele><time>2026-04-19T08:33:17Z</time></trkpt><trkpt lat="44.00412401615281" lon="11.364833031559984"><ele>319.6666666666667</ele><time>2026-04-19T08:33:18Z</time></trkpt><trkpt lat="44.00424528939591" lon="11.364942688274501"><ele>321.33333333333337</ele><time>2026-04-19T08:33:19Z</time></trkpt><trkpt lat="44.004399450046805" lon="11.36503725458621"><ele>323.0</ele><time>2026-04-19T08:33:20Z</time></trkpt><trkpt lat="44.004571268496385" lon="11.365112465737223"><ele>323.0</ele><time>2026-04-19T08:33:21Z</time></trkpt><trkpt lat="44.00475002339649" lon="11.365207074175926"><ele>323.0</ele><time>2026-04-19T08:33:22Z</time></trkpt><trkpt lat="44.00493077021695" lon="11.365300833377203"><ele>323.0</ele><time>2026-04-19T08:33:23Z</time></trkpt><trkpt lat="44.005114860436215" lon="11.365396481604142"><ele>323.0</ele><time>2026-04-19T08:33:24Z</time></trkpt><trkpt lat="44.005317265849264" lon="11.365479102073676"><ele>323.0</ele><time>2026-04-19T08:33:25Z</time></trkpt><trkpt lat="44.005528405681396" lon="11.365568173498378"><ele>323.0</ele><time>2026-04-19T08:33:26Z</time></trkpt><trkpt lat="44.00574236782873" lon="11.365680650929828"><ele>323.6666666666667</ele><time>2026-04-19T08:33:27Z</time></trkpt><trkpt lat="44.00593217643229" lon="11.365814318188292"><ele>324.3333333333333</ele><time>2026-04-19T08:33:28Z</time></trkpt><trkpt lat="44.006104811586525" lon="11.36597051771469"><ele>325.0</ele><time>2026-04-19T08:33:29Z</time></trkpt><trkpt lat="44.00627540781309" lon="11.366117766770007"><ele>325.0</ele><time>2026-04-19T08:33:30Z</time></trkpt><trkpt lat="44.00644273826297" lon="11.366262544030398"><ele>325.0</ele><time>2026-04-19T08:33:31Z</time></trkpt><trkpt lat="44.006594370930344" lon="11.366400951393725"><ele>325.0</ele><time>2026-04-19T08:33:32Z</time></trkpt><trkpt lat="44.006734307209335" lon="11.36653253545351"><ele>325.25</ele><time>2026-04-19T08:33:33Z</time></trkpt><trkpt lat="44.006867651258545" lon="11.366632391916609"><ele>325.5</ele><time>2026-04-19T08:33:34Z</time></trkpt><trkpt lat="44.00697874010435" lon="11.36673920668023"><ele>325.75</ele><time>2026-04-19T08:33:35Z</time></trkpt><trkpt lat="44.007082659486414" lon="11.366840970573378"><ele>326.0</ele><time>2026-04-19T08:33:36Z</time></trkpt><trkpt lat="44.00717324668335" lon="11.366919137150777"><ele>326.0</ele><time>2026-04-19T08:33:37Z</time></trkpt><trkpt lat="44.007246947077675" lon="11.36697793539963"><ele>326.0</ele><time>2026-04-19T08:33:38Z</time></trkpt><trkpt lat="44.0073140293429" lon="11.367055941969586"><ele>326.0</ele><time>2026-04-19T08:33:39Z</time></trkpt><trkpt lat="44.007374423743585" lon="11.367094680945957"><ele>326.0</ele><time>2026-04-19T08:33:40Z</time></trkpt><trkpt lat="44.00747321148734" lon="11.36714236645716"><ele>326.0</ele><time>2026-04-19T08:33:42Z</time></trkpt><trkpt lat="44.00757708930208" lon="11.366940584816337"><ele>326.0</ele><time>2026-04-19T08:33:44Z</time></trkpt><trkpt lat="44.00759306486381" lon="11.366839663127418"><ele>326.0</ele><time>2026-04-19T08:33:45Z</time></trkpt><trkpt lat="44.0075767293491" lon="11.366732902200857"><ele>326.0</ele><time>2026-04-19T08:33:46Z</time></trkpt><trkpt lat="44.00753251005446" lon="11.366648135236307"><ele>326.0</ele><time>2026-04-19T08:33:47Z</time></trkpt><trkpt lat="44.007440331677294" lon="11.36659733784921"><ele>326.0</ele><time>2026-04-19T08:33:49Z</time></trkpt><trkpt lat="44.00740851089146" lon="11.366711209946434"><ele>326.0</ele><time>2026-04-19T08:33:52Z</time></trkpt><trkpt lat="44.00735913215607" lon="11.36687430829115"><ele>326.0</ele><time>2026-04-19T08:33:54Z</time></trkpt><trkpt lat="44.00735361837942" lon="11.366971140109806"><ele>326.0</ele><time>2026-04-19T08:33:55Z</time></trkpt><trkpt lat="44.00720865709054" lon="11.366955329493907"><ele>326.0</ele><time>2026-04-19T08:33:55.999Z</time></trkpt><trkpt lat="44.00710712052813" lon="11.366916252096457"><ele>326.0</ele><time>2026-04-19T08:33:56.999Z</time></trkpt><trkpt lat="44.0070407658754" lon="11.366764948687871"><ele>326.0</ele><time>2026-04-19T08:33:57.999Z</time></trkpt><trkpt lat="44.00693572058744" lon="11.366666173090927"><ele>326.0</ele><time>2026-04-19T08:33:58.999Z</time></trkpt><trkpt lat="44.00678996452328" lon="11.366529116585575"><ele>326.0</ele><time>2026-04-19T08:33:59.999Z</time></trkpt><trkpt lat="44.00659595893126" lon="11.3664958173468"><ele>326.0</ele><time>2026-04-19T08:34:00.999Z</time></trkpt><trkpt lat="44.00643508583721" lon="11.366350674569173"><ele>325.8</ele><time>2026-04-19T08:34:01.999Z</time></trkpt><trkpt lat="44.00629569911607" lon="11.366228240229027"><ele>325.6</ele><time>2026-04-19T08:34:02.999Z</time></trkpt><trkpt lat="44.00621283044399" lon="11.366146595792301"><ele>325.4</ele><time>2026-04-19T08:34:03.999Z</time></trkpt><trkpt lat="44.00615093049933" lon="11.366076107640303"><ele>325.2</ele><time>2026-04-19T08:34:04.999Z</time></trkpt><trkpt lat="44.00609216669175" lon="11.366033180938052"><ele>325.0</ele><time>2026-04-19T08:34:05.999Z</time></trkpt><trkpt lat="44.006022291589616" lon="11.365978332995256"><ele>325.0</ele><time>2026-04-19T08:34:06.999Z</time></trkpt><trkpt lat="44.00595261842457" lon="11.36596831647097"><ele>325.0</ele><time>2026-04-19T08:34:07.999Z</time></trkpt><trkpt lat="44.00588247772731" lon="11.366015985841292"><ele>325.0</ele><time>2026-04-19T08:34:08.999Z</time></trkpt><trkpt lat="44.0058266074352" lon="11.366115053487778"><ele>325.0</ele><time>2026-04-19T08:34:09.999Z</time></trkpt><trkpt lat="44.00577484424217" lon="11.36621877136281"><ele>325.0</ele><time>2026-04-19T08:34:10.999Z</time></trkpt><trkpt lat="44.00571458244623" lon="11.366314948031969"><ele>325.0</ele><time>2026-04-19T08:34:11.999Z</time></trkpt><trkpt lat="44.00559660681369" lon="11.366448134967479"><ele>324.0</ele><time>2026-04-19T08:34:12.999Z</time></trkpt><trkpt lat="44.00548573116059" lon="11.366605404594447"><ele>323.0</ele><time>2026-04-19T08:34:13.999Z</time></trkpt><trkpt lat="44.00537423921182" lon="11.366781353468278"><ele>322.0</ele><time>2026-04-19T08:34:14.999Z</time></trkpt><trkpt lat="44.00525840690429" lon="11.366999802570236"><ele>322.3333333333333</ele><time>2026-04-19T08:34:15.999Z</time></trkpt><trkpt lat="44.00514522942301" lon="11.367198563581534"><ele>322.6666666666667</ele><time>2026-04-19T08:34:16.999Z</time></trkpt><trkpt lat="44.00503827869471" lon="11.367363545490738"><ele>323.0</ele><time>2026-04-19T08:34:17.999Z</time></trkpt><trkpt lat="44.00490848063576" lon="11.367511291647512"><ele>322.33333333333337</ele><time>2026-04-19T08:34:18.999Z</time></trkpt><trkpt lat="44.00477128398626" lon="11.367627858327689"><ele>321.6666666666667</ele><time>2026-04-19T08:34:19.999Z</time></trkpt><trkpt lat="44.00461584554318" lon="11.367722543768243"><ele>321.0</ele><time>2026-04-19T08:34:20.999Z</time></trkpt><trkpt lat="44.00444263094754" lon="11.36778851366942"><ele>321.0</ele><time>2026-04-19T08:34:21.999Z</time></trkpt><trkpt lat="44.00425398840019" lon="11.367842279684586"><ele>321.0</ele><time>2026-04-19T08:34:22.999Z</time></trkpt><trkpt lat="44.0040552792994" lon="11.36785106687576"><ele>321.0</ele><time>2026-04-19T08:34:23.999Z</time></trkpt><trkpt lat="44.00385074505149" lon="11.367793330064531"><ele>322.0</ele><time>2026-04-19T08:34:24.999Z</time></trkpt><trkpt lat="44.00363624494915" lon="11.367718882253907"><ele>323.0</ele><time>2026-04-19T08:34:25.999Z</time></trkpt><trkpt lat="44.00341802401085" lon="11.367593141679418"><ele>321.0</ele><time>2026-04-19T08:34:26.999Z</time></trkpt><trkpt lat="44.0031893931982" lon="11.3674572287066"><ele>319.0</ele><time>2026-04-19T08:34:27.999Z</time></trkpt><trkpt lat="44.00296187064647" lon="11.367339862704823"><ele>319.0</ele><time>2026-04-19T08:34:28.999Z</time></trkpt><trkpt lat="44.00273141548678" lon="11.367211428448313"><ele>319.0</ele><time>2026-04-19T08:34:29.999Z</time></trkpt><trkpt lat="44.00247023516357" lon="11.367072516617174"><ele>318.5</ele><time>2026-04-19T08:34:30.999Z</time></trkpt><trkpt lat="44.00220332448436" lon="11.366924436521817"><ele>318.0</ele><time>2026-04-19T08:34:31.999Z</time></trkpt><trkpt lat="44.00193267283587" lon="11.366773688089484"><ele>318.0</ele><time>2026-04-19T08:34:32.999Z</time></trkpt><trkpt lat="44.0016699345842" lon="11.36661209515427"><ele>318.0</ele><time>2026-04-19T08:34:33.999Z</time></trkpt><trkpt lat="44.00139560128542" lon="11.366466366342417"><ele>316.0</ele><time>2026-04-19T08:34:34.999Z</time></trkpt><trkpt lat="44.00111024543369" lon="11.366311958492277"><ele>314.0</ele><time>2026-04-19T08:34:35.999Z</time></trkpt><trkpt lat="44.00079185395849" lon="11.366158713642593"><ele>314.0</ele><time>2026-04-19T08:34:36.999Z</time></trkpt><trkpt lat="44.00048032679419" lon="11.366002550355603"><ele>314.0</ele><time>2026-04-19T08:34:37.999Z</time></trkpt><trkpt lat="44.00016922110634" lon="11.365839701505697"><ele>314.0</ele><time>2026-04-19T08:34:38.999Z</time></trkpt><trkpt lat="43.999853948934415" lon="11.36568680374106"><ele>314.0</ele><time>2026-04-19T08:34:39.999Z</time></trkpt><trkpt lat="43.999521052686596" lon="11.365514766819949"><ele>313.0</ele><time>2026-04-19T08:34:40.999Z</time></trkpt><trkpt lat="43.999202248499145" lon="11.365335628214446"><ele>312.0</ele><time>2026-04-19T08:34:41.999Z</time></trkpt><trkpt lat="43.998874487841604" lon="11.365155483636038"><ele>310.5</ele><time>2026-04-19T08:34:42.999Z</time></trkpt><trkpt lat="43.998549931852736" lon="11.36498025157453"><ele>309.0</ele><time>2026-04-19T08:34:43.999Z</time></trkpt><trkpt lat="43.998242275423806" lon="11.364822117178205"><ele>304.0</ele><time>2026-04-19T08:34:44.999Z</time></trkpt><trkpt lat="43.99795342359441" lon="11.364673314036953"><ele>299.0</ele><time>2026-04-19T08:34:45.999Z</time></trkpt><trkpt lat="43.99767867987763" lon="11.364541017034973"><ele>304.0</ele><time>2026-04-19T08:34:46.999Z</time></trkpt><trkpt lat="43.997419361891666" lon="11.364429588381011"><ele>309.0</ele><time>2026-04-19T08:34:47.999Z</time></trkpt><trkpt lat="43.99717562575944" lon="11.364325649550482"><ele>309.0</ele><time>2026-04-19T08:34:48.999Z</time></trkpt><trkpt lat="43.99693609959866" lon="11.364218967914724"><ele>309.0</ele><time>2026-04-19T08:34:49.999Z</time></trkpt><trkpt lat="43.99671093410055" lon="11.36411962517818"><ele>310.0</ele><time>2026-04-19T08:34:50.999Z</time></trkpt><trkpt lat="43.996495062257544" lon="11.364026703721684"><ele>311.0</ele><time>2026-04-19T08:34:51.999Z</time></trkpt><trkpt lat="43.99627864037508" lon="11.36393083985052"><ele>305.5</ele><time>2026-04-19T08:34:52.999Z</time></trkpt><trkpt lat="43.996056128215784" lon="11.363832351188377"><ele>300.0</ele><time>2026-04-19T08:34:53.999Z</time></trkpt><trkpt lat="43.99583014053663" lon="11.363725207038454"><ele>300.0</ele><time>2026-04-19T08:34:54.999Z</time></trkpt><trkpt lat="43.995598878538786" lon="11.363622415287296"><ele>300.0</ele><time>2026-04-19T08:34:55.999Z</time></trkpt><trkpt lat="43.995378023412925" lon="11.36352287948177"><ele>300.0</ele><time>2026-04-19T08:34:56.999Z</time></trkpt><trkpt lat="43.995159786783" lon="11.363433674243351"><ele>300.0</ele><time>2026-04-19T08:34:57.999Z</time></trkpt><trkpt lat="43.99494522998812" lon="11.363355648951387"><ele>300.0</ele><time>2026-04-19T08:34:58.999Z</time></trkpt><trkpt lat="43.99473234210754" lon="11.363291934647718"><ele>299.6666666666667</ele><time>2026-04-19T08:34:59.999Z</time></trkpt><trkpt lat="43.994528443934904" lon="11.363238938867147"><ele>299.33333333333337</ele><time>2026-04-19T08:35:00.999Z</time></trkpt><trkpt lat="43.994319460748585" lon="11.363206176642644"><ele>299.0</ele><time>2026-04-19T08:35:01.999Z</time></trkpt><trkpt lat="43.9941200161175" lon="11.363174180965851"><ele>297.0</ele><time>2026-04-19T08:35:02.999Z</time></trkpt><trkpt lat="43.9939208547391" lon="11.363164575446598"><ele>295.0</ele><time>2026-04-19T08:35:03.999Z</time></trkpt><trkpt lat="43.993733658713936" lon="11.363157885020756"><ele>293.0</ele><time>2026-04-19T08:35:04.999Z</time></trkpt><trkpt lat="43.99357210590565" lon="11.363158303233137"><ele>293.0</ele><time>2026-04-19T08:35:05.999Z</time></trkpt><trkpt lat="43.99343722763969" lon="11.363157766670103"><ele>293.0</ele><time>2026-04-19T08:35:06.999Z</time></trkpt><trkpt lat="43.99331596752767" lon="11.363164239741552"><ele>293.0</ele><time>2026-04-19T08:35:07.999Z</time></trkpt><trkpt lat="43.993201960271136" lon="11.363171334735629"><ele>293.0</ele><time>2026-04-19T08:35:08.999Z</time></trkpt><trkpt lat="43.99309808225265" lon="11.363166530643813"><ele>292.1666666666667</ele><time>2026-04-19T08:35:09.999Z</time></trkpt><trkpt lat="43.993003646246514" lon="11.363119259560229"><ele>291.33333333333337</ele><time>2026-04-19T08:35:10.999Z</time></trkpt><trkpt lat="43.99292412010262" lon="11.36305458245341"><ele>290.5</ele><time>2026-04-19T08:35:11.999Z</time></trkpt><trkpt lat="43.99284051631535" lon="11.363043261599774"><ele>289.6666666666667</ele><time>2026-04-19T08:35:12.999Z</time></trkpt><trkpt lat="43.99275864626571" lon="11.363075459895777"><ele>288.8333333333333</ele><time>2026-04-19T08:35:13.999Z</time></trkpt><trkpt lat="43.99269288949649" lon="11.363150966255235"><ele>288.0</ele><time>2026-04-19T08:35:15Z</time></trkpt><trkpt lat="43.99265008391608" lon="11.363276813052059"><ele>288.0</ele><time>2026-04-19T08:35:16Z</time></trkpt><trkpt lat="43.99260224477604" lon="11.363444193920927"><ele>288.0</ele><time>2026-04-19T08:35:17Z</time></trkpt><trkpt lat="43.99250546734602" lon="11.363618160374532"><ele>288.0</ele><time>2026-04-19T08:35:18Z</time></trkpt><trkpt lat="43.99239539150363" lon="11.363783002273607"><ele>285.0</ele><time>2026-04-19T08:35:19Z</time></trkpt><trkpt lat="43.99229274613362" lon="11.363976257504522"><ele>282.0</ele><time>2026-04-19T08:35:20Z</time></trkpt><trkpt lat="43.99218401314285" lon="11.36421924047413"><ele>279.0</ele><time>2026-04-19T08:35:21Z</time></trkpt><trkpt lat="43.992083369578864" lon="11.36447429214243"><ele>275.6666666666667</ele><time>2026-04-19T08:35:22Z</time></trkpt><trkpt lat="43.991970798698844" lon="11.364745301018264"><ele>272.33333333333337</ele><time>2026-04-19T08:35:23Z</time></trkpt><trkpt lat="43.991869840007524" lon="11.365000649054302"><ele>269.0</ele><time>2026-04-19T08:35:24Z</time></trkpt><trkpt lat="43.99177960689636" lon="11.365261945175568"><ele>269.0</ele><time>2026-04-19T08:35:25Z</time></trkpt><trkpt lat="43.991690518105855" lon="11.365503799714082"><ele>269.0</ele><time>2026-04-19T08:35:26Z</time></trkpt><trkpt lat="43.991599136345165" lon="11.365753067837872"><ele>269.0</ele><time>2026-04-19T08:35:27Z</time></trkpt><trkpt lat="43.99150902424702" lon="11.365999186423068"><ele>264.5</ele><time>2026-04-19T08:35:28Z</time></trkpt><trkpt lat="43.991402740852756" lon="11.366289541631454"><ele>260.0</ele><time>2026-04-19T08:35:29Z</time></trkpt><trkpt lat="43.99129713430622" lon="11.366578074412379"><ele>257.6666666666667</ele><time>2026-04-19T08:35:30Z</time></trkpt><trkpt lat="43.99119851289326" lon="11.36684752276624"><ele>255.33333333333331</ele><time>2026-04-19T08:35:31Z</time></trkpt><trkpt lat="43.99109225698049" lon="11.367121736728393"><ele>253.0</ele><time>2026-04-19T08:35:32Z</time></trkpt><trkpt lat="43.99101170185592" lon="11.36737923324102"><ele>251.33333333333331</ele><time>2026-04-19T08:35:33Z</time></trkpt><trkpt lat="43.99093901992892" lon="11.367621422166515"><ele>249.66666666666669</ele><time>2026-04-19T08:35:34Z</time></trkpt><trkpt lat="43.990871418173995" lon="11.367881641584544"><ele>248.0</ele><time>2026-04-19T08:35:35Z</time></trkpt><trkpt lat="43.99080793325843" lon="11.368112485007593"><ele>246.5</ele><time>2026-04-19T08:35:36Z</time></trkpt><trkpt lat="43.99074822463081" lon="11.368316528633834"><ele>245.0</ele><time>2026-04-19T08:35:37Z</time></trkpt><trkpt lat="43.99071370109307" lon="11.368484426904573"><ele>243.5</ele><time>2026-04-19T08:35:38Z</time></trkpt><trkpt lat="43.99067760411773" lon="11.368647492607817"><ele>242.0</ele><time>2026-04-19T08:35:39Z</time></trkpt><trkpt lat="43.99064787079293" lon="11.368813192563291"><ele>242.25</ele><time>2026-04-19T08:35:40Z</time></trkpt><trkpt lat="43.99061107917909" lon="11.368965007836945"><ele>242.5</ele><time>2026-04-19T08:35:41Z</time></trkpt><trkpt lat="43.99057005877187" lon="11.369131244453316"><ele>242.75</ele><time>2026-04-19T08:35:42Z</time></trkpt><trkpt lat="43.990484093676955" lon="11.369277658536767"><ele>243.0</ele><time>2026-04-19T08:35:43Z</time></trkpt><trkpt lat="43.99044740454419" lon="11.369423100475114"><ele>243.0</ele><time>2026-04-19T08:35:44Z</time></trkpt><trkpt lat="43.99041851933059" lon="11.369543522482202"><ele>243.0</ele><time>2026-04-19T08:35:45Z</time></trkpt><trkpt lat="43.99039312717262" lon="11.369651533242546"><ele>243.0</ele><time>2026-04-19T08:35:46Z</time></trkpt><trkpt lat="43.990356957632265" lon="11.369800376329112"><ele>243.0</ele><time>2026-04-19T08:35:48Z</time></trkpt><trkpt lat="43.99033118886061" lon="11.369897237083414"><ele>243.0</ele><time>2026-04-19T08:35:50Z</time></trkpt><trkpt lat="43.99050190065893" lon="11.370183559708185"><ele>243.66666666666666</ele><time>2026-04-19T08:35:54Z</time></trkpt><trkpt lat="43.990581075632335" lon="11.370205188155586"><ele>244.33333333333331</ele><time>2026-04-19T08:35:56Z</time></trkpt><trkpt lat="43.99065788289396" lon="11.370232499985232"><ele>245.0</ele><time>2026-04-19T08:35:59Z</time></trkpt><trkpt lat="43.99074865166814" lon="11.370136134737406"><ele>245.66666666666666</ele><time>2026-04-19T08:36:35.999Z</time></trkpt><trkpt lat="43.990704500163716" lon="11.370202620560356"><ele>246.33333333333331</ele><time>2026-04-19T08:42:54.999Z</time></trkpt><trkpt lat="43.99072088969372" lon="11.370287480249836"><ele>247.0</ele><time>2026-04-19T08:42:59.999Z</time></trkpt><trkpt lat="43.990706773267505" lon="11.370185152869057"><ele>246.99999999999997</ele><time>2026-04-19T08:43:17.999Z</time></trkpt><trkpt lat="43.990767454037595" lon="11.370151609165704"><ele>247.0</ele><time>2026-04-19T08:47:36.999Z</time></trkpt><trkpt lat="43.99069222112067" lon="11.370058521100868"><ele>247.0</ele><time>2026-04-19T08:50:29Z</time></trkpt><trkpt lat="43.99064386391088" lon="11.36999951659658"><ele>247.0</ele><time>2026-04-19T08:50:30Z</time></trkpt><trkpt lat="43.990580983388874" lon="11.369905085091364"><ele>246.99999999999997</ele><time>2026-04-19T08:50:32Z</time></trkpt><trkpt lat="43.99053634658775" lon="11.369798563790116"><ele>247.0</ele><time>2026-04-19T08:50:34Z</time></trkpt><trkpt lat="43.990490303224554" lon="11.36970378310872"><ele>246.2</ele><time>2026-04-19T08:50:35Z</time></trkpt><trkpt lat="43.99046189269792" lon="11.369582368382911"><ele>245.39999999999998</ele><time>2026-04-19T08:50:36Z</time></trkpt><trkpt lat="43.99045977725873" lon="11.369446682590343"><ele>244.60000000000002</ele><time>2026-04-19T08:50:37Z</time></trkpt><trkpt lat="43.99048654121713" lon="11.369292163679091"><ele>243.8</ele><time>2026-04-19T08:50:38Z</time></trkpt><trkpt lat="43.99054915597066" lon="11.369164315319248"><ele>243.0</ele><time>2026-04-19T08:50:39Z</time></trkpt><trkpt lat="43.99059081563638" lon="11.369013255099041"><ele>242.75</ele><time>2026-04-19T08:50:40Z</time></trkpt><trkpt lat="43.99061350118055" lon="11.368822458114488"><ele>242.5</ele><time>2026-04-19T08:50:41Z</time></trkpt><trkpt lat="43.99067250799266" lon="11.368634381052129"><ele>242.25</ele><time>2026-04-19T08:50:42Z</time></trkpt><trkpt lat="43.990727281733754" lon="11.368447402361843"><ele>242.0</ele><time>2026-04-19T08:50:43Z</time></trkpt><trkpt lat="43.99077915685538" lon="11.368270313153497"><ele>242.0</ele><time>2026-04-19T08:50:44Z</time></trkpt><trkpt lat="43.99083185199336" lon="11.368103058595208"><ele>242.0</ele><time>2026-04-19T08:50:45Z</time></trkpt><trkpt lat="43.990886626983915" lon="11.367920101401161"><ele>242.0</ele><time>2026-04-19T08:50:46Z</time></trkpt><trkpt lat="43.99094361913049" lon="11.367714619069595"><ele>242.0</ele><time>2026-04-19T08:50:47Z</time></trkpt><trkpt lat="43.99101064348148" lon="11.367491559070169"><ele>244.0</ele><time>2026-04-19T08:50:48Z</time></trkpt><trkpt lat="43.99109037039475" lon="11.367249151682419"><ele>246.0</ele><time>2026-04-19T08:50:49Z</time></trkpt><trkpt lat="43.99117443254888" lon="11.366988668675072"><ele>248.0</ele><time>2026-04-19T08:50:50Z</time></trkpt><trkpt lat="43.99126347045078" lon="11.366743107795669"><ele>249.66666666666669</ele><time>2026-04-19T08:50:51Z</time></trkpt><trkpt lat="43.99135877527955" lon="11.366499609857382"><ele>251.33333333333331</ele><time>2026-04-19T08:50:52Z</time></trkpt><trkpt lat="43.9914723850273" lon="11.366252264064508"><ele>253.0</ele><time>2026-04-19T08:50:53Z</time></trkpt><trkpt lat="43.991569416190686" lon="11.365987201443218"><ele>255.33333333333331</ele><time>2026-04-19T08:50:54Z</time></trkpt><trkpt lat="43.991665936119745" lon="11.365723581340381"><ele>257.6666666666667</ele><time>2026-04-19T08:50:55Z</time></trkpt><trkpt lat="43.99174820597067" lon="11.365499417355787"><ele>260.0</ele><time>2026-04-19T08:50:56Z</time></trkpt><trkpt lat="43.99182294264321" lon="11.365296524889906"><ele>263.0</ele><time>2026-04-19T08:50:57Z</time></trkpt><trkpt lat="43.991896983007976" lon="11.365095523359232"><ele>266.0</ele><time>2026-04-19T08:50:58Z</time></trkpt><trkpt lat="43.991969123965426" lon="11.364899677933085"><ele>269.0</ele><time>2026-04-19T08:50:59Z</time></trkpt><trkpt lat="43.99204026143427" lon="11.364706556737083"><ele>272.33333333333337</ele><time>2026-04-19T08:51:00Z</time></trkpt><trkpt lat="43.992114553328214" lon="11.364509539357684"><ele>275.6666666666667</ele><time>2026-04-19T08:51:01Z</time></trkpt><trkpt lat="43.99219300570482" lon="11.36431062332417"><ele>279.0</ele><time>2026-04-19T08:51:02Z</time></trkpt><trkpt lat="43.99227714102716" lon="11.364115018223831"><ele>279.0</ele><time>2026-04-19T08:51:03Z</time></trkpt><trkpt lat="43.992369271973516" lon="11.363934328854985"><ele>279.0</ele><time>2026-04-19T08:51:04Z</time></trkpt><trkpt lat="43.99246373330323" lon="11.363794105850975"><ele>279.0</ele><time>2026-04-19T08:51:05Z</time></trkpt><trkpt lat="43.992543262839575" lon="11.363658733069142"><ele>279.0</ele><time>2026-04-19T08:51:06Z</time></trkpt><trkpt lat="43.992628214852424" lon="11.363581219078386"><ele>280.8</ele><time>2026-04-19T08:51:07Z</time></trkpt><trkpt lat="43.99271468505573" lon="11.363517297218301"><ele>282.59999999999997</ele><time>2026-04-19T08:51:08Z</time></trkpt><trkpt lat="43.9928088984416" lon="11.363476911631814"><ele>284.4</ele><time>2026-04-19T08:51:09Z</time></trkpt><trkpt lat="43.992904587939485" lon="11.363430804601574"><ele>286.2</ele><time>2026-04-19T08:51:10Z</time></trkpt><trkpt lat="43.99301121918036" lon="11.363346655657853"><ele>288.0</ele><time>2026-04-19T08:51:11Z</time></trkpt><trkpt lat="43.99314267908663" lon="11.363285407113338"><ele>288.0</ele><time>2026-04-19T08:51:12Z</time></trkpt><trkpt lat="43.99329521121734" lon="11.363213189391404"><ele>288.0</ele><time>2026-04-19T08:51:13Z</time></trkpt><trkpt lat="43.993468313566346" lon="11.363189916265084"><ele>288.0</ele><time>2026-04-19T08:51:14Z</time></trkpt><trkpt lat="43.99363514224347" lon="11.363182407379417"><ele>289.6666666666667</ele><time>2026-04-19T08:51:15Z</time></trkpt><trkpt lat="43.993805976834466" lon="11.363209170349416"><ele>291.33333333333337</ele><time>2026-04-19T08:51:16Z</time></trkpt><trkpt lat="43.993960910370944" lon="11.363195110545519"><ele>293.0</ele><time>2026-04-19T08:51:17Z</time></trkpt><trkpt lat="43.994120464444755" lon="11.363204639761506"><ele>295.0</ele><time>2026-04-19T08:51:18Z</time></trkpt><trkpt lat="43.99428701709116" lon="11.363220302632506"><ele>297.0</ele><time>2026-04-19T08:51:19Z</time></trkpt><trkpt lat="43.99446097515933" lon="11.363247875459118"><ele>299.0</ele><time>2026-04-19T08:51:20Z</time></trkpt><trkpt lat="43.994642568728935" lon="11.3633082139397"><ele>299.0</ele><time>2026-04-19T08:51:21Z</time></trkpt><trkpt lat="43.99483370366138" lon="11.363356979728378"><ele>299.0</ele><time>2026-04-19T08:51:22Z</time></trkpt><trkpt lat="43.99503236590144" lon="11.363421522721515"><ele>299.0</ele><time>2026-04-19T08:51:23Z</time></trkpt><trkpt lat="43.99523715920116" lon="11.363505609247566"><ele>299.33333333333337</ele><time>2026-04-19T08:51:24Z</time></trkpt><trkpt lat="43.99544875494474" lon="11.363577669944096"><ele>299.6666666666667</ele><time>2026-04-19T08:51:25Z</time></trkpt><trkpt lat="43.99564858018664" lon="11.363677634947424"><ele>300.0</ele><time>2026-04-19T08:51:26Z</time></trkpt><trkpt lat="43.995858833134086" lon="11.363773210687048"><ele>305.5</ele><time>2026-04-19T08:51:27Z</time></trkpt><trkpt lat="43.996070638056324" lon="11.363869778896106"><ele>311.0</ele><time>2026-04-19T08:51:28Z</time></trkpt><trkpt lat="43.99628930848778" lon="11.363965780981262"><ele>311.0</ele><time>2026-04-19T08:51:29Z</time></trkpt><trkpt lat="43.99650336822778" lon="11.364059650778199"><ele>311.0</ele><time>2026-04-19T08:51:30Z</time></trkpt><trkpt lat="43.99669840735249" lon="11.364154602326346"><ele>311.0</ele><time>2026-04-19T08:51:31Z</time></trkpt><trkpt lat="43.996900562494034" lon="11.364243352931032"><ele>310.33333333333337</ele><time>2026-04-19T08:51:32Z</time></trkpt><trkpt lat="43.997108922400535" lon="11.364334298964394"><ele>309.6666666666667</ele><time>2026-04-19T08:51:33Z</time></trkpt><trkpt lat="43.99732400255897" lon="11.364431745399378"><ele>309.0</ele><time>2026-04-19T08:51:34Z</time></trkpt><trkpt lat="43.99755096101249" lon="11.364532124487502"><ele>307.5</ele><time>2026-04-19T08:51:35Z</time></trkpt><trkpt lat="43.997791158340654" lon="11.36464316553079"><ele>306.0</ele><time>2026-04-19T08:51:36Z</time></trkpt><trkpt lat="43.99803511888929" lon="11.364759048982062"><ele>306.0</ele><time>2026-04-19T08:51:37Z</time></trkpt><trkpt lat="43.99828018604696" lon="11.364879821663935"><ele>306.0</ele><time>2026-04-19T08:51:38Z</time></trkpt><trkpt lat="43.998522117961066" lon="11.365007166264165"><ele>307.5</ele><time>2026-04-19T08:51:39Z</time></trkpt><trkpt lat="43.99874744463045" lon="11.36512780203098"><ele>309.0</ele><time>2026-04-19T08:51:40Z</time></trkpt><trkpt lat="43.998971497559964" lon="11.36524658363151"><ele>310.5</ele><time>2026-04-19T08:51:41Z</time></trkpt><trkpt lat="43.99919325498501" lon="11.365368276243169"><ele>312.0</ele><time>2026-04-19T08:51:42Z</time></trkpt><trkpt lat="43.99941646154399" lon="11.365488697959064"><ele>313.0</ele><time>2026-04-19T08:51:43Z</time></trkpt><trkpt lat="43.999641085743015" lon="11.365610001030898"><ele>314.0</ele><time>2026-04-19T08:51:44Z</time></trkpt><trkpt lat="43.99985657271486" lon="11.36572677177181"><ele>314.0</ele><time>2026-04-19T08:51:45Z</time></trkpt><trkpt lat="44.00006814849243" lon="11.36583461564197"><ele>314.0</ele><time>2026-04-19T08:51:46Z</time></trkpt><trkpt lat="44.00028099880725" lon="11.365946337260208"><ele>314.0</ele><time>2026-04-19T08:51:47Z</time></trkpt><trkpt lat="44.000492969942705" lon="11.36605588018006"><ele>314.0</ele><time>2026-04-19T08:51:48Z</time></trkpt><trkpt lat="44.00070337612208" lon="11.36616552762653"><ele>313.5</ele><time>2026-04-19T08:51:49Z</time></trkpt><trkpt lat="44.0009114921319" lon="11.366284080778922"><ele>313.0</ele><time>2026-04-19T08:51:50Z</time></trkpt><trkpt lat="44.00111967517202" lon="11.366402458535017"><ele>314.0</ele><time>2026-04-19T08:51:51Z</time></trkpt><trkpt lat="44.00132796922304" lon="11.366515165397697"><ele>315.0</ele><time>2026-04-19T08:51:52Z</time></trkpt><trkpt lat="44.00153079526852" lon="11.366622535353994"><ele>316.0</ele><time>2026-04-19T08:51:53Z</time></trkpt><trkpt lat="44.001729411137546" lon="11.366727580663403"><ele>316.66666666666663</ele><time>2026-04-19T08:51:54Z</time></trkpt><trkpt lat="44.00192740774483" lon="11.366831590113868"><ele>317.3333333333333</ele><time>2026-04-19T08:51:55Z</time></trkpt><trkpt lat="44.002127252219125" lon="11.366935514345776"><ele>318.0</ele><time>2026-04-19T08:51:56Z</time></trkpt><trkpt lat="44.002331576295944" lon="11.367042850693384"><ele>318.3333333333333</ele><time>2026-04-19T08:51:57Z</time></trkpt><trkpt lat="44.002540175188" lon="11.36715719698558"><ele>318.66666666666663</ele><time>2026-04-19T08:51:58Z</time></trkpt><trkpt lat="44.00275021516771" lon="11.36726886776671"><ele>319.0</ele><time>2026-04-19T08:51:59Z</time></trkpt><trkpt lat="44.00294365928576" lon="11.367370925461326"><ele>319.0</ele><time>2026-04-19T08:52:00Z</time></trkpt><trkpt lat="44.00312727390919" lon="11.367468166437817"><ele>319.0</ele><time>2026-04-19T08:52:01Z</time></trkpt><trkpt lat="44.0033050576545" lon="11.36755898602687"><ele>319.0</ele><time>2026-04-19T08:52:02Z</time></trkpt><trkpt lat="44.00348057686217" lon="11.367650376706262"><ele>320.3333333333333</ele><time>2026-04-19T08:52:03Z</time></trkpt><trkpt lat="44.003648658785345" lon="11.367740606135271"><ele>321.6666666666667</ele><time>2026-04-19T08:52:04Z</time></trkpt><trkpt lat="44.00380486544868" lon="11.367814656608001"><ele>323.0</ele><time>2026-04-19T08:52:05Z</time></trkpt><trkpt lat="44.00395568191478" lon="11.367866550782631"><ele>323.0</ele><time>2026-04-19T08:52:06Z</time></trkpt><trkpt lat="44.00410709165455" lon="11.367894136478279"><ele>323.0</ele><time>2026-04-19T08:52:07Z</time></trkpt><trkpt lat="44.00426566217379" lon="11.367889360321204"><ele>323.0</ele><time>2026-04-19T08:52:08Z</time></trkpt><trkpt lat="44.0044325486923" lon="11.367854353049127"><ele>322.33333333333337</ele><time>2026-04-19T08:52:09Z</time></trkpt><trkpt lat="44.004594763693916" lon="11.36779791896072"><ele>321.6666666666667</ele><time>2026-04-19T08:52:10Z</time></trkpt><trkpt lat="44.00473799811154" lon="11.367722081712055"><ele>321.0</ele><time>2026-04-19T08:52:11Z</time></trkpt><trkpt lat="44.004878120423264" lon="11.367616152150285"><ele>321.3333333333333</ele><time>2026-04-19T08:52:12Z</time></trkpt><trkpt lat="44.00501266518161" lon="11.367476578686762"><ele>321.66666666666663</ele><time>2026-04-19T08:52:13Z</time></trkpt><trkpt lat="44.00514769318584" lon="11.367305974281598"><ele>322.0</ele><time>2026-04-19T08:52:14Z</time></trkpt><trkpt lat="44.00528082779863" lon="11.36710861356524"><ele>322.0</ele><time>2026-04-19T08:52:15Z</time></trkpt><trkpt lat="44.00540751193969" lon="11.3669103350207"><ele>322.0</ele><time>2026-04-19T08:52:16Z</time></trkpt><trkpt lat="44.005521416016364" lon="11.366721376273441"><ele>322.0</ele><time>2026-04-19T08:52:17Z</time></trkpt><trkpt lat="44.00562223280187" lon="11.366560762256379"><ele>322.0</ele><time>2026-04-19T08:52:18Z</time></trkpt><trkpt lat="44.005710695269514" lon="11.366424088064656"><ele>322.0</ele><time>2026-04-19T08:52:19Z</time></trkpt><trkpt lat="44.00579562236137" lon="11.366299494687333"><ele>322.0</ele><time>2026-04-19T08:52:20Z</time></trkpt><trkpt lat="44.00587226439397" lon="11.366191523576646"><ele>322.0</ele><time>2026-04-19T08:52:21Z</time></trkpt><trkpt lat="44.00593491875289" lon="11.366090957259564"><ele>322.5</ele><time>2026-04-19T08:52:22Z</time></trkpt><trkpt lat="44.00597579935725" lon="11.36600855957454"><ele>323.0</ele><time>2026-04-19T08:52:23Z</time></trkpt><trkpt lat="44.00611197841327" lon="11.366053803983235"><ele>323.5</ele><time>2026-04-19T08:52:24Z</time></trkpt><trkpt lat="44.00618448781769" lon="11.366072815451583"><ele>324.0</ele><time>2026-04-19T08:52:25Z</time></trkpt><trkpt lat="44.006251840413164" lon="11.366117453493674"><ele>324.5</ele><time>2026-04-19T08:52:26Z</time></trkpt><trkpt lat="44.00633063647266" lon="11.366174956650175"><ele>325.0</ele><time>2026-04-19T08:52:27Z</time></trkpt><trkpt lat="44.006407612228706" lon="11.36622887544076"><ele>325.0</ele><time>2026-04-19T08:52:28Z</time></trkpt><trkpt lat="44.006490400034394" lon="11.366295715561348"><ele>325.0</ele><time>2026-04-19T08:52:29Z</time></trkpt><trkpt lat="44.00658415425112" lon="11.36638365837884"><ele>325.0</ele><time>2026-04-19T08:52:30Z</time></trkpt><trkpt lat="44.00669218289947" lon="11.366484155164926"><ele>325.0</ele><time>2026-04-19T08:52:31Z</time></trkpt><trkpt lat="44.00681213982057" lon="11.366597606491524"><ele>325.3333333333333</ele><time>2026-04-19T08:52:32Z</time></trkpt><trkpt lat="44.00693405896659" lon="11.366713830469662"><ele>325.6666666666667</ele><time>2026-04-19T08:52:33Z</time></trkpt><trkpt lat="44.00706631577916" lon="11.366841075121805"><ele>326.0</ele><time>2026-04-19T08:52:34Z</time></trkpt><trkpt lat="44.00719833608153" lon="11.366962172633116"><ele>326.0</ele><time>2026-04-19T08:52:35Z</time></trkpt><trkpt lat="44.007330989739" lon="11.367055926064046"><ele>326.0</ele><time>2026-04-19T08:52:36Z</time></trkpt><trkpt lat="44.007459055907844" lon="11.367121123091161"><ele>326.0</ele><time>2026-04-19T08:52:37Z</time></trkpt><trkpt lat="44.00758167260812" lon="11.367155802643442"><ele>326.0</ele><time>2026-04-19T08:52:38Z</time></trkpt><trkpt lat="44.00769812433073" lon="11.367167098186338"><ele>326.0</ele><time>2026-04-19T08:52:39Z</time></trkpt><trkpt lat="44.00781203660493" lon="11.367178437382575"><ele>326.0</ele><time>2026-04-19T08:52:40Z</time></trkpt><trkpt lat="44.007924289688106" lon="11.36718768621821"><ele>326.0</ele><time>2026-04-19T08:52:41Z</time></trkpt><trkpt lat="44.0080248836304" lon="11.367191144154408"><ele>326.0</ele><time>2026-04-19T08:52:42Z</time></trkpt><trkpt lat="44.00813181279946" lon="11.367189452786604"><ele>326.0</ele><time>2026-04-19T08:52:43Z</time></trkpt><trkpt lat="44.00825491549955" lon="11.367189725649322"><ele>327.33333333333337</ele><time>2026-04-19T08:52:44Z</time></trkpt><trkpt lat="44.008391528355645" lon="11.367203754631667"><ele>328.6666666666667</ele><time>2026-04-19T08:52:45Z</time></trkpt><trkpt lat="44.00853923871131" lon="11.367245278639352"><ele>330.0</ele><time>2026-04-19T08:52:46Z</time></trkpt><trkpt lat="44.00869575072431" lon="11.367305646391095"><ele>330.0</ele><time>2026-04-19T08:52:47Z</time></trkpt><trkpt lat="44.00886148355724" lon="11.36737975541153"><ele>330.0</ele><time>2026-04-19T08:52:48Z</time></trkpt><trkpt lat="44.00903499828698" lon="11.367467384149167"><ele>330.0</ele><time>2026-04-19T08:52:49Z</time></trkpt><trkpt lat="44.009217450228626" lon="11.367554884366877"><ele>331.6666666666667</ele><time>2026-04-19T08:52:50Z</time></trkpt><trkpt lat="44.00939879108591" lon="11.367640982957209"><ele>333.33333333333337</ele><time>2026-04-19T08:52:51Z</time></trkpt><trkpt lat="44.00959271426927" lon="11.367733538202264"><ele>335.0</ele><time>2026-04-19T08:52:52Z</time></trkpt><trkpt lat="44.00979537844135" lon="11.367830638281466"><ele>336.33333333333337</ele><time>2026-04-19T08:52:53Z</time></trkpt><trkpt lat="44.01000662724467" lon="11.367934798370245"><ele>337.6666666666667</ele><time>2026-04-19T08:52:54Z</time></trkpt><trkpt lat="44.01020457801353" lon="11.368036786694477"><ele>339.0</ele><time>2026-04-19T08:52:55Z</time></trkpt><trkpt lat="44.01038263721957" lon="11.36813510334963"><ele>339.0</ele><time>2026-04-19T08:52:56Z</time></trkpt><trkpt lat="44.010558173137966" lon="11.36823544377385"><ele>339.0</ele><time>2026-04-19T08:52:57Z</time></trkpt><trkpt lat="44.01073345294967" lon="11.368331512185781"><ele>339.0</ele><time>2026-04-19T08:52:58Z</time></trkpt><trkpt lat="44.0109031996419" lon="11.368416816852601"><ele>341.6666666666667</ele><time>2026-04-19T08:52:59Z</time></trkpt><trkpt lat="44.01106388972834" lon="11.368470326984447"><ele>344.33333333333337</ele><time>2026-04-19T08:53:00Z</time></trkpt><trkpt lat="44.01123451375803" lon="11.368493090943451"><ele>347.0</ele><time>2026-04-19T08:53:01Z</time></trkpt><trkpt lat="44.01141537889382" lon="11.368483808197785"><ele>347.0</ele><time>2026-04-19T08:53:02Z</time></trkpt><trkpt lat="44.01160197504148" lon="11.368450787248678"><ele>347.0</ele><time>2026-04-19T08:53:03Z</time></trkpt><trkpt lat="44.01179235346019" lon="11.368411788152951"><ele>347.0</ele><time>2026-04-19T08:53:04Z</time></trkpt><trkpt lat="44.011966377952206" lon="11.368384208877378"><ele>348.25</ele><time>2026-04-19T08:53:05Z</time></trkpt><trkpt lat="44.01211352418476" lon="11.36836398625333"><ele>349.5</ele><time>2026-04-19T08:53:06Z</time></trkpt><trkpt lat="44.0122483771907" lon="11.368377934684782"><ele>350.75</ele><time>2026-04-19T08:53:07Z</time></trkpt><trkpt lat="44.012372614609646" lon="11.368439354642843"><ele>352.0</ele><time>2026-04-19T08:53:08Z</time></trkpt><trkpt lat="44.01250017896748" lon="11.368542974730993"><ele>352.0</ele><time>2026-04-19T08:53:09Z</time></trkpt><trkpt lat="44.01262606160284" lon="11.368683074359401"><ele>352.0</ele><time>2026-04-19T08:53:10Z</time></trkpt><trkpt lat="44.01275721286591" lon="11.368836984086478"><ele>352.0</ele><time>2026-04-19T08:53:11Z</time></trkpt><trkpt lat="44.01289753864413" lon="11.368989524677415"><ele>352.66666666666663</ele><time>2026-04-19T08:53:12Z</time></trkpt><trkpt lat="44.01301958370974" lon="11.36912520148286"><ele>353.3333333333333</ele><time>2026-04-19T08:53:13Z</time></trkpt><trkpt lat="44.01312670399838" lon="11.369273777239188"><ele>354.0</ele><time>2026-04-19T08:53:14Z</time></trkpt><trkpt lat="44.013223931884426" lon="11.36946670900624"><ele>354.0</ele><time>2026-04-19T08:53:15Z</time></trkpt><trkpt lat="44.0133098499481" lon="11.369687825465295"><ele>354.0</ele><time>2026-04-19T08:53:16Z</time></trkpt><trkpt lat="44.01339597769671" lon="11.369920046255245"><ele>354.0</ele><time>2026-04-19T08:53:17Z</time></trkpt><trkpt lat="44.013485210431284" lon="11.370161456108566"><ele>358.0</ele><time>2026-04-19T08:53:18Z</time></trkpt><trkpt lat="44.01358518719105" lon="11.370383600091358"><ele>362.0</ele><time>2026-04-19T08:53:19Z</time></trkpt><trkpt lat="44.013701149172626" lon="11.370553488450714"><ele>366.0</ele><time>2026-04-19T08:53:20Z</time></trkpt><trkpt lat="44.01384853655227" lon="11.370692469450717"><ele>366.3333333333333</ele><time>2026-04-19T08:53:21Z</time></trkpt><trkpt lat="44.0140211148" lon="11.370798705054352"><ele>366.66666666666663</ele><time>2026-04-19T08:53:22Z</time></trkpt><trkpt lat="44.014202174585634" lon="11.370903504993537"><ele>367.0</ele><time>2026-04-19T08:53:23Z</time></trkpt><trkpt lat="44.01437433568069" lon="11.371032978783813"><ele>368.3333333333333</ele><time>2026-04-19T08:53:24Z</time></trkpt><trkpt lat="44.01455228871697" lon="11.371145449831076"><ele>369.6666666666667</ele><time>2026-04-19T08:53:25Z</time></trkpt><trkpt lat="44.014754520918544" lon="11.37121750868671"><ele>371.0</ele><time>2026-04-19T08:53:26Z</time></trkpt><trkpt lat="44.01494233339865" lon="11.371275435740179"><ele>374.6666666666667</ele><time>2026-04-19T08:53:27Z</time></trkpt><trkpt lat="44.01510409980011" lon="11.371306367387252"><ele>378.3333333333333</ele><time>2026-04-19T08:53:28Z</time></trkpt><trkpt lat="44.01525801760999" lon="11.371285243694544"><ele>382.0</ele><time>2026-04-19T08:53:29Z</time></trkpt><trkpt lat="44.01540736913006" lon="11.371212544890778"><ele>382.0</ele><time>2026-04-19T08:53:30Z</time></trkpt><trkpt lat="44.015537608894995" lon="11.371125983661031"><ele>382.0</ele><time>2026-04-19T08:53:31Z</time></trkpt><trkpt lat="44.01567841395121" lon="11.371081977845678"><ele>382.0</ele><time>2026-04-19T08:53:32Z</time></trkpt><trkpt lat="44.015832693549186" lon="11.371100499285522"><ele>382.0</ele><time>2026-04-19T08:53:33Z</time></trkpt><trkpt lat="44.01596505467432" lon="11.371188489747228"><ele>383.5</ele><time>2026-04-19T08:53:34Z</time></trkpt><trkpt lat="44.01609465659912" lon="11.371264555016403"><ele>385.0</ele><time>2026-04-19T08:53:35Z</time></trkpt><trkpt lat="44.01620068494855" lon="11.37129399401135"><ele>386.5</ele><time>2026-04-19T08:53:36Z</time></trkpt><trkpt lat="44.01630175851962" lon="11.371255877977688"><ele>388.0</ele><time>2026-04-19T08:53:37Z</time></trkpt><trkpt lat="44.01638905565748" lon="11.371117186957104"><ele>388.0</ele><time>2026-04-19T08:53:38Z</time></trkpt><trkpt lat="44.01648155689722" lon="11.37095695936173"><ele>388.0</ele><time>2026-04-19T08:53:39Z</time></trkpt><trkpt lat="44.01657906727328" lon="11.370794111641285"><ele>388.0</ele><time>2026-04-19T08:53:40Z</time></trkpt><trkpt lat="44.01670664332556" lon="11.370629040531036"><ele>387.0</ele><time>2026-04-19T08:53:41Z</time></trkpt><trkpt lat="44.01687479629987" lon="11.370522868259311"><ele>386.0</ele><time>2026-04-19T08:53:42Z</time></trkpt><trkpt lat="44.01704337441629" lon="11.370425355086216"><ele>385.0</ele><time>2026-04-19T08:53:43Z</time></trkpt><trkpt lat="44.017185731225794" lon="11.370349753626293"><ele>385.0</ele><time>2026-04-19T08:53:44Z</time></trkpt><trkpt lat="44.01730397895554" lon="11.37031665329095"><ele>385.0</ele><time>2026-04-19T08:53:45Z</time></trkpt><trkpt lat="44.01741646554613" lon="11.370293721009856"><ele>385.0</ele><time>2026-04-19T08:53:46Z</time></trkpt><trkpt lat="44.017529068462586" lon="11.370450950372861"><ele>385.0</ele><time>2026-04-19T08:53:47Z</time></trkpt><trkpt lat="44.01767997306716" lon="11.370585671455194"><ele>384.33333333333337</ele><time>2026-04-19T08:53:48Z</time></trkpt><trkpt lat="44.01784020514164" lon="11.370715646130266"><ele>383.6666666666667</ele><time>2026-04-19T08:53:49Z</time></trkpt><trkpt lat="44.01799790159344" lon="11.37085268732847"><ele>383.0</ele><time>2026-04-19T08:53:50Z</time></trkpt><trkpt lat="44.018133505721906" lon="11.370966554791659"><ele>383.0</ele><time>2026-04-19T08:53:51Z</time></trkpt><trkpt lat="44.018264925972495" lon="11.371026898269765"><ele>383.0</ele><time>2026-04-19T08:53:52Z</time></trkpt><trkpt lat="44.018391095869355" lon="11.371033450552035"><ele>383.0</ele><time>2026-04-19T08:53:53Z</time></trkpt><trkpt lat="44.018528385778076" lon="11.370977583470195"><ele>383.0</ele><time>2026-04-19T08:53:54Z</time></trkpt><trkpt lat="44.01866110891443" lon="11.370882183464625"><ele>386.0</ele><time>2026-04-19T08:53:55Z</time></trkpt><trkpt lat="44.018806457329" lon="11.370733029682533"><ele>389.0</ele><time>2026-04-19T08:53:56Z</time></trkpt><trkpt lat="44.01897703251167" lon="11.370633991322052"><ele>392.0</ele><time>2026-04-19T08:53:57Z</time></trkpt><trkpt lat="44.01913517408744" lon="11.37048013708351"><ele>391.66666666666663</ele><time>2026-04-19T08:53:58Z</time></trkpt><trkpt lat="44.0193060994118" lon="11.370364493936536"><ele>391.33333333333337</ele><time>2026-04-19T08:53:59Z</time></trkpt><trkpt lat="44.01945540166296" lon="11.370229602003604"><ele>391.0</ele><time>2026-04-19T08:54:00Z</time></trkpt><trkpt lat="44.01961497575792" lon="11.370143518259434"><ele>391.0</ele><time>2026-04-19T08:54:01Z</time></trkpt><trkpt lat="44.01976678492823" lon="11.370120048278618"><ele>391.0</ele><time>2026-04-19T08:54:02Z</time></trkpt><trkpt lat="44.019909589071496" lon="11.370105471284809"><ele>391.0</ele><time>2026-04-19T08:54:03Z</time></trkpt><trkpt lat="44.02001092877458" lon="11.370093290360419"><ele>391.0</ele><time>2026-04-19T08:54:04Z</time></trkpt><trkpt lat="44.0200759988645" lon="11.370083023833907"><ele>393.0</ele><time>2026-04-19T08:54:05Z</time></trkpt><trkpt lat="44.02016483106079" lon="11.370070476550048"><ele>395.0</ele><time>2026-04-19T08:54:07.001Z</time></trkpt><trkpt lat="44.02023610244815" lon="11.370029337541824"><ele>397.0</ele><time>2026-04-19T08:54:11.001Z</time></trkpt><trkpt lat="44.020300685642916" lon="11.369986411407035"><ele>399.0</ele><time>2026-04-19T08:55:10Z</time></trkpt><trkpt lat="44.02043049016751" lon="11.369937107863027"><ele>401.0</ele><time>2026-04-19T08:55:12Z</time></trkpt><trkpt lat="44.020525337772455" lon="11.36994969962485"><ele>401.0</ele><time>2026-04-19T08:55:13Z</time></trkpt><trkpt lat="44.020614186740886" lon="11.370043223573134"><ele>401.0</ele><time>2026-04-19T08:55:14Z</time></trkpt><trkpt lat="44.02072572897599" lon="11.370101748304144"><ele>401.0</ele><time>2026-04-19T08:55:15Z</time></trkpt><trkpt lat="44.02083312096227" lon="11.370244241338513"><ele>401.0</ele><time>2026-04-19T08:55:16Z</time></trkpt><trkpt lat="44.0209445652677" lon="11.370392482711798"><ele>402.75</ele><time>2026-04-19T08:55:17Z</time></trkpt><trkpt lat="44.02107056539251" lon="11.370492825925263"><ele>404.5</ele><time>2026-04-19T08:55:18Z</time></trkpt><trkpt lat="44.02121612096438" lon="11.370571877739227"><ele>406.25</ele><time>2026-04-19T08:55:19Z</time></trkpt><trkpt lat="44.02135812937947" lon="11.370625366612058"><ele>408.0</ele><time>2026-04-19T08:55:20Z</time></trkpt><trkpt lat="44.021485463614596" lon="11.37065344769124"><ele>408.0</ele><time>2026-04-19T08:55:21Z</time></trkpt><trkpt lat="44.021608729311545" lon="11.370639902303113"><ele>408.0</ele><time>2026-04-19T08:55:22Z</time></trkpt><trkpt lat="44.02173492732107" lon="11.37057235576755"><ele>408.0</ele><time>2026-04-19T08:55:23Z</time></trkpt><trkpt lat="44.021873038156315" lon="11.370486188712531"><ele>408.0</ele><time>2026-04-19T08:55:24Z</time></trkpt><trkpt lat="44.022027601343694" lon="11.370422289737139"><ele>410.0</ele><time>2026-04-19T08:55:25Z</time></trkpt><trkpt lat="44.022165830371826" lon="11.370404058529191"><ele>412.0</ele><time>2026-04-19T08:55:26Z</time></trkpt><trkpt lat="44.02229753874646" lon="11.370450425582817"><ele>414.0</ele><time>2026-04-19T08:55:27Z</time></trkpt><trkpt lat="44.022421279662" lon="11.370553945836148"><ele>416.0</ele><time>2026-04-19T08:55:28Z</time></trkpt><trkpt lat="44.02252598924238" lon="11.3706215452871"><ele>419.0</ele><time>2026-04-19T08:55:29Z</time></trkpt><trkpt lat="44.02265065497776" lon="11.37061423826418"><ele>422.0</ele><time>2026-04-19T08:55:30Z</time></trkpt><trkpt lat="44.02275631788876" lon="11.370590071338443"><ele>425.0</ele><time>2026-04-19T08:55:31Z</time></trkpt><trkpt lat="44.02286143575693" lon="11.37057524657889"><ele>428.0</ele><time>2026-04-19T08:55:32Z</time></trkpt><trkpt lat="44.02300575253982" lon="11.370536931982544"><ele>431.0</ele><time>2026-04-19T08:55:33Z</time></trkpt><trkpt lat="44.02317619706988" lon="11.370479117909039"><ele>434.0</ele><time>2026-04-19T08:55:34Z</time></trkpt><trkpt lat="44.02333944781361" lon="11.370438443563675"><ele>437.0</ele><time>2026-04-19T08:55:35Z</time></trkpt><trkpt lat="44.02350253563448" lon="11.370416030685314"><ele>439.0</ele><time>2026-04-19T08:55:36Z</time></trkpt><trkpt lat="44.02363070116118" lon="11.370363111664384"><ele>441.0</ele><time>2026-04-19T08:55:37Z</time></trkpt><trkpt lat="44.02376846539064" lon="11.370302146548227"><ele>443.0</ele><time>2026-04-19T08:55:38Z</time></trkpt><trkpt lat="44.0238906172301" lon="11.370187706503357"><ele>445.0</ele><time>2026-04-19T08:55:39Z</time></trkpt><trkpt lat="44.02400512529044" lon="11.370010405710227"><ele>445.0</ele><time>2026-04-19T08:55:40Z</time></trkpt><trkpt lat="44.024095656032564" lon="11.369847670369687"><ele>445.0</ele><time>2026-04-19T08:55:41Z</time></trkpt><trkpt lat="44.02419007541729" lon="11.369737985343118"><ele>445.0</ele><time>2026-04-19T08:55:42Z</time></trkpt><trkpt lat="44.02432582035495" lon="11.369702529292796"><ele>445.0</ele><time>2026-04-19T08:55:43Z</time></trkpt><trkpt lat="44.024471255063894" lon="11.369712851465419"><ele>445.33333333333337</ele><time>2026-04-19T08:55:44Z</time></trkpt><trkpt lat="44.02463434611418" lon="11.369738755596824"><ele>445.66666666666663</ele><time>2026-04-19T08:55:45Z</time></trkpt><trkpt lat="44.02481424396085" lon="11.369761046657601"><ele>446.0</ele><time>2026-04-19T08:55:46Z</time></trkpt><trkpt lat="44.025000486452974" lon="11.369783326626541"><ele>450.0</ele><time>2026-04-19T08:55:47Z</time></trkpt><trkpt lat="44.02518064382147" lon="11.36982505699002"><ele>454.0</ele><time>2026-04-19T08:55:48Z</time></trkpt><trkpt lat="44.02535104906699" lon="11.369908730135858"><ele>458.0</ele><time>2026-04-19T08:55:49Z</time></trkpt><trkpt lat="44.025513908485905" lon="11.369996529161364"><ele>458.0</ele><time>2026-04-19T08:55:50Z</time></trkpt><trkpt lat="44.02566887268584" lon="11.37011236185352"><ele>458.0</ele><time>2026-04-19T08:55:51Z</time></trkpt><trkpt lat="44.02582339372327" lon="11.370239090950902"><ele>458.0</ele><time>2026-04-19T08:55:52Z</time></trkpt><trkpt lat="44.02599204803887" lon="11.370357194088227"><ele>461.0</ele><time>2026-04-19T08:55:53Z</time></trkpt><trkpt lat="44.02615311830331" lon="11.370498867832628"><ele>464.0</ele><time>2026-04-19T08:55:54Z</time></trkpt><trkpt lat="44.02629174121196" lon="11.370619322844401"><ele>467.0</ele><time>2026-04-19T08:55:55Z</time></trkpt><trkpt lat="44.026422315264234" lon="11.370709207142394"><ele>469.0</ele><time>2026-04-19T08:55:56Z</time></trkpt><trkpt lat="44.026567318555706" lon="11.370768729583713"><ele>471.0</ele><time>2026-04-19T08:55:57Z</time></trkpt><trkpt lat="44.0267326789356" lon="11.37078651246356"><ele>473.0</ele><time>2026-04-19T08:55:58Z</time></trkpt><trkpt lat="44.02690605156868" lon="11.37076551878042"><ele>474.66666666666663</ele><time>2026-04-19T08:55:59Z</time></trkpt><trkpt lat="44.02708604868661" lon="11.370751294856696"><ele>476.33333333333337</ele><time>2026-04-19T08:56:00Z</time></trkpt><trkpt lat="44.02727179470541" lon="11.370734430956672"><ele>478.0</ele><time>2026-04-19T08:56:01Z</time></trkpt><trkpt lat="44.02745904536958" lon="11.370723341498822"><ele>481.0</ele><time>2026-04-19T08:56:02Z</time></trkpt><trkpt lat="44.02764092527117" lon="11.370695348627548"><ele>484.0</ele><time>2026-04-19T08:56:03Z</time></trkpt><trkpt lat="44.027820393480674" lon="11.370671585446383"><ele>487.0</ele><time>2026-04-19T08:56:04Z</time></trkpt><trkpt lat="44.0279781882519" lon="11.370597599020618"><ele>487.0</ele><time>2026-04-19T08:56:05Z</time></trkpt><trkpt lat="44.02812150247061" lon="11.370542117516369"><ele>487.0</ele><time>2026-04-19T08:56:06Z</time></trkpt><trkpt lat="44.028276485270815" lon="11.370538770755127"><ele>487.0</ele><time>2026-04-19T08:56:07Z</time></trkpt><trkpt lat="44.028443669383535" lon="11.370537647172196"><ele>483.75</ele><time>2026-04-19T08:56:08Z</time></trkpt><trkpt lat="44.02861749617745" lon="11.3705235398186"><ele>480.5</ele><time>2026-04-19T08:56:09Z</time></trkpt><trkpt lat="44.028751074463116" lon="11.370529783893087"><ele>477.25</ele><time>2026-04-19T08:56:10Z</time></trkpt><trkpt lat="44.02885219949899" lon="11.370534026607018"><ele>474.0</ele><time>2026-04-19T08:56:11Z</time></trkpt><trkpt lat="44.02892547066766" lon="11.370578605811763"><ele>478.3333333333333</ele><time>2026-04-19T08:56:12Z</time></trkpt><trkpt lat="44.028955668540384" lon="11.370669584180218"><ele>482.66666666666663</ele><time>2026-04-19T08:56:13.001Z</time></trkpt><trkpt lat="44.02893472819" lon="11.370758911034503"><ele>487.0</ele><time>2026-04-19T08:56:14.001Z</time></trkpt><trkpt lat="44.02887624534257" lon="11.370800830205203"><ele>491.3333333333333</ele><time>2026-04-19T08:56:15.001Z</time></trkpt><trkpt lat="44.028782109722215" lon="11.370784017716117"><ele>495.66666666666663</ele><time>2026-04-19T08:56:16.001Z</time></trkpt><trkpt lat="44.02867602737271" lon="11.370755669405609"><ele>500.0</ele><time>2026-04-19T08:56:17.001Z</time></trkpt><trkpt lat="44.028547098619924" lon="11.370754578202337"><ele>500.0</ele><time>2026-04-19T08:56:18.001Z</time></trkpt><trkpt lat="44.028402094002246" lon="11.370786221997053"><ele>500.0</ele><time>2026-04-19T08:56:19.001Z</time></trkpt><trkpt lat="44.02825106717735" lon="11.370843190193302"><ele>500.0</ele><time>2026-04-19T08:56:20.001Z</time></trkpt><trkpt lat="44.02810996757389" lon="11.370926176222271"><ele>495.66666666666663</ele><time>2026-04-19T08:56:21.001Z</time></trkpt><trkpt lat="44.027971951692294" lon="11.371027641892058"><ele>491.33333333333337</ele><time>2026-04-19T08:56:22.001Z</time></trkpt><trkpt lat="44.0278339543461" lon="11.371147627485351"><ele>487.0</ele><time>2026-04-19T08:56:23.001Z</time></trkpt><trkpt lat="44.027689217666534" lon="11.371265410770334"><ele>489.5</ele><time>2026-04-19T08:56:24.001Z</time></trkpt><trkpt lat="44.02755778459563" lon="11.371368046210918"><ele>492.0</ele><time>2026-04-19T08:56:25.001Z</time></trkpt><trkpt lat="44.027454234044036" lon="11.371452700758065"><ele>494.5</ele><time>2026-04-19T08:56:26.001Z</time></trkpt><trkpt lat="44.02737580858606" lon="11.37155353097433"><ele>497.0</ele><time>2026-04-19T08:56:27.001Z</time></trkpt><trkpt lat="44.02732773276847" lon="11.371683936204631"><ele>497.0</ele><time>2026-04-19T08:56:28.001Z</time></trkpt><trkpt lat="44.02732067918827" lon="11.371850963016241"><ele>497.0</ele><time>2026-04-19T08:56:29.001Z</time></trkpt><trkpt lat="44.02733988702761" lon="11.372016198763017"><ele>497.0</ele><time>2026-04-19T08:56:30.001Z</time></trkpt><trkpt lat="44.027310933175" lon="11.372152832626536"><ele>497.0</ele><time>2026-04-19T08:56:31.001Z</time></trkpt><trkpt lat="44.02720089715996" lon="11.372218765186618"><ele>501.75</ele><time>2026-04-19T08:56:32.001Z</time></trkpt><trkpt lat="44.02706800724038" lon="11.372270972471819"><ele>506.5</ele><time>2026-04-19T08:56:33.001Z</time></trkpt><trkpt lat="44.026956065353644" lon="11.372349272569556"><ele>511.25</ele><time>2026-04-19T08:56:34.001Z</time></trkpt><trkpt lat="44.02687653292272" lon="11.372481958277183"><ele>516.0</ele><time>2026-04-19T08:56:35.001Z</time></trkpt><trkpt lat="44.02683283834244" lon="11.372669190446738"><ele>516.0</ele><time>2026-04-19T08:56:36.001Z</time></trkpt><trkpt lat="44.02675869000424" lon="11.372812888326647"><ele>516.0</ele><time>2026-04-19T08:56:37.001Z</time></trkpt><trkpt lat="44.02663633511287" lon="11.372862153319982"><ele>516.0</ele><time>2026-04-19T08:56:38.001Z</time></trkpt><trkpt lat="44.026490735664545" lon="11.372880606706458"><ele>516.0</ele><time>2026-04-19T08:56:39.001Z</time></trkpt><trkpt lat="44.026364940136716" lon="11.372917404558981"><ele>517.5</ele><time>2026-04-19T08:56:40.001Z</time></trkpt><trkpt lat="44.0262465899863" lon="11.372989207680146"><ele>519.0</ele><time>2026-04-19T08:56:41.001Z</time></trkpt><trkpt lat="44.026144210675504" lon="11.373118841313174"><ele>520.5</ele><time>2026-04-19T08:56:42.001Z</time></trkpt><trkpt lat="44.02605624281475" lon="11.373307305405453"><ele>522.0</ele><time>2026-04-19T08:56:43.001Z</time></trkpt><trkpt lat="44.02597243565995" lon="11.373489291908934"><ele>522.0</ele><time>2026-04-19T08:56:44.001Z</time></trkpt><trkpt lat="44.025902891993155" lon="11.373655188992677"><ele>522.0</ele><time>2026-04-19T08:56:45.001Z</time></trkpt><trkpt lat="44.025871205738916" lon="11.373824140745427"><ele>522.0</ele><time>2026-04-19T08:56:46.001Z</time></trkpt><trkpt lat="44.02588757354454" lon="11.373994141532535"><ele>522.0</ele><time>2026-04-19T08:56:47.001Z</time></trkpt><trkpt lat="44.02594967153315" lon="11.374172649220295"><ele>524.0</ele><time>2026-04-19T08:56:48.001Z</time></trkpt><trkpt lat="44.02604470943019" lon="11.374353517430965"><ele>526.0</ele><time>2026-04-19T08:56:49.001Z</time></trkpt><trkpt lat="44.02616207508115" lon="11.374519680134503"><ele>528.0</ele><time>2026-04-19T08:56:50.001Z</time></trkpt><trkpt lat="44.0263025022751" lon="11.374660818415782"><ele>533.3333333333334</ele><time>2026-04-19T08:56:51.001Z</time></trkpt><trkpt lat="44.02645944061874" lon="11.374792869540938"><ele>538.6666666666667</ele><time>2026-04-19T08:56:52.001Z</time></trkpt><trkpt lat="44.02662302902761" lon="11.374937812411439"><ele>544.0</ele><time>2026-04-19T08:56:53.001Z</time></trkpt><trkpt lat="44.02678957692751" lon="11.375085489962553"><ele>544.0</ele><time>2026-04-19T08:56:54.001Z</time></trkpt><trkpt lat="44.02694627077879" lon="11.375235827506254"><ele>544.0</ele><time>2026-04-19T08:56:55.001Z</time></trkpt><trkpt lat="44.02713120139569" lon="11.375340106825892"><ele>544.0</ele><time>2026-04-19T08:56:56.001Z</time></trkpt><trkpt lat="44.02729328539013" lon="11.375438620875055"><ele>548.3333333333334</ele><time>2026-04-19T08:56:57.001Z</time></trkpt><trkpt lat="44.02743295613847" lon="11.375538834008886"><ele>552.6666666666666</ele><time>2026-04-19T08:56:58.001Z</time></trkpt><trkpt lat="44.02756757241714" lon="11.375638635030109"><ele>557.0</ele><time>2026-04-19T08:56:59.001Z</time></trkpt><trkpt lat="44.02766058731562" lon="11.375792800838461"><ele>557.0</ele><time>2026-04-19T08:57:00.001Z</time></trkpt><trkpt lat="44.0277121198869" lon="11.376016724373041"><ele>557.0</ele><time>2026-04-19T08:57:01.001Z</time></trkpt><trkpt lat="44.027779366535036" lon="11.376187989039831"><ele>557.0</ele><time>2026-04-19T08:57:02.001Z</time></trkpt><trkpt lat="44.02790165019023" lon="11.376346784009174"><ele>559.3333333333333</ele><time>2026-04-19T08:57:03.001Z</time></trkpt><trkpt lat="44.028047475465115" lon="11.376474268604106"><ele>561.6666666666666</ele><time>2026-04-19T08:57:04.001Z</time></trkpt><trkpt lat="44.02819601338063" lon="11.37660727787967"><ele>564.0</ele><time>2026-04-19T08:57:05.001Z</time></trkpt><trkpt lat="44.02835979525387" lon="11.376739028963442"><ele>564.0</ele><time>2026-04-19T08:57:06.001Z</time></trkpt><trkpt lat="44.02850637789083" lon="11.376850242305155"><ele>564.0</ele><time>2026-04-19T08:57:07.001Z</time></trkpt><trkpt lat="44.028668380222705" lon="11.3769404903329"><ele>564.0</ele><time>2026-04-19T08:57:08.001Z</time></trkpt><trkpt lat="44.02883326672185" lon="11.376982762909371"><ele>564.0</ele><time>2026-04-19T08:57:09.001Z</time></trkpt><trkpt lat="44.0289820006329" lon="11.37700269922236"><ele>564.0</ele><time>2026-04-19T08:57:10.001Z</time></trkpt><trkpt lat="44.0291063654366" lon="11.377065993115792"><ele>564.0</ele><time>2026-04-19T08:57:11.001Z</time></trkpt><trkpt lat="44.029190291965875" lon="11.377191266610522"><ele>564.0</ele><time>2026-04-19T08:57:12.001Z</time></trkpt><trkpt lat="44.02921806063447" lon="11.37735704152976"><ele>563.75</ele><time>2026-04-19T08:57:13.001Z</time></trkpt><trkpt lat="44.0291929447353" lon="11.377538555606476"><ele>563.5</ele><time>2026-04-19T08:57:14.001Z</time></trkpt><trkpt lat="44.029175718272825" lon="11.377703113215297"><ele>563.25</ele><time>2026-04-19T08:57:15.001Z</time></trkpt><trkpt lat="44.02919899680424" lon="11.377864404625257"><ele>563.0</ele><time>2026-04-19T08:57:16.001Z</time></trkpt><trkpt lat="44.0292659550692" lon="11.378021084469621"><ele>563.0</ele><time>2026-04-19T08:57:17.001Z</time></trkpt><trkpt lat="44.029378920019674" lon="11.378146883692898"><ele>563.0</ele><time>2026-04-19T08:57:18.001Z</time></trkpt><trkpt lat="44.02952402879988" lon="11.37825559427253"><ele>563.0</ele><time>2026-04-19T08:57:19.001Z</time></trkpt><trkpt lat="44.029646355847" lon="11.378352067304748"><ele>563.0</ele><time>2026-04-19T08:57:20.001Z</time></trkpt><trkpt lat="44.029774904217625" lon="11.378404306734183"><ele>563.0</ele><time>2026-04-19T08:57:21.001Z</time></trkpt><trkpt lat="44.02990950123931" lon="11.378393939741057"><ele>563.0</ele><time>2026-04-19T08:57:22.001Z</time></trkpt><trkpt lat="44.03003277674206" lon="11.378342002282746"><ele>563.0</ele><time>2026-04-19T08:57:23.001Z</time></trkpt><trkpt lat="44.030132970134105" lon="11.378208607633855"><ele>565.5</ele><time>2026-04-19T08:57:24.001Z</time></trkpt><trkpt lat="44.03020722526589" lon="11.378043140206008"><ele>568.0</ele><time>2026-04-19T08:57:25.001Z</time></trkpt><trkpt lat="44.03026607395673" lon="11.377864477485915"><ele>570.5</ele><time>2026-04-19T08:57:26.001Z</time></trkpt><trkpt lat="44.030382528945275" lon="11.377752981560386"><ele>573.0</ele><time>2026-04-19T08:57:27.001Z</time></trkpt><trkpt lat="44.03049137089979" lon="11.377716190293672"><ele>575.5</ele><time>2026-04-19T08:57:28.001Z</time></trkpt><trkpt lat="44.03059031304479" lon="11.377633001609803"><ele>578.0</ele><time>2026-04-19T08:57:29.001Z</time></trkpt><trkpt lat="44.03065485128032" lon="11.377519974375634"><ele>580.5</ele><time>2026-04-19T08:57:30.001Z</time></trkpt><trkpt lat="44.03069879711216" lon="11.377364722101015"><ele>583.0</ele><time>2026-04-19T08:57:31.001Z</time></trkpt><trkpt lat="44.03069486845286" lon="11.377164427264951"><ele>585.75</ele><time>2026-04-19T08:57:32.001Z</time></trkpt><trkpt lat="44.03074771551897" lon="11.377017072087934"><ele>588.5</ele><time>2026-04-19T08:57:33.001Z</time></trkpt><trkpt lat="44.03081389947737" lon="11.37692444356563"><ele>591.25</ele><time>2026-04-19T08:57:34.001Z</time></trkpt><trkpt lat="44.03091838992619" lon="11.376889872211187"><ele>594.0</ele><time>2026-04-19T08:57:35.001Z</time></trkpt><trkpt lat="44.03104786253518" lon="11.37691684410946"><ele>594.0</ele><time>2026-04-19T08:57:36.001Z</time></trkpt><trkpt lat="44.03120326896868" lon="11.376904170104304"><ele>594.0</ele><time>2026-04-19T08:57:37.001Z</time></trkpt><trkpt lat="44.03136660807388" lon="11.376918795020726"><ele>594.0</ele><time>2026-04-19T08:57:38.001Z</time></trkpt><trkpt lat="44.03153687400899" lon="11.376930285194602"><ele>593.6666666666666</ele><time>2026-04-19T08:57:39.001Z</time></trkpt><trkpt lat="44.031725647725864" lon="11.376963993106122"><ele>593.3333333333333</ele><time>2026-04-19T08:57:40.001Z</time></trkpt><trkpt lat="44.031909678784665" lon="11.376940420402867"><ele>593.0</ele><time>2026-04-19T08:57:41.001Z</time></trkpt><trkpt lat="44.03209655662543" lon="11.376922685218249"><ele>593.0</ele><time>2026-04-19T08:57:42.001Z</time></trkpt><trkpt lat="44.03227723135085" lon="11.376892380591146"><ele>593.0</ele><time>2026-04-19T08:57:43.001Z</time></trkpt><trkpt lat="44.03243494303223" lon="11.376864179074367"><ele>593.0</ele><time>2026-04-19T08:57:44.001Z</time></trkpt><trkpt lat="44.03257518215488" lon="11.376823854966682"><ele>594.25</ele><time>2026-04-19T08:57:45.001Z</time></trkpt><trkpt lat="44.032699254840516" lon="11.376741710135216"><ele>595.5</ele><time>2026-04-19T08:57:46.001Z</time></trkpt><trkpt lat="44.032800252012414" lon="11.376611458254446"><ele>596.75</ele><time>2026-04-19T08:57:47.001Z</time></trkpt><trkpt lat="44.03286288886317" lon="11.376443664013898"><ele>598.0</ele><time>2026-04-19T08:57:48.001Z</time></trkpt><trkpt lat="44.032901295271216" lon="11.376250197023332"><ele>601.25</ele><time>2026-04-19T08:57:49.001Z</time></trkpt><trkpt lat="44.032952883319965" lon="11.376056757136748"><ele>604.5</ele><time>2026-04-19T08:57:50.001Z</time></trkpt><trkpt lat="44.03303584255391" lon="11.375894924476611"><ele>607.75</ele><time>2026-04-19T08:57:51.001Z</time></trkpt><trkpt lat="44.03315273489979" lon="11.375778006751988"><ele>611.0</ele><time>2026-04-19T08:57:52.001Z</time></trkpt><trkpt lat="44.033283358438354" lon="11.375683650155334"><ele>610.0</ele><time>2026-04-19T08:57:53.001Z</time></trkpt><trkpt lat="44.03342250813957" lon="11.375629857280565"><ele>609.0</ele><time>2026-04-19T08:57:54.001Z</time></trkpt><trkpt lat="44.033562160400535" lon="11.37558894449056"><ele>608.0</ele><time>2026-04-19T08:57:55.001Z</time></trkpt><trkpt lat="44.03371670511015" lon="11.375654948594647"><ele>607.0</ele><time>2026-04-19T08:57:56.001Z</time></trkpt><trkpt lat="44.03387221503346" lon="11.375749744561164"><ele>607.0</ele><time>2026-04-19T08:57:57.001Z</time></trkpt><trkpt lat="44.03401130392103" lon="11.375811707914226"><ele>607.0</ele><time>2026-04-19T08:57:58.001Z</time></trkpt><trkpt lat="44.03414921981527" lon="11.37583816960451"><ele>607.0</ele><time>2026-04-19T08:57:59.001Z</time></trkpt><trkpt lat="44.03428291605992" lon="11.375805757028287"><ele>607.0</ele><time>2026-04-19T08:58:00.001Z</time></trkpt><trkpt lat="44.03441769471021" lon="11.375743834383274"><ele>609.0</ele><time>2026-04-19T08:58:01.001Z</time></trkpt><trkpt lat="44.034539777740285" lon="11.375623240528352"><ele>611.0</ele><time>2026-04-19T08:58:02.001Z</time></trkpt><trkpt lat="44.03466615343129" lon="11.375462396931031"><ele>613.0</ele><time>2026-04-19T08:58:03.001Z</time></trkpt><trkpt lat="44.03481549307341" lon="11.375312321483618"><ele>616.0</ele><time>2026-04-19T08:58:04.001Z</time></trkpt><trkpt lat="44.03496559217154" lon="11.375134844894701"><ele>619.0</ele><time>2026-04-19T08:58:05.001Z</time></trkpt><trkpt lat="44.03511430386513" lon="11.374952024701066"><ele>622.0</ele><time>2026-04-19T08:58:06.001Z</time></trkpt><trkpt lat="44.03523858164198" lon="11.374799697579048"><ele>625.25</ele><time>2026-04-19T08:58:07.001Z</time></trkpt><trkpt lat="44.035345349310084" lon="11.374650473496649"><ele>628.5</ele><time>2026-04-19T08:58:08.001Z</time></trkpt><trkpt lat="44.035421210269455" lon="11.37449212261956"><ele>631.75</ele><time>2026-04-19T08:58:09.001Z</time></trkpt><trkpt lat="44.03547259365705" lon="11.374307575674672"><ele>635.0</ele><time>2026-04-19T08:58:10.001Z</time></trkpt><trkpt lat="44.03554161542433" lon="11.374176517732336"><ele>635.0</ele><time>2026-04-19T08:58:11.001Z</time></trkpt><trkpt lat="44.03563468498655" lon="11.374110066001252"><ele>635.0</ele><time>2026-04-19T08:58:12.001Z</time></trkpt><trkpt lat="44.03573627388131" lon="11.374107994910702"><ele>635.0</ele><time>2026-04-19T08:58:13.001Z</time></trkpt><trkpt lat="44.03584592625667" lon="11.374161234082493"><ele>635.0</ele><time>2026-04-19T08:58:14.001Z</time></trkpt><trkpt lat="44.03593643335157" lon="11.374253838823018"><ele>635.0</ele><time>2026-04-19T08:58:15.001Z</time></trkpt><trkpt lat="44.03598509323676" lon="11.374398035263857"><ele>632.75</ele><time>2026-04-19T08:58:16Z</time></trkpt><trkpt lat="44.03599113166582" lon="11.374567690176653"><ele>630.5</ele><time>2026-04-19T08:58:17Z</time></trkpt><trkpt lat="44.03598172726414" lon="11.374761126679138"><ele>628.25</ele><time>2026-04-19T08:58:18Z</time></trkpt><trkpt lat="44.03600700634711" lon="11.374956281840337"><ele>626.0</ele><time>2026-04-19T08:58:19.001Z</time></trkpt><trkpt lat="44.03608264221811" lon="11.375130784589123"><ele>625.0</ele><time>2026-04-19T08:58:20.001Z</time></trkpt><trkpt lat="44.03619439184451" lon="11.375278981274226"><ele>624.0</ele><time>2026-04-19T08:58:21.001Z</time></trkpt><trkpt lat="44.03633221204481" lon="11.375385376110737"><ele>623.0</ele><time>2026-04-19T08:58:22.001Z</time></trkpt><trkpt lat="44.036478200974216" lon="11.375480025035596"><ele>619.0</ele><time>2026-04-19T08:58:23.001Z</time></trkpt><trkpt lat="44.03659323239933" lon="11.375570740886326"><ele>615.0</ele><time>2026-04-19T08:58:24.001Z</time></trkpt><trkpt lat="44.036688892374194" lon="11.37566318817047"><ele>611.0</ele><time>2026-04-19T08:58:25.001Z</time></trkpt><trkpt lat="44.03673838510719" lon="11.375790791674543"><ele>607.0</ele><time>2026-04-19T08:58:26.001Z</time></trkpt><trkpt lat="44.036778921771" lon="11.375922285461249"><ele>615.0</ele><time>2026-04-19T08:58:27.001Z</time></trkpt><trkpt lat="44.03672548936518" lon="11.37606884991433"><ele>623.0</ele><time>2026-04-19T08:58:28.001Z</time></trkpt><trkpt lat="44.03669659205681" lon="11.376255836394272"><ele>631.0</ele><time>2026-04-19T08:58:29.001Z</time></trkpt><trkpt lat="44.036680858868756" lon="11.376449975659959"><ele>639.0</ele><time>2026-04-19T08:58:30.001Z</time></trkpt><trkpt lat="44.036656095790875" lon="11.376620879318253"><ele>639.0</ele><time>2026-04-19T08:58:31.001Z</time></trkpt><trkpt lat="44.03664073241192" lon="11.376761025626237"><ele>639.0</ele><time>2026-04-19T08:58:32.001Z</time></trkpt><trkpt lat="44.036658124592975" lon="11.37688845810779"><ele>639.0</ele><time>2026-04-19T08:58:33.001Z</time></trkpt><trkpt lat="44.03672199651242" lon="11.376939112321816"><ele>639.0</ele><time>2026-04-19T08:58:34.001Z</time></trkpt><trkpt lat="44.036805295227126" lon="11.376932696619185"><ele>639.0</ele><time>2026-04-19T08:58:35.001Z</time></trkpt><trkpt lat="44.03689053144275" lon="11.37686392796176"><ele>639.0</ele><time>2026-04-19T08:58:36.001Z</time></trkpt><trkpt lat="44.03693414846524" lon="11.376738025051177"><ele>639.0</ele><time>2026-04-19T08:58:37.001Z</time></trkpt><trkpt lat="44.03694028173219" lon="11.376560550475778"><ele>639.0</ele><time>2026-04-19T08:58:38.001Z</time></trkpt><trkpt lat="44.0369586857348" lon="11.37636558668208"><ele>639.0</ele><time>2026-04-19T08:58:39.001Z</time></trkpt><trkpt lat="44.0370066081043" lon="11.376162608707286"><ele>640.0</ele><time>2026-04-19T08:58:40.001Z</time></trkpt><trkpt lat="44.03705267622229" lon="11.375967293574584"><ele>641.0</ele><time>2026-04-19T08:58:41.001Z</time></trkpt><trkpt lat="44.03708393679975" lon="11.375800938015637"><ele>642.0</ele><time>2026-04-19T08:58:42.001Z</time></trkpt><trkpt lat="44.03707913475819" lon="11.375624975527707"><ele>643.0</ele><time>2026-04-19T08:58:43.001Z</time></trkpt><trkpt lat="44.03702839878827" lon="11.375457311441668"><ele>646.25</ele><time>2026-04-19T08:58:44.001Z</time></trkpt><trkpt lat="44.03693045161344" lon="11.375334577667902"><ele>649.5</ele><time>2026-04-19T08:58:45.001Z</time></trkpt><trkpt lat="44.03681149122899" lon="11.375254867607978"><ele>652.75</ele><time>2026-04-19T08:58:46.001Z</time></trkpt><trkpt lat="44.0367122089966" lon="11.37515579777892"><ele>656.0</ele><time>2026-04-19T08:58:47.001Z</time></trkpt><trkpt lat="44.03662618241296" lon="11.374985870599005"><ele>654.0</ele><time>2026-04-19T08:58:48.001Z</time></trkpt><trkpt lat="44.03657972129077" lon="11.374776235892936"><ele>652.0</ele><time>2026-04-19T08:58:49.001Z</time></trkpt><trkpt lat="44.036577984614674" lon="11.374618542555975"><ele>650.0</ele><time>2026-04-19T08:58:50.001Z</time></trkpt><trkpt lat="44.036630383716385" lon="11.374503169262658"><ele>648.0</ele><time>2026-04-19T08:58:51.001Z</time></trkpt><trkpt lat="44.036744791204995" lon="11.374391000187575"><ele>648.0</ele><time>2026-04-19T08:58:52.001Z</time></trkpt><trkpt lat="44.03687238153427" lon="11.374342108318626"><ele>648.0</ele><time>2026-04-19T08:58:53.001Z</time></trkpt><trkpt lat="44.03700074322688" lon="11.374284837359156"><ele>648.0</ele><time>2026-04-19T08:58:54.001Z</time></trkpt><trkpt lat="44.037146611780216" lon="11.374196747301259"><ele>648.0</ele><time>2026-04-19T08:58:55.001Z</time></trkpt><trkpt lat="44.037300819385734" lon="11.37412802352926"><ele>648.0</ele><time>2026-04-19T08:58:56.001Z</time></trkpt><trkpt lat="44.03744632874578" lon="11.374058692274257"><ele>648.0</ele><time>2026-04-19T08:58:57.001Z</time></trkpt><trkpt lat="44.03757104948713" lon="11.374097547562242"><ele>648.0</ele><time>2026-04-19T08:58:58.001Z</time></trkpt><trkpt lat="44.0376534425722" lon="11.374112139728723"><ele>648.0</ele><time>2026-04-19T08:58:59.001Z</time></trkpt><trkpt lat="44.03769979484718" lon="11.374176449163782"><ele>648.0</ele><time>2026-04-19T08:59:00Z</time></trkpt><trkpt lat="44.03769701983754" lon="11.374333123812084"><ele>648.0</ele><time>2026-04-19T08:59:01Z</time></trkpt><trkpt lat="44.037653890101645" lon="11.374437701785446"><ele>648.0</ele><time>2026-04-19T08:59:02Z</time></trkpt><trkpt lat="44.03759095454062" lon="11.374513369185028"><ele>648.0</ele><time>2026-04-19T08:59:03Z</time></trkpt><trkpt lat="44.03751614765483" lon="11.37443364869751"><ele>648.0</ele><time>2026-04-19T08:59:04Z</time></trkpt><trkpt lat="44.03738641613932" lon="11.374382042658198"><ele>648.0</ele><time>2026-04-19T08:59:05Z</time></trkpt><trkpt lat="44.03727391106895" lon="11.374355782560345"><ele>648.0</ele><time>2026-04-19T08:59:06Z</time></trkpt><trkpt lat="44.03715407822876" lon="11.374412948152475"><ele>648.0</ele><time>2026-04-19T08:59:07Z</time></trkpt><trkpt lat="44.03707683699497" lon="11.374535407482208"><ele>648.0</ele><time>2026-04-19T08:59:08Z</time></trkpt><trkpt lat="44.037065532442384" lon="11.37469675400451"><ele>648.0</ele><time>2026-04-19T08:59:09Z</time></trkpt><trkpt lat="44.037140385512856" lon="11.374826035800734"><ele>650.0</ele><time>2026-04-19T08:59:10Z</time></trkpt><trkpt lat="44.03728332979813" lon="11.374855969428015"><ele>652.0</ele><time>2026-04-19T08:59:12Z</time></trkpt><trkpt lat="44.03736217431645" lon="11.374994328077944"><ele>654.0</ele><time>2026-04-19T08:59:13Z</time></trkpt><trkpt lat="44.0374133842796" lon="11.375194147087514"><ele>656.0</ele><time>2026-04-19T08:59:14Z</time></trkpt><trkpt lat="44.03754600524813" lon="11.37552041114597"><ele>663.0</ele><time>2026-04-19T08:59:15Z</time></trkpt><trkpt lat="44.037616858518824" lon="11.37572101848792"><ele>670.0</ele><time>2026-04-19T08:59:16Z</time></trkpt><trkpt lat="44.0376888939782" lon="11.375922830561004"><ele>677.0</ele><time>2026-04-19T08:59:17Z</time></trkpt><trkpt lat="44.03776087007675" lon="11.376103845155445"><ele>677.0</ele><time>2026-04-19T08:59:18Z</time></trkpt><trkpt lat="44.03784701968094" lon="11.376258117492226"><ele>677.0</ele><time>2026-04-19T08:59:19Z</time></trkpt><trkpt lat="44.0379548281994" lon="11.37636326500749"><ele>677.0</ele><time>2026-04-19T08:59:20Z</time></trkpt><trkpt lat="44.03807283734358" lon="11.376403570893233"><ele>677.0</ele><time>2026-04-19T08:59:21Z</time></trkpt><trkpt lat="44.038175094433385" lon="11.376392329841922"><ele>675.75</ele><time>2026-04-19T08:59:22Z</time></trkpt><trkpt lat="44.038277401899855" lon="11.376357574739467"><ele>674.5</ele><time>2026-04-19T08:59:23Z</time></trkpt><trkpt lat="44.03836281493961" lon="11.376266076508978"><ele>673.25</ele><time>2026-04-19T08:59:24Z</time></trkpt><trkpt lat="44.03849256565559" lon="11.37615243705202"><ele>672.0</ele><time>2026-04-19T08:59:25Z</time></trkpt><trkpt lat="44.03860674038709" lon="11.375967955801292"><ele>680.3333333333334</ele><time>2026-04-19T08:59:26Z</time></trkpt><trkpt lat="44.03874960536711" lon="11.375834452511107"><ele>688.6666666666667</ele><time>2026-04-19T08:59:27Z</time></trkpt><trkpt lat="44.03890849505444" lon="11.375701841682732"><ele>697.0</ele><time>2026-04-19T08:59:28Z</time></trkpt><trkpt lat="44.039069232509014" lon="11.375585309808876"><ele>698.6666666666667</ele><time>2026-04-19T08:59:29Z</time></trkpt><trkpt lat="44.03924561122988" lon="11.375504962184044"><ele>700.3333333333334</ele><time>2026-04-19T08:59:30Z</time></trkpt><trkpt lat="44.039442202055476" lon="11.375449977834945"><ele>702.0</ele><time>2026-04-19T08:59:31Z</time></trkpt><trkpt lat="44.0396449400687" lon="11.375408737384358"><ele>702.0</ele><time>2026-04-19T08:59:32Z</time></trkpt><trkpt lat="44.03983656779882" lon="11.375367236989144"><ele>702.0</ele><time>2026-04-19T08:59:33Z</time></trkpt><trkpt lat="44.03999608796816" lon="11.375315169920071"><ele>702.0</ele><time>2026-04-19T08:59:34Z</time></trkpt><trkpt lat="44.04014115095364" lon="11.37529390947147"><ele>705.5</ele><time>2026-04-19T08:59:35Z</time></trkpt><trkpt lat="44.040261230838325" lon="11.375341571685752"><ele>709.0</ele><time>2026-04-19T08:59:36Z</time></trkpt><trkpt lat="44.04037605416512" lon="11.375422777392906"><ele>712.5</ele><time>2026-04-19T08:59:37Z</time></trkpt><trkpt lat="44.04047765082276" lon="11.37543324624085"><ele>716.0</ele><time>2026-04-19T08:59:38Z</time></trkpt><trkpt lat="44.04058428764858" lon="11.375378104644355"><ele>716.0</ele><time>2026-04-19T08:59:39Z</time></trkpt><trkpt lat="44.04068491461092" lon="11.375355800333878"><ele>716.0</ele><time>2026-04-19T08:59:40Z</time></trkpt><trkpt lat="44.04076652015084" lon="11.3754415531206"><ele>716.0</ele><time>2026-04-19T08:59:41Z</time></trkpt><trkpt lat="44.04078800681791" lon="11.37559642220853"><ele>716.0</ele><time>2026-04-19T08:59:42Z</time></trkpt><trkpt lat="44.04077443077131" lon="11.375776987932827"><ele>716.0</ele><time>2026-04-19T08:59:43Z</time></trkpt><trkpt lat="44.04075315795993" lon="11.375967072002911"><ele>717.5</ele><time>2026-04-19T08:59:44Z</time></trkpt><trkpt lat="44.04075502704811" lon="11.37617805387338"><ele>719.0</ele><time>2026-04-19T08:59:45Z</time></trkpt><trkpt lat="44.04076378817844" lon="11.376391630078444"><ele>720.5</ele><time>2026-04-19T08:59:46Z</time></trkpt><trkpt lat="44.04077948212243" lon="11.376569336126625"><ele>722.0</ele><time>2026-04-19T08:59:47Z</time></trkpt><trkpt lat="44.040821320154066" lon="11.376673049070671"><ele>722.0</ele><time>2026-04-19T08:59:48Z</time></trkpt><trkpt lat="44.040890638980834" lon="11.376738469605161"><ele>722.0</ele><time>2026-04-19T08:59:49Z</time></trkpt><trkpt lat="44.04100717387939" lon="11.376763591333214"><ele>722.0</ele><time>2026-04-19T08:59:50Z</time></trkpt><trkpt lat="44.041118604907986" lon="11.376781703768724"><ele>722.0</ele><time>2026-04-19T08:59:51Z</time></trkpt><trkpt lat="44.0412032977654" lon="11.376845569489376"><ele>722.0</ele><time>2026-04-19T08:59:52Z</time></trkpt><trkpt lat="44.04125624944862" lon="11.376964009870028"><ele>722.0</ele><time>2026-04-19T08:59:53Z</time></trkpt><trkpt lat="44.04124580422167" lon="11.377113673059542"><ele>722.0</ele><time>2026-04-19T08:59:54Z</time></trkpt><trkpt lat="44.041165025972276" lon="11.377250371317574"><ele>722.0</ele><time>2026-04-19T08:59:55Z</time></trkpt><trkpt lat="44.04103340963011" lon="11.377331864976755"><ele>722.0</ele><time>2026-04-19T08:59:56Z</time></trkpt><trkpt lat="44.04090994260761" lon="11.377453535176972"><ele>714.6</ele><time>2026-04-19T08:59:57Z</time></trkpt><trkpt lat="44.0407911711578" lon="11.377560354782442"><ele>707.2</ele><time>2026-04-19T08:59:58Z</time></trkpt><trkpt lat="44.040720320617716" lon="11.37763946658266"><ele>699.8</ele><time>2026-04-19T08:59:59Z</time></trkpt><trkpt lat="44.04067218620743" lon="11.377752176977124"><ele>692.4</ele><time>2026-04-19T09:00:00Z</time></trkpt><trkpt lat="44.040635919721346" lon="11.377868186919327"><ele>685.0</ele><time>2026-04-19T09:00:01Z</time></trkpt><trkpt lat="44.040630177410286" lon="11.378009415850926"><ele>687.0</ele><time>2026-04-19T09:00:02Z</time></trkpt><trkpt lat="44.04065192360543" lon="11.37813924842856"><ele>689.0</ele><time>2026-04-19T09:00:03Z</time></trkpt><trkpt lat="44.04070892840697" lon="11.37824886074351"><ele>691.0</ele><time>2026-04-19T09:00:04Z</time></trkpt><trkpt lat="44.04079812764102" lon="11.378356930815517"><ele>693.0</ele><time>2026-04-19T09:00:05Z</time></trkpt><trkpt lat="44.04090780172829" lon="11.378435680764733"><ele>695.0</ele><time>2026-04-19T09:00:06Z</time></trkpt><trkpt lat="44.04102927550672" lon="11.378494635475343"><ele>702.2</ele><time>2026-04-19T09:00:07Z</time></trkpt><trkpt lat="44.041104980449944" lon="11.37856685243173"><ele>709.4</ele><time>2026-04-19T09:00:08Z</time></trkpt><trkpt lat="44.04118643310544" lon="11.378630626112404"><ele>716.5999999999999</ele><time>2026-04-19T09:00:09Z</time></trkpt><trkpt lat="44.041272777561744" lon="11.37871646460137"><ele>723.8</ele><time>2026-04-19T09:00:10Z</time></trkpt><trkpt lat="44.04134598977646" lon="11.378827186234853"><ele>731.0</ele><time>2026-04-19T09:00:11Z</time></trkpt><trkpt lat="44.04138538835184" lon="11.37895063857708"><ele>731.0</ele><time>2026-04-19T09:00:12Z</time></trkpt><trkpt lat="44.041351592008745" lon="11.379094414324143"><ele>731.0</ele><time>2026-04-19T09:00:13Z</time></trkpt><trkpt lat="44.041294779777616" lon="11.379228696047052"><ele>731.0</ele><time>2026-04-19T09:00:14Z</time></trkpt><trkpt lat="44.041234243438524" lon="11.379375539439858"><ele>731.0</ele><time>2026-04-19T09:00:15Z</time></trkpt><trkpt lat="44.04116018179654" lon="11.379485640409197"><ele>731.0</ele><time>2026-04-19T09:00:16Z</time></trkpt><trkpt lat="44.041100574141595" lon="11.379589431818891"><ele>731.0</ele><time>2026-04-19T09:00:17Z</time></trkpt><trkpt lat="44.04105776926213" lon="11.37970236805526"><ele>731.0</ele><time>2026-04-19T09:00:18Z</time></trkpt><trkpt lat="44.041047791230135" lon="11.379817141647884"><ele>731.0</ele><time>2026-04-19T09:00:19Z</time></trkpt><trkpt lat="44.04108734652286" lon="11.379928638905879"><ele>731.0</ele><time>2026-04-19T09:00:20Z</time></trkpt><trkpt lat="44.04117009773063" lon="11.380030890902798"><ele>729.8</ele><time>2026-04-19T09:00:21Z</time></trkpt><trkpt lat="44.0412584962725" lon="11.380127090164171"><ele>728.5999999999999</ele><time>2026-04-19T09:00:22Z</time></trkpt><trkpt lat="44.041338341759165" lon="11.380223944582024"><ele>727.4</ele><time>2026-04-19T09:00:23Z</time></trkpt><trkpt lat="44.04141250510318" lon="11.380327070870212"><ele>726.2</ele><time>2026-04-19T09:00:24Z</time></trkpt><trkpt lat="44.04148487591306" lon="11.380426388407018"><ele>725.0</ele><time>2026-04-19T09:00:25.001Z</time></trkpt><trkpt lat="44.04155883864555" lon="11.380482008394765"><ele>731.2</ele><time>2026-04-19T09:00:26.001Z</time></trkpt><trkpt lat="44.04164409763797" lon="11.380463702511086"><ele>737.4</ele><time>2026-04-19T09:00:27.001Z</time></trkpt><trkpt lat="44.041715338179216" lon="11.380381304842437"><ele>743.5999999999999</ele><time>2026-04-19T09:00:28.001Z</time></trkpt><trkpt lat="44.04178624023627" lon="11.380227810443605"><ele>749.8</ele><time>2026-04-19T09:00:29.001Z</time></trkpt><trkpt lat="44.0418550301077" lon="11.380063698174986"><ele>756.0</ele><time>2026-04-19T09:00:30.001Z</time></trkpt><trkpt lat="44.04192988339816" lon="11.379923990711596"><ele>756.0</ele><time>2026-04-19T09:00:31.001Z</time></trkpt><trkpt lat="44.042013831519064" lon="11.379799125159607"><ele>756.0</ele><time>2026-04-19T09:00:32.001Z</time></trkpt><trkpt lat="44.04207684216944" lon="11.379650215089086"><ele>756.0</ele><time>2026-04-19T09:00:33.001Z</time></trkpt><trkpt lat="44.04216552993569" lon="11.379551650526173"><ele>756.0</ele><time>2026-04-19T09:00:34.001Z</time></trkpt><trkpt lat="44.04226142399772" lon="11.37946237123644"><ele>758.4</ele><time>2026-04-19T09:00:35.001Z</time></trkpt><trkpt lat="44.042357987913874" lon="11.379418077387145"><ele>760.8</ele><time>2026-04-19T09:00:36.001Z</time></trkpt><trkpt lat="44.04246241064794" lon="11.37939401199899"><ele>763.1999999999999</ele><time>2026-04-19T09:00:37.001Z</time></trkpt><trkpt lat="44.04254538111229" lon="11.379379064653051"><ele>765.5999999999999</ele><time>2026-04-19T09:00:38.001Z</time></trkpt><trkpt lat="44.04264849793808" lon="11.379359545123028"><ele>768.0</ele><time>2026-04-19T09:00:39.001Z</time></trkpt><trkpt lat="44.0427550097235" lon="11.379330182837627"><ele>769.2</ele><time>2026-04-19T09:00:40.001Z</time></trkpt><trkpt lat="44.04286719352703" lon="11.379295793587616"><ele>770.4</ele><time>2026-04-19T09:00:41.001Z</time></trkpt><trkpt lat="44.042989437857386" lon="11.379259452445577"><ele>771.6</ele><time>2026-04-19T09:00:42.001Z</time></trkpt><trkpt lat="44.04309111823546" lon="11.379244850926577"><ele>772.8000000000001</ele><time>2026-04-19T09:00:43.001Z</time></trkpt><trkpt lat="44.04315848104897" lon="11.379252126675329"><ele>774.0</ele><time>2026-04-19T09:00:44.001Z</time></trkpt><trkpt lat="44.043246231619314" lon="11.379308849614118"><ele>774.0</ele><time>2026-04-19T09:00:45.001Z</time></trkpt><trkpt lat="44.04329205842795" lon="11.379467222692547"><ele>774.0</ele><time>2026-04-19T09:00:46.001Z</time></trkpt><trkpt lat="44.04332542516681" lon="11.379648926230349"><ele>774.0</ele><time>2026-04-19T09:00:47.001Z</time></trkpt><trkpt lat="44.0433488019985" lon="11.37982370689396"><ele>774.0</ele><time>2026-04-19T09:00:48.001Z</time></trkpt><trkpt lat="44.04336939677986" lon="11.379988610562723"><ele>770.5</ele><time>2026-04-19T09:00:49.001Z</time></trkpt><trkpt lat="44.043380707984035" lon="11.380157419309931"><ele>767.0</ele><time>2026-04-19T09:00:50.001Z</time></trkpt><trkpt lat="44.04339401496417" lon="11.38033355394716"><ele>763.5</ele><time>2026-04-19T09:00:51.001Z</time></trkpt><trkpt lat="44.04339989106298" lon="11.380494626085927"><ele>760.0</ele><time>2026-04-19T09:00:52.001Z</time></trkpt><trkpt lat="44.043423871540085" lon="11.38063573634814"><ele>758.25</ele><time>2026-04-19T09:00:53.001Z</time></trkpt><trkpt lat="44.043468439442464" lon="11.380768616716958"><ele>756.5</ele><time>2026-04-19T09:00:54.001Z</time></trkpt><trkpt lat="44.04355288388285" lon="11.380856944744943"><ele>754.75</ele><time>2026-04-19T09:00:55Z</time></trkpt><trkpt lat="44.04365749906883" lon="11.380916641493728"><ele>753.0</ele><time>2026-04-19T09:00:56Z</time></trkpt><trkpt lat="44.043810442737566" lon="11.380949532311156"><ele>753.0</ele><time>2026-04-19T09:00:57Z</time></trkpt><trkpt lat="44.04392112476203" lon="11.380996982741783"><ele>753.0</ele><time>2026-04-19T09:00:58Z</time></trkpt><trkpt lat="44.04402327605168" lon="11.381037868101732"><ele>753.0</ele><time>2026-04-19T09:00:59Z</time></trkpt><trkpt lat="44.04410008983982" lon="11.381112648958002"><ele>753.0</ele><time>2026-04-19T09:01:00Z</time></trkpt><trkpt lat="44.0441385638906" lon="11.381271030095228"><ele>753.0</ele><time>2026-04-19T09:01:01Z</time></trkpt><trkpt lat="44.04416056879132" lon="11.381456223540566"><ele>758.6666666666667</ele><time>2026-04-19T09:01:02Z</time></trkpt><trkpt lat="44.04416695088377" lon="11.381654426698296"><ele>764.3333333333334</ele><time>2026-04-19T09:01:03Z</time></trkpt><trkpt lat="44.044169731957794" lon="11.381876581915975"><ele>770.0</ele><time>2026-04-19T09:01:04Z</time></trkpt><trkpt lat="44.04415693881211" lon="11.38210482250186"><ele>772.6666666666667</ele><time>2026-04-19T09:01:05Z</time></trkpt><trkpt lat="44.04413634264704" lon="11.38234888381567"><ele>775.3333333333333</ele><time>2026-04-19T09:01:06Z</time></trkpt><trkpt lat="44.04409916682073" lon="11.382622867244878"><ele>778.0</ele><time>2026-04-19T09:01:07Z</time></trkpt><trkpt lat="44.04405675505964" lon="11.38288323153076"><ele>770.3333333333333</ele><time>2026-04-19T09:01:08Z</time></trkpt><trkpt lat="44.044004861030814" lon="11.383111133310559"><ele>762.6666666666666</ele><time>2026-04-19T09:01:09Z</time></trkpt><trkpt lat="44.04394796411485" lon="11.383307983181925"><ele>755.0</ele><time>2026-04-19T09:01:10Z</time></trkpt><trkpt lat="44.04385050334444" lon="11.38349325176181"><ele>755.0</ele><time>2026-04-19T09:01:11Z</time></trkpt><trkpt lat="44.04375686626" lon="11.383682722058973"><ele>755.0</ele><time>2026-04-19T09:01:12Z</time></trkpt><trkpt lat="44.04364632140054" lon="11.38385988858251"><ele>755.0</ele><time>2026-04-19T09:01:13Z</time></trkpt><trkpt lat="44.043545029022994" lon="11.384067364613076"><ele>756.0</ele><time>2026-04-19T09:01:14Z</time></trkpt><trkpt lat="44.04343995947919" lon="11.384306963563212"><ele>757.0</ele><time>2026-04-19T09:01:15Z</time></trkpt><trkpt lat="44.04334080339577" lon="11.384522594562592"><ele>758.0</ele><time>2026-04-19T09:01:16Z</time></trkpt><trkpt lat="44.043243190632786" lon="11.384701852310236"><ele>758.0</ele><time>2026-04-19T09:01:17Z</time></trkpt><trkpt lat="44.043165179843925" lon="11.384860771161366"><ele>758.0</ele><time>2026-04-19T09:01:18Z</time></trkpt><trkpt lat="44.043108650503" lon="11.384985251361861"><ele>758.0</ele><time>2026-04-19T09:01:19Z</time></trkpt><trkpt lat="44.0430721098748" lon="11.385088345550132"><ele>758.0</ele><time>2026-04-19T09:01:20Z</time></trkpt><trkpt lat="44.04308215207796" lon="11.38518315811198"><ele>758.0</ele><time>2026-04-19T09:01:21Z</time></trkpt><trkpt lat="44.04314375308412" lon="11.385255021601742"><ele>758.0</ele><time>2026-04-19T09:01:22Z</time></trkpt><trkpt lat="44.04321793237622" lon="11.38526717396209"><ele>758.0</ele><time>2026-04-19T09:01:23Z</time></trkpt><trkpt lat="44.04330612605282" lon="11.385189260335718"><ele>758.0</ele><time>2026-04-19T09:01:24Z</time></trkpt><trkpt lat="44.04336531759079" lon="11.385037271951932"><ele>758.0</ele><time>2026-04-19T09:01:25Z</time></trkpt><trkpt lat="44.04342960362575" lon="11.384891177992156"><ele>758.0</ele><time>2026-04-19T09:01:26Z</time></trkpt><trkpt lat="44.043511197949236" lon="11.384699966177198"><ele>761.6666666666666</ele><time>2026-04-19T09:01:27Z</time></trkpt><trkpt lat="44.04361483912109" lon="11.384528202989316"><ele>765.3333333333333</ele><time>2026-04-19T09:01:28Z</time></trkpt><trkpt lat="44.04374167201074" lon="11.38436207315161"><ele>769.0</ele><time>2026-04-19T09:01:29Z</time></trkpt><trkpt lat="44.043859108106034" lon="11.384201742256217"><ele>769.0</ele><time>2026-04-19T09:01:30Z</time></trkpt><trkpt lat="44.04396423142763" lon="11.384083109306102"><ele>769.0</ele><time>2026-04-19T09:01:31Z</time></trkpt><trkpt lat="44.04404918074889" lon="11.38400756918418"><ele>769.0</ele><time>2026-04-19T09:01:32Z</time></trkpt><trkpt lat="44.04412388182791" lon="11.383955067196657"><ele>769.0</ele><time>2026-04-19T09:01:33Z</time></trkpt><trkpt lat="44.04418525212223" lon="11.383984057259807"><ele>769.0</ele><time>2026-04-19T09:01:34Z</time></trkpt><trkpt lat="44.044221043912366" lon="11.384064688313709"><ele>769.0</ele><time>2026-04-19T09:01:35Z</time></trkpt><trkpt lat="44.044207022450735" lon="11.384170397217257"><ele>769.0</ele><time>2026-04-19T09:01:36Z</time></trkpt><trkpt lat="44.04414922595579" lon="11.384224679234634"><ele>769.0</ele><time>2026-04-19T09:01:37Z</time></trkpt><trkpt lat="44.04407841086714" lon="11.384314658578859"><ele>769.0</ele><time>2026-04-19T09:01:38Z</time></trkpt><trkpt lat="44.043992353974005" lon="11.384414069676213"><ele>769.0</ele><time>2026-04-19T09:01:39Z</time></trkpt><trkpt lat="44.043914819439536" lon="11.384555963504644"><ele>775.0</ele><time>2026-04-19T09:01:40Z</time></trkpt><trkpt lat="44.04383822638008" lon="11.384730453095914"><ele>781.0</ele><time>2026-04-19T09:01:41Z</time></trkpt><trkpt lat="44.0437657011251" lon="11.384944183398028"><ele>787.0</ele><time>2026-04-19T09:01:42Z</time></trkpt><trkpt lat="44.04371332888152" lon="11.385160374253022"><ele>787.0</ele><time>2026-04-19T09:01:43Z</time></trkpt><trkpt lat="44.04364974422704" lon="11.385391922350086"><ele>787.0</ele><time>2026-04-19T09:01:44Z</time></trkpt><trkpt lat="44.043562637094865" lon="11.385626759115526"><ele>787.0</ele><time>2026-04-19T09:01:45Z</time></trkpt><trkpt lat="44.0434621515172" lon="11.385855901860506"><ele>783.3333333333333</ele><time>2026-04-19T09:01:46Z</time></trkpt><trkpt lat="44.0433399002889" lon="11.386049115794307"><ele>779.6666666666667</ele><time>2026-04-19T09:01:47Z</time></trkpt><trkpt lat="44.04321714892557" lon="11.386226464672674"><ele>776.0</ele><time>2026-04-19T09:01:48Z</time></trkpt><trkpt lat="44.04310510485911" lon="11.386371391541278"><ele>780.1666666666667</ele><time>2026-04-19T09:01:49Z</time></trkpt><trkpt lat="44.043014027456046" lon="11.386486478365535"><ele>784.3333333333334</ele><time>2026-04-19T09:01:50Z</time></trkpt><trkpt lat="44.04294021170217" lon="11.386574832874235"><ele>788.5</ele><time>2026-04-19T09:01:51Z</time></trkpt><trkpt lat="44.042909327075016" lon="11.386655614019327"><ele>792.6666666666667</ele><time>2026-04-19T09:01:52Z</time></trkpt><trkpt lat="44.042933404449116" lon="11.386751993274657"><ele>796.8333333333334</ele><time>2026-04-19T09:01:53Z</time></trkpt><trkpt lat="44.042980416926454" lon="11.386810869975262"><ele>801.0</ele><time>2026-04-19T09:01:54Z</time></trkpt><trkpt lat="44.04305020397451" lon="11.386816585404137"><ele>801.0</ele><time>2026-04-19T09:01:55Z</time></trkpt><trkpt lat="44.0431863692954" lon="11.38667935277869"><ele>801.0</ele><time>2026-04-19T09:01:57Z</time></trkpt><trkpt lat="44.04332192868462" lon="11.386525459899206"><ele>801.0</ele><time>2026-04-19T09:01:58Z</time></trkpt><trkpt lat="44.04343891942862" lon="11.386384588430891"><ele>801.75</ele><time>2026-04-19T09:01:59Z</time></trkpt><trkpt lat="44.04356140916314" lon="11.386249805929015"><ele>802.5</ele><time>2026-04-19T09:02:00Z</time></trkpt><trkpt lat="44.04367999538553" lon="11.386129926870328"><ele>803.25</ele><time>2026-04-19T09:02:01Z</time></trkpt><trkpt lat="44.0437819441952" lon="11.386022101205068"><ele>804.0</ele><time>2026-04-19T09:02:02Z</time></trkpt><trkpt lat="44.04391557539046" lon="11.385948973304766"><ele>804.0</ele><time>2026-04-19T09:02:03Z</time></trkpt><trkpt lat="44.04407680317324" lon="11.385913884744648"><ele>804.0</ele><time>2026-04-19T09:02:04Z</time></trkpt><trkpt lat="44.044209566220154" lon="11.385890111263775"><ele>804.0</ele><time>2026-04-19T09:02:05Z</time></trkpt><trkpt lat="44.04432994779989" lon="11.385858627343731"><ele>804.0</ele><time>2026-04-19T09:02:06Z</time></trkpt><trkpt lat="44.04442671176173" lon="11.385759311564431"><ele>807.25</ele><time>2026-04-19T09:02:07Z</time></trkpt><trkpt lat="44.044513041327875" lon="11.385630043769442"><ele>810.5</ele><time>2026-04-19T09:02:08Z</time></trkpt><trkpt lat="44.04460673811862" lon="11.385481101621101"><ele>813.75</ele><time>2026-04-19T09:02:09Z</time></trkpt><trkpt lat="44.044704812454476" lon="11.385384579721705"><ele>817.0</ele><time>2026-04-19T09:02:10Z</time></trkpt><trkpt lat="44.04480825571214" lon="11.385351366758327"><ele>817.0</ele><time>2026-04-19T09:02:11Z</time></trkpt><trkpt lat="44.044905271133565" lon="11.38534584875003"><ele>817.0</ele><time>2026-04-19T09:02:12Z</time></trkpt><trkpt lat="44.045026965358716" lon="11.38543408933439"><ele>817.0</ele><time>2026-04-19T09:02:13Z</time></trkpt><trkpt lat="44.04513975959058" lon="11.385493633896232"><ele>817.0</ele><time>2026-04-19T09:02:14Z</time></trkpt><trkpt lat="44.04526938019344" lon="11.385473604759776"><ele>820.0</ele><time>2026-04-19T09:02:15Z</time></trkpt><trkpt lat="44.04536326809533" lon="11.385458186896289"><ele>823.0</ele><time>2026-04-19T09:02:16Z</time></trkpt><trkpt lat="44.045442845844825" lon="11.38556871565389"><ele>826.0</ele><time>2026-04-19T09:02:18Z</time></trkpt><trkpt lat="44.0454311697509" lon="11.38567886890418"><ele>829.0</ele><time>2026-04-19T09:02:19Z</time></trkpt><trkpt lat="44.04537450643527" lon="11.385786393937082"><ele>832.0</ele><time>2026-04-19T09:02:20Z</time></trkpt><trkpt lat="44.04526534533087" lon="11.385828385901306"><ele>835.5</ele><time>2026-04-19T09:02:21Z</time></trkpt><trkpt lat="44.04516027479581" lon="11.385933519246992"><ele>839.0</ele><time>2026-04-19T09:02:22Z</time></trkpt><trkpt lat="44.04507660231342" lon="11.386037398409975"><ele>842.5</ele><time>2026-04-19T09:02:23Z</time></trkpt><trkpt lat="44.045052779261326" lon="11.386205910524586"><ele>846.0</ele><time>2026-04-19T09:02:24Z</time></trkpt><trkpt lat="44.044967639319346" lon="11.38634237560369"><ele>847.0</ele><time>2026-04-19T09:02:25Z</time></trkpt><trkpt lat="44.04485521528489" lon="11.386391916601772"><ele>848.0</ele><time>2026-04-19T09:02:26Z</time></trkpt><trkpt lat="44.04470682852128" lon="11.386464195868662"><ele>849.0</ele><time>2026-04-19T09:02:27Z</time></trkpt><trkpt lat="44.044588765269985" lon="11.386551420877801"><ele>850.0</ele><time>2026-04-19T09:02:28Z</time></trkpt><trkpt lat="44.04449693133868" lon="11.38664293471686"><ele>850.0</ele><time>2026-04-19T09:02:29Z</time></trkpt><trkpt lat="44.044429306493846" lon="11.38680732292458"><ele>850.0</ele><time>2026-04-19T09:02:30Z</time></trkpt><trkpt lat="44.04440894882243" lon="11.3869753807649"><ele>850.0</ele><time>2026-04-19T09:02:31.001Z</time></trkpt><trkpt lat="44.04442246456411" lon="11.387173752854094"><ele>850.0</ele><time>2026-04-19T09:02:32.001Z</time></trkpt><trkpt lat="44.04444098222841" lon="11.387380995594977"><ele>853.2</ele><time>2026-04-19T09:02:33.001Z</time></trkpt><trkpt lat="44.044412756184585" lon="11.387544324634405"><ele>856.4</ele><time>2026-04-19T09:02:34.001Z</time></trkpt><trkpt lat="44.044380935616445" lon="11.387683718095662"><ele>859.5999999999999</ele><time>2026-04-19T09:02:35.001Z</time></trkpt><trkpt lat="44.04440343747275" lon="11.387785174750439"><ele>862.8</ele><time>2026-04-19T09:02:36.001Z</time></trkpt><trkpt lat="44.044480364967896" lon="11.387849344042685"><ele>866.0</ele><time>2026-04-19T09:02:37.001Z</time></trkpt><trkpt lat="44.04458968326635" lon="11.387842452492317"><ele>866.0</ele><time>2026-04-19T09:02:38.001Z</time></trkpt><trkpt lat="44.044705335689656" lon="11.38779258822002"><ele>866.0</ele><time>2026-04-19T09:02:39.001Z</time></trkpt><trkpt lat="44.04483427542424" lon="11.387702287850345"><ele>866.0</ele><time>2026-04-19T09:02:40.001Z</time></trkpt><trkpt lat="44.0449997735363" lon="11.387590872796917"><ele>866.0</ele><time>2026-04-19T09:02:41.001Z</time></trkpt><trkpt lat="44.04516506028897" lon="11.387500934360368"><ele>867.6666666666667</ele><time>2026-04-19T09:02:42.001Z</time></trkpt><trkpt lat="44.0453312213678" lon="11.387449288396159"><ele>869.3333333333333</ele><time>2026-04-19T09:02:43.001Z</time></trkpt><trkpt lat="44.0454910444823" lon="11.387403734031194"><ele>871.0</ele><time>2026-04-19T09:02:44.001Z</time></trkpt><trkpt lat="44.04563570173514" lon="11.387375632736655"><ele>871.0</ele><time>2026-04-19T09:02:45.001Z</time></trkpt><trkpt lat="44.04574009250765" lon="11.38735979403659"><ele>871.0</ele><time>2026-04-19T09:02:46.001Z</time></trkpt><trkpt lat="44.0458488296677" lon="11.38736965360597"><ele>871.0</ele><time>2026-04-19T09:02:47.001Z</time></trkpt><trkpt lat="44.04597455512444" lon="11.387475273484581"><ele>871.0</ele><time>2026-04-19T09:02:48Z</time></trkpt><trkpt lat="44.046107994743984" lon="11.387588162708738"><ele>872.6666666666666</ele><time>2026-04-19T09:02:49Z</time></trkpt><trkpt lat="44.04625977232151" lon="11.387710624049928"><ele>874.3333333333333</ele><time>2026-04-19T09:02:50Z</time></trkpt><trkpt lat="44.04641498739074" lon="11.387804486744507"><ele>876.0</ele><time>2026-04-19T09:02:51Z</time></trkpt><trkpt lat="44.046557885945866" lon="11.387902257779206"><ele>877.25</ele><time>2026-04-19T09:02:52Z</time></trkpt><trkpt lat="44.04668510626581" lon="11.387981625703274"><ele>878.5</ele><time>2026-04-19T09:02:53Z</time></trkpt><trkpt lat="44.04679422461905" lon="11.388043053538064"><ele>879.75</ele><time>2026-04-19T09:02:54Z</time></trkpt><trkpt lat="44.04688744963245" lon="11.38810707691639"><ele>881.0</ele><time>2026-04-19T09:02:55Z</time></trkpt><trkpt lat="44.04697055516667" lon="11.388175777180487"><ele>881.0000000000001</ele><time>2026-04-19T09:02:56Z</time></trkpt><trkpt lat="44.04702843506784" lon="11.388233219506793"><ele>881.0</ele><time>2026-04-19T09:02:57Z</time></trkpt><trkpt lat="44.04705609219323" lon="11.38832182757243"><ele>881.0</ele><time>2026-04-19T09:02:59Z</time></trkpt><trkpt lat="44.04706142886443" lon="11.388429934970356"><ele>881.0</ele><time>2026-04-19T09:03:02Z</time></trkpt><trkpt lat="44.047091664205695" lon="11.388328695711564"><ele>881.0000000000001</ele><time>2026-04-19T09:03:08Z</time></trkpt><trkpt lat="44.04705370659278" lon="11.388256918301593"><ele>881.0</ele><time>2026-04-19T09:03:10Z</time></trkpt><trkpt lat="44.046994450600785" lon="11.388157874238418"><ele>881.0</ele><time>2026-04-19T09:03:12Z</time></trkpt><trkpt lat="44.04690604277213" lon="11.388096977300043"><ele>881.0</ele><time>2026-04-19T09:03:15Z</time></trkpt><trkpt lat="44.04684228614675" lon="11.388043483151334"><ele>881.0</ele><time>2026-04-19T09:03:17Z</time></trkpt><trkpt lat="44.04679235484723" lon="11.387955885910799"><ele>882.0</ele><time>2026-04-19T09:03:20Z</time></trkpt><trkpt lat="44.046773956455816" lon="11.387869864446262"><ele>882.0</ele><time>2026-04-19T09:03:23Z</time></trkpt></trkseg></trk></gpx>